<?xml version='1.0' encoding='UTF-8'?><gpx version="1.1" creator="JPX - https://github.com/jenetics/jpx" xmlns="http://www.topografix.com/GPX/1/1"><trk><trkseg><trkpt lat="45.72261458247782" lon="8.606678600042782"><ele>203.00000000000003</ele><time>2026-05-03T10:36:43.005Z</time></trkpt><trkpt lat="45.722586614341886" lon="8.60678325266926"><ele>203.0</ele><time>2026-05-03T10:36:58.001Z</time></trkpt><trkpt lat="45.722620749404705" lon="8.606704654599415"><ele>203.0</ele><time>2026-05-03T10:37:42Z</time></trkpt><trkpt lat="45.72258056937834" lon="8.606786978946815"><ele>203.0</ele><time>2026-05-03T10:38:46Z</time></trkpt><trkpt lat="45.72261718430788" lon="8.606922892672694"><ele>203.00000000000003</ele><time>2026-05-03T10:38:48Z</time></trkpt><trkpt lat="45.72263353001682" lon="8.607010996285766"><ele>203.0</ele><time>2026-05-03T10:38:49Z</time></trkpt><trkpt lat="45.722656643627005" lon="8.607122789009901"><ele>203.0</ele><time>2026-05-03T10:38:50Z</time></trkpt><trkpt lat="45.72265447685925" lon="8.607231294418863"><ele>203.0</ele><time>2026-05-03T10:38:51Z</time></trkpt><trkpt lat="45.72267928642466" lon="8.607340378048532"><ele>203.0</ele><time>2026-05-03T10:38:52Z</time></trkpt><trkpt lat="45.722708708919804" lon="8.607469744063703"><ele>203.0</ele><time>2026-05-03T10:38:53Z</time></trkpt><trkpt lat="45.72276972412253" lon="8.607598026186542"><ele>203.0</ele><time>2026-05-03T10:38:54Z</time></trkpt><trkpt lat="45.722796109084655" lon="8.607739525749635"><ele>202.4</ele><time>2026-05-03T10:38:55Z</time></trkpt><trkpt lat="45.722827351287776" lon="8.60788243518882"><ele>201.8</ele><time>2026-05-03T10:38:56Z</time></trkpt><trkpt lat="45.72289199073457" lon="8.60801339551768"><ele>201.2</ele><time>2026-05-03T10:38:57Z</time></trkpt><trkpt lat="45.72295440160981" lon="8.608124956350515"><ele>200.6</ele><time>2026-05-03T10:38:58Z</time></trkpt><trkpt lat="45.72300090642015" lon="8.608227024631008"><ele>200.0</ele><time>2026-05-03T10:38:59Z</time></trkpt><trkpt lat="45.723040991920655" lon="8.608321085499401"><ele>200.0</ele><time>2026-05-03T10:39:00Z</time></trkpt><trkpt lat="45.72307018279968" lon="8.60845314789788"><ele>200.0</ele><time>2026-05-03T10:39:02Z</time></trkpt><trkpt lat="45.72296438846671" lon="8.60859566163796"><ele>200.0</ele><time>2026-05-03T10:39:04Z</time></trkpt><trkpt lat="45.72287896432856" lon="8.608644751074182"><ele>200.0</ele><time>2026-05-03T10:39:04.999Z</time></trkpt><trkpt lat="45.722789269439204" lon="8.608689795654026"><ele>200.0</ele><time>2026-05-03T10:39:05.999Z</time></trkpt><trkpt lat="45.72269455230924" lon="8.608765213534038"><ele>200.5</ele><time>2026-05-03T10:39:06.999Z</time></trkpt><trkpt lat="45.7226184879614" lon="8.608867524086843"><ele>201.0</ele><time>2026-05-03T10:39:07.999Z</time></trkpt><trkpt lat="45.72252103558547" lon="8.60897704002647"><ele>201.5</ele><time>2026-05-03T10:39:08.999Z</time></trkpt><trkpt lat="45.722420531846254" lon="8.609070073327818"><ele>202.0</ele><time>2026-05-03T10:39:09.999Z</time></trkpt><trkpt lat="45.72231874660697" lon="8.609163447499244"><ele>202.0</ele><time>2026-05-03T10:39:10.999Z</time></trkpt><trkpt lat="45.722211420039905" lon="8.609248900463484"><ele>202.0</ele><time>2026-05-03T10:39:11.999Z</time></trkpt><trkpt lat="45.72210510000307" lon="8.609331043167739"><ele>202.0</ele><time>2026-05-03T10:39:12.999Z</time></trkpt><trkpt lat="45.72199613612473" lon="8.609428723420981"><ele>202.0</ele><time>2026-05-03T10:39:13.999Z</time></trkpt><trkpt lat="45.721900783386154" lon="8.609531032500113"><ele>202.39999999999998</ele><time>2026-05-03T10:39:14.999Z</time></trkpt><trkpt lat="45.72180961838078" lon="8.609618609041156"><ele>202.79999999999998</ele><time>2026-05-03T10:39:15.999Z</time></trkpt><trkpt lat="45.72170763793805" lon="8.60965775572686"><ele>203.2</ele><time>2026-05-03T10:39:16.999Z</time></trkpt><trkpt lat="45.72163274710222" lon="8.60971923331046"><ele>203.6</ele><time>2026-05-03T10:39:17.999Z</time></trkpt><trkpt lat="45.72156608450747" lon="8.609755794930317"><ele>204.0</ele><time>2026-05-03T10:39:18.999Z</time></trkpt><trkpt lat="45.721472976956015" lon="8.609807083222154"><ele>204.0</ele><time>2026-05-03T10:39:19.999Z</time></trkpt><trkpt lat="45.72139615746876" lon="8.609937131307507"><ele>204.0</ele><time>2026-05-03T10:39:20.999Z</time></trkpt><trkpt lat="45.7213076264759" lon="8.61005664014716"><ele>204.0</ele><time>2026-05-03T10:39:21.999Z</time></trkpt><trkpt lat="45.72121879429974" lon="8.610166096728474"><ele>204.0</ele><time>2026-05-03T10:39:22.999Z</time></trkpt><trkpt lat="45.721116220429295" lon="8.610265685682146"><ele>204.75</ele><time>2026-05-03T10:39:23.999Z</time></trkpt><trkpt lat="45.72100319949086" lon="8.610360561765743"><ele>205.5</ele><time>2026-05-03T10:39:24.999Z</time></trkpt><trkpt lat="45.72089134243519" lon="8.610452773642107"><ele>206.25</ele><time>2026-05-03T10:39:25.999Z</time></trkpt><trkpt lat="45.72075541010614" lon="8.610509074929572"><ele>207.0</ele><time>2026-05-03T10:39:26.999Z</time></trkpt><trkpt lat="45.720638323152706" lon="8.610617277151627"><ele>207.0</ele><time>2026-05-03T10:39:27.999Z</time></trkpt><trkpt lat="45.72051488651068" lon="8.610730908402628"><ele>207.0</ele><time>2026-05-03T10:39:28.999Z</time></trkpt><trkpt lat="45.72039461790858" lon="8.610840149907277"><ele>207.0</ele><time>2026-05-03T10:39:29.999Z</time></trkpt><trkpt lat="45.72028093215876" lon="8.610958831758502"><ele>207.0</ele><time>2026-05-03T10:39:30.999Z</time></trkpt><trkpt lat="45.720170325866455" lon="8.611064848349562"><ele>207.39999999999998</ele><time>2026-05-03T10:39:31.999Z</time></trkpt><trkpt lat="45.720066577306" lon="8.611161405252608"><ele>207.79999999999998</ele><time>2026-05-03T10:39:32.999Z</time></trkpt><trkpt lat="45.719980724754954" lon="8.611261799880053"><ele>208.2</ele><time>2026-05-03T10:39:33.999Z</time></trkpt><trkpt lat="45.71991873649511" lon="8.611386639605405"><ele>208.6</ele><time>2026-05-03T10:39:34.999Z</time></trkpt><trkpt lat="45.71987972473459" lon="8.61152032404473"><ele>209.0</ele><time>2026-05-03T10:39:35.999Z</time></trkpt><trkpt lat="45.71983232842712" lon="8.611649661615376"><ele>209.00000000000003</ele><time>2026-05-03T10:39:36.999Z</time></trkpt><trkpt lat="45.71978765257794" lon="8.611734707035794"><ele>209.0</ele><time>2026-05-03T10:39:37.999Z</time></trkpt><trkpt lat="45.71969270196851" lon="8.611746499502226"><ele>209.0</ele><time>2026-05-03T10:39:38.999Z</time></trkpt><trkpt lat="45.71962311560024" lon="8.611809338414847"><ele>209.0</ele><time>2026-05-03T10:39:39.999Z</time></trkpt><trkpt lat="45.719574468208734" lon="8.611901834559868"><ele>209.00000000000003</ele><time>2026-05-03T10:39:40.999Z</time></trkpt><trkpt lat="45.71955638284941" lon="8.612014005052178"><ele>209.0</ele><time>2026-05-03T10:39:41.999Z</time></trkpt><trkpt lat="45.719570393755774" lon="8.612153583100703"><ele>209.0</ele><time>2026-05-03T10:39:42.999Z</time></trkpt><trkpt lat="45.71960113041924" lon="8.612314066759206"><ele>209.0</ele><time>2026-05-03T10:39:43.999Z</time></trkpt><trkpt lat="45.71960967677099" lon="8.612485473000778"><ele>209.0</ele><time>2026-05-03T10:39:44.999Z</time></trkpt><trkpt lat="45.719601537544456" lon="8.612668915646928"><ele>209.0</ele><time>2026-05-03T10:39:45.999Z</time></trkpt><trkpt lat="45.71959794305974" lon="8.612860111071901"><ele>209.0</ele><time>2026-05-03T10:39:46.999Z</time></trkpt><trkpt lat="45.71959830045104" lon="8.613032292609333"><ele>209.0</ele><time>2026-05-03T10:39:47.999Z</time></trkpt><trkpt lat="45.719605180300626" lon="8.613184703509912"><ele>209.0</ele><time>2026-05-03T10:39:48.999Z</time></trkpt><trkpt lat="45.719609855440645" lon="8.613338660480636"><ele>209.0</ele><time>2026-05-03T10:39:49.999Z</time></trkpt><trkpt lat="45.7196174318237" lon="8.613501881487675"><ele>209.0</ele><time>2026-05-03T10:39:50.999Z</time></trkpt><trkpt lat="45.7196257380744" lon="8.613672535835564"><ele>209.0</ele><time>2026-05-03T10:39:51.999Z</time></trkpt><trkpt lat="45.719637351493645" lon="8.613844396621744"><ele>209.0</ele><time>2026-05-03T10:39:52.999Z</time></trkpt><trkpt lat="45.719644831816666" lon="8.614009789561988"><ele>209.0</ele><time>2026-05-03T10:39:53.999Z</time></trkpt><trkpt lat="45.719648442189936" lon="8.61416759702603"><ele>209.0</ele><time>2026-05-03T10:39:54.999Z</time></trkpt><trkpt lat="45.71962438640712" lon="8.614315585748585"><ele>209.0</ele><time>2026-05-03T10:39:55.999Z</time></trkpt><trkpt lat="45.71965263680389" lon="8.614454932850629"><ele>209.0</ele><time>2026-05-03T10:39:56.999Z</time></trkpt><trkpt lat="45.71965479850321" lon="8.61459280951401"><ele>209.0</ele><time>2026-05-03T10:39:57.999Z</time></trkpt><trkpt lat="45.71965629306126" lon="8.614738444354208"><ele>209.0</ele><time>2026-05-03T10:39:58.999Z</time></trkpt><trkpt lat="45.71965611608481" lon="8.614892175276262"><ele>209.0</ele><time>2026-05-03T10:39:59.999Z</time></trkpt><trkpt lat="45.71963717120404" lon="8.615050516677089"><ele>209.25</ele><time>2026-05-03T10:40:00.999Z</time></trkpt><trkpt lat="45.719654128578284" lon="8.615232238620985"><ele>209.5</ele><time>2026-05-03T10:40:01.999Z</time></trkpt><trkpt lat="45.71964722457454" lon="8.615423591914597"><ele>209.75</ele><time>2026-05-03T10:40:02.999Z</time></trkpt><trkpt lat="45.71963271738335" lon="8.61562450044734"><ele>210.0</ele><time>2026-05-03T10:40:03.999Z</time></trkpt><trkpt lat="45.719631802268374" lon="8.615810101005351"><ele>210.2</ele><time>2026-05-03T10:40:04.999Z</time></trkpt><trkpt lat="45.71963049020835" lon="8.615980606116306"><ele>210.4</ele><time>2026-05-03T10:40:05.999Z</time></trkpt><trkpt lat="45.71962631339313" lon="8.616131532622635"><ele>210.60000000000002</ele><time>2026-05-03T10:40:06.999Z</time></trkpt><trkpt lat="45.71959976983583" lon="8.616263229984757"><ele>210.8</ele><time>2026-05-03T10:40:07.999Z</time></trkpt><trkpt lat="45.71955390503822" lon="8.616366346002023"><ele>211.0</ele><time>2026-05-03T10:40:08.999Z</time></trkpt><trkpt lat="45.719499070062476" lon="8.616462400253805"><ele>210.83333333333331</ele><time>2026-05-03T10:40:09.999Z</time></trkpt><trkpt lat="45.71946520318784" lon="8.616564198122129"><ele>210.66666666666666</ele><time>2026-05-03T10:40:10.999Z</time></trkpt><trkpt lat="45.71945848385199" lon="8.616654177328718"><ele>210.5</ele><time>2026-05-03T10:40:11.999Z</time></trkpt><trkpt lat="45.71953388243741" lon="8.616788866701771"><ele>210.33333333333331</ele><time>2026-05-03T10:40:13.999Z</time></trkpt><trkpt lat="45.71959500448191" lon="8.61684593765201"><ele>210.16666666666666</ele><time>2026-05-03T10:40:14.999Z</time></trkpt><trkpt lat="45.71964490347964" lon="8.616911628896137"><ele>210.0</ele><time>2026-05-03T10:40:15.999Z</time></trkpt><trkpt lat="45.71965297780967" lon="8.617015642819108"><ele>210.0</ele><time>2026-05-03T10:40:16.999Z</time></trkpt><trkpt lat="45.71966839011886" lon="8.617122779388346"><ele>210.0</ele><time>2026-05-03T10:40:17.999Z</time></trkpt><trkpt lat="45.71967097048999" lon="8.617237454715832"><ele>210.0</ele><time>2026-05-03T10:40:18.999Z</time></trkpt><trkpt lat="45.71967403425876" lon="8.61736787212457"><ele>210.0</ele><time>2026-05-03T10:40:19.999Z</time></trkpt><trkpt lat="45.71967849141397" lon="8.617513724608282"><ele>210.0</ele><time>2026-05-03T10:40:20.999Z</time></trkpt><trkpt lat="45.71968317399173" lon="8.617666954525008"><ele>210.0</ele><time>2026-05-03T10:40:21.999Z</time></trkpt><trkpt lat="45.719689329612876" lon="8.617814535165216"><ele>210.0</ele><time>2026-05-03T10:40:22.999Z</time></trkpt><trkpt lat="45.71969397157704" lon="8.617961346184952"><ele>210.0</ele><time>2026-05-03T10:40:23.999Z</time></trkpt><trkpt lat="45.71969818649585" lon="8.61809416244604"><ele>210.0</ele><time>2026-05-03T10:40:24.999Z</time></trkpt><trkpt lat="45.71970199103658" lon="8.618214047936224"><ele>210.0</ele><time>2026-05-03T10:40:25.999Z</time></trkpt><trkpt lat="45.719774741096536" lon="8.618321666702961"><ele>210.0</ele><time>2026-05-03T10:40:26.999Z</time></trkpt><trkpt lat="45.7198023381681" lon="8.618424334889774"><ele>210.0</ele><time>2026-05-03T10:40:27.999Z</time></trkpt><trkpt lat="45.71987882440544" lon="8.618536455415214"><ele>210.0</ele><time>2026-05-03T10:40:29.999Z</time></trkpt><trkpt lat="45.71994539140291" lon="8.618598924795604"><ele>210.0</ele><time>2026-05-03T10:40:31.999Z</time></trkpt><trkpt lat="45.719917133820815" lon="8.618429918739052"><ele>210.0</ele><time>2026-05-03T10:40:33.999Z</time></trkpt><trkpt lat="45.71985701818021" lon="8.618333833337017"><ele>210.0</ele><time>2026-05-03T10:43:24.998Z</time></trkpt><trkpt lat="45.719784259897644" lon="8.618303414510045"><ele>210.0</ele><time>2026-05-03T10:43:27.998Z</time></trkpt><trkpt lat="45.7198101940031" lon="8.618539217032266"><ele>210.0</ele><time>2026-05-03T10:43:30.998Z</time></trkpt><trkpt lat="45.719712356949024" lon="8.61871026584783"><ele>210.0</ele><time>2026-05-03T10:43:31.998Z</time></trkpt><trkpt lat="45.71973268036877" lon="8.618877922705208"><ele>209.75</ele><time>2026-05-03T10:43:32.998Z</time></trkpt><trkpt lat="45.71973438624296" lon="8.619070367779425"><ele>209.5</ele><time>2026-05-03T10:43:33.998Z</time></trkpt><trkpt lat="45.71973773337625" lon="8.619273783310696"><ele>209.25</ele><time>2026-05-03T10:43:34.998Z</time></trkpt><trkpt lat="45.719737966462034" lon="8.619483867243117"><ele>209.0</ele><time>2026-05-03T10:43:35.998Z</time></trkpt><trkpt lat="45.71974244446781" lon="8.619682526049509"><ele>209.0</ele><time>2026-05-03T10:43:36.998Z</time></trkpt><trkpt lat="45.719745000232116" lon="8.619890993221787"><ele>209.0</ele><time>2026-05-03T10:43:37.998Z</time></trkpt><trkpt lat="45.7197479512414" lon="8.620098877902374"><ele>209.0</ele><time>2026-05-03T10:43:38.998Z</time></trkpt><trkpt lat="45.71975035745725" lon="8.620308086240133"><ele>209.0</ele><time>2026-05-03T10:43:39.998Z</time></trkpt><trkpt lat="45.71975123867498" lon="8.620516035283439"><ele>209.0</ele><time>2026-05-03T10:43:40.998Z</time></trkpt><trkpt lat="45.71975534849931" lon="8.620733628226816"><ele>209.0</ele><time>2026-05-03T10:43:41.998Z</time></trkpt><trkpt lat="45.71976288593775" lon="8.620948853942014"><ele>209.0</ele><time>2026-05-03T10:43:42.998Z</time></trkpt><trkpt lat="45.71976635268395" lon="8.621169354175342"><ele>209.0</ele><time>2026-05-03T10:43:43.998Z</time></trkpt><trkpt lat="45.719767969666904" lon="8.621385544255332"><ele>209.0</ele><time>2026-05-03T10:43:44.998Z</time></trkpt><trkpt lat="45.71977337080177" lon="8.621609779390676"><ele>209.0</ele><time>2026-05-03T10:43:45.998Z</time></trkpt><trkpt lat="45.71977505859764" lon="8.621831125676202"><ele>209.33333333333334</ele><time>2026-05-03T10:43:46.998Z</time></trkpt><trkpt lat="45.719779648886394" lon="8.622056654782734"><ele>209.66666666666669</ele><time>2026-05-03T10:43:47.998Z</time></trkpt><trkpt lat="45.71978031107069" lon="8.622287814890694"><ele>210.0</ele><time>2026-05-03T10:43:48.998Z</time></trkpt><trkpt lat="45.71978257002947" lon="8.62253199338163"><ele>210.0</ele><time>2026-05-03T10:43:49.998Z</time></trkpt><trkpt lat="45.71978581400042" lon="8.622780701068471"><ele>210.0</ele><time>2026-05-03T10:43:50.998Z</time></trkpt><trkpt lat="45.71979220540864" lon="8.62302493449857"><ele>210.0</ele><time>2026-05-03T10:43:51.998Z</time></trkpt><trkpt lat="45.71980389563801" lon="8.62326420962768"><ele>210.0</ele><time>2026-05-03T10:43:52.998Z</time></trkpt><trkpt lat="45.7198131824968" lon="8.623504407404653"><ele>210.0</ele><time>2026-05-03T10:43:53.998Z</time></trkpt><trkpt lat="45.71981906510315" lon="8.623727352709055"><ele>210.0</ele><time>2026-05-03T10:43:54.998Z</time></trkpt><trkpt lat="45.71982196208824" lon="8.623957810609696"><ele>210.33333333333331</ele><time>2026-05-03T10:43:55.998Z</time></trkpt><trkpt lat="45.71982471474316" lon="8.624194389348837"><ele>210.66666666666666</ele><time>2026-05-03T10:43:56.998Z</time></trkpt><trkpt lat="45.7198358581257" lon="8.624429951145707"><ele>211.0</ele><time>2026-05-03T10:43:57.998Z</time></trkpt><trkpt lat="45.71985127239925" lon="8.624659367738388"><ele>210.5</ele><time>2026-05-03T10:43:58.998Z</time></trkpt><trkpt lat="45.71986420276556" lon="8.624888841344534"><ele>210.0</ele><time>2026-05-03T10:43:59.998Z</time></trkpt><trkpt lat="45.719876500989564" lon="8.625084405087568"><ele>209.5</ele><time>2026-05-03T10:44:00.998Z</time></trkpt><trkpt lat="45.71987800256787" lon="8.625243560932374"><ele>209.0</ele><time>2026-05-03T10:44:01.998Z</time></trkpt><trkpt lat="45.7198617494475" lon="8.625383445801459"><ele>208.39999999999998</ele><time>2026-05-03T10:44:02.998Z</time></trkpt><trkpt lat="45.71978242910052" lon="8.625460308599767"><ele>207.8</ele><time>2026-05-03T10:44:03.998Z</time></trkpt><trkpt lat="45.719760449880226" lon="8.62561670373203"><ele>207.2</ele><time>2026-05-03T10:44:05.998Z</time></trkpt><trkpt lat="45.71985385890852" lon="8.6257343564526"><ele>206.60000000000002</ele><time>2026-05-03T10:44:07.998Z</time></trkpt><trkpt lat="45.719921647190105" lon="8.625744813941157"><ele>206.0</ele><time>2026-05-03T10:44:08.998Z</time></trkpt><trkpt lat="45.71999182332632" lon="8.625753142470039"><ele>206.0</ele><time>2026-05-03T10:44:09.998Z</time></trkpt><trkpt lat="45.72005983380163" lon="8.625788106270937"><ele>206.0</ele><time>2026-05-03T10:44:10.998Z</time></trkpt><trkpt lat="45.72009258034141" lon="8.625889348601692"><ele>206.0</ele><time>2026-05-03T10:44:11.998Z</time></trkpt><trkpt lat="45.72019965820222" lon="8.626009053997175"><ele>206.0</ele><time>2026-05-03T10:44:12.998Z</time></trkpt><trkpt lat="45.720320164248946" lon="8.626126236065206"><ele>206.0</ele><time>2026-05-03T10:44:13.998Z</time></trkpt><trkpt lat="45.72044701459138" lon="8.626238937585185"><ele>205.66666666666669</ele><time>2026-05-03T10:44:14.998Z</time></trkpt><trkpt lat="45.720566107259685" lon="8.62633976730134"><ele>205.33333333333331</ele><time>2026-05-03T10:44:15.998Z</time></trkpt><trkpt lat="45.720718259031436" lon="8.626449373565356"><ele>205.0</ele><time>2026-05-03T10:44:16.998Z</time></trkpt><trkpt lat="45.720882694473175" lon="8.626553156040563"><ele>205.0</ele><time>2026-05-03T10:44:17.998Z</time></trkpt><trkpt lat="45.72103432317131" lon="8.626658714464867"><ele>205.0</ele><time>2026-05-03T10:44:18.998Z</time></trkpt><trkpt lat="45.72116092314116" lon="8.626797126306421"><ele>205.0</ele><time>2026-05-03T10:44:19.998Z</time></trkpt><trkpt lat="45.72128626433139" lon="8.626919972542852"><ele>201.66666666666666</ele><time>2026-05-03T10:44:20.998Z</time></trkpt><trkpt lat="45.72143345771434" lon="8.627011824337554"><ele>198.33333333333331</ele><time>2026-05-03T10:44:21.998Z</time></trkpt><trkpt lat="45.72160031335875" lon="8.627074770397853"><ele>195.0</ele><time>2026-05-03T10:44:22.998Z</time></trkpt><trkpt lat="45.721781019870704" lon="8.627092998241627"><ele>193.66666666666666</ele><time>2026-05-03T10:44:23.998Z</time></trkpt><trkpt lat="45.72194560148792" lon="8.627122820973263"><ele>192.33333333333331</ele><time>2026-05-03T10:44:24.998Z</time></trkpt><trkpt lat="45.72211799797746" lon="8.627150856750472"><ele>191.0</ele><time>2026-05-03T10:44:25.998Z</time></trkpt><trkpt lat="45.72229174132283" lon="8.627195737723225"><ele>191.0</ele><time>2026-05-03T10:44:26.998Z</time></trkpt><trkpt lat="45.72246320896463" lon="8.627240545306584"><ele>191.0</ele><time>2026-05-03T10:44:27.998Z</time></trkpt><trkpt lat="45.7226361915364" lon="8.627279597398015"><ele>191.0</ele><time>2026-05-03T10:44:28.998Z</time></trkpt><trkpt lat="45.7228089764414" lon="8.627343457891861"><ele>193.0</ele><time>2026-05-03T10:44:29.998Z</time></trkpt><trkpt lat="45.72298234088485" lon="8.627390209971052"><ele>195.0</ele><time>2026-05-03T10:44:30.998Z</time></trkpt><trkpt lat="45.72315857324802" lon="8.62743773542817"><ele>197.0</ele><time>2026-05-03T10:44:31.998Z</time></trkpt><trkpt lat="45.72333829490115" lon="8.627486201866787"><ele>197.0</ele><time>2026-05-03T10:44:32.998Z</time></trkpt><trkpt lat="45.72351483155845" lon="8.627533125097615"><ele>197.0</ele><time>2026-05-03T10:44:33.998Z</time></trkpt><trkpt lat="45.72367725815526" lon="8.627576211619397"><ele>197.0</ele><time>2026-05-03T10:44:34.998Z</time></trkpt><trkpt lat="45.72381653599282" lon="8.62761855272458"><ele>198.25</ele><time>2026-05-03T10:44:35.998Z</time></trkpt><trkpt lat="45.72391917074018" lon="8.627673698590394"><ele>199.5</ele><time>2026-05-03T10:44:36.998Z</time></trkpt><trkpt lat="45.724004968007584" lon="8.627772571991631"><ele>200.75</ele><time>2026-05-03T10:44:37.998Z</time></trkpt><trkpt lat="45.724082307336104" lon="8.62790727375675"><ele>202.0</ele><time>2026-05-03T10:44:38.998Z</time></trkpt><trkpt lat="45.72413429643095" lon="8.628065691191395"><ele>202.5</ele><time>2026-05-03T10:44:39.998Z</time></trkpt><trkpt lat="45.72418602358819" lon="8.62824781507047"><ele>203.0</ele><time>2026-05-03T10:44:40.998Z</time></trkpt><trkpt lat="45.72422560050514" lon="8.628448746898194"><ele>203.5</ele><time>2026-05-03T10:44:41.998Z</time></trkpt><trkpt lat="45.72427709276892" lon="8.628648817855522"><ele>204.0</ele><time>2026-05-03T10:44:42.998Z</time></trkpt><trkpt lat="45.72432511309955" lon="8.628841076301155"><ele>204.0</ele><time>2026-05-03T10:44:43.998Z</time></trkpt><trkpt lat="45.724364731503776" lon="8.629009794405832"><ele>204.0</ele><time>2026-05-03T10:44:44.998Z</time></trkpt><trkpt lat="45.7243980981783" lon="8.629156862952364"><ele>204.0</ele><time>2026-05-03T10:44:45.998Z</time></trkpt><trkpt lat="45.72442408603215" lon="8.629276096179625"><ele>204.0</ele><time>2026-05-03T10:44:46.998Z</time></trkpt><trkpt lat="45.72444028259504" lon="8.629377425296678"><ele>204.0</ele><time>2026-05-03T10:44:47.998Z</time></trkpt><trkpt lat="45.7244638706799" lon="8.62955599854745"><ele>204.5</ele><time>2026-05-03T10:44:49.998Z</time></trkpt><trkpt lat="45.72448786802215" lon="8.629660580017793"><ele>205.0</ele><time>2026-05-03T10:44:50.998Z</time></trkpt><trkpt lat="45.72453195266202" lon="8.62973572670987"><ele>205.5</ele><time>2026-05-03T10:44:51.998Z</time></trkpt><trkpt lat="45.7246035534191" lon="8.6297988784808"><ele>206.0</ele><time>2026-05-03T10:44:52.998Z</time></trkpt><trkpt lat="45.72465091182604" lon="8.629890889109658"><ele>206.5</ele><time>2026-05-03T10:44:53.998Z</time></trkpt><trkpt lat="45.7246873098523" lon="8.629999704404197"><ele>207.0</ele><time>2026-05-03T10:44:54.998Z</time></trkpt><trkpt lat="45.724733140257584" lon="8.63012706279749"><ele>207.0</ele><time>2026-05-03T10:44:55.998Z</time></trkpt><trkpt lat="45.724783257098586" lon="8.630282557201202"><ele>207.0</ele><time>2026-05-03T10:44:56.998Z</time></trkpt><trkpt lat="45.72483827224952" lon="8.630458439268875"><ele>207.0</ele><time>2026-05-03T10:44:57.998Z</time></trkpt><trkpt lat="45.724890864242866" lon="8.630649625965178"><ele>207.0</ele><time>2026-05-03T10:44:58.998Z</time></trkpt><trkpt lat="45.724943211446174" lon="8.630830331094861"><ele>206.0</ele><time>2026-05-03T10:44:59.998Z</time></trkpt><trkpt lat="45.7249903227823" lon="8.63100868066844"><ele>205.0</ele><time>2026-05-03T10:45:00.998Z</time></trkpt><trkpt lat="45.72503734283662" lon="8.631165114885523"><ele>204.0</ele><time>2026-05-03T10:45:01.998Z</time></trkpt><trkpt lat="45.725075295063014" lon="8.631314705177093"><ele>203.0</ele><time>2026-05-03T10:45:02.998Z</time></trkpt><trkpt lat="45.72511839140216" lon="8.63144929946867"><ele>203.00000000000003</ele><time>2026-05-03T10:45:03.998Z</time></trkpt><trkpt lat="45.72515533488163" lon="8.631575654427388"><ele>203.0</ele><time>2026-05-03T10:45:04.998Z</time></trkpt><trkpt lat="45.72519620362935" lon="8.631695206374973"><ele>203.0</ele><time>2026-05-03T10:45:05.998Z</time></trkpt><trkpt lat="45.725224373157126" lon="8.631795484770484"><ele>203.0</ele><time>2026-05-03T10:45:06.998Z</time></trkpt><trkpt lat="45.725245772110476" lon="8.631886372263322"><ele>203.00000000000003</ele><time>2026-05-03T10:45:08.998Z</time></trkpt><trkpt lat="45.72524709878524" lon="8.632017898223818"><ele>203.0</ele><time>2026-05-03T10:45:11.998Z</time></trkpt><trkpt lat="45.72525260301378" lon="8.632110102902248"><ele>203.2</ele><time>2026-05-03T10:45:12.998Z</time></trkpt><trkpt lat="45.72526354785929" lon="8.632215064415353"><ele>203.4</ele><time>2026-05-03T10:45:13.998Z</time></trkpt><trkpt lat="45.725249091227916" lon="8.632349933258162"><ele>203.6</ele><time>2026-05-03T10:45:14.998Z</time></trkpt><trkpt lat="45.72531544148435" lon="8.632456804935932"><ele>203.79999999999998</ele><time>2026-05-03T10:45:15.998Z</time></trkpt><trkpt lat="45.725368699769255" lon="8.632589893540434"><ele>204.0</ele><time>2026-05-03T10:45:16.998Z</time></trkpt><trkpt lat="45.725415562367914" lon="8.632738483426813"><ele>204.75</ele><time>2026-05-03T10:45:17.998Z</time></trkpt><trkpt lat="45.725454150577434" lon="8.632898667175674"><ele>205.5</ele><time>2026-05-03T10:45:18.998Z</time></trkpt><trkpt lat="45.72549571377498" lon="8.633070234572191"><ele>206.25</ele><time>2026-05-03T10:45:19.998Z</time></trkpt><trkpt lat="45.725512082073166" lon="8.633254571049202"><ele>207.0</ele><time>2026-05-03T10:45:20.998Z</time></trkpt><trkpt lat="45.72554232248263" lon="8.633429229550627"><ele>207.0</ele><time>2026-05-03T10:45:21.998Z</time></trkpt><trkpt lat="45.725569003443724" lon="8.633605558752082"><ele>207.0</ele><time>2026-05-03T10:45:22.998Z</time></trkpt><trkpt lat="45.72558520959391" lon="8.633786043754947"><ele>207.0</ele><time>2026-05-03T10:45:23.998Z</time></trkpt><trkpt lat="45.72560717406175" lon="8.633959409745135"><ele>207.0</ele><time>2026-05-03T10:45:24.998Z</time></trkpt><trkpt lat="45.72563516922418" lon="8.634106950674148"><ele>206.8</ele><time>2026-05-03T10:45:25.998Z</time></trkpt><trkpt lat="45.72564936600398" lon="8.634229439017956"><ele>206.6</ele><time>2026-05-03T10:45:26.998Z</time></trkpt><trkpt lat="45.72566846453391" lon="8.634358449585145"><ele>206.4</ele><time>2026-05-03T10:45:28.998Z</time></trkpt><trkpt lat="45.72566474846972" lon="8.6342445407095"><ele>206.20000000000002</ele><time>2026-05-03T10:45:33.998Z</time></trkpt><trkpt lat="45.72564127436386" lon="8.63409847842391"><ele>206.0</ele><time>2026-05-03T10:45:34.998Z</time></trkpt><trkpt lat="45.72561813674537" lon="8.633922425922165"><ele>206.0</ele><time>2026-05-03T10:45:35.998Z</time></trkpt><trkpt lat="45.725601889502855" lon="8.633731528903773"><ele>206.0</ele><time>2026-05-03T10:45:36.998Z</time></trkpt><trkpt lat="45.725584799153594" lon="8.633541912492369"><ele>206.0</ele><time>2026-05-03T10:45:37.998Z</time></trkpt><trkpt lat="45.72556186455012" lon="8.633369800102585"><ele>206.0</ele><time>2026-05-03T10:45:38.998Z</time></trkpt><trkpt lat="45.725543398372075" lon="8.633205264780495"><ele>206.20000000000002</ele><time>2026-05-03T10:45:39.998Z</time></trkpt><trkpt lat="45.725522404546034" lon="8.63304575517832"><ele>206.4</ele><time>2026-05-03T10:45:40.998Z</time></trkpt><trkpt lat="45.72549284821612" lon="8.63289542434509"><ele>206.6</ele><time>2026-05-03T10:45:41.998Z</time></trkpt><trkpt lat="45.72546912394618" lon="8.63275572008317"><ele>206.8</ele><time>2026-05-03T10:45:42.998Z</time></trkpt><trkpt lat="45.725449158007294" lon="8.632643671562626"><ele>207.0</ele><time>2026-05-03T10:45:43.998Z</time></trkpt><trkpt lat="45.72543879540947" lon="8.632493426895845"><ele>206.39999999999998</ele><time>2026-05-03T10:45:45.998Z</time></trkpt><trkpt lat="45.72544261490489" lon="8.632384634430837"><ele>205.79999999999998</ele><time>2026-05-03T10:45:47.998Z</time></trkpt><trkpt lat="45.7255918139295" lon="8.632369056686734"><ele>205.2</ele><time>2026-05-03T10:45:48.998Z</time></trkpt><trkpt lat="45.725685289555024" lon="8.63237915715469"><ele>204.6</ele><time>2026-05-03T10:45:49.998Z</time></trkpt><trkpt lat="45.72579653546327" lon="8.632423499928592"><ele>204.0</ele><time>2026-05-03T10:45:50.998Z</time></trkpt><trkpt lat="45.72592267284815" lon="8.632466549620819"><ele>204.0</ele><time>2026-05-03T10:45:51.998Z</time></trkpt><trkpt lat="45.7260587273141" lon="8.632502869528729"><ele>204.0</ele><time>2026-05-03T10:45:52.998Z</time></trkpt><trkpt lat="45.72620969369926" lon="8.632531653365747"><ele>204.0</ele><time>2026-05-03T10:45:53.997Z</time></trkpt><trkpt lat="45.7263626243379" lon="8.63254113589766"><ele>204.0</ele><time>2026-05-03T10:45:54.997Z</time></trkpt><trkpt lat="45.72652792752942" lon="8.63255982189165"><ele>204.0</ele><time>2026-05-03T10:45:55.997Z</time></trkpt><trkpt lat="45.72670187577817" lon="8.632571972252018"><ele>204.0</ele><time>2026-05-03T10:45:56.997Z</time></trkpt><trkpt lat="45.72687844933616" lon="8.632568648802486"><ele>204.0</ele><time>2026-05-03T10:45:57.997Z</time></trkpt><trkpt lat="45.72706603705738" lon="8.632560215247217"><ele>204.0</ele><time>2026-05-03T10:45:58.997Z</time></trkpt><trkpt lat="45.72725209970764" lon="8.632545709431993"><ele>204.0</ele><time>2026-05-03T10:45:59.997Z</time></trkpt><trkpt lat="45.72743586882004" lon="8.632534185391519"><ele>204.0</ele><time>2026-05-03T10:46:00.997Z</time></trkpt><trkpt lat="45.72761973445608" lon="8.632509979943412"><ele>205.0</ele><time>2026-05-03T10:46:01.997Z</time></trkpt><trkpt lat="45.72780055537919" lon="8.632487908342007"><ele>206.0</ele><time>2026-05-03T10:46:02.997Z</time></trkpt><trkpt lat="45.727981452862544" lon="8.63246704492377"><ele>207.0</ele><time>2026-05-03T10:46:03.997Z</time></trkpt><trkpt lat="45.728162632255945" lon="8.632436203558752"><ele>207.0</ele><time>2026-05-03T10:46:04.997Z</time></trkpt><trkpt lat="45.728352726195475" lon="8.632396910062727"><ele>207.0</ele><time>2026-05-03T10:46:05.997Z</time></trkpt><trkpt lat="45.72853106755944" lon="8.63236687092505"><ele>207.0</ele><time>2026-05-03T10:46:06.997Z</time></trkpt><trkpt lat="45.72871665170124" lon="8.6323472967505"><ele>208.33333333333331</ele><time>2026-05-03T10:46:07.997Z</time></trkpt><trkpt lat="45.72890303942944" lon="8.632331709107872"><ele>209.66666666666666</ele><time>2026-05-03T10:46:08.997Z</time></trkpt><trkpt lat="45.72908898705322" lon="8.632335461231964"><ele>211.0</ele><time>2026-05-03T10:46:09.997Z</time></trkpt><trkpt lat="45.72927076987244" lon="8.63235403840445"><ele>211.33333333333331</ele><time>2026-05-03T10:46:10.997Z</time></trkpt><trkpt lat="45.72945313366554" lon="8.632373423404005"><ele>211.66666666666669</ele><time>2026-05-03T10:46:11.997Z</time></trkpt><trkpt lat="45.7296202313619" lon="8.632399633234195"><ele>212.0</ele><time>2026-05-03T10:46:12.997Z</time></trkpt><trkpt lat="45.729779139278584" lon="8.632400659045745"><ele>212.0</ele><time>2026-05-03T10:46:13.997Z</time></trkpt><trkpt lat="45.729925832965456" lon="8.63240199320682"><ele>212.0</ele><time>2026-05-03T10:46:14.997Z</time></trkpt><trkpt lat="45.73006181877564" lon="8.632384151358739"><ele>212.0</ele><time>2026-05-03T10:46:15.997Z</time></trkpt><trkpt lat="45.73018038471629" lon="8.632390130309535"><ele>212.0</ele><time>2026-05-03T10:46:16.997Z</time></trkpt><trkpt lat="45.73028392503709" lon="8.632430547941421"><ele>211.75</ele><time>2026-05-03T10:46:17.997Z</time></trkpt><trkpt lat="45.73035945879557" lon="8.63242281058971"><ele>211.5</ele><time>2026-05-03T10:46:18.997Z</time></trkpt><trkpt lat="45.73037912676039" lon="8.632622606967251"><ele>211.25</ele><time>2026-05-03T10:46:19.997Z</time></trkpt><trkpt lat="45.73040535331433" lon="8.632783354188236"><ele>211.0</ele><time>2026-05-03T10:46:20.997Z</time></trkpt><trkpt lat="45.730443424901324" lon="8.632950583600437"><ele>211.0</ele><time>2026-05-03T10:46:21.997Z</time></trkpt><trkpt lat="45.73044846758438" lon="8.633137825710605"><ele>211.0</ele><time>2026-05-03T10:46:22.997Z</time></trkpt><trkpt lat="45.73043986071422" lon="8.633349131756086"><ele>211.0</ele><time>2026-05-03T10:46:23.997Z</time></trkpt><trkpt lat="45.73043028431516" lon="8.63357224584128"><ele>211.0</ele><time>2026-05-03T10:46:24.997Z</time></trkpt><trkpt lat="45.7304195064295" lon="8.633793295685704"><ele>211.0</ele><time>2026-05-03T10:46:25.997Z</time></trkpt><trkpt lat="45.73040959779078" lon="8.634011566653761"><ele>211.0</ele><time>2026-05-03T10:46:26.997Z</time></trkpt><trkpt lat="45.730406419741655" lon="8.634201648183849"><ele>211.0</ele><time>2026-05-03T10:46:27.997Z</time></trkpt><trkpt lat="45.73041024674744" lon="8.634351555005303"><ele>211.0</ele><time>2026-05-03T10:46:28.997Z</time></trkpt><trkpt lat="45.730355351986134" lon="8.634484349831714"><ele>210.99999999999997</ele><time>2026-05-03T10:46:29.997Z</time></trkpt><trkpt lat="45.730275124371055" lon="8.634580486761845"><ele>211.0</ele><time>2026-05-03T10:46:30.997Z</time></trkpt><trkpt lat="45.730224109129466" lon="8.634665419548199"><ele>211.0</ele><time>2026-05-03T10:46:31.997Z</time></trkpt><trkpt lat="45.730216818144314" lon="8.634767384338984"><ele>211.0</ele><time>2026-05-03T10:46:32.997Z</time></trkpt><trkpt lat="45.73024491415117" lon="8.634871096296388"><ele>210.99999999999997</ele><time>2026-05-03T10:46:33.997Z</time></trkpt><trkpt lat="45.73030397557291" lon="8.635005358309066"><ele>211.0</ele><time>2026-05-03T10:46:34.997Z</time></trkpt><trkpt lat="45.73037686270998" lon="8.635159203109081"><ele>211.0</ele><time>2026-05-03T10:46:35.997Z</time></trkpt><trkpt lat="45.73043397806237" lon="8.6353379051667"><ele>211.0</ele><time>2026-05-03T10:46:36.997Z</time></trkpt><trkpt lat="45.73047142042921" lon="8.635526438216266"><ele>211.0</ele><time>2026-05-03T10:46:37.997Z</time></trkpt><trkpt lat="45.73048150859336" lon="8.635738565266935"><ele>211.0</ele><time>2026-05-03T10:46:38.997Z</time></trkpt><trkpt lat="45.73046718768455" lon="8.635960335131038"><ele>210.8</ele><time>2026-05-03T10:46:39.997Z</time></trkpt><trkpt lat="45.7304432157502" lon="8.636177177677098"><ele>210.60000000000002</ele><time>2026-05-03T10:46:40.997Z</time></trkpt><trkpt lat="45.73042901177537" lon="8.636351927752962"><ele>210.4</ele><time>2026-05-03T10:46:41.997Z</time></trkpt><trkpt lat="45.730421731875424" lon="8.636490723919803"><ele>210.2</ele><time>2026-05-03T10:46:42.997Z</time></trkpt><trkpt lat="45.73042181113525" lon="8.636588477102858"><ele>210.0</ele><time>2026-05-03T10:46:43.997Z</time></trkpt><trkpt lat="45.730607867393594" lon="8.636634207403722"><ele>210.0</ele><time>2026-05-03T10:46:50.997Z</time></trkpt><trkpt lat="45.730701469233104" lon="8.636625571562103"><ele>210.0</ele><time>2026-05-03T10:46:51.997Z</time></trkpt><trkpt lat="45.73080463907804" lon="8.636610974045581"><ele>210.0</ele><time>2026-05-03T10:46:52.997Z</time></trkpt><trkpt lat="45.73091201165176" lon="8.636604730084077"><ele>210.0</ele><time>2026-05-03T10:46:53.997Z</time></trkpt><trkpt lat="45.73103353916904" lon="8.636563591846343"><ele>210.0</ele><time>2026-05-03T10:46:54.997Z</time></trkpt><trkpt lat="45.73117588244188" lon="8.636567324782813"><ele>210.33333333333331</ele><time>2026-05-03T10:46:55.997Z</time></trkpt><trkpt lat="45.73131981063452" lon="8.636527262680138"><ele>210.66666666666666</ele><time>2026-05-03T10:46:56.997Z</time></trkpt><trkpt lat="45.73147991169544" lon="8.636526477872838"><ele>211.0</ele><time>2026-05-03T10:46:57.997Z</time></trkpt><trkpt lat="45.731624647869445" lon="8.636505491107233"><ele>211.0</ele><time>2026-05-03T10:46:58.997Z</time></trkpt><trkpt lat="45.731758857598955" lon="8.63646229830424"><ele>211.0</ele><time>2026-05-03T10:46:59.997Z</time></trkpt><trkpt lat="45.73189584615927" lon="8.636453571955816"><ele>211.0</ele><time>2026-05-03T10:47:00.997Z</time></trkpt><trkpt lat="45.732036036314824" lon="8.636423264269409"><ele>211.0</ele><time>2026-05-03T10:47:01.997Z</time></trkpt><trkpt lat="45.73218788983572" lon="8.636450235999483"><ele>212.0</ele><time>2026-05-03T10:47:02.997Z</time></trkpt><trkpt lat="45.73234473487995" lon="8.636470735044998"><ele>213.0</ele><time>2026-05-03T10:47:03.997Z</time></trkpt><trkpt lat="45.73248515872066" lon="8.636474998865067"><ele>214.0</ele><time>2026-05-03T10:47:04.997Z</time></trkpt><trkpt lat="45.73257916755681" lon="8.63649849058149"><ele>215.0</ele><time>2026-05-03T10:47:05.997Z</time></trkpt><trkpt lat="45.732699030125076" lon="8.636571877781007"><ele>217.5</ele><time>2026-05-03T10:47:06.997Z</time></trkpt><trkpt lat="45.73284879831208" lon="8.636557545563834"><ele>220.0</ele><time>2026-05-03T10:47:07.997Z</time></trkpt><trkpt lat="45.732993041872405" lon="8.636606849416589"><ele>222.5</ele><time>2026-05-03T10:47:08.997Z</time></trkpt><trkpt lat="45.73313903951504" lon="8.636646713370746"><ele>225.0</ele><time>2026-05-03T10:47:09.997Z</time></trkpt><trkpt lat="45.73328585385804" lon="8.63667704577729"><ele>225.0</ele><time>2026-05-03T10:47:10.997Z</time></trkpt><trkpt lat="45.73341415262887" lon="8.636759366886563"><ele>225.0</ele><time>2026-05-03T10:47:11.997Z</time></trkpt><trkpt lat="45.73352547373135" lon="8.636797371166407"><ele>225.0</ele><time>2026-05-03T10:47:12.997Z</time></trkpt><trkpt lat="45.73362606095924" lon="8.636867243607147"><ele>225.0</ele><time>2026-05-03T10:47:13.997Z</time></trkpt><trkpt lat="45.733702530994826" lon="8.636999945048004"><ele>226.66666666666669</ele><time>2026-05-03T10:47:14.997Z</time></trkpt><trkpt lat="45.733794939354375" lon="8.63718399132184"><ele>228.33333333333334</ele><time>2026-05-03T10:47:15.997Z</time></trkpt><trkpt lat="45.733893464649654" lon="8.637363721022178"><ele>230.0</ele><time>2026-05-03T10:47:16.997Z</time></trkpt><trkpt lat="45.73400384028112" lon="8.637521215394624"><ele>230.0</ele><time>2026-05-03T10:47:17.997Z</time></trkpt><trkpt lat="45.73412242152459" lon="8.637673792660447"><ele>230.0</ele><time>2026-05-03T10:47:18.997Z</time></trkpt><trkpt lat="45.734237048839944" lon="8.637820071908001"><ele>230.0</ele><time>2026-05-03T10:47:19.997Z</time></trkpt><trkpt lat="45.734335433113614" lon="8.63797105665524"><ele>232.0</ele><time>2026-05-03T10:47:20.997Z</time></trkpt><trkpt lat="45.734410950202516" lon="8.638130250819136"><ele>234.0</ele><time>2026-05-03T10:47:21.997Z</time></trkpt><trkpt lat="45.73445424566393" lon="8.638295655291369"><ele>236.0</ele><time>2026-05-03T10:47:22.997Z</time></trkpt><trkpt lat="45.73446570631783" lon="8.638480136679801"><ele>238.0</ele><time>2026-05-03T10:47:23.997Z</time></trkpt><trkpt lat="45.73446400224304" lon="8.638675125842427"><ele>238.0</ele><time>2026-05-03T10:47:24.997Z</time></trkpt><trkpt lat="45.734467655374246" lon="8.638851409282502"><ele>238.0</ele><time>2026-05-03T10:47:25.997Z</time></trkpt><trkpt lat="45.73448261799775" lon="8.639013385396936"><ele>238.0</ele><time>2026-05-03T10:47:26.997Z</time></trkpt><trkpt lat="45.73452872997468" lon="8.639149006092035"><ele>238.0</ele><time>2026-05-03T10:47:27.997Z</time></trkpt><trkpt lat="45.734613069353976" lon="8.639254498737102"><ele>238.0</ele><time>2026-05-03T10:47:28.997Z</time></trkpt><trkpt lat="45.73471930960895" lon="8.639323779784434"><ele>238.0</ele><time>2026-05-03T10:47:29.997Z</time></trkpt><trkpt lat="45.73484546668962" lon="8.63934860211672"><ele>238.0</ele><time>2026-05-03T10:47:30.997Z</time></trkpt><trkpt lat="45.73498127303361" lon="8.6393418359563"><ele>238.0</ele><time>2026-05-03T10:47:31.997Z</time></trkpt><trkpt lat="45.735128471212235" lon="8.639337665602438"><ele>240.0</ele><time>2026-05-03T10:47:32.997Z</time></trkpt><trkpt lat="45.735281675800486" lon="8.639350904958087"><ele>242.0</ele><time>2026-05-03T10:47:33.997Z</time></trkpt><trkpt lat="45.73543762753374" lon="8.639377456986292"><ele>244.0</ele><time>2026-05-03T10:47:34.997Z</time></trkpt><trkpt lat="45.73559125291384" lon="8.639377130087391"><ele>244.0</ele><time>2026-05-03T10:47:35.997Z</time></trkpt><trkpt lat="45.735745242756124" lon="8.639403269258732"><ele>244.0</ele><time>2026-05-03T10:47:36.997Z</time></trkpt><trkpt lat="45.73589969461403" lon="8.639417099703104"><ele>244.0</ele><time>2026-05-03T10:47:37.997Z</time></trkpt><trkpt lat="45.73605077570564" lon="8.639430628309906"><ele>245.0</ele><time>2026-05-03T10:47:38.997Z</time></trkpt><trkpt lat="45.736201086372965" lon="8.639443467656214"><ele>246.0</ele><time>2026-05-03T10:47:39.997Z</time></trkpt><trkpt lat="45.7363443561653" lon="8.639455586854808"><ele>247.0</ele><time>2026-05-03T10:47:40.997Z</time></trkpt><trkpt lat="45.73648202211783" lon="8.639453256456932"><ele>248.0</ele><time>2026-05-03T10:47:41.997Z</time></trkpt><trkpt lat="45.73661091497549" lon="8.63947850971828"><ele>248.0</ele><time>2026-05-03T10:47:42.997Z</time></trkpt><trkpt lat="45.7367330435545" lon="8.639490484057083"><ele>248.0</ele><time>2026-05-03T10:47:43.997Z</time></trkpt><trkpt lat="45.7368545024922" lon="8.639503750997177"><ele>248.0</ele><time>2026-05-03T10:47:44.997Z</time></trkpt><trkpt lat="45.73697388694974" lon="8.639510308807099"><ele>248.0</ele><time>2026-05-03T10:47:45.997Z</time></trkpt><trkpt lat="45.73709251020155" lon="8.639516824801605"><ele>248.4</ele><time>2026-05-03T10:47:46.997Z</time></trkpt><trkpt lat="45.737201611688285" lon="8.63949764411321"><ele>248.8</ele><time>2026-05-03T10:47:47.997Z</time></trkpt><trkpt lat="45.73729763490346" lon="8.639515233180639"><ele>249.2</ele><time>2026-05-03T10:47:48.997Z</time></trkpt><trkpt lat="45.73737841089841" lon="8.639536779871563"><ele>249.6</ele><time>2026-05-03T10:47:49.997Z</time></trkpt><trkpt lat="45.73746795938556" lon="8.639587478535015"><ele>250.0</ele><time>2026-05-03T10:47:50.997Z</time></trkpt><trkpt lat="45.73755979925556" lon="8.63967122364444"><ele>250.0</ele><time>2026-05-03T10:47:51.997Z</time></trkpt><trkpt lat="45.737657367796295" lon="8.639777074291606"><ele>250.0</ele><time>2026-05-03T10:47:52.997Z</time></trkpt><trkpt lat="45.73774981712027" lon="8.639874711229089"><ele>250.0</ele><time>2026-05-03T10:47:53.997Z</time></trkpt><trkpt lat="45.73782885256338" lon="8.639964518866616"><ele>250.0</ele><time>2026-05-03T10:47:54.997Z</time></trkpt><trkpt lat="45.73790243090938" lon="8.64004438189733"><ele>250.0</ele><time>2026-05-03T10:47:55.997Z</time></trkpt><trkpt lat="45.73797180133661" lon="8.640118238395878"><ele>249.99999999999997</ele><time>2026-05-03T10:47:56.997Z</time></trkpt><trkpt lat="45.7380331687186" lon="8.640189123812414"><ele>250.0</ele><time>2026-05-03T10:47:57.997Z</time></trkpt><trkpt lat="45.738095411138886" lon="8.640257737745923"><ele>250.0</ele><time>2026-05-03T10:47:58.997Z</time></trkpt><trkpt lat="45.73817122983291" lon="8.640326557919034"><ele>250.0</ele><time>2026-05-03T10:47:59.997Z</time></trkpt><trkpt lat="45.7382416675005" lon="8.640395303625937"><ele>249.99999999999997</ele><time>2026-05-03T10:48:00.997Z</time></trkpt><trkpt lat="45.73831308828469" lon="8.640500566396394"><ele>250.0</ele><time>2026-05-03T10:48:01.997Z</time></trkpt><trkpt lat="45.73840823853868" lon="8.640601691483608"><ele>250.0</ele><time>2026-05-03T10:48:02.997Z</time></trkpt><trkpt lat="45.73851298998677" lon="8.640713554723318"><ele>250.0</ele><time>2026-05-03T10:48:03.997Z</time></trkpt><trkpt lat="45.73862637319344" lon="8.640833512250166"><ele>250.0</ele><time>2026-05-03T10:48:04.997Z</time></trkpt><trkpt lat="45.73875282264911" lon="8.640957309366962"><ele>250.0</ele><time>2026-05-03T10:48:05.997Z</time></trkpt><trkpt lat="45.73888136622846" lon="8.641093520070134"><ele>249.66666666666666</ele><time>2026-05-03T10:48:06.997Z</time></trkpt><trkpt lat="45.73900544893077" lon="8.641233537826807"><ele>249.33333333333331</ele><time>2026-05-03T10:48:07.997Z</time></trkpt><trkpt lat="45.73913712676735" lon="8.641374122472007"><ele>249.0</ele><time>2026-05-03T10:48:08.997Z</time></trkpt><trkpt lat="45.73926575423056" lon="8.641517886974295"><ele>248.66666666666669</ele><time>2026-05-03T10:48:09.997Z</time></trkpt><trkpt lat="45.73938577500722" lon="8.641673562138552"><ele>248.33333333333334</ele><time>2026-05-03T10:48:10.997Z</time></trkpt><trkpt lat="45.73949873842051" lon="8.641847698777594"><ele>248.0</ele><time>2026-05-03T10:48:11.997Z</time></trkpt><trkpt lat="45.73960229986217" lon="8.642028189427744"><ele>248.0</ele><time>2026-05-03T10:48:12.997Z</time></trkpt><trkpt lat="45.73969974301465" lon="8.64221408498394"><ele>248.0</ele><time>2026-05-03T10:48:13.997Z</time></trkpt><trkpt lat="45.73979597361867" lon="8.642398795948704"><ele>248.0</ele><time>2026-05-03T10:48:14.997Z</time></trkpt><trkpt lat="45.739898655390625" lon="8.642582995562023"><ele>248.0</ele><time>2026-05-03T10:48:15.997Z</time></trkpt><trkpt lat="45.74001059734543" lon="8.642745829784722"><ele>248.0</ele><time>2026-05-03T10:48:16.997Z</time></trkpt><trkpt lat="45.74013453568767" lon="8.642886951781506"><ele>248.0</ele><time>2026-05-03T10:48:17.997Z</time></trkpt><trkpt lat="45.740278194299755" lon="8.642987857594765"><ele>247.66666666666669</ele><time>2026-05-03T10:48:18.997Z</time></trkpt><trkpt lat="45.740439261238706" lon="8.643049071560736"><ele>247.33333333333331</ele><time>2026-05-03T10:48:19.997Z</time></trkpt><trkpt lat="45.740602626479046" lon="8.643068525076599"><ele>247.0</ele><time>2026-05-03T10:48:20.997Z</time></trkpt><trkpt lat="45.74074834408817" lon="8.643065596749151"><ele>247.0</ele><time>2026-05-03T10:48:21.997Z</time></trkpt><trkpt lat="45.74088365728183" lon="8.64304099535498"><ele>247.0</ele><time>2026-05-03T10:48:22.997Z</time></trkpt><trkpt lat="45.74100663872884" lon="8.642994438953043"><ele>247.0</ele><time>2026-05-03T10:48:23.997Z</time></trkpt><trkpt lat="45.74111662493957" lon="8.64293667138159"><ele>247.0</ele><time>2026-05-03T10:48:24.997Z</time></trkpt><trkpt lat="45.741222436621605" lon="8.642860516655395"><ele>247.25</ele><time>2026-05-03T10:48:25.997Z</time></trkpt><trkpt lat="45.74134594344737" lon="8.642787106738325"><ele>247.5</ele><time>2026-05-03T10:48:26.997Z</time></trkpt><trkpt lat="45.74147226892422" lon="8.642716838107694"><ele>247.75</ele><time>2026-05-03T10:48:27.997Z</time></trkpt><trkpt lat="45.741597948178836" lon="8.642644070483843"><ele>248.0</ele><time>2026-05-03T10:48:28.997Z</time></trkpt><trkpt lat="45.741726679876194" lon="8.642563178985176"><ele>248.0</ele><time>2026-05-03T10:48:29.997Z</time></trkpt><trkpt lat="45.74185799660082" lon="8.642483940487148"><ele>248.0</ele><time>2026-05-03T10:48:30.997Z</time></trkpt><trkpt lat="45.741978694133" lon="8.642393322393536"><ele>248.0</ele><time>2026-05-03T10:48:31.997Z</time></trkpt><trkpt lat="45.7420980269384" lon="8.642323464945731"><ele>248.0</ele><time>2026-05-03T10:48:32.997Z</time></trkpt><trkpt lat="45.742213873116306" lon="8.642242578275924"><ele>248.25</ele><time>2026-05-03T10:48:33.997Z</time></trkpt><trkpt lat="45.742327050409344" lon="8.642165466375419"><ele>248.5</ele><time>2026-05-03T10:48:34.997Z</time></trkpt><trkpt lat="45.74243627562381" lon="8.642074210930737"><ele>248.75</ele><time>2026-05-03T10:48:35.997Z</time></trkpt><trkpt lat="45.74253961923176" lon="8.64197680753725"><ele>249.0</ele><time>2026-05-03T10:48:36.997Z</time></trkpt><trkpt lat="45.74265038823467" lon="8.641865685476262"><ele>248.0</ele><time>2026-05-03T10:48:37.997Z</time></trkpt><trkpt lat="45.74276126857754" lon="8.64176433786936"><ele>247.0</ele><time>2026-05-03T10:48:38.997Z</time></trkpt><trkpt lat="45.74286412838808" lon="8.64166815463926"><ele>246.0</ele><time>2026-05-03T10:48:39.997Z</time></trkpt><trkpt lat="45.74296257006105" lon="8.641580428479855"><ele>245.0</ele><time>2026-05-03T10:48:40.997Z</time></trkpt><trkpt lat="45.743056489006456" lon="8.641523380292794"><ele>245.0</ele><time>2026-05-03T10:48:41.997Z</time></trkpt><trkpt lat="45.74315009692945" lon="8.641469145083597"><ele>245.0</ele><time>2026-05-03T10:48:42.997Z</time></trkpt><trkpt lat="45.74322930848407" lon="8.641397751701843"><ele>245.0</ele><time>2026-05-03T10:48:43.997Z</time></trkpt><trkpt lat="45.743314248884985" lon="8.641293741893781"><ele>245.0</ele><time>2026-05-03T10:48:44.997Z</time></trkpt><trkpt lat="45.743396053640296" lon="8.641193292857384"><ele>245.0</ele><time>2026-05-03T10:48:45.997Z</time></trkpt><trkpt lat="45.74348636285926" lon="8.64111074842814"><ele>245.25</ele><time>2026-05-03T10:48:46.997Z</time></trkpt><trkpt lat="45.74359543996552" lon="8.641022048940286"><ele>245.5</ele><time>2026-05-03T10:48:47.997Z</time></trkpt><trkpt lat="45.743712783950166" lon="8.640924674998248"><ele>245.75</ele><time>2026-05-03T10:48:48.997Z</time></trkpt><trkpt lat="45.7438155429394" lon="8.640851538441582"><ele>246.0</ele><time>2026-05-03T10:48:49.997Z</time></trkpt><trkpt lat="45.74389581816849" lon="8.640813909250326"><ele>246.0</ele><time>2026-05-03T10:48:50.997Z</time></trkpt><trkpt lat="45.74395606585268" lon="8.64095170797525"><ele>246.0</ele><time>2026-05-03T10:48:53.997Z</time></trkpt><trkpt lat="45.743979638325094" lon="8.641064296491283"><ele>246.0</ele><time>2026-05-03T10:48:54.996Z</time></trkpt><trkpt lat="45.74410904819145" lon="8.64115750755057"><ele>246.0</ele><time>2026-05-03T10:48:55.996Z</time></trkpt><trkpt lat="45.744192453615035" lon="8.641309144888178"><ele>246.25</ele><time>2026-05-03T10:48:56.996Z</time></trkpt><trkpt lat="45.74428423033491" lon="8.641458085359234"><ele>246.5</ele><time>2026-05-03T10:48:57.996Z</time></trkpt><trkpt lat="45.74437591546401" lon="8.641612850123103"><ele>246.75</ele><time>2026-05-03T10:48:58.996Z</time></trkpt><trkpt lat="45.744461558683945" lon="8.641777458302634"><ele>247.0</ele><time>2026-05-03T10:48:59.996Z</time></trkpt><trkpt lat="45.744548839765756" lon="8.641955866511932"><ele>247.33333333333331</ele><time>2026-05-03T10:49:00.996Z</time></trkpt><trkpt lat="45.74464336609991" lon="8.64215885192955"><ele>247.66666666666669</ele><time>2026-05-03T10:49:01.996Z</time></trkpt><trkpt lat="45.744752110244995" lon="8.642360359055715"><ele>248.0</ele><time>2026-05-03T10:49:02.996Z</time></trkpt><trkpt lat="45.74486567918343" lon="8.642512207381905"><ele>248.0</ele><time>2026-05-03T10:49:03.996Z</time></trkpt><trkpt lat="45.744976917618914" lon="8.642676523266395"><ele>248.0</ele><time>2026-05-03T10:49:04.996Z</time></trkpt><trkpt lat="45.74511344079084" lon="8.642874132202058"><ele>248.0</ele><time>2026-05-03T10:49:05.996Z</time></trkpt><trkpt lat="45.74525639313949" lon="8.643053187498648"><ele>249.0</ele><time>2026-05-03T10:49:06.996Z</time></trkpt><trkpt lat="45.74536696116124" lon="8.643251588110981"><ele>250.0</ele><time>2026-05-03T10:49:07.996Z</time></trkpt><trkpt lat="45.74550633529039" lon="8.643466407371008"><ele>251.0</ele><time>2026-05-03T10:49:08.996Z</time></trkpt><trkpt lat="45.745616139840465" lon="8.643639180487797"><ele>252.00000000000003</ele><time>2026-05-03T10:49:09.996Z</time></trkpt><trkpt lat="45.745691316808724" lon="8.64376462967183"><ele>253.0</ele><time>2026-05-03T10:49:10.996Z</time></trkpt><trkpt lat="45.745751340848365" lon="8.64388087263837"><ele>254.0</ele><time>2026-05-03T10:49:11.996Z</time></trkpt><trkpt lat="45.745779381028534" lon="8.643998267021937"><ele>255.0</ele><time>2026-05-03T10:49:12.996Z</time></trkpt><trkpt lat="45.7458079035747" lon="8.644103145665985"><ele>256.0</ele><time>2026-05-03T10:49:13.996Z</time></trkpt><trkpt lat="45.745819739348725" lon="8.64419199061928"><ele>257.0</ele><time>2026-05-03T10:49:14.996Z</time></trkpt><trkpt lat="45.74590245991746" lon="8.644318206966696"><ele>257.0</ele><time>2026-05-03T10:49:27.996Z</time></trkpt><trkpt lat="45.746036466586645" lon="8.644238781453964"><ele>257.0</ele><time>2026-05-03T10:49:28.996Z</time></trkpt><trkpt lat="45.7461574870772" lon="8.64420135042751"><ele>257.0</ele><time>2026-05-03T10:49:29.996Z</time></trkpt><trkpt lat="45.74629737162806" lon="8.644194062407477"><ele>257.0</ele><time>2026-05-03T10:49:30.996Z</time></trkpt><trkpt lat="45.74646619645215" lon="8.644164536942258"><ele>257.5</ele><time>2026-05-03T10:49:31.996Z</time></trkpt><trkpt lat="45.74661190869897" lon="8.644160631279952"><ele>258.0</ele><time>2026-05-03T10:49:32.996Z</time></trkpt><trkpt lat="45.74673811323872" lon="8.644120494361882"><ele>258.5</ele><time>2026-05-03T10:49:33.996Z</time></trkpt><trkpt lat="45.74683242550845" lon="8.644137137613518"><ele>259.0</ele><time>2026-05-03T10:49:34.996Z</time></trkpt><trkpt lat="45.74693915381369" lon="8.644140562377055"><ele>259.0</ele><time>2026-05-03T10:49:35.996Z</time></trkpt><trkpt lat="45.74705005384478" lon="8.64412215786197"><ele>259.0</ele><time>2026-05-03T10:49:36.996Z</time></trkpt><trkpt lat="45.747185067079286" lon="8.644159236107015"><ele>259.0</ele><time>2026-05-03T10:49:37.996Z</time></trkpt><trkpt lat="45.74733250017978" lon="8.644183230725474"><ele>259.0</ele><time>2026-05-03T10:49:38.996Z</time></trkpt><trkpt lat="45.74746575959127" lon="8.644228722332597"><ele>259.0</ele><time>2026-05-03T10:49:39.996Z</time></trkpt><trkpt lat="45.74759052886473" lon="8.644292385103656"><ele>259.0</ele><time>2026-05-03T10:49:40.996Z</time></trkpt><trkpt lat="45.74772483988838" lon="8.64434839059926"><ele>259.0</ele><time>2026-05-03T10:49:41.996Z</time></trkpt><trkpt lat="45.74785722984355" lon="8.644418010099026"><ele>259.0</ele><time>2026-05-03T10:49:42.996Z</time></trkpt><trkpt lat="45.748054754302515" lon="8.644521156542378"><ele>262.0</ele><time>2026-05-03T10:49:43.996Z</time></trkpt><trkpt lat="45.74823210696488" lon="8.644606999860258"><ele>265.0</ele><time>2026-05-03T10:49:44.996Z</time></trkpt><trkpt lat="45.748400564606456" lon="8.644675919346945"><ele>268.0</ele><time>2026-05-03T10:49:45.996Z</time></trkpt><trkpt lat="45.748539194285776" lon="8.644732861433562"><ele>267.0</ele><time>2026-05-03T10:49:46.996Z</time></trkpt><trkpt lat="45.748635823846676" lon="8.644779377948856"><ele>266.0</ele><time>2026-05-03T10:49:47.996Z</time></trkpt><trkpt lat="45.74870419428118" lon="8.644813908146237"><ele>265.0</ele><time>2026-05-03T10:49:48.996Z</time></trkpt><trkpt lat="45.74877886281095" lon="8.644857467617419"><ele>264.0</ele><time>2026-05-03T10:49:49.996Z</time></trkpt><trkpt lat="45.74887852960217" lon="8.64493198758774"><ele>263.0</ele><time>2026-05-03T10:49:50.996Z</time></trkpt><trkpt lat="45.748990857932434" lon="8.645033344445531"><ele>263.0</ele><time>2026-05-03T10:49:51.996Z</time></trkpt><trkpt lat="45.74912263560764" lon="8.64508608545329"><ele>263.0</ele><time>2026-05-03T10:49:52.996Z</time></trkpt><trkpt lat="45.749266435380555" lon="8.64517717765443"><ele>263.0</ele><time>2026-05-03T10:49:53.996Z</time></trkpt><trkpt lat="45.749432514780736" lon="8.64526549432516"><ele>266.5</ele><time>2026-05-03T10:49:54.996Z</time></trkpt><trkpt lat="45.749589037114276" lon="8.64533145286877"><ele>270.0</ele><time>2026-05-03T10:49:55.996Z</time></trkpt><trkpt lat="45.74972791173225" lon="8.64536754193184"><ele>273.5</ele><time>2026-05-03T10:49:56.996Z</time></trkpt><trkpt lat="45.7498525589411" lon="8.645392920709932"><ele>277.0</ele><time>2026-05-03T10:49:57.996Z</time></trkpt><trkpt lat="45.750016342127694" lon="8.645397048119731"><ele>277.0</ele><time>2026-05-03T10:49:58.996Z</time></trkpt><trkpt lat="45.750142164204355" lon="8.645410343925143"><ele>277.0</ele><time>2026-05-03T10:49:59.996Z</time></trkpt><trkpt lat="45.75022379201298" lon="8.645419881449126"><ele>277.0</ele><time>2026-05-03T10:50:00.996Z</time></trkpt><trkpt lat="45.750307364301165" lon="8.645404762313241"><ele>277.0</ele><time>2026-05-03T10:50:04.996Z</time></trkpt><trkpt lat="45.750431761520744" lon="8.64535466045532"><ele>277.0</ele><time>2026-05-03T10:50:06.996Z</time></trkpt><trkpt lat="45.75051248726335" lon="8.645334916438527"><ele>276.5</ele><time>2026-05-03T10:50:07.996Z</time></trkpt><trkpt lat="45.75061790160067" lon="8.645629238401504"><ele>276.0</ele><time>2026-05-03T10:50:08.996Z</time></trkpt><trkpt lat="45.750697357069775" lon="8.645650319517953"><ele>275.5</ele><time>2026-05-03T10:50:09.996Z</time></trkpt><trkpt lat="45.75078895623294" lon="8.645665051180124"><ele>275.0</ele><time>2026-05-03T10:50:10.996Z</time></trkpt><trkpt lat="45.75090445502323" lon="8.645687982903826"><ele>275.4</ele><time>2026-05-03T10:50:11.996Z</time></trkpt><trkpt lat="45.751052767494926" lon="8.645711418490315"><ele>275.8</ele><time>2026-05-03T10:50:12.996Z</time></trkpt><trkpt lat="45.75116568092669" lon="8.645728828725296"><ele>276.2</ele><time>2026-05-03T10:50:13.996Z</time></trkpt><trkpt lat="45.751254036739155" lon="8.645748690537001"><ele>276.6</ele><time>2026-05-03T10:50:14.996Z</time></trkpt><trkpt lat="45.75134695551854" lon="8.645707363914829"><ele>277.0</ele><time>2026-05-03T10:50:16.996Z</time></trkpt><trkpt lat="45.75139074867201" lon="8.645636999521912"><ele>277.0</ele><time>2026-05-03T10:50:17.996Z</time></trkpt><trkpt lat="45.75147621402562" lon="8.64556217412712"><ele>277.0</ele><time>2026-05-03T10:50:18.996Z</time></trkpt><trkpt lat="45.75160031157794" lon="8.645468361488435"><ele>277.0</ele><time>2026-05-03T10:50:19.996Z</time></trkpt><trkpt lat="45.75172661255519" lon="8.645380032810998"><ele>277.0</ele><time>2026-05-03T10:50:20.996Z</time></trkpt><trkpt lat="45.7518829784719" lon="8.645315355015525"><ele>273.25</ele><time>2026-05-03T10:50:21.996Z</time></trkpt><trkpt lat="45.75202597972142" lon="8.645249492885501"><ele>269.5</ele><time>2026-05-03T10:50:22.996Z</time></trkpt><trkpt lat="45.752153054439226" lon="8.645185391393904"><ele>265.75</ele><time>2026-05-03T10:50:23.996Z</time></trkpt><trkpt lat="45.75225019346191" lon="8.645118495630546"><ele>262.0</ele><time>2026-05-03T10:50:24.996Z</time></trkpt><trkpt lat="45.75231678997086" lon="8.645067464288474"><ele>262.0</ele><time>2026-05-03T10:50:25.996Z</time></trkpt><trkpt lat="45.75238461073813" lon="8.645067855971126"><ele>262.0</ele><time>2026-05-03T10:50:26.996Z</time></trkpt><trkpt lat="45.75245501518474" lon="8.6450738998794"><ele>262.0</ele><time>2026-05-03T10:50:27.996Z</time></trkpt><trkpt lat="45.752551972170295" lon="8.645125730120002"><ele>262.0</ele><time>2026-05-03T10:50:29.996Z</time></trkpt><trkpt lat="45.75263805265146" lon="8.645130382544155"><ele>262.0</ele><time>2026-05-03T10:50:30.996Z</time></trkpt><trkpt lat="45.75274359910217" lon="8.645144323868038"><ele>262.0</ele><time>2026-05-03T10:50:31.996Z</time></trkpt><trkpt lat="45.75281346424577" lon="8.645127124324262"><ele>261.4</ele><time>2026-05-03T10:50:32.996Z</time></trkpt><trkpt lat="45.75288092313324" lon="8.645068892634345"><ele>260.79999999999995</ele><time>2026-05-03T10:50:33.996Z</time></trkpt><trkpt lat="45.75294510140765" lon="8.64496017680754"><ele>260.2</ele><time>2026-05-03T10:50:34.996Z</time></trkpt><trkpt lat="45.75303498820387" lon="8.644811878583447"><ele>259.59999999999997</ele><time>2026-05-03T10:50:35.996Z</time></trkpt><trkpt lat="45.75307990984749" lon="8.644666150655732"><ele>259.0</ele><time>2026-05-03T10:50:36.996Z</time></trkpt><trkpt lat="45.75308663980124" lon="8.644524967950407"><ele>257.3333333333333</ele><time>2026-05-03T10:50:37.996Z</time></trkpt><trkpt lat="45.75308150163911" lon="8.644279085151707"><ele>255.66666666666669</ele><time>2026-05-03T10:50:38.996Z</time></trkpt><trkpt lat="45.75305123903297" lon="8.644032458312163"><ele>254.0</ele><time>2026-05-03T10:50:39.996Z</time></trkpt><trkpt lat="45.75302303893025" lon="8.643878861559758"><ele>254.0</ele><time>2026-05-03T10:50:40.996Z</time></trkpt><trkpt lat="45.75302463529882" lon="8.643777261373408"><ele>253.99999999999997</ele><time>2026-05-03T10:50:41.996Z</time></trkpt><trkpt lat="45.75308431506303" lon="8.643714537985735"><ele>253.99999999999997</ele><time>2026-05-03T10:50:42.996Z</time></trkpt><trkpt lat="45.75317785981038" lon="8.643699757661773"><ele>254.0</ele><time>2026-05-03T10:50:43.996Z</time></trkpt><trkpt lat="45.753284289214456" lon="8.643655880881255"><ele>254.0</ele><time>2026-05-03T10:50:44.996Z</time></trkpt><trkpt lat="45.75343046128337" lon="8.64358367311791"><ele>253.6</ele><time>2026-05-03T10:50:45.996Z</time></trkpt><trkpt lat="45.75354013387616" lon="8.643502101078303"><ele>253.2</ele><time>2026-05-03T10:50:46.996Z</time></trkpt><trkpt lat="45.753642543743325" lon="8.643450898915"><ele>252.79999999999998</ele><time>2026-05-03T10:50:47.996Z</time></trkpt><trkpt lat="45.75373380420995" lon="8.643400259915573"><ele>252.39999999999998</ele><time>2026-05-03T10:50:48.996Z</time></trkpt><trkpt lat="45.75380603377245" lon="8.643346799678284"><ele>252.0</ele><time>2026-05-03T10:50:49.996Z</time></trkpt><trkpt lat="45.75386473082796" lon="8.643279347624372"><ele>252.0</ele><time>2026-05-03T10:50:51.996Z</time></trkpt><trkpt lat="45.75399218264303" lon="8.643339572384356"><ele>252.0</ele><time>2026-05-03T10:50:53.996Z</time></trkpt><trkpt lat="45.75408456080651" lon="8.643396028304922"><ele>252.0</ele><time>2026-05-03T10:50:54.996Z</time></trkpt><trkpt lat="45.75419167185736" lon="8.643444940081887"><ele>252.0</ele><time>2026-05-03T10:50:55.996Z</time></trkpt><trkpt lat="45.754315531863966" lon="8.64348850619643"><ele>252.75</ele><time>2026-05-03T10:50:56.996Z</time></trkpt><trkpt lat="45.75444030865922" lon="8.643542417274682"><ele>253.5</ele><time>2026-05-03T10:50:57.996Z</time></trkpt><trkpt lat="45.75457790169552" lon="8.643595054366685"><ele>254.25</ele><time>2026-05-03T10:50:58.996Z</time></trkpt><trkpt lat="45.75471814358735" lon="8.64365510033"><ele>255.0</ele><time>2026-05-03T10:50:59.996Z</time></trkpt><trkpt lat="45.75485523975258" lon="8.643723462540487"><ele>255.5</ele><time>2026-05-03T10:51:00.996Z</time></trkpt><trkpt lat="45.75499491367736" lon="8.643795178835072"><ele>256.0</ele><time>2026-05-03T10:51:01.996Z</time></trkpt><trkpt lat="45.75513530568271" lon="8.643863981730844"><ele>256.5</ele><time>2026-05-03T10:51:02.996Z</time></trkpt><trkpt lat="45.755276306756" lon="8.643918587379275"><ele>257.0</ele><time>2026-05-03T10:51:03.996Z</time></trkpt><trkpt lat="45.75542554355373" lon="8.643973591275781"><ele>257.33333333333337</ele><time>2026-05-03T10:51:04.996Z</time></trkpt><trkpt lat="45.75557067541557" lon="8.644037167002642"><ele>257.6666666666667</ele><time>2026-05-03T10:51:05.996Z</time></trkpt><trkpt lat="45.75571767276358" lon="8.644102946291945"><ele>258.0</ele><time>2026-05-03T10:51:06.996Z</time></trkpt><trkpt lat="45.755854898508844" lon="8.644170458602467"><ele>258.0</ele><time>2026-05-03T10:51:07.996Z</time></trkpt><trkpt lat="45.75597697638386" lon="8.644230813465413"><ele>258.0</ele><time>2026-05-03T10:51:08.996Z</time></trkpt><trkpt lat="45.75608816951276" lon="8.644335604004183"><ele>258.0</ele><time>2026-05-03T10:51:09.996Z</time></trkpt><trkpt lat="45.7562034584713" lon="8.644452961124577"><ele>258.0</ele><time>2026-05-03T10:51:10.996Z</time></trkpt><trkpt lat="45.75634291763249" lon="8.644593768991978"><ele>258.3333333333333</ele><time>2026-05-03T10:51:11.996Z</time></trkpt><trkpt lat="45.75649542701184" lon="8.644716407473227"><ele>258.66666666666663</ele><time>2026-05-03T10:51:12.996Z</time></trkpt><trkpt lat="45.756628458192864" lon="8.644847764289919"><ele>259.0</ele><time>2026-05-03T10:51:13.996Z</time></trkpt><trkpt lat="45.75676833289822" lon="8.645002132941572"><ele>258.3333333333333</ele><time>2026-05-03T10:51:14.996Z</time></trkpt><trkpt lat="45.756914886314455" lon="8.645136871320977"><ele>257.6666666666667</ele><time>2026-05-03T10:51:15.996Z</time></trkpt><trkpt lat="45.75705137950718" lon="8.6452642152335"><ele>257.0</ele><time>2026-05-03T10:51:16.996Z</time></trkpt><trkpt lat="45.75719189641237" lon="8.645396768273883"><ele>258.33333333333337</ele><time>2026-05-03T10:51:17.996Z</time></trkpt><trkpt lat="45.75733007788492" lon="8.645523218493137"><ele>259.6666666666667</ele><time>2026-05-03T10:51:18.996Z</time></trkpt><trkpt lat="45.75746388358694" lon="8.645644162016113"><ele>261.0</ele><time>2026-05-03T10:51:19.996Z</time></trkpt><trkpt lat="45.757616794505104" lon="8.645764431031246"><ele>260.3333333333333</ele><time>2026-05-03T10:51:20.996Z</time></trkpt><trkpt lat="45.75775959910458" lon="8.645895594213265"><ele>259.66666666666663</ele><time>2026-05-03T10:51:21.996Z</time></trkpt><trkpt lat="45.757896980525715" lon="8.646012616339538"><ele>259.0</ele><time>2026-05-03T10:51:22.996Z</time></trkpt><trkpt lat="45.75801164707834" lon="8.64613663586929"><ele>259.0</ele><time>2026-05-03T10:51:23.996Z</time></trkpt><trkpt lat="45.758115190869525" lon="8.646232264731935"><ele>259.0</ele><time>2026-05-03T10:51:24.996Z</time></trkpt><trkpt lat="45.75820889027986" lon="8.646292012995245"><ele>259.0</ele><time>2026-05-03T10:51:25.996Z</time></trkpt><trkpt lat="45.75825476740733" lon="8.646360678705431"><ele>259.0</ele><time>2026-05-03T10:51:26.996Z</time></trkpt><trkpt lat="45.758184385033" lon="8.646546371321076"><ele>259.0</ele><time>2026-05-03T10:51:29.996Z</time></trkpt><trkpt lat="45.75814678529585" lon="8.64670017152263"><ele>259.0</ele><time>2026-05-03T10:51:30.996Z</time></trkpt><trkpt lat="45.75808173719996" lon="8.646873409353182"><ele>259.0</ele><time>2026-05-03T10:51:31.996Z</time></trkpt><trkpt lat="45.75802189855732" lon="8.647056879161813"><ele>259.0</ele><time>2026-05-03T10:51:32.996Z</time></trkpt><trkpt lat="45.75796893414055" lon="8.647208100008594"><ele>259.0</ele><time>2026-05-03T10:51:33.996Z</time></trkpt><trkpt lat="45.75785778265197" lon="8.647262441877377"><ele>260.25</ele><time>2026-05-03T10:51:34.996Z</time></trkpt><trkpt lat="45.75781387905879" lon="8.647355174553137"><ele>261.5</ele><time>2026-05-03T10:51:35.996Z</time></trkpt><trkpt lat="45.75771358893795" lon="8.647475820726864"><ele>262.75</ele><time>2026-05-03T10:51:37.996Z</time></trkpt><trkpt lat="45.757783231914416" lon="8.647803343943135"><ele>264.0</ele><time>2026-05-03T10:51:39.996Z</time></trkpt><trkpt lat="45.75778586301739" lon="8.647948828396823"><ele>267.4</ele><time>2026-05-03T10:51:41.996Z</time></trkpt><trkpt lat="45.757778169385126" lon="8.648099413774561"><ele>270.79999999999995</ele><time>2026-05-03T10:51:43.996Z</time></trkpt><trkpt lat="45.75778505519618" lon="8.64827143448043"><ele>274.20000000000005</ele><time>2026-05-03T10:51:45.996Z</time></trkpt><trkpt lat="45.75777934492742" lon="8.648370348573712"><ele>277.6</ele><time>2026-05-03T10:51:47.996Z</time></trkpt><trkpt lat="45.7577675527015" lon="8.648489733937332"><ele>281.0</ele><time>2026-05-03T10:51:49.996Z</time></trkpt><trkpt lat="45.75779381990909" lon="8.648644233602225"><ele>284.2</ele><time>2026-05-03T10:51:51.996Z</time></trkpt><trkpt lat="45.75778639219503" lon="8.648768499491766"><ele>287.40000000000003</ele><time>2026-05-03T10:51:54.995Z</time></trkpt><trkpt lat="45.75773429307681" lon="8.648823392034492"><ele>290.6</ele><time>2026-05-03T10:51:56.995Z</time></trkpt><trkpt lat="45.757663258923486" lon="8.648948704357505"><ele>293.8</ele><time>2026-05-03T10:51:58.995Z</time></trkpt><trkpt lat="45.757621589103785" lon="8.649030551381204"><ele>297.0</ele><time>2026-05-03T10:51:59.995Z</time></trkpt><trkpt lat="45.75754300073661" lon="8.64915770587904"><ele>297.6</ele><time>2026-05-03T10:52:01.995Z</time></trkpt><trkpt lat="45.7574613603504" lon="8.649189974658833"><ele>298.2</ele><time>2026-05-03T10:52:02.995Z</time></trkpt><trkpt lat="45.75737399753183" lon="8.649199462071849"><ele>298.8</ele><time>2026-05-03T10:52:03.995Z</time></trkpt><trkpt lat="45.75725869133208" lon="8.649173025855692"><ele>299.4</ele><time>2026-05-03T10:52:04.995Z</time></trkpt><trkpt lat="45.757185169607965" lon="8.649158110986555"><ele>300.0</ele><time>2026-05-03T10:52:05.995Z</time></trkpt><trkpt lat="45.75735607809402" lon="8.64913290580256"><ele>300.0</ele><time>2026-05-03T10:52:06.995Z</time></trkpt><trkpt lat="45.757274470746935" lon="8.649141244389453"><ele>300.0</ele><time>2026-05-03T10:52:08.995Z</time></trkpt><trkpt lat="45.75721151534129" lon="8.649146096070577"><ele>300.0</ele><time>2026-05-03T10:52:09.995Z</time></trkpt><trkpt lat="45.75714410298071" lon="8.649159246109388"><ele>300.0</ele><time>2026-05-03T10:52:10.995Z</time></trkpt><trkpt lat="45.75706381694333" lon="8.649183512531764"><ele>300.0</ele><time>2026-05-03T10:52:13.995Z</time></trkpt><trkpt lat="45.75696971672566" lon="8.649195451403866"><ele>300.0</ele><time>2026-05-03T10:52:16.995Z</time></trkpt><trkpt lat="45.756887129844344" lon="8.64922953709982"><ele>301.4</ele><time>2026-05-03T10:52:18.995Z</time></trkpt><trkpt lat="45.75680802473713" lon="8.649326954401046"><ele>302.8</ele><time>2026-05-03T10:52:20.995Z</time></trkpt><trkpt lat="45.75675725787042" lon="8.649411292707894"><ele>304.2</ele><time>2026-05-03T10:52:21.995Z</time></trkpt><trkpt lat="45.75683436750885" lon="8.649531738579462"><ele>305.6</ele><time>2026-05-03T10:52:24.995Z</time></trkpt><trkpt lat="45.75692465707577" lon="8.649572806080636"><ele>307.0</ele><time>2026-05-03T10:52:26.995Z</time></trkpt><trkpt lat="45.75696280043321" lon="8.649664432408201"><ele>308.2</ele><time>2026-05-03T10:52:28.995Z</time></trkpt><trkpt lat="45.75696262851336" lon="8.649773825206454"><ele>309.4</ele><time>2026-05-03T10:52:29.995Z</time></trkpt><trkpt lat="45.75697977044778" lon="8.649895604718067"><ele>310.6</ele><time>2026-05-03T10:52:30.995Z</time></trkpt><trkpt lat="45.75704314019039" lon="8.649918834464074"><ele>311.8</ele><time>2026-05-03T10:52:32.995Z</time></trkpt><trkpt lat="45.7571653060784" lon="8.649871264876914"><ele>313.0</ele><time>2026-05-03T10:52:33.995Z</time></trkpt><trkpt lat="45.75728327816147" lon="8.649886727411687"><ele>313.0</ele><time>2026-05-03T10:52:34.995Z</time></trkpt><trkpt lat="45.75735133220823" lon="8.64990872936444"><ele>313.0</ele><time>2026-05-03T10:52:35.995Z</time></trkpt><trkpt lat="45.75734083000998" lon="8.650016190331472"><ele>313.0</ele><time>2026-05-03T10:52:37.995Z</time></trkpt><trkpt lat="45.75737144158526" lon="8.650095373958656"><ele>313.0</ele><time>2026-05-03T10:52:38.995Z</time></trkpt><trkpt lat="45.75744532709036" lon="8.650216469377549"><ele>313.0</ele><time>2026-05-03T10:52:39.995Z</time></trkpt><trkpt lat="45.75750211793952" lon="8.650320754252654"><ele>313.0</ele><time>2026-05-03T10:52:40.995Z</time></trkpt><trkpt lat="45.75758004634266" lon="8.650351836146209"><ele>315.0</ele><time>2026-05-03T10:52:42.995Z</time></trkpt><trkpt lat="45.75769957270219" lon="8.650381977410579"><ele>317.0</ele><time>2026-05-03T10:52:44.995Z</time></trkpt><trkpt lat="45.757763705194336" lon="8.650439451273606"><ele>319.0</ele><time>2026-05-03T10:52:45.995Z</time></trkpt><trkpt lat="45.757822692931256" lon="8.650503715751158"><ele>321.0</ele><time>2026-05-03T10:52:47.995Z</time></trkpt><trkpt lat="45.75787993795367" lon="8.650569556548803"><ele>323.0</ele><time>2026-05-03T10:52:49.995Z</time></trkpt><trkpt lat="45.75797231760206" lon="8.65069632620583"><ele>323.00000000000006</ele><time>2026-05-03T10:52:51.995Z</time></trkpt><trkpt lat="45.75802529324083" lon="8.650755833988166"><ele>323.0</ele><time>2026-05-03T10:52:52.995Z</time></trkpt><trkpt lat="45.75811801762399" lon="8.65080586352317"><ele>323.0</ele><time>2026-05-03T10:52:57.995Z</time></trkpt><trkpt lat="45.75817399648892" lon="8.650854016554186"><ele>323.0</ele><time>2026-05-03T10:52:59.995Z</time></trkpt><trkpt lat="45.75812760220819" lon="8.650932205971001"><ele>323.0</ele><time>2026-05-03T10:53:01.995Z</time></trkpt><trkpt lat="45.758165279650356" lon="8.651013263300598"><ele>323.00000000000006</ele><time>2026-05-03T10:53:03.995Z</time></trkpt><trkpt lat="45.758210936181314" lon="8.651088999028717"><ele>323.0</ele><time>2026-05-03T10:53:04.995Z</time></trkpt><trkpt lat="45.758278780854134" lon="8.651134955539357"><ele>324.33333333333337</ele><time>2026-05-03T10:53:06.995Z</time></trkpt><trkpt lat="45.758345620096065" lon="8.65116604781817"><ele>325.6666666666667</ele><time>2026-05-03T10:53:08.995Z</time></trkpt><trkpt lat="45.75842115622944" lon="8.651213840515155"><ele>327.0</ele><time>2026-05-03T10:53:10.995Z</time></trkpt><trkpt lat="45.75849944616181" lon="8.65125259444837"><ele>328.3333333333333</ele><time>2026-05-03T10:53:11.995Z</time></trkpt><trkpt lat="45.75859566785314" lon="8.651316191722756"><ele>329.66666666666663</ele><time>2026-05-03T10:53:12.995Z</time></trkpt><trkpt lat="45.758683808073506" lon="8.651398660860476"><ele>331.0</ele><time>2026-05-03T10:53:13.995Z</time></trkpt><trkpt lat="45.758735089653136" lon="8.65145586409512"><ele>331.0</ele><time>2026-05-03T10:53:14.995Z</time></trkpt><trkpt lat="45.758780639674605" lon="8.651597531025807"><ele>331.0</ele><time>2026-05-03T10:53:17.995Z</time></trkpt><trkpt lat="45.75883275483972" lon="8.651672989426547"><ele>331.0</ele><time>2026-05-03T10:53:18.995Z</time></trkpt><trkpt lat="45.758954512505056" lon="8.65171710198798"><ele>331.0</ele><time>2026-05-03T10:53:19.995Z</time></trkpt><trkpt lat="45.759055859894374" lon="8.651768366133947"><ele>331.0</ele><time>2026-05-03T10:53:20.995Z</time></trkpt><trkpt lat="45.759138428507626" lon="8.651853387378521"><ele>331.0</ele><time>2026-05-03T10:53:22.995Z</time></trkpt><trkpt lat="45.75921538629483" lon="8.651943563298447"><ele>331.0</ele><time>2026-05-03T10:53:23.995Z</time></trkpt><trkpt lat="45.759296557542314" lon="8.652023107311724"><ele>331.0</ele><time>2026-05-03T10:53:24.995Z</time></trkpt><trkpt lat="45.75936422777895" lon="8.652084153011296"><ele>331.0</ele><time>2026-05-03T10:53:25.995Z</time></trkpt><trkpt lat="45.759426659484426" lon="8.652147215562644"><ele>331.0</ele><time>2026-05-03T10:53:26.995Z</time></trkpt><trkpt lat="45.75949041193204" lon="8.652229510959764"><ele>331.0</ele><time>2026-05-03T10:53:27.995Z</time></trkpt><trkpt lat="45.759543688952824" lon="8.652320491361468"><ele>332.16666666666663</ele><time>2026-05-03T10:53:28.995Z</time></trkpt><trkpt lat="45.75960663102068" lon="8.652405406464885"><ele>333.3333333333333</ele><time>2026-05-03T10:53:30.995Z</time></trkpt><trkpt lat="45.75968182637591" lon="8.65250507383469"><ele>334.5</ele><time>2026-05-03T10:53:32.995Z</time></trkpt><trkpt lat="45.759745707666504" lon="8.652589945727906"><ele>335.6666666666667</ele><time>2026-05-03T10:53:33.995Z</time></trkpt><trkpt lat="45.759817466871866" lon="8.652640814814559"><ele>336.83333333333337</ele><time>2026-05-03T10:53:34.995Z</time></trkpt><trkpt lat="45.75987743354447" lon="8.652700793290018"><ele>338.0</ele><time>2026-05-03T10:53:35.995Z</time></trkpt><trkpt lat="45.7599325995094" lon="8.652813072645456"><ele>339.1666666666667</ele><time>2026-05-03T10:53:36.995Z</time></trkpt><trkpt lat="45.759986545611284" lon="8.652907017596565"><ele>340.33333333333337</ele><time>2026-05-03T10:53:37.995Z</time></trkpt><trkpt lat="45.76002245668569" lon="8.652999815898646"><ele>341.5</ele><time>2026-05-03T10:53:38.995Z</time></trkpt><trkpt lat="45.76004878474722" lon="8.653090318778448"><ele>342.6666666666667</ele><time>2026-05-03T10:53:39.995Z</time></trkpt><trkpt lat="45.76011712745702" lon="8.6530691845051"><ele>343.8333333333333</ele><time>2026-05-03T10:53:41.995Z</time></trkpt><trkpt lat="45.76023583970005" lon="8.65310846119576"><ele>345.0</ele><time>2026-05-03T10:53:43.995Z</time></trkpt><trkpt lat="45.760236279463136" lon="8.653253271495206"><ele>345.0</ele><time>2026-05-03T10:53:45.995Z</time></trkpt><trkpt lat="45.76020616647626" lon="8.653349869123458"><ele>345.0</ele><time>2026-05-03T10:53:47.995Z</time></trkpt><trkpt lat="45.760140718379596" lon="8.653442239556142"><ele>345.0</ele><time>2026-05-03T10:53:50.995Z</time></trkpt><trkpt lat="45.76011612284105" lon="8.653607755317934"><ele>345.0</ele><time>2026-05-03T10:53:52.995Z</time></trkpt><trkpt lat="45.76016102157147" lon="8.653705748003917"><ele>345.0</ele><time>2026-05-03T10:53:55.995Z</time></trkpt><trkpt lat="45.76021632737795" lon="8.65379046001336"><ele>345.0</ele><time>2026-05-03T10:53:57.995Z</time></trkpt><trkpt lat="45.76024019863458" lon="8.653889908887962"><ele>349.0</ele><time>2026-05-03T10:53:58.995Z</time></trkpt><trkpt lat="45.76027107427445" lon="8.65407750996535"><ele>353.0</ele><time>2026-05-03T10:54:00.995Z</time></trkpt><trkpt lat="45.76029054437214" lon="8.654200874452298"><ele>357.0</ele><time>2026-05-03T10:54:02.995Z</time></trkpt><trkpt lat="45.76026257311535" lon="8.65434854584923"><ele>361.0</ele><time>2026-05-03T10:54:04.995Z</time></trkpt><trkpt lat="45.760235181853396" lon="8.654501023184066"><ele>365.0</ele><time>2026-05-03T10:54:06.995Z</time></trkpt><trkpt lat="45.76024119352742" lon="8.654602690511341"><ele>367.5</ele><time>2026-05-03T10:54:08.995Z</time></trkpt><trkpt lat="45.760300404230705" lon="8.65470175168483"><ele>370.0</ele><time>2026-05-03T10:54:10.995Z</time></trkpt><trkpt lat="45.760337342319175" lon="8.654796822820835"><ele>372.5</ele><time>2026-05-03T10:54:12.995Z</time></trkpt><trkpt lat="45.76040100692064" lon="8.65480737086863"><ele>375.0</ele><time>2026-05-03T10:54:14.995Z</time></trkpt><trkpt lat="45.760489860777284" lon="8.654807710041238"><ele>377.5</ele><time>2026-05-03T10:54:15.995Z</time></trkpt><trkpt lat="45.76055267156724" lon="8.654833857666528"><ele>380.0</ele><time>2026-05-03T10:54:16.995Z</time></trkpt><trkpt lat="45.760653537595076" lon="8.654872307411049"><ele>380.0</ele><time>2026-05-03T10:54:17.995Z</time></trkpt><trkpt lat="45.76070528278662" lon="8.654939367788725"><ele>380.0</ele><time>2026-05-03T10:54:18.995Z</time></trkpt><trkpt lat="45.76074296301224" lon="8.655058450825289"><ele>380.0</ele><time>2026-05-03T10:54:27.995Z</time></trkpt><trkpt lat="45.760833857525384" lon="8.655087791302831"><ele>380.0</ele><time>2026-05-03T10:55:29.995Z</time></trkpt><trkpt lat="45.76082618257323" lon="8.655191779794952"><ele>380.0</ele><time>2026-05-03T10:58:22.985Z</time></trkpt><trkpt lat="45.7607846749557" lon="8.65527742253247"><ele>380.0</ele><time>2026-05-03T10:58:24.985Z</time></trkpt><trkpt lat="45.76073664573744" lon="8.65533656149233"><ele>382.33333333333337</ele><time>2026-05-03T10:58:28.985Z</time></trkpt><trkpt lat="45.76065543046732" lon="8.655351390165155"><ele>384.6666666666667</ele><time>2026-05-03T10:58:31.985Z</time></trkpt><trkpt lat="45.76057493871086" lon="8.655406234558464"><ele>387.0</ele><time>2026-05-03T10:58:34.985Z</time></trkpt><trkpt lat="45.76049499623648" lon="8.65543963574069"><ele>389.33333333333337</ele><time>2026-05-03T10:58:36.984Z</time></trkpt><trkpt lat="45.76042027029529" lon="8.655453669121556"><ele>391.6666666666667</ele><time>2026-05-03T10:58:38.984Z</time></trkpt><trkpt lat="45.76031417420992" lon="8.655492077079401"><ele>394.0</ele><time>2026-05-03T10:58:40.984Z</time></trkpt><trkpt lat="45.760214547994295" lon="8.655439619588066"><ele>395.2</ele><time>2026-05-03T10:58:42.984Z</time></trkpt><trkpt lat="45.76014958361858" lon="8.65542809697464"><ele>396.4</ele><time>2026-05-03T10:58:43.984Z</time></trkpt><trkpt lat="45.760073263365314" lon="8.6554012523579"><ele>397.6</ele><time>2026-05-03T10:58:44.984Z</time></trkpt><trkpt lat="45.7599705582859" lon="8.655354696846008"><ele>398.8</ele><time>2026-05-03T10:58:46.984Z</time></trkpt><trkpt lat="45.759853145362314" lon="8.655264156284117"><ele>400.0</ele><time>2026-05-03T10:58:48.984Z</time></trkpt><trkpt lat="45.759749329055694" lon="8.655197021852207"><ele>400.0</ele><time>2026-05-03T10:58:50.984Z</time></trkpt><trkpt lat="45.759675814917415" lon="8.655156772421197"><ele>400.0</ele><time>2026-05-03T10:58:51.984Z</time></trkpt><trkpt lat="45.75962024783363" lon="8.655089598361618"><ele>400.0</ele><time>2026-05-03T10:58:52.984Z</time></trkpt><trkpt lat="45.759535974651996" lon="8.655017079966159"><ele>400.0</ele><time>2026-05-03T10:58:54.984Z</time></trkpt><trkpt lat="45.75940867427131" lon="8.654959794454049"><ele>400.0</ele><time>2026-05-03T10:58:56.984Z</time></trkpt><trkpt lat="45.7593088924612" lon="8.654891445973282"><ele>400.00000000000006</ele><time>2026-05-03T10:58:58.984Z</time></trkpt><trkpt lat="45.75921302006919" lon="8.654804406624393"><ele>400.0</ele><time>2026-05-03T10:58:59.984Z</time></trkpt><trkpt lat="45.759104510310976" lon="8.654760910405832"><ele>400.0</ele><time>2026-05-03T10:59:00.984Z</time></trkpt><trkpt lat="45.75904087385879" lon="8.65472163650594"><ele>400.0</ele><time>2026-05-03T10:59:01.984Z</time></trkpt><trkpt lat="45.75898225722599" lon="8.654657300397526"><ele>400.00000000000006</ele><time>2026-05-03T10:59:02.984Z</time></trkpt><trkpt lat="45.75891871425903" lon="8.654588780252617"><ele>400.0</ele><time>2026-05-03T10:59:04.984Z</time></trkpt><trkpt lat="45.75883506410584" lon="8.654553241790202"><ele>400.00000000000006</ele><time>2026-05-03T10:59:06.984Z</time></trkpt><trkpt lat="45.758770248922296" lon="8.654511041637306"><ele>400.0</ele><time>2026-05-03T10:59:08.984Z</time></trkpt><trkpt lat="45.75868962791664" lon="8.654447718194035"><ele>400.0</ele><time>2026-05-03T10:59:10.984Z</time></trkpt><trkpt lat="45.75862179692829" lon="8.654383984853391"><ele>400.0</ele><time>2026-05-03T10:59:12.984Z</time></trkpt><trkpt lat="45.75853701581065" lon="8.65435076597068"><ele>400.00000000000006</ele><time>2026-05-03T10:59:15.984Z</time></trkpt><trkpt lat="45.75847789219026" lon="8.654292707552573"><ele>400.0</ele><time>2026-05-03T10:59:20.984Z</time></trkpt><trkpt lat="45.75841309150338" lon="8.654300283270604"><ele>400.1666666666667</ele><time>2026-05-03T10:59:43.985Z</time></trkpt><trkpt lat="45.75833545645035" lon="8.65429690855153"><ele>400.33333333333337</ele><time>2026-05-03T10:59:46.984Z</time></trkpt><trkpt lat="45.75828682774211" lon="8.654220168395055"><ele>400.5</ele><time>2026-05-03T10:59:56.984Z</time></trkpt><trkpt lat="45.75822764581397" lon="8.654161218417585"><ele>400.66666666666663</ele><time>2026-05-03T11:00:09.984Z</time></trkpt><trkpt lat="45.75813139127606" lon="8.654142719098147"><ele>400.8333333333333</ele><time>2026-05-03T11:00:12.984Z</time></trkpt><trkpt lat="45.75806102748536" lon="8.65417006734459"><ele>401.0</ele><time>2026-05-03T11:00:14.984Z</time></trkpt><trkpt lat="45.75796893142149" lon="8.654144312846203"><ele>400.99999999999994</ele><time>2026-05-03T11:00:16.984Z</time></trkpt><trkpt lat="45.75786031890751" lon="8.65414257651278"><ele>401.0</ele><time>2026-05-03T11:00:18.984Z</time></trkpt><trkpt lat="45.75778260161742" lon="8.654173995197743"><ele>401.0</ele><time>2026-05-03T11:00:20.984Z</time></trkpt><trkpt lat="45.7576964987541" lon="8.654154144804826"><ele>401.0</ele><time>2026-05-03T11:00:23.984Z</time></trkpt><trkpt lat="45.757623617717776" lon="8.654098785501255"><ele>400.99999999999994</ele><time>2026-05-03T11:00:25.984Z</time></trkpt><trkpt lat="45.757538312944696" lon="8.654138020372892"><ele>401.0</ele><time>2026-05-03T11:00:29.984Z</time></trkpt><trkpt lat="45.75754597366165" lon="8.654245685010368"><ele>402.99999999999994</ele><time>2026-05-03T11:00:32.984Z</time></trkpt><trkpt lat="45.75759888815947" lon="8.654319894196027"><ele>405.0</ele><time>2026-05-03T11:00:34.984Z</time></trkpt><trkpt lat="45.757574722209284" lon="8.65444337070445"><ele>407.0</ele><time>2026-05-03T11:00:36.984Z</time></trkpt><trkpt lat="45.75751067387314" lon="8.654479726232601"><ele>409.0</ele><time>2026-05-03T11:00:38.984Z</time></trkpt><trkpt lat="45.75747147400033" lon="8.65458645501604"><ele>410.99999999999994</ele><time>2026-05-03T11:00:42.984Z</time></trkpt><trkpt lat="45.75741257909394" lon="8.654724803775299"><ele>413.0</ele><time>2026-05-03T11:00:44.984Z</time></trkpt><trkpt lat="45.757403424880884" lon="8.654857983292725"><ele>414.79999999999995</ele><time>2026-05-03T11:00:46.984Z</time></trkpt><trkpt lat="45.75734564727687" lon="8.65496703857458"><ele>416.6</ele><time>2026-05-03T11:00:49.984Z</time></trkpt><trkpt lat="45.757274192004125" lon="8.655017787469653"><ele>418.4</ele><time>2026-05-03T11:00:50.984Z</time></trkpt><trkpt lat="45.757204586164484" lon="8.655086400066313"><ele>420.20000000000005</ele><time>2026-05-03T11:00:51.984Z</time></trkpt><trkpt lat="45.75711902773072" lon="8.655156135251127"><ele>422.0</ele><time>2026-05-03T11:00:53.984Z</time></trkpt><trkpt lat="45.757006702608784" lon="8.655250117282439"><ele>420.75</ele><time>2026-05-03T11:00:55.984Z</time></trkpt><trkpt lat="45.75693286285011" lon="8.655344330793415"><ele>419.5</ele><time>2026-05-03T11:00:56.984Z</time></trkpt><trkpt lat="45.75684440948998" lon="8.655469717033425"><ele>418.25</ele><time>2026-05-03T11:00:57.984Z</time></trkpt><trkpt lat="45.756772657828755" lon="8.655593405852489"><ele>417.0</ele><time>2026-05-03T11:00:58.984Z</time></trkpt><trkpt lat="45.75669384751445" lon="8.655728760642504"><ele>419.75</ele><time>2026-05-03T11:00:59.984Z</time></trkpt><trkpt lat="45.75655891637437" lon="8.655791725158043"><ele>422.5</ele><time>2026-05-03T11:01:01.984Z</time></trkpt><trkpt lat="45.75647602801951" lon="8.655817756561742"><ele>425.25</ele><time>2026-05-03T11:01:02.984Z</time></trkpt><trkpt lat="45.75634973281657" lon="8.655852138195218"><ele>428.0</ele><time>2026-05-03T11:01:04.984Z</time></trkpt><trkpt lat="45.756259581408024" lon="8.655932854557049"><ele>428.0</ele><time>2026-05-03T11:01:06.984Z</time></trkpt><trkpt lat="45.75625468475847" lon="8.656042581153823"><ele>427.99999999999994</ele><time>2026-05-03T11:01:09.984Z</time></trkpt><trkpt lat="45.75612885832243" lon="8.656142851168312"><ele>427.99999999999994</ele><time>2026-05-03T11:01:11.984Z</time></trkpt><trkpt lat="45.7560371768825" lon="8.656176935501433"><ele>428.0</ele><time>2026-05-03T11:01:12.984Z</time></trkpt><trkpt lat="45.75595293723495" lon="8.656204498419244"><ele>428.0</ele><time>2026-05-03T11:01:13.984Z</time></trkpt><trkpt lat="45.75588878660667" lon="8.6562692420678"><ele>427.4</ele><time>2026-05-03T11:01:14.984Z</time></trkpt><trkpt lat="45.75581922804604" lon="8.656311559689552"><ele>426.79999999999995</ele><time>2026-05-03T11:01:16.984Z</time></trkpt><trkpt lat="45.75574542156057" lon="8.65632744750339"><ele>426.2</ele><time>2026-05-03T11:01:18.984Z</time></trkpt><trkpt lat="45.75569533219571" lon="8.65641380663812"><ele>425.6</ele><time>2026-05-03T11:01:19.984Z</time></trkpt><trkpt lat="45.75560008584852" lon="8.656483648906926"><ele>425.0</ele><time>2026-05-03T11:01:21.984Z</time></trkpt><trkpt lat="45.75543979274493" lon="8.656483244868589"><ele>424.99999999999994</ele><time>2026-05-03T11:01:23.984Z</time></trkpt><trkpt lat="45.75536607436014" lon="8.656504374158065"><ele>425.0</ele><time>2026-05-03T11:01:24.984Z</time></trkpt><trkpt lat="45.75530409127186" lon="8.656523464249256"><ele>425.0</ele><time>2026-05-03T11:01:25.984Z</time></trkpt><trkpt lat="45.755207394565" lon="8.656535020106832"><ele>425.0</ele><time>2026-05-03T11:01:26.984Z</time></trkpt><trkpt lat="45.75510882765882" lon="8.656548579026554"><ele>424.99999999999994</ele><time>2026-05-03T11:01:27.984Z</time></trkpt><trkpt lat="45.755024599405715" lon="8.656563266335912"><ele>425.0</ele><time>2026-05-03T11:01:28.984Z</time></trkpt><trkpt lat="45.754946997897996" lon="8.656572414157276"><ele>425.4</ele><time>2026-05-03T11:01:29.984Z</time></trkpt><trkpt lat="45.754840758712554" lon="8.65659122039945"><ele>425.8</ele><time>2026-05-03T11:01:31.984Z</time></trkpt><trkpt lat="45.75478047800007" lon="8.656677991188747"><ele>426.20000000000005</ele><time>2026-05-03T11:01:33.984Z</time></trkpt><trkpt lat="45.75471533100474" lon="8.656682427485952"><ele>426.6</ele><time>2026-05-03T11:01:34.984Z</time></trkpt><trkpt lat="45.75460377327584" lon="8.65671796084451"><ele>427.0</ele><time>2026-05-03T11:01:36.984Z</time></trkpt><trkpt lat="45.7545147432512" lon="8.656760820316224"><ele>427.0</ele><time>2026-05-03T11:01:37.984Z</time></trkpt><trkpt lat="45.75442164731268" lon="8.656810433413415"><ele>427.00000000000006</ele><time>2026-05-03T11:01:38.983Z</time></trkpt><trkpt lat="45.75429750051183" lon="8.656861555782477"><ele>427.00000000000006</ele><time>2026-05-03T11:01:39.983Z</time></trkpt><trkpt lat="45.75422742066181" lon="8.656885516064701"><ele>427.0</ele><time>2026-05-03T11:01:40.984Z</time></trkpt><trkpt lat="45.75414986191487" lon="8.656918344882172"><ele>427.0</ele><time>2026-05-03T11:01:42.983Z</time></trkpt><trkpt lat="45.75408812819669" lon="8.656964172700667"><ele>425.6</ele><time>2026-05-03T11:01:46.983Z</time></trkpt><trkpt lat="45.754020518505804" lon="8.65701394297962"><ele>424.20000000000005</ele><time>2026-05-03T11:01:51.984Z</time></trkpt><trkpt lat="45.75410098131916" lon="8.656999443451602"><ele>422.8</ele><time>2026-05-03T11:02:02.984Z</time></trkpt><trkpt lat="45.75417359016795" lon="8.656980301365484"><ele>421.4</ele><time>2026-05-03T11:02:04.984Z</time></trkpt><trkpt lat="45.754097909332515" lon="8.656886977115265"><ele>420.0</ele><time>2026-05-03T11:02:07.984Z</time></trkpt><trkpt lat="45.753995746224504" lon="8.656720912329934"><ele>419.85714285714283</ele><time>2026-05-03T11:02:09.984Z</time></trkpt><trkpt lat="45.75393389392887" lon="8.656625787091519"><ele>419.7142857142857</ele><time>2026-05-03T11:02:10.984Z</time></trkpt><trkpt lat="45.75388005150849" lon="8.656565521710812"><ele>419.57142857142856</ele><time>2026-05-03T11:02:12.984Z</time></trkpt><trkpt lat="45.753817710137554" lon="8.656551314610363"><ele>419.42857142857144</ele><time>2026-05-03T11:02:16.984Z</time></trkpt><trkpt lat="45.75374780624293" lon="8.65651295515889"><ele>419.2857142857143</ele><time>2026-05-03T11:02:17.984Z</time></trkpt><trkpt lat="45.75368484733503" lon="8.656477115954845"><ele>419.1428571428571</ele><time>2026-05-03T11:02:18.984Z</time></trkpt><trkpt lat="45.753618452539385" lon="8.656494189456668"><ele>419.0</ele><time>2026-05-03T11:02:20.984Z</time></trkpt><trkpt lat="45.753554801391566" lon="8.65655098816291"><ele>417.6</ele><time>2026-05-03T11:02:22.984Z</time></trkpt><trkpt lat="45.7534686108929" lon="8.656598329013278"><ele>416.2</ele><time>2026-05-03T11:02:23.984Z</time></trkpt><trkpt lat="45.753387788143094" lon="8.656637604727374"><ele>414.8</ele><time>2026-05-03T11:02:24.984Z</time></trkpt><trkpt lat="45.75330577103728" lon="8.656676713546934"><ele>413.40000000000003</ele><time>2026-05-03T11:02:25.984Z</time></trkpt><trkpt lat="45.75326906323644" lon="8.656775416296146"><ele>412.0</ele><time>2026-05-03T11:02:26.984Z</time></trkpt><trkpt lat="45.75322095867533" lon="8.656939765122686"><ele>413.5</ele><time>2026-05-03T11:02:28.984Z</time></trkpt><trkpt lat="45.753187023923005" lon="8.657017844221205"><ele>415.0</ele><time>2026-05-03T11:02:29.984Z</time></trkpt><trkpt lat="45.75310404863649" lon="8.657085640280854"><ele>416.5</ele><time>2026-05-03T11:02:30.984Z</time></trkpt><trkpt lat="45.752986509060335" lon="8.657180607763436"><ele>418.0</ele><time>2026-05-03T11:02:31.984Z</time></trkpt><trkpt lat="45.752828540235846" lon="8.657293800445588"><ele>415.5</ele><time>2026-05-03T11:02:32.983Z</time></trkpt><trkpt lat="45.75264799299571" lon="8.657385606113893"><ele>413.0</ele><time>2026-05-03T11:02:33.983Z</time></trkpt><trkpt lat="45.752527867005625" lon="8.657467718283314"><ele>410.5</ele><time>2026-05-03T11:02:34.983Z</time></trkpt><trkpt lat="45.75244780844807" lon="8.657534415260466"><ele>408.0</ele><time>2026-05-03T11:02:35.983Z</time></trkpt><trkpt lat="45.75235276522913" lon="8.657544404029492"><ele>408.0</ele><time>2026-05-03T11:02:36.983Z</time></trkpt><trkpt lat="45.75224908542554" lon="8.65756463598384"><ele>408.0</ele><time>2026-05-03T11:02:37.983Z</time></trkpt><trkpt lat="45.75219044111543" lon="8.65763374971983"><ele>408.0</ele><time>2026-05-03T11:02:38.983Z</time></trkpt><trkpt lat="45.752143227464906" lon="8.657707607488495"><ele>408.0</ele><time>2026-05-03T11:02:39.983Z</time></trkpt><trkpt lat="45.75207818902088" lon="8.657789441737036"><ele>408.0</ele><time>2026-05-03T11:02:40.983Z</time></trkpt><trkpt lat="45.75202511312931" lon="8.657848424613062"><ele>408.0</ele><time>2026-05-03T11:02:41.983Z</time></trkpt><trkpt lat="45.75194533653233" lon="8.657903510422852"><ele>406.0</ele><time>2026-05-03T11:02:42.983Z</time></trkpt><trkpt lat="45.751848489045955" lon="8.657956093023174"><ele>404.0</ele><time>2026-05-03T11:02:43.983Z</time></trkpt><trkpt lat="45.75178359187554" lon="8.657982927411524"><ele>402.0</ele><time>2026-05-03T11:02:44.983Z</time></trkpt><trkpt lat="45.75170078577929" lon="8.658040614946156"><ele>400.0</ele><time>2026-05-03T11:02:46.983Z</time></trkpt><trkpt lat="45.7516254259785" lon="8.65810290131281"><ele>398.0</ele><time>2026-05-03T11:02:48.983Z</time></trkpt><trkpt lat="45.75153491435795" lon="8.658130063989038"><ele>396.0</ele><time>2026-05-03T11:02:50.983Z</time></trkpt><trkpt lat="45.751401544413994" lon="8.658159396755666"><ele>396.0</ele><time>2026-05-03T11:02:52.983Z</time></trkpt><trkpt lat="45.751327594648856" lon="8.658140060237507"><ele>396.0</ele><time>2026-05-03T11:02:53.983Z</time></trkpt><trkpt lat="45.75124730189539" lon="8.658105304701403"><ele>396.0</ele><time>2026-05-03T11:02:55.983Z</time></trkpt><trkpt lat="45.751184520661845" lon="8.658138085083207"><ele>396.0</ele><time>2026-05-03T11:02:57.983Z</time></trkpt><trkpt lat="45.75113403010303" lon="8.658195800570434"><ele>396.0</ele><time>2026-05-03T11:02:58.983Z</time></trkpt><trkpt lat="45.751061783159095" lon="8.658234870302053"><ele>396.0</ele><time>2026-05-03T11:02:59.983Z</time></trkpt><trkpt lat="45.75095716021884" lon="8.658264347952697"><ele>391.75</ele><time>2026-05-03T11:03:00.983Z</time></trkpt><trkpt lat="45.750810070210036" lon="8.658302811790126"><ele>387.5</ele><time>2026-05-03T11:03:01.983Z</time></trkpt><trkpt lat="45.75068976022602" lon="8.658341429180975"><ele>383.25</ele><time>2026-05-03T11:03:02.983Z</time></trkpt><trkpt lat="45.750599073151236" lon="8.658350775874991"><ele>379.0</ele><time>2026-05-03T11:03:03.983Z</time></trkpt><trkpt lat="45.75047825235711" lon="8.658378433982227"><ele>379.0</ele><time>2026-05-03T11:03:04.983Z</time></trkpt><trkpt lat="45.750357619238386" lon="8.65839180165793"><ele>379.0</ele><time>2026-05-03T11:03:05.983Z</time></trkpt><trkpt lat="45.75025885170456" lon="8.658405313871022"><ele>379.0</ele><time>2026-05-03T11:03:06.983Z</time></trkpt><trkpt lat="45.75016084146435" lon="8.658446199019169"><ele>379.0</ele><time>2026-05-03T11:03:07.983Z</time></trkpt><trkpt lat="45.7500566695742" lon="8.65849720610377"><ele>379.0</ele><time>2026-05-03T11:03:08.983Z</time></trkpt><trkpt lat="45.749965683699834" lon="8.65855776788833"><ele>382.0</ele><time>2026-05-03T11:03:09.983Z</time></trkpt><trkpt lat="45.74986640634349" lon="8.65862196238732"><ele>385.0</ele><time>2026-05-03T11:03:10.983Z</time></trkpt><trkpt lat="45.74974452456155" lon="8.658678151957902"><ele>388.0</ele><time>2026-05-03T11:03:11.983Z</time></trkpt><trkpt lat="45.749622047320074" lon="8.658747954205532"><ele>391.0</ele><time>2026-05-03T11:03:12.983Z</time></trkpt><trkpt lat="45.7494809852528" lon="8.658782652454839"><ele>388.6</ele><time>2026-05-03T11:03:13.983Z</time></trkpt><trkpt lat="45.7493573359555" lon="8.65881887227637"><ele>386.20000000000005</ele><time>2026-05-03T11:03:14.983Z</time></trkpt><trkpt lat="45.74923983406477" lon="8.658835549205362"><ele>383.79999999999995</ele><time>2026-05-03T11:03:15.983Z</time></trkpt><trkpt lat="45.74916944022981" lon="8.65885562127542"><ele>381.4</ele><time>2026-05-03T11:03:16.983Z</time></trkpt><trkpt lat="45.74903684400323" lon="8.6588507407692"><ele>379.0</ele><time>2026-05-03T11:03:18.983Z</time></trkpt><trkpt lat="45.74896300342074" lon="8.658831538017376"><ele>379.0</ele><time>2026-05-03T11:03:19.983Z</time></trkpt><trkpt lat="45.74885807007727" lon="8.658860753010021"><ele>379.0</ele><time>2026-05-03T11:03:20.983Z</time></trkpt><trkpt lat="45.74874244584133" lon="8.658915300497947"><ele>379.0</ele><time>2026-05-03T11:03:21.983Z</time></trkpt><trkpt lat="45.748640652637015" lon="8.658932130614318"><ele>379.0</ele><time>2026-05-03T11:03:22.983Z</time></trkpt><trkpt lat="45.748549057462974" lon="8.658968068489333"><ele>379.0</ele><time>2026-05-03T11:03:23.983Z</time></trkpt><trkpt lat="45.74847813145273" lon="8.65902938178364"><ele>378.0</ele><time>2026-05-03T11:03:24.983Z</time></trkpt><trkpt lat="45.74837361734377" lon="8.659124158242596"><ele>377.0</ele><time>2026-05-03T11:03:25.983Z</time></trkpt><trkpt lat="45.74831068307501" lon="8.659215121467474"><ele>376.0</ele><time>2026-05-03T11:03:26.983Z</time></trkpt><trkpt lat="45.74826327878787" lon="8.659298192621728"><ele>375.0</ele><time>2026-05-03T11:03:27.983Z</time></trkpt><trkpt lat="45.748236929386856" lon="8.659410827468928"><ele>374.0</ele><time>2026-05-03T11:03:28.983Z</time></trkpt><trkpt lat="45.74824093804057" lon="8.659547534467325"><ele>374.0</ele><time>2026-05-03T11:03:29.983Z</time></trkpt><trkpt lat="45.74819105158412" lon="8.659659883608951"><ele>374.0</ele><time>2026-05-03T11:03:30.983Z</time></trkpt><trkpt lat="45.748128581524426" lon="8.659768529991377"><ele>374.0</ele><time>2026-05-03T11:03:31.983Z</time></trkpt><trkpt lat="45.74807528940508" lon="8.65988799910688"><ele>374.0</ele><time>2026-05-03T11:03:32.983Z</time></trkpt><trkpt lat="45.7480406450148" lon="8.65999061606381"><ele>374.0</ele><time>2026-05-03T11:03:33.983Z</time></trkpt><trkpt lat="45.748022995534285" lon="8.660086337086643"><ele>374.0</ele><time>2026-05-03T11:03:34.983Z</time></trkpt><trkpt lat="45.7479994863234" lon="8.660179640800537"><ele>374.0</ele><time>2026-05-03T11:03:35.983Z</time></trkpt><trkpt lat="45.74797344715231" lon="8.660282703297305"><ele>374.0</ele><time>2026-05-03T11:03:36.983Z</time></trkpt><trkpt lat="45.7479685614997" lon="8.660408233995387"><ele>374.0</ele><time>2026-05-03T11:03:37.983Z</time></trkpt><trkpt lat="45.74797507287163" lon="8.660565400366428"><ele>374.0</ele><time>2026-05-03T11:03:38.983Z</time></trkpt><trkpt lat="45.74797221899362" lon="8.6606836170894"><ele>374.0</ele><time>2026-05-03T11:03:39.983Z</time></trkpt><trkpt lat="45.747950254031366" lon="8.660807302853048"><ele>374.0</ele><time>2026-05-03T11:03:40.983Z</time></trkpt><trkpt lat="45.74791555710669" lon="8.660971204357624"><ele>374.25</ele><time>2026-05-03T11:03:41.983Z</time></trkpt><trkpt lat="45.747895938997495" lon="8.661066458042013"><ele>374.5</ele><time>2026-05-03T11:03:42.983Z</time></trkpt><trkpt lat="45.74791668703547" lon="8.661314220965123"><ele>374.75</ele><time>2026-05-03T11:03:44.982Z</time></trkpt><trkpt lat="45.747934829673355" lon="8.6614725860743"><ele>375.0</ele><time>2026-05-03T11:03:45.982Z</time></trkpt><trkpt lat="45.74796272723744" lon="8.66164423591328"><ele>374.3333333333333</ele><time>2026-05-03T11:03:46.982Z</time></trkpt><trkpt lat="45.74800192990192" lon="8.661842541418439"><ele>373.66666666666663</ele><time>2026-05-03T11:03:47.982Z</time></trkpt><trkpt lat="45.748070327098695" lon="8.662112987476732"><ele>373.0</ele><time>2026-05-03T11:03:48.982Z</time></trkpt><trkpt lat="45.74811148594391" lon="8.66233191798082"><ele>372.4</ele><time>2026-05-03T11:03:49.982Z</time></trkpt><trkpt lat="45.74812595851142" lon="8.662506140761106"><ele>371.79999999999995</ele><time>2026-05-03T11:03:50.982Z</time></trkpt><trkpt lat="45.748146780391146" lon="8.662645051854811"><ele>371.2</ele><time>2026-05-03T11:03:51.982Z</time></trkpt><trkpt lat="45.748114700154225" lon="8.662817590573624"><ele>370.6</ele><time>2026-05-03T11:03:53.982Z</time></trkpt><trkpt lat="45.74805897914802" lon="8.662920053039974"><ele>370.0</ele><time>2026-05-03T11:03:54.982Z</time></trkpt><trkpt lat="45.74798680271643" lon="8.663069699906945"><ele>369.66666666666663</ele><time>2026-05-03T11:03:55.982Z</time></trkpt><trkpt lat="45.74796619105682" lon="8.66315552820913"><ele>369.3333333333333</ele><time>2026-05-03T11:03:56.981Z</time></trkpt><trkpt lat="45.74797476822989" lon="8.663260337167088"><ele>369.0</ele><time>2026-05-03T11:03:58.981Z</time></trkpt><trkpt lat="45.747982629949924" lon="8.663364633164642"><ele>368.6666666666667</ele><time>2026-05-03T11:03:59.981Z</time></trkpt><trkpt lat="45.74795765022386" lon="8.66349852588257"><ele>368.33333333333337</ele><time>2026-05-03T11:04:00.981Z</time></trkpt><trkpt lat="45.74796093384881" lon="8.663602466322194"><ele>368.0</ele><time>2026-05-03T11:04:01.981Z</time></trkpt><trkpt lat="45.74799346104182" lon="8.663773605834372"><ele>365.25</ele><time>2026-05-03T11:04:03.981Z</time></trkpt><trkpt lat="45.748059090373985" lon="8.663881441750066"><ele>362.5</ele><time>2026-05-03T11:04:04.981Z</time></trkpt><trkpt lat="45.74813193312226" lon="8.663997153947122"><ele>359.75</ele><time>2026-05-03T11:04:05.981Z</time></trkpt><trkpt lat="45.74822098454381" lon="8.664104221461463"><ele>357.0</ele><time>2026-05-03T11:04:06.981Z</time></trkpt><trkpt lat="45.74831208744503" lon="8.664239331515857"><ele>357.0</ele><time>2026-05-03T11:04:07.981Z</time></trkpt><trkpt lat="45.74843499036876" lon="8.664352428588199"><ele>357.0</ele><time>2026-05-03T11:04:08.981Z</time></trkpt><trkpt lat="45.74856145727506" lon="8.664497385139063"><ele>357.0</ele><time>2026-05-03T11:04:09.981Z</time></trkpt><trkpt lat="45.748710633513056" lon="8.664621850993605"><ele>356.6</ele><time>2026-05-03T11:04:10.981Z</time></trkpt><trkpt lat="45.74882983488466" lon="8.664700213566572"><ele>356.20000000000005</ele><time>2026-05-03T11:04:11.981Z</time></trkpt><trkpt lat="45.74892974298868" lon="8.664744274302324"><ele>355.8</ele><time>2026-05-03T11:04:12.981Z</time></trkpt><trkpt lat="45.74901891511577" lon="8.664753214126405"><ele>355.4</ele><time>2026-05-03T11:04:13.981Z</time></trkpt><trkpt lat="45.74909680296741" lon="8.664766022183638"><ele>355.0</ele><time>2026-05-03T11:04:14.981Z</time></trkpt><trkpt lat="45.74916851399709" lon="8.664795190487393"><ele>355.0</ele><time>2026-05-03T11:04:15.981Z</time></trkpt><trkpt lat="45.749232140488616" lon="8.66484877705024"><ele>355.0</ele><time>2026-05-03T11:04:16.981Z</time></trkpt><trkpt lat="45.74929216372006" lon="8.66491767287206"><ele>355.0</ele><time>2026-05-03T11:04:18.981Z</time></trkpt><trkpt lat="45.74928297007631" lon="8.664777971361845"><ele>355.0</ele><time>2026-05-03T11:04:22.981Z</time></trkpt><trkpt lat="45.749258684348604" lon="8.664656803892955"><ele>355.0</ele><time>2026-05-03T11:04:24.981Z</time></trkpt><trkpt lat="45.749208551722" lon="8.664590100097127"><ele>355.0</ele><time>2026-05-03T11:04:26.981Z</time></trkpt><trkpt lat="45.74922155547158" lon="8.664496791515655"><ele>356.57142857142856</ele><time>2026-05-03T11:04:29.981Z</time></trkpt><trkpt lat="45.74920858028455" lon="8.664382095548236"><ele>358.14285714285717</ele><time>2026-05-03T11:04:42.981Z</time></trkpt><trkpt lat="45.7492479250533" lon="8.664295636114693"><ele>359.7142857142857</ele><time>2026-05-03T11:04:46.981Z</time></trkpt><trkpt lat="45.74931089200355" lon="8.664286339257451"><ele>361.2857142857143</ele><time>2026-05-03T11:04:56.981Z</time></trkpt><trkpt lat="45.74937945357847" lon="8.664294593643689"><ele>362.8571428571429</ele><time>2026-05-03T11:05:08.981Z</time></trkpt><trkpt lat="45.749434375480384" lon="8.66422023466573"><ele>364.42857142857144</ele><time>2026-05-03T11:05:22.981Z</time></trkpt><trkpt lat="45.74949989462936" lon="8.664228872605763"><ele>366.0</ele><time>2026-05-03T11:05:33.98Z</time></trkpt><trkpt lat="45.74951609910918" lon="8.664318756146937"><ele>366.0</ele><time>2026-05-03T11:05:48.98Z</time></trkpt><trkpt lat="45.74946149550475" lon="8.664377180733766"><ele>366.0</ele><time>2026-05-03T11:06:05.98Z</time></trkpt><trkpt lat="45.74940736740692" lon="8.664330130494129"><ele>366.0</ele><time>2026-05-03T11:07:02.98Z</time></trkpt><trkpt lat="45.7493541487895" lon="8.664386935011699"><ele>366.0</ele><time>2026-05-03T11:07:16.979Z</time></trkpt><trkpt lat="45.74929513047042" lon="8.664313021767645"><ele>366.0</ele><time>2026-05-03T11:07:25.979Z</time></trkpt><trkpt lat="45.74921892009358" lon="8.664295729514466"><ele>366.0</ele><time>2026-05-03T11:07:28.979Z</time></trkpt><trkpt lat="45.749165165940504" lon="8.664247256695543"><ele>366.0</ele><time>2026-05-03T11:07:33.979Z</time></trkpt><trkpt lat="45.74909984523052" lon="8.664213549878317"><ele>366.0</ele><time>2026-05-03T11:07:36.979Z</time></trkpt><trkpt lat="45.74903206326589" lon="8.66421828274099"><ele>366.0</ele><time>2026-05-03T11:07:41.979Z</time></trkpt><trkpt lat="45.748964091816255" lon="8.664144207133413"><ele>366.0</ele><time>2026-05-03T11:07:44.979Z</time></trkpt><trkpt lat="45.74889841382061" lon="8.664081428072542"><ele>366.0</ele><time>2026-05-03T11:07:46.979Z</time></trkpt><trkpt lat="45.74883314565859" lon="8.66400055062182"><ele>366.0</ele><time>2026-05-03T11:07:48.979Z</time></trkpt><trkpt lat="45.748762691289215" lon="8.663962748201735"><ele>366.0</ele><time>2026-05-03T11:07:50.979Z</time></trkpt><trkpt lat="45.74870587664491" lon="8.663912889247381"><ele>366.0</ele><time>2026-05-03T11:07:52.979Z</time></trkpt><trkpt lat="45.74869211849205" lon="8.663784621241447"><ele>366.0</ele><time>2026-05-03T11:07:55.979Z</time></trkpt><trkpt lat="45.7486444778056" lon="8.663669316836371"><ele>366.0</ele><time>2026-05-03T11:07:58.979Z</time></trkpt><trkpt lat="45.74861806131935" lon="8.663572930469382"><ele>366.0</ele><time>2026-05-03T11:08:00.979Z</time></trkpt><trkpt lat="45.74860636516657" lon="8.663472164087116"><ele>366.0</ele><time>2026-05-03T11:08:02.979Z</time></trkpt><trkpt lat="45.74864489153549" lon="8.663376189853478"><ele>366.0</ele><time>2026-05-03T11:08:05.979Z</time></trkpt><trkpt lat="45.74872071679837" lon="8.66329026072772"><ele>368.6666666666667</ele><time>2026-05-03T11:08:07.979Z</time></trkpt><trkpt lat="45.74877534861351" lon="8.663156074653381"><ele>371.3333333333333</ele><time>2026-05-03T11:08:09.979Z</time></trkpt><trkpt lat="45.74883722436606" lon="8.663059253924285"><ele>374.0</ele><time>2026-05-03T11:08:11.979Z</time></trkpt><trkpt lat="45.748885911312414" lon="8.662986048044994"><ele>376.66666666666663</ele><time>2026-05-03T11:08:13.979Z</time></trkpt><trkpt lat="45.7489380348397" lon="8.662917546111874"><ele>379.3333333333333</ele><time>2026-05-03T11:08:15.979Z</time></trkpt><trkpt lat="45.74899873059424" lon="8.6628186856338"><ele>382.0</ele><time>2026-05-03T11:08:17.979Z</time></trkpt><trkpt lat="45.749017511243494" lon="8.662697000575658"><ele>383.20000000000005</ele><time>2026-05-03T11:08:19.979Z</time></trkpt><trkpt lat="45.7490371992996" lon="8.662608392170535"><ele>384.4</ele><time>2026-05-03T11:08:20.979Z</time></trkpt><trkpt lat="45.749059972596115" lon="8.662517475693972"><ele>385.6</ele><time>2026-05-03T11:08:21.979Z</time></trkpt><trkpt lat="45.74914197611485" lon="8.662394960004466"><ele>386.79999999999995</ele><time>2026-05-03T11:08:23.979Z</time></trkpt><trkpt lat="45.74919776206896" lon="8.662304916886686"><ele>388.0</ele><time>2026-05-03T11:08:24.979Z</time></trkpt><trkpt lat="45.74927425944886" lon="8.662160080678342"><ele>388.00000000000006</ele><time>2026-05-03T11:08:26.979Z</time></trkpt><trkpt lat="45.74936251304937" lon="8.662068841162423"><ele>388.0</ele><time>2026-05-03T11:08:28.979Z</time></trkpt><trkpt lat="45.749439689687236" lon="8.661997052208307"><ele>388.0</ele><time>2026-05-03T11:08:30.979Z</time></trkpt><trkpt lat="45.749505318772336" lon="8.661913683161778"><ele>388.0</ele><time>2026-05-03T11:08:32.979Z</time></trkpt><trkpt lat="45.749549204160324" lon="8.661825944173327"><ele>388.00000000000006</ele><time>2026-05-03T11:08:33.979Z</time></trkpt><trkpt lat="45.74959104435742" lon="8.661748161935641"><ele>388.0</ele><time>2026-05-03T11:08:34.979Z</time></trkpt><trkpt lat="45.74965789291032" lon="8.66167290267311"><ele>391.6666666666667</ele><time>2026-05-03T11:08:35.979Z</time></trkpt><trkpt lat="45.749717353709315" lon="8.66163434759742"><ele>395.33333333333337</ele><time>2026-05-03T11:08:36.979Z</time></trkpt><trkpt lat="45.749790192107135" lon="8.661591236433557"><ele>399.0</ele><time>2026-05-03T11:08:37.979Z</time></trkpt><trkpt lat="45.749851393461796" lon="8.66156122107494"><ele>402.66666666666663</ele><time>2026-05-03T11:08:38.979Z</time></trkpt><trkpt lat="45.749904874845434" lon="8.661488359905974"><ele>406.3333333333333</ele><time>2026-05-03T11:08:40.979Z</time></trkpt><trkpt lat="45.75000362619882" lon="8.66136873439615"><ele>410.0</ele><time>2026-05-03T11:08:42.979Z</time></trkpt><trkpt lat="45.75006856680172" lon="8.661323919803326"><ele>409.99999999999994</ele><time>2026-05-03T11:08:43.979Z</time></trkpt><trkpt lat="45.75011871792939" lon="8.66126668742987"><ele>410.0</ele><time>2026-05-03T11:08:44.979Z</time></trkpt><trkpt lat="45.75014282225922" lon="8.661165360135872"><ele>410.0</ele><time>2026-05-03T11:08:45.979Z</time></trkpt><trkpt lat="45.75017930246542" lon="8.661075265356091"><ele>410.0</ele><time>2026-05-03T11:08:46.979Z</time></trkpt><trkpt lat="45.75020984993709" lon="8.660982679448308"><ele>409.99999999999994</ele><time>2026-05-03T11:08:47.979Z</time></trkpt><trkpt lat="45.75028899119391" lon="8.660868361103498"><ele>410.0</ele><time>2026-05-03T11:08:49.979Z</time></trkpt><trkpt lat="45.75041350319037" lon="8.660760039049041"><ele>412.8</ele><time>2026-05-03T11:08:51.979Z</time></trkpt><trkpt lat="45.75048150423603" lon="8.660640238952423"><ele>415.6</ele><time>2026-05-03T11:08:53.979Z</time></trkpt><trkpt lat="45.750474304700184" lon="8.660439163730567"><ele>418.4</ele><time>2026-05-03T11:08:55.979Z</time></trkpt><trkpt lat="45.750553155761274" lon="8.660376260705258"><ele>421.2</ele><time>2026-05-03T11:08:57.979Z</time></trkpt><trkpt lat="45.750642732523964" lon="8.660361222404159"><ele>424.0</ele><time>2026-05-03T11:08:59.979Z</time></trkpt><trkpt lat="45.75071843441042" lon="8.660313484832846"><ele>423.33333333333337</ele><time>2026-05-03T11:09:01.979Z</time></trkpt><trkpt lat="45.75079101155764" lon="8.660274723478876"><ele>422.6666666666667</ele><time>2026-05-03T11:09:02.979Z</time></trkpt><trkpt lat="45.750863880252446" lon="8.660237483917221"><ele>422.0</ele><time>2026-05-03T11:09:03.979Z</time></trkpt><trkpt lat="45.750951074009436" lon="8.660205551325669"><ele>421.33333333333337</ele><time>2026-05-03T11:09:04.979Z</time></trkpt><trkpt lat="45.751020395480914" lon="8.660211761313999"><ele>420.6666666666667</ele><time>2026-05-03T11:09:05.979Z</time></trkpt><trkpt lat="45.75112960100595" lon="8.660249723459769"><ele>420.0</ele><time>2026-05-03T11:09:07.979Z</time></trkpt><trkpt lat="45.75121596134313" lon="8.660276675112483"><ele>419.6</ele><time>2026-05-03T11:09:08.979Z</time></trkpt><trkpt lat="45.75128034545483" lon="8.66031208988833"><ele>419.2</ele><time>2026-05-03T11:09:09.979Z</time></trkpt><trkpt lat="45.751372254565425" lon="8.6603438658373"><ele>418.79999999999995</ele><time>2026-05-03T11:09:11.979Z</time></trkpt><trkpt lat="45.75143257940834" lon="8.660223431399585"><ele>418.4</ele><time>2026-05-03T11:09:13.979Z</time></trkpt><trkpt lat="45.751513351000376" lon="8.660152155064058"><ele>418.0</ele><time>2026-05-03T11:09:15.979Z</time></trkpt><trkpt lat="45.75162358110618" lon="8.660072838792335"><ele>418.00000000000006</ele><time>2026-05-03T11:09:17.979Z</time></trkpt><trkpt lat="45.75171422347119" lon="8.659991573744685"><ele>418.0</ele><time>2026-05-03T11:09:19.979Z</time></trkpt><trkpt lat="45.751763577820306" lon="8.659933119513852"><ele>418.0</ele><time>2026-05-03T11:09:20.979Z</time></trkpt><trkpt lat="45.75182832786827" lon="8.65988141469705"><ele>418.0</ele><time>2026-05-03T11:09:21.979Z</time></trkpt><trkpt lat="45.7519051771711" lon="8.659805093809458"><ele>418.00000000000006</ele><time>2026-05-03T11:09:23.979Z</time></trkpt><trkpt lat="45.75197028048806" lon="8.65974228871629"><ele>418.0</ele><time>2026-05-03T11:09:26.979Z</time></trkpt><trkpt lat="45.75203843686494" lon="8.659682047832842"><ele>417.1666666666667</ele><time>2026-05-03T11:09:28.979Z</time></trkpt><trkpt lat="45.75209391347062" lon="8.659633008700183"><ele>416.33333333333337</ele><time>2026-05-03T11:09:30.979Z</time></trkpt><trkpt lat="45.75215531946141" lon="8.659567872740736"><ele>415.5</ele><time>2026-05-03T11:09:32.979Z</time></trkpt><trkpt lat="45.75217425145173" lon="8.659460303071938"><ele>414.66666666666663</ele><time>2026-05-03T11:09:35.979Z</time></trkpt><trkpt lat="45.752194211180566" lon="8.659313172141799"><ele>413.8333333333333</ele><time>2026-05-03T11:09:37.979Z</time></trkpt><trkpt lat="45.752248016851375" lon="8.659260954044585"><ele>413.0</ele><time>2026-05-03T11:09:39.979Z</time></trkpt><trkpt lat="45.75226608472649" lon="8.659150556869061"><ele>413.0</ele><time>2026-05-03T11:09:48.978Z</time></trkpt><trkpt lat="45.75228593013201" lon="8.659042220814023"><ele>413.0</ele><time>2026-05-03T11:10:42.977Z</time></trkpt><trkpt lat="45.75235614004487" lon="8.659024864940823"><ele>413.0</ele><time>2026-05-03T11:10:46.977Z</time></trkpt><trkpt lat="45.752444890681815" lon="8.659119835715288"><ele>413.0</ele><time>2026-05-03T11:10:48.977Z</time></trkpt><trkpt lat="45.752505478662925" lon="8.65919894309569"><ele>413.0</ele><time>2026-05-03T11:10:49.977Z</time></trkpt><trkpt lat="45.75258179405273" lon="8.659309495171746"><ele>412.99999999999994</ele><time>2026-05-03T11:10:51.977Z</time></trkpt><trkpt lat="45.75262950836747" lon="8.65939622529704"><ele>413.0</ele><time>2026-05-03T11:10:53.977Z</time></trkpt><trkpt lat="45.752668853035495" lon="8.659532466112449"><ele>413.0</ele><time>2026-05-03T11:10:55.977Z</time></trkpt><trkpt lat="45.75271598059673" lon="8.659626921325584"><ele>413.0</ele><time>2026-05-03T11:10:56.977Z</time></trkpt><trkpt lat="45.75276022125004" lon="8.659708053033832"><ele>412.99999999999994</ele><time>2026-05-03T11:10:57.977Z</time></trkpt><trkpt lat="45.75281803073839" lon="8.65976402860339"><ele>413.0</ele><time>2026-05-03T11:10:58.977Z</time></trkpt><trkpt lat="45.752946620073416" lon="8.659842410350448"><ele>413.0</ele><time>2026-05-03T11:10:59.977Z</time></trkpt><trkpt lat="45.7530168202551" lon="8.659906494982177"><ele>413.0</ele><time>2026-05-03T11:11:00.977Z</time></trkpt><trkpt lat="45.75310495546791" lon="8.65996584927273"><ele>413.0</ele><time>2026-05-03T11:11:01.977Z</time></trkpt><trkpt lat="45.75320015409165" lon="8.66002051268227"><ele>413.0</ele><time>2026-05-03T11:11:02.977Z</time></trkpt><trkpt lat="45.75328685513261" lon="8.660079980211874"><ele>413.0</ele><time>2026-05-03T11:11:03.977Z</time></trkpt><trkpt lat="45.75337286501271" lon="8.660168854677046"><ele>412.99999999999994</ele><time>2026-05-03T11:11:04.977Z</time></trkpt><trkpt lat="45.75342501760963" lon="8.660233454308985"><ele>413.0</ele><time>2026-05-03T11:11:05.977Z</time></trkpt><trkpt lat="45.753513025324345" lon="8.66016504983841"><ele>413.0</ele><time>2026-05-03T11:11:07.977Z</time></trkpt><trkpt lat="45.75357807421787" lon="8.660133020665427"><ele>413.0</ele><time>2026-05-03T11:11:08.977Z</time></trkpt><trkpt lat="45.75365034184983" lon="8.660074544814957"><ele>412.99999999999994</ele><time>2026-05-03T11:11:10.977Z</time></trkpt><trkpt lat="45.75373443841597" lon="8.659966636092749"><ele>413.0</ele><time>2026-05-03T11:11:12.977Z</time></trkpt><trkpt lat="45.75376227732522" lon="8.659879890977706"><ele>413.16666666666663</ele><time>2026-05-03T11:11:13.977Z</time></trkpt><trkpt lat="45.75379860756845" lon="8.659792763858455"><ele>413.3333333333333</ele><time>2026-05-03T11:11:14.977Z</time></trkpt><trkpt lat="45.753879468077606" lon="8.659708251445743"><ele>413.5</ele><time>2026-05-03T11:11:15.977Z</time></trkpt><trkpt lat="45.7539259818038" lon="8.659635185955963"><ele>413.66666666666663</ele><time>2026-05-03T11:11:16.977Z</time></trkpt><trkpt lat="45.75399097953249" lon="8.659551997658324"><ele>413.8333333333333</ele><time>2026-05-03T11:11:17.977Z</time></trkpt><trkpt lat="45.753993971602746" lon="8.65945222724605"><ele>414.0</ele><time>2026-05-03T11:11:19.977Z</time></trkpt><trkpt lat="45.75399203552309" lon="8.65933111993045"><ele>414.0</ele><time>2026-05-03T11:11:21.977Z</time></trkpt><trkpt lat="45.75403419654981" lon="8.659210620893582"><ele>414.0</ele><time>2026-05-03T11:11:23.977Z</time></trkpt><trkpt lat="45.75403545104846" lon="8.659025385304767"><ele>414.0</ele><time>2026-05-03T11:11:25.977Z</time></trkpt><trkpt lat="45.75404926827463" lon="8.658814737401745"><ele>414.0</ele><time>2026-05-03T11:11:28.977Z</time></trkpt><trkpt lat="45.754081561783075" lon="8.658728964096026"><ele>414.0</ele><time>2026-05-03T11:11:30.977Z</time></trkpt><trkpt lat="45.75413529943867" lon="8.658604922459446"><ele>414.8333333333333</ele><time>2026-05-03T11:11:32.977Z</time></trkpt><trkpt lat="45.754165806291304" lon="8.658456311988964"><ele>415.66666666666663</ele><time>2026-05-03T11:11:34.977Z</time></trkpt><trkpt lat="45.75419858456454" lon="8.658340993485739"><ele>416.5</ele><time>2026-05-03T11:11:36.977Z</time></trkpt><trkpt lat="45.75419858665395" lon="8.658237766565238"><ele>417.3333333333333</ele><time>2026-05-03T11:11:38.977Z</time></trkpt><trkpt lat="45.75419211998167" lon="8.658128385259925"><ele>418.16666666666663</ele><time>2026-05-03T11:11:42.977Z</time></trkpt><trkpt lat="45.75420768120374" lon="8.658038604369496"><ele>419.0</ele><time>2026-05-03T11:11:44.977Z</time></trkpt><trkpt lat="45.754239380697676" lon="8.657943134443084"><ele>419.0</ele><time>2026-05-03T11:11:48.977Z</time></trkpt><trkpt lat="45.75429622397297" lon="8.657881438872012"><ele>419.0</ele><time>2026-05-03T11:11:53.977Z</time></trkpt><trkpt lat="45.75435237529863" lon="8.657801438335198"><ele>419.0</ele><time>2026-05-03T11:11:57.977Z</time></trkpt><trkpt lat="45.754408849530904" lon="8.65767685392077"><ele>419.0</ele><time>2026-05-03T11:12:00.977Z</time></trkpt><trkpt lat="45.75448850753553" lon="8.657566507466885"><ele>419.0</ele><time>2026-05-03T11:12:02.977Z</time></trkpt><trkpt lat="45.75455996966318" lon="8.657483784449095"><ele>419.2</ele><time>2026-05-03T11:12:04.977Z</time></trkpt><trkpt lat="45.75464078566778" lon="8.657545204808695"><ele>419.4</ele><time>2026-05-03T11:12:06.977Z</time></trkpt><trkpt lat="45.754696153768585" lon="8.657614309906592"><ele>419.6</ele><time>2026-05-03T11:12:07.977Z</time></trkpt><trkpt lat="45.75476685084785" lon="8.657706786101794"><ele>419.8</ele><time>2026-05-03T11:12:08.977Z</time></trkpt><trkpt lat="45.754866016466295" lon="8.657791295548517"><ele>420.0</ele><time>2026-05-03T11:12:10.977Z</time></trkpt><trkpt lat="45.75493011815755" lon="8.657849161153466"><ele>420.0</ele><time>2026-05-03T11:12:11.977Z</time></trkpt><trkpt lat="45.754998220887146" lon="8.657887075901868"><ele>420.0</ele><time>2026-05-03T11:12:12.977Z</time></trkpt><trkpt lat="45.75505263950654" lon="8.657941809796633"><ele>420.0</ele><time>2026-05-03T11:12:13.977Z</time></trkpt><trkpt lat="45.75509423963521" lon="8.658010030399447"><ele>420.0</ele><time>2026-05-03T11:12:14.977Z</time></trkpt><trkpt lat="45.75522909439644" lon="8.658053128855984"><ele>420.0</ele><time>2026-05-03T11:12:17.977Z</time></trkpt><trkpt lat="45.75537004766655" lon="8.658098250721682"><ele>418.5</ele><time>2026-05-03T11:12:19.977Z</time></trkpt><trkpt lat="45.755441227739944" lon="8.658166052463889"><ele>417.0</ele><time>2026-05-03T11:12:20.977Z</time></trkpt><trkpt lat="45.75548156158201" lon="8.658244511644424"><ele>415.5</ele><time>2026-05-03T11:12:21.977Z</time></trkpt><trkpt lat="45.755513610286044" lon="8.658327127645258"><ele>414.0</ele><time>2026-05-03T11:12:22.977Z</time></trkpt><trkpt lat="45.75559042798949" lon="8.658444770212224"><ele>412.5</ele><time>2026-05-03T11:12:24.977Z</time></trkpt><trkpt lat="45.75570135782584" lon="8.658496942628444"><ele>411.0</ele><time>2026-05-03T11:12:26.977Z</time></trkpt><trkpt lat="45.755785860259614" lon="8.65852927713558"><ele>411.0</ele><time>2026-05-03T11:12:27.977Z</time></trkpt><trkpt lat="45.755855092738386" lon="8.658557486916648"><ele>411.0</ele><time>2026-05-03T11:12:28.977Z</time></trkpt><trkpt lat="45.75592738692079" lon="8.658570881622918"><ele>411.0</ele><time>2026-05-03T11:12:29.977Z</time></trkpt><trkpt lat="45.75603412786231" lon="8.658649954124224"><ele>411.0</ele><time>2026-05-03T11:12:31.977Z</time></trkpt><trkpt lat="45.75609058489285" lon="8.658744885279214"><ele>411.0</ele><time>2026-05-03T11:12:32.977Z</time></trkpt><trkpt lat="45.75610962969424" lon="8.658855007102686"><ele>411.0</ele><time>2026-05-03T11:12:33.977Z</time></trkpt><trkpt lat="45.756120015277425" lon="8.658986799390316"><ele>407.8333333333333</ele><time>2026-05-03T11:12:34.977Z</time></trkpt><trkpt lat="45.75613647041929" lon="8.659098975732135"><ele>404.66666666666663</ele><time>2026-05-03T11:12:35.977Z</time></trkpt><trkpt lat="45.75612540327656" lon="8.659236891179113"><ele>401.5</ele><time>2026-05-03T11:12:36.977Z</time></trkpt><trkpt lat="45.75611806531832" lon="8.659349979061219"><ele>398.3333333333333</ele><time>2026-05-03T11:12:37.977Z</time></trkpt><trkpt lat="45.75614993347781" lon="8.659476570417494"><ele>395.16666666666663</ele><time>2026-05-03T11:12:38.977Z</time></trkpt><trkpt lat="45.756154130627266" lon="8.659567686340313"><ele>392.0</ele><time>2026-05-03T11:12:39.977Z</time></trkpt><trkpt lat="45.75620120756438" lon="8.659677017511443"><ele>390.49999999999994</ele><time>2026-05-03T11:12:40.977Z</time></trkpt><trkpt lat="45.7562002313559" lon="8.65977215039545"><ele>389.0</ele><time>2026-05-03T11:12:41.977Z</time></trkpt><trkpt lat="45.75619227747849" lon="8.65989768387164"><ele>387.5</ele><time>2026-05-03T11:12:43.977Z</time></trkpt><trkpt lat="45.75611680436701" lon="8.659975362662035"><ele>386.0</ele><time>2026-05-03T11:12:45.977Z</time></trkpt><trkpt lat="45.75609022963567" lon="8.660106315036478"><ele>384.5</ele><time>2026-05-03T11:12:47.977Z</time></trkpt><trkpt lat="45.75610067471354" lon="8.66022433609159"><ele>383.0</ele><time>2026-05-03T11:12:48.977Z</time></trkpt><trkpt lat="45.75599245000025" lon="8.660406414770833"><ele>381.75</ele><time>2026-05-03T11:12:50.977Z</time></trkpt><trkpt lat="45.755861758797394" lon="8.660530616245415"><ele>380.5</ele><time>2026-05-03T11:12:51.977Z</time></trkpt><trkpt lat="45.75575367935681" lon="8.660654697237131"><ele>379.25</ele><time>2026-05-03T11:12:52.977Z</time></trkpt><trkpt lat="45.75567697631182" lon="8.660772629805848"><ele>378.0</ele><time>2026-05-03T11:12:53.977Z</time></trkpt><trkpt lat="45.75560116257374" lon="8.660866082489967"><ele>378.0</ele><time>2026-05-03T11:12:54.977Z</time></trkpt><trkpt lat="45.75554518284412" lon="8.660974136654964"><ele>378.0</ele><time>2026-05-03T11:12:55.977Z</time></trkpt><trkpt lat="45.755503355160855" lon="8.661107716948763"><ele>378.0</ele><time>2026-05-03T11:12:56.977Z</time></trkpt><trkpt lat="45.75547388420123" lon="8.66123485450514"><ele>378.0</ele><time>2026-05-03T11:12:57.977Z</time></trkpt><trkpt lat="45.75544610809555" lon="8.661352541598003"><ele>378.0</ele><time>2026-05-03T11:12:58.977Z</time></trkpt><trkpt lat="45.75541471756596" lon="8.661439600400456"><ele>378.0</ele><time>2026-05-03T11:12:59.977Z</time></trkpt><trkpt lat="45.755389639609206" lon="8.661533140059737"><ele>375.59999999999997</ele><time>2026-05-03T11:13:01.977Z</time></trkpt><trkpt lat="45.755368721045386" lon="8.661692580994053"><ele>373.2</ele><time>2026-05-03T11:13:03.977Z</time></trkpt><trkpt lat="45.75533104461265" lon="8.661784607946446"><ele>370.8</ele><time>2026-05-03T11:13:04.977Z</time></trkpt><trkpt lat="45.755259479777465" lon="8.66186088149411"><ele>368.4</ele><time>2026-05-03T11:13:05.977Z</time></trkpt><trkpt lat="45.75521357237376" lon="8.661961378024174"><ele>366.0</ele><time>2026-05-03T11:13:06.977Z</time></trkpt><trkpt lat="45.75515184157321" lon="8.662109780934443"><ele>365.20000000000005</ele><time>2026-05-03T11:13:07.977Z</time></trkpt><trkpt lat="45.75508236132937" lon="8.662252695079133"><ele>364.40000000000003</ele><time>2026-05-03T11:13:08.977Z</time></trkpt><trkpt lat="45.75502146910683" lon="8.662365362674045"><ele>363.6</ele><time>2026-05-03T11:13:09.977Z</time></trkpt><trkpt lat="45.754973051394366" lon="8.662478509845148"><ele>362.8</ele><time>2026-05-03T11:13:10.977Z</time></trkpt><trkpt lat="45.754934112052844" lon="8.662601884316773"><ele>362.0</ele><time>2026-05-03T11:13:11.977Z</time></trkpt><trkpt lat="45.75490243749725" lon="8.662733222113092"><ele>360.20000000000005</ele><time>2026-05-03T11:13:12.977Z</time></trkpt><trkpt lat="45.75485313471861" lon="8.662855558204129"><ele>358.4</ele><time>2026-05-03T11:13:13.977Z</time></trkpt><trkpt lat="45.754811595328114" lon="8.662937323514123"><ele>356.6</ele><time>2026-05-03T11:13:14.977Z</time></trkpt><trkpt lat="45.754866464598045" lon="8.663011708998132"><ele>354.79999999999995</ele><time>2026-05-03T11:13:18.977Z</time></trkpt><trkpt lat="45.75478310115726" lon="8.663208793106971"><ele>353.0</ele><time>2026-05-03T11:14:08.976Z</time></trkpt><trkpt lat="45.754716531090246" lon="8.663291008346187"><ele>353.0</ele><time>2026-05-03T11:14:10.976Z</time></trkpt><trkpt lat="45.75464142394008" lon="8.663398484907116"><ele>353.0</ele><time>2026-05-03T11:14:12.975Z</time></trkpt><trkpt lat="45.75455212298586" lon="8.663521254264767"><ele>353.0</ele><time>2026-05-03T11:14:14.975Z</time></trkpt><trkpt lat="45.75446225198194" lon="8.663610789991187"><ele>353.0</ele><time>2026-05-03T11:14:16.974Z</time></trkpt><trkpt lat="45.754420529671876" lon="8.663679488428034"><ele>353.0</ele><time>2026-05-03T11:14:19.974Z</time></trkpt><trkpt lat="45.75435488009344" lon="8.663720994630204"><ele>352.33333333333337</ele><time>2026-05-03T11:14:20.974Z</time></trkpt><trkpt lat="45.754295544641934" lon="8.663763639631204"><ele>351.6666666666667</ele><time>2026-05-03T11:14:21.975Z</time></trkpt><trkpt lat="45.75423247270214" lon="8.663814141270418"><ele>351.0</ele><time>2026-05-03T11:14:23.975Z</time></trkpt><trkpt lat="45.754188810783475" lon="8.663918999921519"><ele>350.3333333333333</ele><time>2026-05-03T11:14:24.975Z</time></trkpt><trkpt lat="45.754182614770016" lon="8.664022585554111"><ele>349.66666666666663</ele><time>2026-05-03T11:14:27.975Z</time></trkpt><trkpt lat="45.75420851023188" lon="8.664138888251243"><ele>349.0</ele><time>2026-05-03T11:14:30.975Z</time></trkpt><trkpt lat="45.7542738969456" lon="8.66421780222039"><ele>349.0</ele><time>2026-05-03T11:14:32.975Z</time></trkpt><trkpt lat="45.75433348872325" lon="8.664301976060154"><ele>349.0</ele><time>2026-05-03T11:14:34.975Z</time></trkpt><trkpt lat="45.754350609661245" lon="8.664415971260748"><ele>349.0</ele><time>2026-05-03T11:14:45.975Z</time></trkpt><trkpt lat="45.75434306222113" lon="8.664543411086454"><ele>349.0</ele><time>2026-05-03T11:14:47.975Z</time></trkpt><trkpt lat="45.7543028687474" lon="8.664629197553044"><ele>349.0</ele><time>2026-05-03T11:14:48.975Z</time></trkpt><trkpt lat="45.75425892129291" lon="8.664699514652112"><ele>349.0</ele><time>2026-05-03T11:14:49.975Z</time></trkpt><trkpt lat="45.75421442989448" lon="8.664763424127143"><ele>345.5</ele><time>2026-05-03T11:14:50.975Z</time></trkpt><trkpt lat="45.754137301234216" lon="8.664895000139111"><ele>342.0</ele><time>2026-05-03T11:14:52.975Z</time></trkpt><trkpt lat="45.7540830003348" lon="8.664957806687685"><ele>338.5</ele><time>2026-05-03T11:14:53.975Z</time></trkpt><trkpt lat="45.75403497736892" lon="8.66503126762158"><ele>335.0</ele><time>2026-05-03T11:14:54.975Z</time></trkpt><trkpt lat="45.7541032154152" lon="8.66502804681561"><ele>331.5</ele><time>2026-05-03T11:14:59.975Z</time></trkpt><trkpt lat="45.75415875689582" lon="8.664964569368987"><ele>328.0</ele><time>2026-05-03T11:15:00.975Z</time></trkpt><trkpt lat="45.754222387162315" lon="8.66489503465506"><ele>328.0</ele><time>2026-05-03T11:15:01.975Z</time></trkpt><trkpt lat="45.75428216663277" lon="8.664823759180512"><ele>328.0</ele><time>2026-05-03T11:15:02.975Z</time></trkpt><trkpt lat="45.754391503171696" lon="8.664725528503485"><ele>328.0</ele><time>2026-05-03T11:15:04.975Z</time></trkpt><trkpt lat="45.75449109383271" lon="8.6646469883706"><ele>328.0</ele><time>2026-05-03T11:15:05.975Z</time></trkpt><trkpt lat="45.754578011847045" lon="8.664546729987793"><ele>328.0</ele><time>2026-05-03T11:15:06.975Z</time></trkpt><trkpt lat="45.75463161778792" lon="8.66445109175308"><ele>330.5</ele><time>2026-05-03T11:15:07.975Z</time></trkpt><trkpt lat="45.75470042990018" lon="8.664370016285718"><ele>333.0</ele><time>2026-05-03T11:15:08.975Z</time></trkpt><trkpt lat="45.75475921266656" lon="8.664295256626524"><ele>335.5</ele><time>2026-05-03T11:15:09.975Z</time></trkpt><trkpt lat="45.75483756216801" lon="8.664215073928869"><ele>338.0</ele><time>2026-05-03T11:15:10.974Z</time></trkpt><trkpt lat="45.754892779591835" lon="8.664115417352042"><ele>340.5</ele><time>2026-05-03T11:15:11.974Z</time></trkpt><trkpt lat="45.75493505157796" lon="8.66404276059005"><ele>343.0</ele><time>2026-05-03T11:15:12.974Z</time></trkpt><trkpt lat="45.75500492627604" lon="8.663956205326578"><ele>343.0</ele><time>2026-05-03T11:15:13.974Z</time></trkpt><trkpt lat="45.755097484120206" lon="8.663835084269595"><ele>343.0</ele><time>2026-05-03T11:15:14.974Z</time></trkpt><trkpt lat="45.75520248712271" lon="8.663754542990365"><ele>343.0</ele><time>2026-05-03T11:15:15.974Z</time></trkpt><trkpt lat="45.75530293474288" lon="8.663693592118141"><ele>343.0</ele><time>2026-05-03T11:15:16.974Z</time></trkpt><trkpt lat="45.755394162340565" lon="8.663594789072413"><ele>344.59999999999997</ele><time>2026-05-03T11:15:17.974Z</time></trkpt><trkpt lat="45.755480064453124" lon="8.663490123588362"><ele>346.2</ele><time>2026-05-03T11:15:18.974Z</time></trkpt><trkpt lat="45.75553478267138" lon="8.663410094259199"><ele>347.8</ele><time>2026-05-03T11:15:19.974Z</time></trkpt><trkpt lat="45.75556522284576" lon="8.663306016237579"><ele>349.4</ele><time>2026-05-03T11:15:21.974Z</time></trkpt><trkpt lat="45.755570070780124" lon="8.663149301168584"><ele>351.0</ele><time>2026-05-03T11:15:23.974Z</time></trkpt><trkpt lat="45.7555809731585" lon="8.662983450698041"><ele>351.0</ele><time>2026-05-03T11:15:25.974Z</time></trkpt><trkpt lat="45.75559424956604" lon="8.662890287692184"><ele>351.0</ele><time>2026-05-03T11:15:26.974Z</time></trkpt><trkpt lat="45.755592547639445" lon="8.662798438906716"><ele>351.0</ele><time>2026-05-03T11:15:27.974Z</time></trkpt><trkpt lat="45.75557097104661" lon="8.662648052741595"><ele>351.0</ele><time>2026-05-03T11:15:29.974Z</time></trkpt><trkpt lat="45.755582727481766" lon="8.662485067978572"><ele>351.0</ele><time>2026-05-03T11:15:31.974Z</time></trkpt><trkpt lat="45.75560477553557" lon="8.662394246854873"><ele>351.0</ele><time>2026-05-03T11:15:32.974Z</time></trkpt><trkpt lat="45.75571022460356" lon="8.6622422482458"><ele>351.6</ele><time>2026-05-03T11:15:34.974Z</time></trkpt><trkpt lat="45.75575637340456" lon="8.662126826985988"><ele>352.20000000000005</ele><time>2026-05-03T11:15:35.974Z</time></trkpt><trkpt lat="45.75581969616809" lon="8.661949504740718"><ele>352.79999999999995</ele><time>2026-05-03T11:15:37.974Z</time></trkpt><trkpt lat="45.75584509597556" lon="8.661800804245985"><ele>353.4</ele><time>2026-05-03T11:15:39.974Z</time></trkpt><trkpt lat="45.7558596658236" lon="8.661708762268578"><ele>354.0</ele><time>2026-05-03T11:15:41.974Z</time></trkpt><trkpt lat="45.755844044888796" lon="8.66160044143467"><ele>354.0</ele><time>2026-05-03T11:15:44.974Z</time></trkpt><trkpt lat="45.755815814589724" lon="8.661705167058072"><ele>354.0</ele><time>2026-05-03T11:15:54.974Z</time></trkpt><trkpt lat="45.755781455997784" lon="8.661844729575309"><ele>354.0</ele><time>2026-05-03T11:15:56.974Z</time></trkpt><trkpt lat="45.75576110055808" lon="8.66195677402298"><ele>354.0</ele><time>2026-05-03T11:15:58.974Z</time></trkpt><trkpt lat="45.75570136688642" lon="8.662050763350775"><ele>354.0</ele><time>2026-05-03T11:15:59.974Z</time></trkpt><trkpt lat="45.75567840551207" lon="8.66219738098115"><ele>354.0</ele><time>2026-05-03T11:16:01.974Z</time></trkpt><trkpt lat="45.75563901317087" lon="8.662368185411527"><ele>354.0</ele><time>2026-05-03T11:16:03.974Z</time></trkpt><trkpt lat="45.75563140468741" lon="8.662529437453236"><ele>354.0</ele><time>2026-05-03T11:16:05.974Z</time></trkpt><trkpt lat="45.75564058161048" lon="8.66268018595002"><ele>354.0</ele><time>2026-05-03T11:16:07.974Z</time></trkpt><trkpt lat="45.75563861532361" lon="8.662817451910884"><ele>354.0</ele><time>2026-05-03T11:16:08.974Z</time></trkpt><trkpt lat="45.75562281929756" lon="8.662914376753955"><ele>353.5</ele><time>2026-05-03T11:16:09.974Z</time></trkpt><trkpt lat="45.75561309462344" lon="8.663020795941607"><ele>353.0</ele><time>2026-05-03T11:16:11.974Z</time></trkpt><trkpt lat="45.75561802609368" lon="8.663123331913607"><ele>352.5</ele><time>2026-05-03T11:16:14.974Z</time></trkpt><trkpt lat="45.75562759918428" lon="8.663255004451551"><ele>352.0</ele><time>2026-05-03T11:16:16.974Z</time></trkpt><trkpt lat="45.75567112237406" lon="8.663368453178558"><ele>351.5</ele><time>2026-05-03T11:16:20.974Z</time></trkpt><trkpt lat="45.75569617608672" lon="8.66346410248217"><ele>351.0</ele><time>2026-05-03T11:16:22.974Z</time></trkpt><trkpt lat="45.75569293773632" lon="8.663562849115554"><ele>352.0</ele><time>2026-05-03T11:16:24.973Z</time></trkpt><trkpt lat="45.75565985325804" lon="8.663685731931613"><ele>353.0</ele><time>2026-05-03T11:16:26.973Z</time></trkpt><trkpt lat="45.755642941279724" lon="8.663831933171608"><ele>354.0</ele><time>2026-05-03T11:16:28.974Z</time></trkpt><trkpt lat="45.755641191678606" lon="8.663997890127048"><ele>355.0</ele><time>2026-05-03T11:16:30.973Z</time></trkpt><trkpt lat="45.75564950054709" lon="8.664195262324911"><ele>356.0</ele><time>2026-05-03T11:16:32.973Z</time></trkpt><trkpt lat="45.75565856924131" lon="8.664294921347484"><ele>356.6</ele><time>2026-05-03T11:16:33.973Z</time></trkpt><trkpt lat="45.75565920747542" lon="8.664471895292632"><ele>357.20000000000005</ele><time>2026-05-03T11:16:35.973Z</time></trkpt><trkpt lat="45.75568702904086" lon="8.664610170355584"><ele>357.79999999999995</ele><time>2026-05-03T11:16:37.973Z</time></trkpt><trkpt lat="45.75573137675828" lon="8.664750379747927"><ele>358.4</ele><time>2026-05-03T11:16:38.973Z</time></trkpt><trkpt lat="45.75576552032503" lon="8.664847738723044"><ele>359.0</ele><time>2026-05-03T11:16:39.973Z</time></trkpt><trkpt lat="45.75584455685103" lon="8.665009743649806"><ele>359.0</ele><time>2026-05-03T11:16:41.973Z</time></trkpt><trkpt lat="45.75590362752428" lon="8.665116498402563"><ele>359.0</ele><time>2026-05-03T11:16:42.973Z</time></trkpt><trkpt lat="45.755984854582444" lon="8.665198007769359"><ele>359.0</ele><time>2026-05-03T11:16:43.973Z</time></trkpt><trkpt lat="45.75604448486179" lon="8.665297585551018"><ele>359.0</ele><time>2026-05-03T11:16:44.973Z</time></trkpt><trkpt lat="45.75610045701323" lon="8.66540866001507"><ele>359.0</ele><time>2026-05-03T11:16:45.973Z</time></trkpt><trkpt lat="45.756143821927076" lon="8.665508642833878"><ele>358.79999999999995</ele><time>2026-05-03T11:16:47.973Z</time></trkpt><trkpt lat="45.75623632256669" lon="8.665573239995368"><ele>358.59999999999997</ele><time>2026-05-03T11:16:49.973Z</time></trkpt><trkpt lat="45.756304398617296" lon="8.66559095764917"><ele>358.4</ele><time>2026-05-03T11:16:51.973Z</time></trkpt><trkpt lat="45.75645187089893" lon="8.665631781232353"><ele>358.2</ele><time>2026-05-03T11:16:53.973Z</time></trkpt><trkpt lat="45.756517901476485" lon="8.665646961190895"><ele>358.0</ele><time>2026-05-03T11:16:54.973Z</time></trkpt><trkpt lat="45.7565914423838" lon="8.665653642441969"><ele>358.0</ele><time>2026-05-03T11:16:55.973Z</time></trkpt><trkpt lat="45.75671865129619" lon="8.665651419975989"><ele>358.0</ele><time>2026-05-03T11:16:56.973Z</time></trkpt><trkpt lat="45.75681493044245" lon="8.665635360794637"><ele>358.0</ele><time>2026-05-03T11:16:57.973Z</time></trkpt><trkpt lat="45.75691875701488" lon="8.665638259597525"><ele>358.0</ele><time>2026-05-03T11:16:58.973Z</time></trkpt><trkpt lat="45.75700937572446" lon="8.665636271946054"><ele>358.0</ele><time>2026-05-03T11:16:59.973Z</time></trkpt><trkpt lat="45.757102392426845" lon="8.665596600969732"><ele>357.75</ele><time>2026-05-03T11:17:00.973Z</time></trkpt><trkpt lat="45.75720773654053" lon="8.66554027793431"><ele>357.5</ele><time>2026-05-03T11:17:01.973Z</time></trkpt><trkpt lat="45.757343227131" lon="8.665464801343262"><ele>357.25</ele><time>2026-05-03T11:17:02.973Z</time></trkpt><trkpt lat="45.75748892555579" lon="8.665407932762836"><ele>357.0</ele><time>2026-05-03T11:17:03.973Z</time></trkpt><trkpt lat="45.757590769234916" lon="8.665379662454928"><ele>357.0</ele><time>2026-05-03T11:17:04.973Z</time></trkpt><trkpt lat="45.75768512230621" lon="8.665380597068422"><ele>357.0</ele><time>2026-05-03T11:17:05.973Z</time></trkpt><trkpt lat="45.75774869137422" lon="8.665367654337281"><ele>357.0</ele><time>2026-05-03T11:17:16.973Z</time></trkpt><trkpt lat="45.75779182231825" lon="8.66548012625314"><ele>357.0</ele><time>2026-05-03T11:19:29.971Z</time></trkpt><trkpt lat="45.7577266303133" lon="8.665315283698428"><ele>357.0</ele><time>2026-05-03T11:20:02.97Z</time></trkpt><trkpt lat="45.75778989938175" lon="8.665329645598693"><ele>357.0</ele><time>2026-05-03T11:20:05.97Z</time></trkpt><trkpt lat="45.75786381803938" lon="8.665370914966118"><ele>357.14285714285717</ele><time>2026-05-03T11:20:07.97Z</time></trkpt><trkpt lat="45.757929324337944" lon="8.665420389410784"><ele>357.2857142857143</ele><time>2026-05-03T11:20:09.97Z</time></trkpt><trkpt lat="45.75799213557824" lon="8.665407766007151"><ele>357.42857142857144</ele><time>2026-05-03T11:20:13.97Z</time></trkpt><trkpt lat="45.758040855032846" lon="8.665327257879326"><ele>357.57142857142856</ele><time>2026-05-03T11:20:15.97Z</time></trkpt><trkpt lat="45.7581022364412" lon="8.665280884529954"><ele>357.7142857142857</ele><time>2026-05-03T11:20:21.97Z</time></trkpt><trkpt lat="45.758148570437086" lon="8.665194054554341"><ele>357.8571428571429</ele><time>2026-05-03T11:20:23.97Z</time></trkpt><trkpt lat="45.7582079004894" lon="8.665124165870727"><ele>358.0</ele><time>2026-05-03T11:20:25.97Z</time></trkpt><trkpt lat="45.758287470666396" lon="8.665062805246551"><ele>358.2</ele><time>2026-05-03T11:20:27.97Z</time></trkpt><trkpt lat="45.758386890047284" lon="8.66493986786401"><ele>358.4</ele><time>2026-05-03T11:20:29.97Z</time></trkpt><trkpt lat="45.75847023436809" lon="8.66484969520993"><ele>358.59999999999997</ele><time>2026-05-03T11:20:30.969Z</time></trkpt><trkpt lat="45.758554053285984" lon="8.664753615478997"><ele>358.79999999999995</ele><time>2026-05-03T11:20:31.969Z</time></trkpt><trkpt lat="45.758614892049" lon="8.664673683567646"><ele>359.0</ele><time>2026-05-03T11:20:32.969Z</time></trkpt><trkpt lat="45.758663237851145" lon="8.66459468265226"><ele>359.0</ele><time>2026-05-03T11:20:33.97Z</time></trkpt><trkpt lat="45.75874269686129" lon="8.664543044659313"><ele>359.0</ele><time>2026-05-03T11:20:35.969Z</time></trkpt><trkpt lat="45.75882997993672" lon="8.664524630808375"><ele>359.0</ele><time>2026-05-03T11:20:37.97Z</time></trkpt><trkpt lat="45.75889216373975" lon="8.664446984553404"><ele>359.0</ele><time>2026-05-03T11:20:39.97Z</time></trkpt><trkpt lat="45.758969767748155" lon="8.664345682788435"><ele>359.0</ele><time>2026-05-03T11:20:41.97Z</time></trkpt><trkpt lat="45.75905291153566" lon="8.66429410400239"><ele>359.5</ele><time>2026-05-03T11:20:43.969Z</time></trkpt><trkpt lat="45.75911229561515" lon="8.664255957931601"><ele>360.0</ele><time>2026-05-03T11:20:46.969Z</time></trkpt><trkpt lat="45.75919983586358" lon="8.66416359035021"><ele>360.5</ele><time>2026-05-03T11:20:48.969Z</time></trkpt><trkpt lat="45.759282622376475" lon="8.664110925812706"><ele>361.0</ele><time>2026-05-03T11:20:49.969Z</time></trkpt><trkpt lat="45.759367055621674" lon="8.664060398570005"><ele>361.5</ele><time>2026-05-03T11:20:50.969Z</time></trkpt><trkpt lat="45.759437674153375" lon="8.66399489813444"><ele>362.0</ele><time>2026-05-03T11:20:51.969Z</time></trkpt><trkpt lat="45.75950195047721" lon="8.66391287891777"><ele>362.0</ele><time>2026-05-03T11:20:52.969Z</time></trkpt><trkpt lat="45.759562422700206" lon="8.663857787644954"><ele>362.0</ele><time>2026-05-03T11:20:53.969Z</time></trkpt><trkpt lat="45.75959508610994" lon="8.663716193851538"><ele>362.0</ele><time>2026-05-03T11:20:57.969Z</time></trkpt><trkpt lat="45.75965024535348" lon="8.663614664251277"><ele>362.0</ele><time>2026-05-03T11:20:59.969Z</time></trkpt><trkpt lat="45.759694592331094" lon="8.663488407814807"><ele>362.0</ele><time>2026-05-03T11:21:01.969Z</time></trkpt><trkpt lat="45.75970715302376" lon="8.66337873641671"><ele>362.0</ele><time>2026-05-03T11:21:03.969Z</time></trkpt><trkpt lat="45.7597019731949" lon="8.663268092969545"><ele>363.1666666666667</ele><time>2026-05-03T11:21:05.969Z</time></trkpt><trkpt lat="45.75974267780204" lon="8.663166983918236"><ele>364.33333333333337</ele><time>2026-05-03T11:21:07.969Z</time></trkpt><trkpt lat="45.7598090224133" lon="8.663055538194921"><ele>365.5</ele><time>2026-05-03T11:21:09.969Z</time></trkpt><trkpt lat="45.7598730546249" lon="8.663013723104656"><ele>366.6666666666667</ele><time>2026-05-03T11:21:11.969Z</time></trkpt><trkpt lat="45.759883017994724" lon="8.66291113185282"><ele>367.8333333333333</ele><time>2026-05-03T11:21:15.969Z</time></trkpt><trkpt lat="45.759940314039355" lon="8.662850460770178"><ele>369.0</ele><time>2026-05-03T11:21:17.969Z</time></trkpt><trkpt lat="45.76000773882872" lon="8.662761148642385"><ele>368.6666666666667</ele><time>2026-05-03T11:21:22.969Z</time></trkpt><trkpt lat="45.76002818348082" lon="8.662654322358097"><ele>368.3333333333333</ele><time>2026-05-03T11:21:29.969Z</time></trkpt><trkpt lat="45.76007145947329" lon="8.662524617072568"><ele>368.0</ele><time>2026-05-03T11:21:32.969Z</time></trkpt><trkpt lat="45.76011225723095" lon="8.662440465486563"><ele>367.66666666666663</ele><time>2026-05-03T11:21:33.969Z</time></trkpt><trkpt lat="45.76015770621228" lon="8.662362082125961"><ele>367.3333333333333</ele><time>2026-05-03T11:21:34.969Z</time></trkpt><trkpt lat="45.760220702180526" lon="8.662262992865097"><ele>367.0</ele><time>2026-05-03T11:21:35.969Z</time></trkpt><trkpt lat="45.7602773255965" lon="8.66218722813068"><ele>367.0</ele><time>2026-05-03T11:21:36.969Z</time></trkpt><trkpt lat="45.76033461746473" lon="8.662094217155389"><ele>367.0</ele><time>2026-05-03T11:21:37.969Z</time></trkpt><trkpt lat="45.7603738840094" lon="8.661988370586208"><ele>367.0</ele><time>2026-05-03T11:21:38.969Z</time></trkpt><trkpt lat="45.76042769723312" lon="8.661859052093138"><ele>367.0</ele><time>2026-05-03T11:21:39.969Z</time></trkpt><trkpt lat="45.7604923940263" lon="8.66179086892981"><ele>367.0</ele><time>2026-05-03T11:21:40.969Z</time></trkpt><trkpt lat="45.76055095390929" lon="8.66169621634239"><ele>367.0</ele><time>2026-05-03T11:21:41.969Z</time></trkpt><trkpt lat="45.76060932903092" lon="8.661585716471082"><ele>368.8333333333333</ele><time>2026-05-03T11:21:42.969Z</time></trkpt><trkpt lat="45.76063928496318" lon="8.66147791164965"><ele>370.66666666666663</ele><time>2026-05-03T11:21:43.969Z</time></trkpt><trkpt lat="45.76063748186296" lon="8.661363800333238"><ele>372.5</ele><time>2026-05-03T11:21:45.969Z</time></trkpt><trkpt lat="45.760604901082715" lon="8.66127642485196"><ele>374.3333333333333</ele><time>2026-05-03T11:21:48.969Z</time></trkpt><trkpt lat="45.760625196476674" lon="8.661147984799792"><ele>376.1666666666667</ele><time>2026-05-03T11:21:55.969Z</time></trkpt><trkpt lat="45.76061480729552" lon="8.661017685550688"><ele>378.0</ele><time>2026-05-03T11:21:58.969Z</time></trkpt><trkpt lat="45.76058276744832" lon="8.660891151776518"><ele>380.3333333333333</ele><time>2026-05-03T11:22:01.968Z</time></trkpt><trkpt lat="45.76052820052951" lon="8.66078718786213"><ele>382.66666666666663</ele><time>2026-05-03T11:22:03.967Z</time></trkpt><trkpt lat="45.76046325479213" lon="8.660756304349121"><ele>385.0</ele><time>2026-05-03T11:22:04.967Z</time></trkpt><trkpt lat="45.76039030735261" lon="8.660743191054285"><ele>387.3333333333333</ele><time>2026-05-03T11:22:05.967Z</time></trkpt><trkpt lat="45.76031791162249" lon="8.660742933070642"><ele>389.66666666666663</ele><time>2026-05-03T11:22:07.967Z</time></trkpt><trkpt lat="45.760242840593826" lon="8.660768649372901"><ele>392.0</ele><time>2026-05-03T11:22:09.967Z</time></trkpt><trkpt lat="45.76014747099185" lon="8.660730442551408"><ele>391.99999999999994</ele><time>2026-05-03T11:22:12.967Z</time></trkpt><trkpt lat="45.760076461913975" lon="8.660686224766087"><ele>392.0</ele><time>2026-05-03T11:22:14.967Z</time></trkpt><trkpt lat="45.76000711963862" lon="8.660662232423622"><ele>392.0</ele><time>2026-05-03T11:22:17.967Z</time></trkpt><trkpt lat="45.76006923083999" lon="8.660545212678093"><ele>392.0</ele><time>2026-05-03T11:22:20.967Z</time></trkpt><trkpt lat="45.760114585794234" lon="8.660458183899939"><ele>391.99999999999994</ele><time>2026-05-03T11:22:22.967Z</time></trkpt><trkpt lat="45.760184819700456" lon="8.660417925791483"><ele>392.0</ele><time>2026-05-03T11:22:24.967Z</time></trkpt><trkpt lat="45.76028025193399" lon="8.660321965937877"><ele>393.99999999999994</ele><time>2026-05-03T11:22:26.967Z</time></trkpt><trkpt lat="45.76033061787244" lon="8.660214495323256"><ele>396.0</ele><time>2026-05-03T11:22:27.967Z</time></trkpt><trkpt lat="45.76035813668601" lon="8.66012193323573"><ele>398.0</ele><time>2026-05-03T11:22:28.967Z</time></trkpt><trkpt lat="45.76032122801928" lon="8.659979606461281"><ele>400.0</ele><time>2026-05-03T11:22:31.967Z</time></trkpt><trkpt lat="45.760289552518714" lon="8.659885381106575"><ele>401.99999999999994</ele><time>2026-05-03T11:22:32.967Z</time></trkpt><trkpt lat="45.76022676991702" lon="8.65986820099078"><ele>404.0</ele><time>2026-05-03T11:22:34.967Z</time></trkpt><trkpt lat="45.76016626154959" lon="8.659797080696523"><ele>406.6</ele><time>2026-05-03T11:22:36.968Z</time></trkpt><trkpt lat="45.760069250750554" lon="8.659793404032436"><ele>409.2</ele><time>2026-05-03T11:22:39.967Z</time></trkpt><trkpt lat="45.7599889556047" lon="8.659880048746578"><ele>411.8</ele><time>2026-05-03T11:22:42.967Z</time></trkpt><trkpt lat="45.75992027463557" lon="8.65994477929205"><ele>414.40000000000003</ele><time>2026-05-03T11:22:44.966Z</time></trkpt><trkpt lat="45.75984791308993" lon="8.660029129655877"><ele>417.0</ele><time>2026-05-03T11:22:46.967Z</time></trkpt><trkpt lat="45.75975779419547" lon="8.660064651250496"><ele>417.0</ele><time>2026-05-03T11:22:48.966Z</time></trkpt><trkpt lat="45.759679712329245" lon="8.660091876744033"><ele>417.0</ele><time>2026-05-03T11:22:50.967Z</time></trkpt><trkpt lat="45.75962060780085" lon="8.660051040870805"><ele>417.0</ele><time>2026-05-03T11:22:52.967Z</time></trkpt><trkpt lat="45.75955709366638" lon="8.66000884369602"><ele>417.0</ele><time>2026-05-03T11:22:53.967Z</time></trkpt><trkpt lat="45.75943124528946" lon="8.659958193324602"><ele>417.0</ele><time>2026-05-03T11:22:55.967Z</time></trkpt><trkpt lat="45.759352531526545" lon="8.65989710649535"><ele>417.0</ele><time>2026-05-03T11:22:57.967Z</time></trkpt><trkpt lat="45.75929282090965" lon="8.659773547879372"><ele>417.6</ele><time>2026-05-03T11:22:59.967Z</time></trkpt><trkpt lat="45.7592192253565" lon="8.65965026920679"><ele>418.20000000000005</ele><time>2026-05-03T11:23:01.967Z</time></trkpt><trkpt lat="45.75916397078164" lon="8.659523692115608"><ele>418.8</ele><time>2026-05-03T11:23:03.967Z</time></trkpt><trkpt lat="45.759092836818134" lon="8.659482012993283"><ele>419.4</ele><time>2026-05-03T11:23:06.967Z</time></trkpt><trkpt lat="45.75901001343587" lon="8.659424293535357"><ele>420.0</ele><time>2026-05-03T11:23:23.967Z</time></trkpt><trkpt lat="45.758983109320674" lon="8.6593160085894"><ele>422.0</ele><time>2026-05-03T11:23:37.967Z</time></trkpt><trkpt lat="45.75904428042863" lon="8.659232574500505"><ele>424.0</ele><time>2026-05-03T11:23:39.967Z</time></trkpt><trkpt lat="45.759101953655396" lon="8.659156438258528"><ele>426.0</ele><time>2026-05-03T11:23:40.967Z</time></trkpt><trkpt lat="45.7591811885363" lon="8.659057016045752"><ele>428.0</ele><time>2026-05-03T11:23:42.967Z</time></trkpt><trkpt lat="45.759218677577884" lon="8.658958202153366"><ele>430.0</ele><time>2026-05-03T11:23:44.967Z</time></trkpt><trkpt lat="45.7593413017748" lon="8.658948748837043"><ele>429.0</ele><time>2026-05-03T11:23:46.967Z</time></trkpt><trkpt lat="45.759420314517165" lon="8.658948703429838"><ele>428.0</ele><time>2026-05-03T11:23:47.967Z</time></trkpt><trkpt lat="45.759529568542696" lon="8.658896635593171"><ele>427.0</ele><time>2026-05-03T11:23:49.967Z</time></trkpt><trkpt lat="45.75956707678049" lon="8.658752522550687"><ele>426.0</ele><time>2026-05-03T11:23:51.967Z</time></trkpt><trkpt lat="45.75959717498806" lon="8.658649287318864"><ele>425.0</ele><time>2026-05-03T11:23:52.967Z</time></trkpt><trkpt lat="45.75965644254013" lon="8.658549646977482"><ele>426.99999999999994</ele><time>2026-05-03T11:23:53.967Z</time></trkpt><trkpt lat="45.759721741557144" lon="8.658504204791132"><ele>429.0</ele><time>2026-05-03T11:23:54.967Z</time></trkpt><trkpt lat="45.759800194876114" lon="8.658449357880274"><ele>431.0</ele><time>2026-05-03T11:23:55.967Z</time></trkpt><trkpt lat="45.75986243268258" lon="8.65840775533083"><ele>433.0</ele><time>2026-05-03T11:23:56.967Z</time></trkpt><trkpt lat="45.75996908987694" lon="8.658353174483967"><ele>434.99999999999994</ele><time>2026-05-03T11:23:58.967Z</time></trkpt><trkpt lat="45.760007761720914" lon="8.658252376570482"><ele>437.0</ele><time>2026-05-03T11:24:01.967Z</time></trkpt><trkpt lat="45.75994770472951" lon="8.658104789022206"><ele>436.99999999999994</ele><time>2026-05-03T11:24:03.967Z</time></trkpt><trkpt lat="45.759880455309485" lon="8.658086169010133"><ele>437.0</ele><time>2026-05-03T11:24:04.967Z</time></trkpt><trkpt lat="45.7598179465463" lon="8.658033694265825"><ele>437.0</ele><time>2026-05-03T11:24:06.967Z</time></trkpt><trkpt lat="45.75974326209221" lon="8.658042117644344"><ele>437.0</ele><time>2026-05-03T11:24:10.967Z</time></trkpt><trkpt lat="45.759686656452494" lon="8.657994009030825"><ele>436.99999999999994</ele><time>2026-05-03T11:24:11.967Z</time></trkpt><trkpt lat="45.75958115672439" lon="8.65796631900682"><ele>437.0</ele><time>2026-05-03T11:24:12.967Z</time></trkpt><trkpt lat="45.759501525491764" lon="8.657942671045598"><ele>437.0</ele><time>2026-05-03T11:24:13.967Z</time></trkpt><trkpt lat="45.759393597155075" lon="8.65789798457533"><ele>437.00000000000006</ele><time>2026-05-03T11:24:15.967Z</time></trkpt><trkpt lat="45.75931776733193" lon="8.657853319520859"><ele>437.00000000000006</ele><time>2026-05-03T11:24:16.967Z</time></trkpt><trkpt lat="45.759242398265975" lon="8.657806303747753"><ele>437.0</ele><time>2026-05-03T11:24:17.967Z</time></trkpt><trkpt lat="45.75915839685311" lon="8.657914990823471"><ele>437.0</ele><time>2026-05-03T11:24:20.967Z</time></trkpt><trkpt lat="45.75905368671004" lon="8.657898420154076"><ele>436.8</ele><time>2026-05-03T11:24:22.967Z</time></trkpt><trkpt lat="45.7589431633344" lon="8.657793226540921"><ele>436.6</ele><time>2026-05-03T11:24:24.967Z</time></trkpt><trkpt lat="45.75888129332127" lon="8.657748351853055"><ele>436.40000000000003</ele><time>2026-05-03T11:24:25.967Z</time></trkpt><trkpt lat="45.75876862907354" lon="8.657726790719616"><ele>436.20000000000005</ele><time>2026-05-03T11:24:27.967Z</time></trkpt><trkpt lat="45.75872637728046" lon="8.657603374624369"><ele>436.0</ele><time>2026-05-03T11:24:29.967Z</time></trkpt><trkpt lat="45.758678846999814" lon="8.657451147799645"><ele>435.8</ele><time>2026-05-03T11:24:31.967Z</time></trkpt><trkpt lat="45.75863908164805" lon="8.657320415497724"><ele>435.6</ele><time>2026-05-03T11:24:34.967Z</time></trkpt><trkpt lat="45.75871503726461" lon="8.657202020238861"><ele>435.4</ele><time>2026-05-03T11:24:36.967Z</time></trkpt><trkpt lat="45.7587723302507" lon="8.657000855616701"><ele>435.2</ele><time>2026-05-03T11:24:37.967Z</time></trkpt><trkpt lat="45.75877735251728" lon="8.656891070263546"><ele>435.0</ele><time>2026-05-03T11:24:38.967Z</time></trkpt><trkpt lat="45.75874289941805" lon="8.656803739065975"><ele>433.8</ele><time>2026-05-03T11:24:40.967Z</time></trkpt><trkpt lat="45.7586834342379" lon="8.656721946759376"><ele>432.6</ele><time>2026-05-03T11:24:44.965Z</time></trkpt><trkpt lat="45.75863273993195" lon="8.65664830697177"><ele>431.4</ele><time>2026-05-03T11:24:45.965Z</time></trkpt><trkpt lat="45.75857931233651" lon="8.656549742451672"><ele>430.2</ele><time>2026-05-03T11:24:46.965Z</time></trkpt><trkpt lat="45.7585142879198" lon="8.656439637353099"><ele>429.0</ele><time>2026-05-03T11:24:47.965Z</time></trkpt><trkpt lat="45.75843363945415" lon="8.656321671036025"><ele>428.5</ele><time>2026-05-03T11:24:48.966Z</time></trkpt><trkpt lat="45.758396895703726" lon="8.656223847119575"><ele>428.0</ele><time>2026-05-03T11:24:49.965Z</time></trkpt><trkpt lat="45.75836910683394" lon="8.656076894880462"><ele>427.5</ele><time>2026-05-03T11:24:51.966Z</time></trkpt><trkpt lat="45.758336631825706" lon="8.655989057417075"><ele>427.0</ele><time>2026-05-03T11:24:52.965Z</time></trkpt><trkpt lat="45.75831641527783" lon="8.65588173358491"><ele>426.5</ele><time>2026-05-03T11:24:56.965Z</time></trkpt><trkpt lat="45.75840568517498" lon="8.655954358496826"><ele>426.0</ele><time>2026-05-03T11:25:04.965Z</time></trkpt><trkpt lat="45.758497498478576" lon="8.656029037219877"><ele>426.6</ele><time>2026-05-03T11:25:06.965Z</time></trkpt><trkpt lat="45.75856045469752" lon="8.656064620249794"><ele>427.20000000000005</ele><time>2026-05-03T11:25:07.965Z</time></trkpt><trkpt lat="45.75864550438222" lon="8.656133938251637"><ele>427.79999999999995</ele><time>2026-05-03T11:25:08.965Z</time></trkpt><trkpt lat="45.75873890030235" lon="8.656229640931468"><ele>428.4</ele><time>2026-05-03T11:25:09.965Z</time></trkpt><trkpt lat="45.75880613673691" lon="8.656315943491906"><ele>429.0</ele><time>2026-05-03T11:25:10.965Z</time></trkpt><trkpt lat="45.75887124293101" lon="8.656391919703085"><ele>429.0</ele><time>2026-05-03T11:25:11.965Z</time></trkpt><trkpt lat="45.75892322222953" lon="8.656443576797987"><ele>429.0</ele><time>2026-05-03T11:25:12.965Z</time></trkpt><trkpt lat="45.75898885704799" lon="8.656498738490912"><ele>429.0</ele><time>2026-05-03T11:25:14.965Z</time></trkpt><trkpt lat="45.75912489651691" lon="8.656550535669366"><ele>429.0</ele><time>2026-05-03T11:25:16.965Z</time></trkpt><trkpt lat="45.75922604459766" lon="8.656550580678141"><ele>429.0</ele><time>2026-05-03T11:25:17.965Z</time></trkpt><trkpt lat="45.75932048029864" lon="8.656589650411933"><ele>427.5</ele><time>2026-05-03T11:25:18.965Z</time></trkpt><trkpt lat="45.75937715147776" lon="8.65663947511339"><ele>426.0</ele><time>2026-05-03T11:25:19.965Z</time></trkpt><trkpt lat="45.7594398393447" lon="8.656692072972339"><ele>424.5</ele><time>2026-05-03T11:25:20.965Z</time></trkpt><trkpt lat="45.7595268572498" lon="8.656777691213222"><ele>423.0</ele><time>2026-05-03T11:25:21.965Z</time></trkpt><trkpt lat="45.75960695670608" lon="8.65684812036486"><ele>421.5</ele><time>2026-05-03T11:25:22.965Z</time></trkpt><trkpt lat="45.759675185203584" lon="8.656880637877103"><ele>420.0</ele><time>2026-05-03T11:25:23.965Z</time></trkpt><trkpt lat="45.759798103605554" lon="8.656887841580621"><ele>420.0</ele><time>2026-05-03T11:25:25.965Z</time></trkpt><trkpt lat="45.75991666572948" lon="8.656920660651963"><ele>420.0</ele><time>2026-05-03T11:25:27.965Z</time></trkpt><trkpt lat="45.75999583914993" lon="8.656957239103134"><ele>420.0</ele><time>2026-05-03T11:25:28.965Z</time></trkpt><trkpt lat="45.76008969331758" lon="8.657026184693688"><ele>420.0</ele><time>2026-05-03T11:25:29.965Z</time></trkpt><trkpt lat="45.76016882805753" lon="8.657092373986993"><ele>420.0</ele><time>2026-05-03T11:25:30.965Z</time></trkpt><trkpt lat="45.76026146421353" lon="8.657053022911155"><ele>421.8333333333333</ele><time>2026-05-03T11:25:32.965Z</time></trkpt><trkpt lat="45.7603267925484" lon="8.657018055225645"><ele>423.66666666666663</ele><time>2026-05-03T11:25:34.965Z</time></trkpt><trkpt lat="45.760395552316865" lon="8.65698096517216"><ele>425.5</ele><time>2026-05-03T11:25:35.965Z</time></trkpt><trkpt lat="45.76049472622996" lon="8.657077968447501"><ele>427.3333333333333</ele><time>2026-05-03T11:25:37.965Z</time></trkpt><trkpt lat="45.76052544593972" lon="8.657162380793013"><ele>429.16666666666663</ele><time>2026-05-03T11:25:38.965Z</time></trkpt><trkpt lat="45.76052513800575" lon="8.657285418674364"><ele>431.0</ele><time>2026-05-03T11:25:40.965Z</time></trkpt><trkpt lat="45.760537464337645" lon="8.65741723729302"><ele>430.99999999999994</ele><time>2026-05-03T11:25:42.965Z</time></trkpt><trkpt lat="45.76053031536646" lon="8.657508683491804"><ele>431.0</ele><time>2026-05-03T11:25:43.965Z</time></trkpt><trkpt lat="45.76058949856269" lon="8.657599116844123"><ele>431.0</ele><time>2026-05-03T11:25:46.965Z</time></trkpt><trkpt lat="45.760599899435476" lon="8.657740675144643"><ele>431.0</ele><time>2026-05-03T11:25:49.965Z</time></trkpt><trkpt lat="45.76060497085139" lon="8.657851603129593"><ele>430.99999999999994</ele><time>2026-05-03T11:25:51.965Z</time></trkpt><trkpt lat="45.760580800140794" lon="8.657976683276834"><ele>431.0</ele><time>2026-05-03T11:25:53.965Z</time></trkpt><trkpt lat="45.76066413317229" lon="8.658026045840794"><ele>431.16666666666663</ele><time>2026-05-03T11:25:56.965Z</time></trkpt><trkpt lat="45.760693462736654" lon="8.658107061823856"><ele>431.3333333333333</ele><time>2026-05-03T11:25:58.965Z</time></trkpt><trkpt lat="45.76074397670059" lon="8.658243840382909"><ele>431.5</ele><time>2026-05-03T11:26:00.965Z</time></trkpt><trkpt lat="45.7607872654237" lon="8.658324518507037"><ele>431.66666666666663</ele><time>2026-05-03T11:26:01.965Z</time></trkpt><trkpt lat="45.760839316651314" lon="8.65838916463613"><ele>431.8333333333333</ele><time>2026-05-03T11:26:02.965Z</time></trkpt><trkpt lat="45.76095821363028" lon="8.658422214070159"><ele>432.0</ele><time>2026-05-03T11:26:05.965Z</time></trkpt><trkpt lat="45.761048334578334" lon="8.658425695411484"><ele>432.0</ele><time>2026-05-03T11:26:07.965Z</time></trkpt><trkpt lat="45.7611258454914" lon="8.658409794894816"><ele>432.0</ele><time>2026-05-03T11:26:10.965Z</time></trkpt><trkpt lat="45.76118130370947" lon="8.658484232294363"><ele>432.0</ele><time>2026-05-03T11:26:14.965Z</time></trkpt><trkpt lat="45.76126221316024" lon="8.65851444644132"><ele>432.0</ele><time>2026-05-03T11:26:44.965Z</time></trkpt><trkpt lat="45.76132448379632" lon="8.658487416951047"><ele>432.0</ele><time>2026-05-03T11:26:47.965Z</time></trkpt><trkpt lat="45.761386260114804" lon="8.658430397126189"><ele>432.0</ele><time>2026-05-03T11:26:50.964Z</time></trkpt><trkpt lat="45.7614312630756" lon="8.65833202731326"><ele>432.0</ele><time>2026-05-03T11:26:53.964Z</time></trkpt><trkpt lat="45.761511978921455" lon="8.6582909056741"><ele>432.00000000000006</ele><time>2026-05-03T11:26:56.964Z</time></trkpt><trkpt lat="45.76157782383063" lon="8.65818769927186"><ele>432.00000000000006</ele><time>2026-05-03T11:27:02.964Z</time></trkpt><trkpt lat="45.761648195003744" lon="8.658187705231901"><ele>432.0</ele><time>2026-05-03T11:27:08.964Z</time></trkpt><trkpt lat="45.76171339729752" lon="8.658109583696435"><ele>432.0</ele><time>2026-05-03T11:27:42.964Z</time></trkpt><trkpt lat="45.76182337165912" lon="8.658086162273149"><ele>432.6666666666667</ele><time>2026-05-03T11:30:32.96Z</time></trkpt><trkpt lat="45.76187906260791" lon="8.658158346095924"><ele>433.33333333333337</ele><time>2026-05-03T11:31:11.959Z</time></trkpt><trkpt lat="45.76193156016635" lon="8.658252967512452"><ele>434.0</ele><time>2026-05-03T11:31:15.959Z</time></trkpt><trkpt lat="45.76196970534635" lon="8.658354386331421"><ele>434.6666666666667</ele><time>2026-05-03T11:31:20.959Z</time></trkpt><trkpt lat="45.76204386632927" lon="8.658446657765648"><ele>435.33333333333337</ele><time>2026-05-03T11:31:23.959Z</time></trkpt><trkpt lat="45.762100847319864" lon="8.65851219153352"><ele>436.0</ele><time>2026-05-03T11:31:24.959Z</time></trkpt><trkpt lat="45.762156555077624" lon="8.658603717608804"><ele>435.1666666666667</ele><time>2026-05-03T11:31:25.959Z</time></trkpt><trkpt lat="45.76219659600217" lon="8.658677695404293"><ele>434.33333333333337</ele><time>2026-05-03T11:31:26.959Z</time></trkpt><trkpt lat="45.76228943458666" lon="8.658688481958803"><ele>433.5</ele><time>2026-05-03T11:31:28.959Z</time></trkpt><trkpt lat="45.762391053539844" lon="8.658690678448073"><ele>432.66666666666663</ele><time>2026-05-03T11:31:30.959Z</time></trkpt><trkpt lat="45.76247509870849" lon="8.658774915186104"><ele>431.8333333333333</ele><time>2026-05-03T11:31:32.959Z</time></trkpt><trkpt lat="45.76252957020091" lon="8.65882795239272"><ele>431.0</ele><time>2026-05-03T11:31:33.959Z</time></trkpt><trkpt lat="45.762600419445434" lon="8.658871992658243"><ele>430.99999999999994</ele><time>2026-05-03T11:31:35.959Z</time></trkpt><trkpt lat="45.76265511587392" lon="8.658925527632457"><ele>431.0</ele><time>2026-05-03T11:31:36.959Z</time></trkpt><trkpt lat="45.76270907275588" lon="8.658974426997835"><ele>431.0</ele><time>2026-05-03T11:31:37.959Z</time></trkpt><trkpt lat="45.76276705487039" lon="8.659018829011151"><ele>431.0</ele><time>2026-05-03T11:31:38.959Z</time></trkpt><trkpt lat="45.76282159205382" lon="8.65908377685094"><ele>430.99999999999994</ele><time>2026-05-03T11:31:39.959Z</time></trkpt><trkpt lat="45.76288667515901" lon="8.659185918143471"><ele>431.0</ele><time>2026-05-03T11:31:40.958Z</time></trkpt><trkpt lat="45.76295108328074" lon="8.659308846306441"><ele>431.20000000000005</ele><time>2026-05-03T11:31:41.958Z</time></trkpt><trkpt lat="45.76301204763314" lon="8.659402224535341"><ele>431.40000000000003</ele><time>2026-05-03T11:31:42.958Z</time></trkpt><trkpt lat="45.7630895794252" lon="8.659369987133747"><ele>431.6</ele><time>2026-05-03T11:31:44.958Z</time></trkpt><trkpt lat="45.76318177582928" lon="8.659452965375523"><ele>431.8</ele><time>2026-05-03T11:31:46.958Z</time></trkpt><trkpt lat="45.76320586370511" lon="8.65953674695114"><ele>432.0</ele><time>2026-05-03T11:31:48.958Z</time></trkpt><trkpt lat="45.76331580145024" lon="8.659539550577513"><ele>432.0</ele><time>2026-05-03T11:31:52.958Z</time></trkpt><trkpt lat="45.763411708301646" lon="8.659551656535681"><ele>432.00000000000006</ele><time>2026-05-03T11:31:54.958Z</time></trkpt><trkpt lat="45.763474497799436" lon="8.659563944010484"><ele>432.00000000000006</ele><time>2026-05-03T11:31:55.958Z</time></trkpt><trkpt lat="45.76357325193949" lon="8.659579636589287"><ele>432.0</ele><time>2026-05-03T11:31:57.958Z</time></trkpt><trkpt lat="45.76364246969152" lon="8.659606789245279"><ele>432.0</ele><time>2026-05-03T11:31:59.958Z</time></trkpt><trkpt lat="45.76376241074953" lon="8.659682403394603"><ele>429.40000000000003</ele><time>2026-05-03T11:32:01.958Z</time></trkpt><trkpt lat="45.76378946346596" lon="8.659779316470088"><ele>426.80000000000007</ele><time>2026-05-03T11:32:02.958Z</time></trkpt><trkpt lat="45.763820855185905" lon="8.659978094165204"><ele>424.2</ele><time>2026-05-03T11:32:04.958Z</time></trkpt><trkpt lat="45.76393098810863" lon="8.660008386795585"><ele>421.6</ele><time>2026-05-03T11:32:07.958Z</time></trkpt><trkpt lat="45.76400720010412" lon="8.66000745464813"><ele>419.0</ele><time>2026-05-03T11:32:08.958Z</time></trkpt><trkpt lat="45.76407693037239" lon="8.660029216248322"><ele>418.5</ele><time>2026-05-03T11:32:09.958Z</time></trkpt><trkpt lat="45.764096130488646" lon="8.660319915451398"><ele>418.0</ele><time>2026-05-03T11:32:11.958Z</time></trkpt><trkpt lat="45.76413245267231" lon="8.660415509730512"><ele>417.5</ele><time>2026-05-03T11:32:12.958Z</time></trkpt><trkpt lat="45.76416535742643" lon="8.660508074916015"><ele>417.0</ele><time>2026-05-03T11:32:13.958Z</time></trkpt><trkpt lat="45.764277640030286" lon="8.660586803692526"><ele>417.0</ele><time>2026-05-03T11:32:14.958Z</time></trkpt><trkpt lat="45.76427881621568" lon="8.660702056112754"><ele>417.0</ele><time>2026-05-03T11:32:15.958Z</time></trkpt><trkpt lat="45.7643159632258" lon="8.660795016343904"><ele>417.0</ele><time>2026-05-03T11:32:16.958Z</time></trkpt><trkpt lat="45.764362471354524" lon="8.660863892789223"><ele>417.0</ele><time>2026-05-03T11:32:17.958Z</time></trkpt><trkpt lat="45.764425433200195" lon="8.660916985576705"><ele>417.0</ele><time>2026-05-03T11:32:21.958Z</time></trkpt><trkpt lat="45.76451292916655" lon="8.660986097472591"><ele>417.0</ele><time>2026-05-03T11:32:23.958Z</time></trkpt><trkpt lat="45.76458943136648" lon="8.661053294859656"><ele>417.5</ele><time>2026-05-03T11:32:25.958Z</time></trkpt><trkpt lat="45.76465255656658" lon="8.661073749357016"><ele>418.0</ele><time>2026-05-03T11:32:26.958Z</time></trkpt><trkpt lat="45.76472412077624" lon="8.661110782622584"><ele>418.5</ele><time>2026-05-03T11:32:27.958Z</time></trkpt><trkpt lat="45.76479457912217" lon="8.661140879696516"><ele>419.0</ele><time>2026-05-03T11:32:28.958Z</time></trkpt><trkpt lat="45.76489357113412" lon="8.661168518331598"><ele>419.5</ele><time>2026-05-03T11:32:30.958Z</time></trkpt><trkpt lat="45.76497548350591" lon="8.66115564916657"><ele>420.0</ele><time>2026-05-03T11:32:31.958Z</time></trkpt><trkpt lat="45.76504304368417" lon="8.661150604228522"><ele>420.0</ele><time>2026-05-03T11:32:32.958Z</time></trkpt><trkpt lat="45.76511449798681" lon="8.661126760750827"><ele>420.0</ele><time>2026-05-03T11:32:34.958Z</time></trkpt><trkpt lat="45.76517172024218" lon="8.661191446973563"><ele>420.0</ele><time>2026-05-03T11:32:39.958Z</time></trkpt><trkpt lat="45.76525237709371" lon="8.661270696041955"><ele>420.0</ele><time>2026-05-03T11:32:41.958Z</time></trkpt><trkpt lat="45.76531377688119" lon="8.661327110761555"><ele>420.0</ele><time>2026-05-03T11:32:43.958Z</time></trkpt><trkpt lat="45.7653945280362" lon="8.66138569496915"><ele>420.0</ele><time>2026-05-03T11:32:46.958Z</time></trkpt><trkpt lat="45.76549046191873" lon="8.661387209540687"><ele>422.3333333333333</ele><time>2026-05-03T11:32:48.958Z</time></trkpt><trkpt lat="45.765602075779874" lon="8.661380727099031"><ele>424.66666666666663</ele><time>2026-05-03T11:32:50.958Z</time></trkpt><trkpt lat="45.76566683725324" lon="8.66138336022321"><ele>427.0</ele><time>2026-05-03T11:32:52.958Z</time></trkpt><trkpt lat="45.76575126473826" lon="8.661403123725721"><ele>429.3333333333333</ele><time>2026-05-03T11:32:54.958Z</time></trkpt><trkpt lat="45.765848681044936" lon="8.661414303148716"><ele>431.66666666666663</ele><time>2026-05-03T11:32:57.958Z</time></trkpt><trkpt lat="45.765935826067754" lon="8.66141177512951"><ele>434.0</ele><time>2026-05-03T11:32:59.958Z</time></trkpt><trkpt lat="45.76602495401795" lon="8.661439223094806"><ele>436.66666666666663</ele><time>2026-05-03T11:33:01.958Z</time></trkpt><trkpt lat="45.76610055428452" lon="8.661467029412192"><ele>439.3333333333333</ele><time>2026-05-03T11:33:04.958Z</time></trkpt><trkpt lat="45.76617903715701" lon="8.661471314955795"><ele>442.0</ele><time>2026-05-03T11:33:07.956Z</time></trkpt><trkpt lat="45.76629946523073" lon="8.66146861285101"><ele>444.66666666666663</ele><time>2026-05-03T11:33:29.957Z</time></trkpt><trkpt lat="45.76636276822524" lon="8.661439191679468"><ele>447.3333333333333</ele><time>2026-05-03T11:33:53.956Z</time></trkpt><trkpt lat="45.766280549175605" lon="8.661445287282177"><ele>450.0</ele><time>2026-05-03T11:33:59.956Z</time></trkpt><trkpt lat="45.766190389608106" lon="8.661443909295645"><ele>450.0</ele><time>2026-05-03T11:34:01.956Z</time></trkpt><trkpt lat="45.7661221409784" lon="8.66146399455131"><ele>450.0</ele><time>2026-05-03T11:34:03.956Z</time></trkpt><trkpt lat="45.76603150210939" lon="8.661499187620356"><ele>450.0</ele><time>2026-05-03T11:34:05.956Z</time></trkpt><trkpt lat="45.76596569028716" lon="8.661514143546183"><ele>450.0</ele><time>2026-05-03T11:34:07.956Z</time></trkpt><trkpt lat="45.76589544451114" lon="8.661499695697643"><ele>450.0</ele><time>2026-05-03T11:34:09.956Z</time></trkpt><trkpt lat="45.765804410036985" lon="8.66152513542113"><ele>450.0</ele><time>2026-05-03T11:34:11.956Z</time></trkpt><trkpt lat="45.765698657715745" lon="8.661547979530093"><ele>446.8</ele><time>2026-05-03T11:34:14.956Z</time></trkpt><trkpt lat="45.76558657031527" lon="8.661528865943955"><ele>443.6</ele><time>2026-05-03T11:34:16.956Z</time></trkpt><trkpt lat="45.76550049202959" lon="8.66148070813661"><ele>440.4</ele><time>2026-05-03T11:34:18.956Z</time></trkpt><trkpt lat="45.76541841565008" lon="8.661366995790397"><ele>437.2</ele><time>2026-05-03T11:34:20.956Z</time></trkpt><trkpt lat="45.76534739651953" lon="8.661295285652574"><ele>434.0</ele><time>2026-05-03T11:34:21.956Z</time></trkpt><trkpt lat="45.76530871230893" lon="8.661187510978285"><ele>434.4</ele><time>2026-05-03T11:34:25.956Z</time></trkpt><trkpt lat="45.765278388675746" lon="8.661051281802594"><ele>434.79999999999995</ele><time>2026-05-03T11:34:28.956Z</time></trkpt><trkpt lat="45.76527082840495" lon="8.660929669757467"><ele>435.20000000000005</ele><time>2026-05-03T11:34:30.956Z</time></trkpt><trkpt lat="45.76530837090874" lon="8.660811725437753"><ele>435.6</ele><time>2026-05-03T11:34:33.956Z</time></trkpt><trkpt lat="45.765333172307706" lon="8.660705247181003"><ele>436.0</ele><time>2026-05-03T11:34:36.956Z</time></trkpt><trkpt lat="45.76542582474972" lon="8.660626499306929"><ele>436.00000000000006</ele><time>2026-05-03T11:34:38.956Z</time></trkpt><trkpt lat="45.76550359162708" lon="8.660634638450587"><ele>436.0</ele><time>2026-05-03T11:34:40.956Z</time></trkpt><trkpt lat="45.765585653722574" lon="8.660677824659684"><ele>436.0</ele><time>2026-05-03T11:34:42.956Z</time></trkpt><trkpt lat="45.765648154177605" lon="8.66069462766853"><ele>436.0</ele><time>2026-05-03T11:34:45.956Z</time></trkpt><trkpt lat="45.765728897881466" lon="8.660709841849156"><ele>436.00000000000006</ele><time>2026-05-03T11:34:47.956Z</time></trkpt><trkpt lat="45.765808277141005" lon="8.660718614676034"><ele>436.0</ele><time>2026-05-03T11:34:49.956Z</time></trkpt><trkpt lat="45.76592450461479" lon="8.66077434496501"><ele>436.00000000000006</ele><time>2026-05-03T11:34:51.956Z</time></trkpt><trkpt lat="45.76599326148748" lon="8.660866061306475"><ele>436.0</ele><time>2026-05-03T11:34:53.956Z</time></trkpt><trkpt lat="45.766015499384366" lon="8.660962901427641"><ele>436.0</ele><time>2026-05-03T11:34:56.956Z</time></trkpt><trkpt lat="45.76609467168706" lon="8.661011278494028"><ele>436.0</ele><time>2026-05-03T11:34:58.956Z</time></trkpt><trkpt lat="45.7661441481834" lon="8.661085984248967"><ele>436.00000000000006</ele><time>2026-05-03T11:35:00.956Z</time></trkpt><trkpt lat="45.76618859128042" lon="8.661182419128336"><ele>436.0</ele><time>2026-05-03T11:35:02.956Z</time></trkpt><trkpt lat="45.76617393866075" lon="8.661278766513034"><ele>438.33333333333337</ele><time>2026-05-03T11:35:05.956Z</time></trkpt><trkpt lat="45.76621840583192" lon="8.661371471767843"><ele>440.6666666666667</ele><time>2026-05-03T11:35:08.956Z</time></trkpt><trkpt lat="45.7662781178455" lon="8.661423877516594"><ele>443.0</ele><time>2026-05-03T11:35:13.955Z</time></trkpt><trkpt lat="45.76633522113713" lon="8.66147142006649"><ele>445.33333333333337</ele><time>2026-05-03T11:35:24.955Z</time></trkpt><trkpt lat="45.76624723306923" lon="8.661502529532843"><ele>447.6666666666667</ele><time>2026-05-03T11:35:34.954Z</time></trkpt><trkpt lat="45.76615999130405" lon="8.661499914585631"><ele>450.0</ele><time>2026-05-03T11:35:37.954Z</time></trkpt><trkpt lat="45.76609535572388" lon="8.661505484255112"><ele>446.8</ele><time>2026-05-03T11:35:39.954Z</time></trkpt><trkpt lat="45.766013264560875" lon="8.661518955258538"><ele>443.6</ele><time>2026-05-03T11:35:41.954Z</time></trkpt><trkpt lat="45.76591376814801" lon="8.661520844276083"><ele>440.4</ele><time>2026-05-03T11:35:43.954Z</time></trkpt><trkpt lat="45.765804137669406" lon="8.661524088066981"><ele>437.2</ele><time>2026-05-03T11:35:45.954Z</time></trkpt><trkpt lat="45.76568742646573" lon="8.661531783832618"><ele>434.0</ele><time>2026-05-03T11:35:48.954Z</time></trkpt><trkpt lat="45.76557361421824" lon="8.661510106361204"><ele>434.0</ele><time>2026-05-03T11:35:50.954Z</time></trkpt><trkpt lat="45.76547783016772" lon="8.661423969932827"><ele>434.0</ele><time>2026-05-03T11:35:52.954Z</time></trkpt><trkpt lat="45.76536145428748" lon="8.661305313077419"><ele>434.0</ele><time>2026-05-03T11:35:54.954Z</time></trkpt><trkpt lat="45.76530759107953" lon="8.66125387090642"><ele>434.0</ele><time>2026-05-03T11:35:55.954Z</time></trkpt><trkpt lat="45.76523951883397" lon="8.6612941049166"><ele>434.0</ele><time>2026-05-03T11:35:58.954Z</time></trkpt><trkpt lat="45.76514128364144" lon="8.661304715556973"><ele>431.66666666666663</ele><time>2026-05-03T11:36:00.954Z</time></trkpt><trkpt lat="45.765046922520455" lon="8.661305162362126"><ele>429.3333333333333</ele><time>2026-05-03T11:36:02.954Z</time></trkpt><trkpt lat="45.764963151827544" lon="8.661298105119071"><ele>427.0</ele><time>2026-05-03T11:36:04.954Z</time></trkpt><trkpt lat="45.764896169990585" lon="8.66126878472475"><ele>424.66666666666663</ele><time>2026-05-03T11:36:06.954Z</time></trkpt><trkpt lat="45.764801852615825" lon="8.661238415221087"><ele>422.3333333333333</ele><time>2026-05-03T11:36:09.954Z</time></trkpt><trkpt lat="45.76471810759538" lon="8.661216366185823"><ele>420.0</ele><time>2026-05-03T11:36:11.954Z</time></trkpt><trkpt lat="45.764671904457984" lon="8.661141842792786"><ele>420.0</ele><time>2026-05-03T11:36:14.954Z</time></trkpt><trkpt lat="45.76461797967279" lon="8.661075238432707"><ele>420.0</ele><time>2026-05-03T11:36:17.954Z</time></trkpt><trkpt lat="45.76453184980242" lon="8.661024153523238"><ele>420.0</ele><time>2026-05-03T11:36:20.954Z</time></trkpt><trkpt lat="45.76445393767397" lon="8.661118333908659"><ele>420.0</ele><time>2026-05-03T11:36:23.954Z</time></trkpt><trkpt lat="45.76437622084303" lon="8.661228767516091"><ele>420.0</ele><time>2026-05-03T11:36:25.954Z</time></trkpt><trkpt lat="45.764304376947564" lon="8.661320109339439"><ele>419.0</ele><time>2026-05-03T11:36:28.954Z</time></trkpt><trkpt lat="45.76422724226185" lon="8.661401688147802"><ele>418.0</ele><time>2026-05-03T11:36:30.954Z</time></trkpt><trkpt lat="45.76418584893632" lon="8.661491642704974"><ele>417.0</ele><time>2026-05-03T11:36:32.954Z</time></trkpt><trkpt lat="45.76412819535918" lon="8.661560442402324"><ele>416.0</ele><time>2026-05-03T11:36:37.954Z</time></trkpt><trkpt lat="45.76415386109081" lon="8.661654045660969"><ele>415.0</ele><time>2026-05-03T11:36:40.954Z</time></trkpt><trkpt lat="45.764256013052524" lon="8.661775384489975"><ele>414.0</ele><time>2026-05-03T11:36:42.954Z</time></trkpt><trkpt lat="45.76428209460023" lon="8.661860848760238"><ele>413.8571428571429</ele><time>2026-05-03T11:36:45.954Z</time></trkpt><trkpt lat="45.76429215732934" lon="8.661961964904753"><ele>413.7142857142857</ele><time>2026-05-03T11:36:53.954Z</time></trkpt><trkpt lat="45.76431299347106" lon="8.66205481009732"><ele>413.57142857142856</ele><time>2026-05-03T11:36:56.954Z</time></trkpt><trkpt lat="45.76433352345495" lon="8.662154705633515"><ele>413.42857142857144</ele><time>2026-05-03T11:36:58.954Z</time></trkpt><trkpt lat="45.76438848174275" lon="8.662215132777856"><ele>413.2857142857143</ele><time>2026-05-03T11:37:02.954Z</time></trkpt><trkpt lat="45.764441577740065" lon="8.662268000177379"><ele>413.14285714285717</ele><time>2026-05-03T11:37:07.954Z</time></trkpt><trkpt lat="45.764378017936934" lon="8.662279105150947"><ele>413.0</ele><time>2026-05-03T11:37:21.953Z</time></trkpt><trkpt lat="45.76430876882936" lon="8.662194327135735"><ele>413.16666666666663</ele><time>2026-05-03T11:37:25.952Z</time></trkpt><trkpt lat="45.76428050459209" lon="8.662101605869925"><ele>413.3333333333333</ele><time>2026-05-03T11:37:27.952Z</time></trkpt><trkpt lat="45.764243325523275" lon="8.662019364855123"><ele>413.5</ele><time>2026-05-03T11:37:29.952Z</time></trkpt><trkpt lat="45.7641898702484" lon="8.661934727411124"><ele>413.66666666666663</ele><time>2026-05-03T11:37:31.952Z</time></trkpt><trkpt lat="45.76416067728814" lon="8.66181701782559"><ele>413.8333333333333</ele><time>2026-05-03T11:37:36.952Z</time></trkpt><trkpt lat="45.76409320272626" lon="8.661716181654247"><ele>414.0</ele><time>2026-05-03T11:37:38.952Z</time></trkpt><trkpt lat="45.76404672433048" lon="8.66162110974552"><ele>414.0</ele><time>2026-05-03T11:37:40.952Z</time></trkpt><trkpt lat="45.7641033323768" lon="8.661492791190572"><ele>414.0</ele><time>2026-05-03T11:37:43.952Z</time></trkpt><trkpt lat="45.764132294237044" lon="8.661412039764246"><ele>414.0</ele><time>2026-05-03T11:37:44.952Z</time></trkpt><trkpt lat="45.76422279628642" lon="8.661298726710406"><ele>414.0</ele><time>2026-05-03T11:37:46.952Z</time></trkpt><trkpt lat="45.76427816125181" lon="8.661173856429725"><ele>414.0</ele><time>2026-05-03T11:37:49.952Z</time></trkpt><trkpt lat="45.76430794650914" lon="8.661053068632059"><ele>414.5</ele><time>2026-05-03T11:37:51.952Z</time></trkpt><trkpt lat="45.76433927144342" lon="8.660963472910485"><ele>415.0</ele><time>2026-05-03T11:37:53.952Z</time></trkpt><trkpt lat="45.7644027857528" lon="8.660975582859015"><ele>415.5</ele><time>2026-05-03T11:37:57.952Z</time></trkpt><trkpt lat="45.76446978847915" lon="8.66104898222759"><ele>416.0</ele><time>2026-05-03T11:38:00.952Z</time></trkpt><trkpt lat="45.76453571251413" lon="8.661079019183349"><ele>416.5</ele><time>2026-05-03T11:38:04.952Z</time></trkpt><trkpt lat="45.76460239185829" lon="8.661101428603294"><ele>417.0</ele><time>2026-05-03T11:38:08.952Z</time></trkpt><trkpt lat="45.764604316971734" lon="8.660955551653593"><ele>417.5</ele><time>2026-05-03T11:38:17.952Z</time></trkpt><trkpt lat="45.76463522761899" lon="8.66080458146564"><ele>418.0</ele><time>2026-05-03T11:38:20.952Z</time></trkpt><trkpt lat="45.76468089851517" lon="8.66072863067216"><ele>418.5</ele><time>2026-05-03T11:38:27.952Z</time></trkpt><trkpt lat="45.764749727236605" lon="8.660653752241561"><ele>419.0</ele><time>2026-05-03T11:38:29.952Z</time></trkpt><trkpt lat="45.764770771297805" lon="8.660540679798597"><ele>419.5</ele><time>2026-05-03T11:38:33.951Z</time></trkpt><trkpt lat="45.764795047849276" lon="8.660451473419617"><ele>420.0</ele><time>2026-05-03T11:38:35.951Z</time></trkpt><trkpt lat="45.764821438639856" lon="8.660353414724868"><ele>420.0</ele><time>2026-05-03T11:38:37.951Z</time></trkpt><trkpt lat="45.76484508273433" lon="8.660251408363902"><ele>420.0</ele><time>2026-05-03T11:38:42.95Z</time></trkpt><trkpt lat="45.76480813089048" lon="8.660398983011339"><ele>420.0</ele><time>2026-05-03T11:38:50.95Z</time></trkpt><trkpt lat="45.76476978451572" lon="8.660518412476636"><ele>420.0</ele><time>2026-05-03T11:38:51.95Z</time></trkpt><trkpt lat="45.764748471455285" lon="8.660619580636155"><ele>420.0</ele><time>2026-05-03T11:38:53.95Z</time></trkpt><trkpt lat="45.76469109378296" lon="8.660736747068924"><ele>420.0</ele><time>2026-05-03T11:38:56.95Z</time></trkpt><trkpt lat="45.764666338222575" lon="8.660875920113082"><ele>420.0</ele><time>2026-05-03T11:38:58.95Z</time></trkpt><trkpt lat="45.76466876773801" lon="8.660986366706311"><ele>420.0</ele><time>2026-05-03T11:38:59.95Z</time></trkpt><trkpt lat="45.764704095191895" lon="8.661061141737296"><ele>420.0</ele><time>2026-05-03T11:39:03.95Z</time></trkpt><trkpt lat="45.76477729203361" lon="8.661101914377785"><ele>420.0</ele><time>2026-05-03T11:39:05.95Z</time></trkpt><trkpt lat="45.76484091624731" lon="8.661178363675754"><ele>420.0</ele><time>2026-05-03T11:39:07.95Z</time></trkpt><trkpt lat="45.76490891999575" lon="8.661211151476968"><ele>420.0</ele><time>2026-05-03T11:39:11.95Z</time></trkpt><trkpt lat="45.76495990932715" lon="8.661304696443912"><ele>420.0</ele><time>2026-05-03T11:39:15.95Z</time></trkpt><trkpt lat="45.76500339562379" lon="8.66141282508436"><ele>420.0</ele><time>2026-05-03T11:39:18.95Z</time></trkpt><trkpt lat="45.76504322790027" lon="8.661496250239104"><ele>420.0</ele><time>2026-05-03T11:39:20.95Z</time></trkpt><trkpt lat="45.765046489208146" lon="8.661606138830164"><ele>420.0</ele><time>2026-05-03T11:39:24.95Z</time></trkpt><trkpt lat="45.76506969896545" lon="8.661753238545112"><ele>420.0</ele><time>2026-05-03T11:39:26.949Z</time></trkpt><trkpt lat="45.765057854538085" lon="8.661873238646006"><ele>418.6</ele><time>2026-05-03T11:39:29.95Z</time></trkpt><trkpt lat="45.76497928324144" lon="8.661968650474877"><ele>417.2</ele><time>2026-05-03T11:39:32.95Z</time></trkpt><trkpt lat="45.7649213217702" lon="8.662057149992565"><ele>415.79999999999995</ele><time>2026-05-03T11:39:33.95Z</time></trkpt><trkpt lat="45.764868700216645" lon="8.66213260801984"><ele>414.4</ele><time>2026-05-03T11:39:34.95Z</time></trkpt><trkpt lat="45.764814753672624" lon="8.66221915488573"><ele>413.0</ele><time>2026-05-03T11:39:35.95Z</time></trkpt><trkpt lat="45.76473213831808" lon="8.662360555351487"><ele>412.99999999999994</ele><time>2026-05-03T11:39:37.949Z</time></trkpt><trkpt lat="45.76465276533731" lon="8.662444223075342"><ele>413.0</ele><time>2026-05-03T11:39:38.949Z</time></trkpt><trkpt lat="45.7645747938382" lon="8.66250881944131"><ele>413.0</ele><time>2026-05-03T11:39:39.949Z</time></trkpt><trkpt lat="45.76452105145393" lon="8.662562298703579"><ele>413.0</ele><time>2026-05-03T11:39:40.949Z</time></trkpt><trkpt lat="45.764460644998" lon="8.662587915522227"><ele>412.99999999999994</ele><time>2026-05-03T11:39:41.949Z</time></trkpt><trkpt lat="45.764384878430015" lon="8.662599858613481"><ele>413.0</ele><time>2026-05-03T11:39:42.949Z</time></trkpt><trkpt lat="45.76430698674253" lon="8.662599556131724"><ele>412.57142857142856</ele><time>2026-05-03T11:39:43.949Z</time></trkpt><trkpt lat="45.764248314080255" lon="8.662639036857172"><ele>412.1428571428571</ele><time>2026-05-03T11:39:44.949Z</time></trkpt><trkpt lat="45.76422250509245" lon="8.662728109672345"><ele>411.7142857142857</ele><time>2026-05-03T11:39:46.949Z</time></trkpt><trkpt lat="45.764212173223385" lon="8.662860088080226"><ele>411.2857142857143</ele><time>2026-05-03T11:39:50.949Z</time></trkpt><trkpt lat="45.764232914864294" lon="8.662972074248366"><ele>410.85714285714283</ele><time>2026-05-03T11:39:51.949Z</time></trkpt><trkpt lat="45.76419038672061" lon="8.663048863868312"><ele>410.42857142857144</ele><time>2026-05-03T11:39:52.949Z</time></trkpt><trkpt lat="45.76414089804592" lon="8.663117572172583"><ele>410.0</ele><time>2026-05-03T11:39:53.949Z</time></trkpt><trkpt lat="45.76408771062326" lon="8.663178691475448"><ele>409.3333333333333</ele><time>2026-05-03T11:39:54.949Z</time></trkpt><trkpt lat="45.76408261653198" lon="8.663310201629427"><ele>408.66666666666663</ele><time>2026-05-03T11:39:56.949Z</time></trkpt><trkpt lat="45.76410335063439" lon="8.663434518793952"><ele>408.0</ele><time>2026-05-03T11:39:57.949Z</time></trkpt><trkpt lat="45.76413633726817" lon="8.66359658989228"><ele>407.33333333333337</ele><time>2026-05-03T11:39:58.949Z</time></trkpt><trkpt lat="45.76416017236801" lon="8.663696752415746"><ele>406.6666666666667</ele><time>2026-05-03T11:39:59.949Z</time></trkpt><trkpt lat="45.76420392471726" lon="8.663766033098542"><ele>406.0</ele><time>2026-05-03T11:40:01.949Z</time></trkpt><trkpt lat="45.76421271039071" lon="8.663932681677998"><ele>405.83333333333337</ele><time>2026-05-03T11:40:03.949Z</time></trkpt><trkpt lat="45.764221383438425" lon="8.664080626693739"><ele>405.6666666666667</ele><time>2026-05-03T11:40:08.949Z</time></trkpt><trkpt lat="45.76418737829911" lon="8.664200849350518"><ele>405.5</ele><time>2026-05-03T11:40:10.949Z</time></trkpt><trkpt lat="45.764198826499744" lon="8.66408594282016"><ele>405.33333333333337</ele><time>2026-05-03T11:40:20.949Z</time></trkpt><trkpt lat="45.76420242665556" lon="8.66398500785285"><ele>405.1666666666667</ele><time>2026-05-03T11:40:21.949Z</time></trkpt><trkpt lat="45.76421306903988" lon="8.663856375052072"><ele>405.0</ele><time>2026-05-03T11:40:23.949Z</time></trkpt><trkpt lat="45.76417292942121" lon="8.663745034541613"><ele>405.0</ele><time>2026-05-03T11:40:25.949Z</time></trkpt><trkpt lat="45.76412127810506" lon="8.66385393669611"><ele>405.0</ele><time>2026-05-03T11:40:28.949Z</time></trkpt><trkpt lat="45.76409339165157" lon="8.663975820571828"><ele>405.0</ele><time>2026-05-03T11:40:30.949Z</time></trkpt><trkpt lat="45.76402894226341" lon="8.664085065425404"><ele>405.0</ele><time>2026-05-03T11:40:33.949Z</time></trkpt><trkpt lat="45.763989345327815" lon="8.664243500746137"><ele>405.0</ele><time>2026-05-03T11:40:35.949Z</time></trkpt><trkpt lat="45.76388060823148" lon="8.664333042697663"><ele>405.0</ele><time>2026-05-03T11:40:37.949Z</time></trkpt><trkpt lat="45.76379588486672" lon="8.664370199434506"><ele>405.0</ele><time>2026-05-03T11:40:39.949Z</time></trkpt><trkpt lat="45.76372511841891" lon="8.66443042677494"><ele>405.0</ele><time>2026-05-03T11:40:44.949Z</time></trkpt><trkpt lat="45.763642756721694" lon="8.664454412120662"><ele>405.0</ele><time>2026-05-03T11:40:46.949Z</time></trkpt><trkpt lat="45.763576496564916" lon="8.664443921369346"><ele>405.0</ele><time>2026-05-03T11:40:48.949Z</time></trkpt><trkpt lat="45.76350198732059" lon="8.664452723687218"><ele>405.0</ele><time>2026-05-03T11:40:50.949Z</time></trkpt><trkpt lat="45.76343675597802" lon="8.664448289556203"><ele>404.6</ele><time>2026-05-03T11:40:52.949Z</time></trkpt><trkpt lat="45.763352916940576" lon="8.664436614765785"><ele>404.2</ele><time>2026-05-03T11:40:54.949Z</time></trkpt><trkpt lat="45.76320237836448" lon="8.664467706913342"><ele>403.79999999999995</ele><time>2026-05-03T11:40:55.949Z</time></trkpt><trkpt lat="45.763102802953014" lon="8.664421976362075"><ele>403.4</ele><time>2026-05-03T11:40:57.949Z</time></trkpt><trkpt lat="45.76304084884453" lon="8.664456993440165"><ele>403.0</ele><time>2026-05-03T11:40:59.949Z</time></trkpt><trkpt lat="45.762951355376394" lon="8.664478975547944"><ele>403.00000000000006</ele><time>2026-05-03T11:41:01.949Z</time></trkpt><trkpt lat="45.76284803127956" lon="8.664494136499053"><ele>403.0</ele><time>2026-05-03T11:41:03.949Z</time></trkpt><trkpt lat="45.76276463261594" lon="8.664510309753373"><ele>403.0</ele><time>2026-05-03T11:41:04.949Z</time></trkpt><trkpt lat="45.76269038412771" lon="8.6645280272741"><ele>403.0</ele><time>2026-05-03T11:41:05.949Z</time></trkpt><trkpt lat="45.76262420130712" lon="8.664551009362427"><ele>403.00000000000006</ele><time>2026-05-03T11:41:06.949Z</time></trkpt><trkpt lat="45.76256075663674" lon="8.664568584592276"><ele>403.0</ele><time>2026-05-03T11:41:07.949Z</time></trkpt><trkpt lat="45.76246780869976" lon="8.664591089174863"><ele>401.0</ele><time>2026-05-03T11:41:09.949Z</time></trkpt><trkpt lat="45.7623654925709" lon="8.664630948208353"><ele>399.0</ele><time>2026-05-03T11:41:11.949Z</time></trkpt><trkpt lat="45.762280038009806" lon="8.664653581151866"><ele>397.0</ele><time>2026-05-03T11:41:12.949Z</time></trkpt><trkpt lat="45.76216524114139" lon="8.664742169589912"><ele>395.0</ele><time>2026-05-03T11:41:13.949Z</time></trkpt><trkpt lat="45.762065979215066" lon="8.664809449962075"><ele>393.0</ele><time>2026-05-03T11:41:14.949Z</time></trkpt><trkpt lat="45.76197208278776" lon="8.664863389536041"><ele>391.2</ele><time>2026-05-03T11:41:15.949Z</time></trkpt><trkpt lat="45.761863968766704" lon="8.664930908357258"><ele>389.4</ele><time>2026-05-03T11:41:16.949Z</time></trkpt><trkpt lat="45.7617592091508" lon="8.664985683680705"><ele>387.59999999999997</ele><time>2026-05-03T11:41:18.949Z</time></trkpt><trkpt lat="45.76169794577252" lon="8.665017635267464"><ele>385.79999999999995</ele><time>2026-05-03T11:41:19.949Z</time></trkpt><trkpt lat="45.761602052007916" lon="8.665041127465075"><ele>384.0</ele><time>2026-05-03T11:41:21.949Z</time></trkpt><trkpt lat="45.76151986493338" lon="8.66510740711673"><ele>384.0</ele><time>2026-05-03T11:41:22.949Z</time></trkpt><trkpt lat="45.761369861863336" lon="8.665220493514541"><ele>384.0</ele><time>2026-05-03T11:41:23.949Z</time></trkpt><trkpt lat="45.761246542118975" lon="8.66530965532473"><ele>384.0</ele><time>2026-05-03T11:41:24.949Z</time></trkpt><trkpt lat="45.76114168793533" lon="8.6654387088965"><ele>384.0</ele><time>2026-05-03T11:41:25.949Z</time></trkpt><trkpt lat="45.761050090982636" lon="8.665581970009697"><ele>383.75</ele><time>2026-05-03T11:41:26.949Z</time></trkpt><trkpt lat="45.7609631817944" lon="8.665699398081262"><ele>383.5</ele><time>2026-05-03T11:41:27.949Z</time></trkpt><trkpt lat="45.760875603014355" lon="8.665773135787756"><ele>383.25</ele><time>2026-05-03T11:41:28.949Z</time></trkpt><trkpt lat="45.7607468457366" lon="8.66590024482803"><ele>383.0</ele><time>2026-05-03T11:41:29.949Z</time></trkpt><trkpt lat="45.760610886463176" lon="8.66598273127906"><ele>383.0</ele><time>2026-05-03T11:41:30.949Z</time></trkpt><trkpt lat="45.76048972639359" lon="8.666072278020838"><ele>383.0</ele><time>2026-05-03T11:41:31.949Z</time></trkpt><trkpt lat="45.76041272105794" lon="8.666127012872765"><ele>383.0</ele><time>2026-05-03T11:41:32.949Z</time></trkpt><trkpt lat="45.76034798737358" lon="8.666164837445777"><ele>383.0</ele><time>2026-05-03T11:41:33.948Z</time></trkpt><trkpt lat="45.760249374715556" lon="8.665992517528576"><ele>383.0</ele><time>2026-05-03T11:41:35.948Z</time></trkpt><trkpt lat="45.76018544154074" lon="8.665811518731196"><ele>379.33333333333337</ele><time>2026-05-03T11:41:36.948Z</time></trkpt><trkpt lat="45.76009275823801" lon="8.665651308455354"><ele>375.6666666666667</ele><time>2026-05-03T11:41:37.949Z</time></trkpt><trkpt lat="45.76001116238888" lon="8.666020354643592"><ele>372.0</ele><time>2026-05-03T11:41:38.949Z</time></trkpt><trkpt lat="45.75994851923894" lon="8.666035883919559"><ele>372.0</ele><time>2026-05-03T11:41:39.948Z</time></trkpt><trkpt lat="45.75984750295228" lon="8.666018911942643"><ele>372.0</ele><time>2026-05-03T11:41:40.948Z</time></trkpt><trkpt lat="45.75975674970241" lon="8.666036693025344"><ele>372.0</ele><time>2026-05-03T11:41:43.948Z</time></trkpt><trkpt lat="45.75969239034665" lon="8.666036678813409"><ele>372.0</ele><time>2026-05-03T11:41:44.948Z</time></trkpt><trkpt lat="45.759567931397335" lon="8.666055512683304"><ele>372.0</ele><time>2026-05-03T11:41:46.948Z</time></trkpt><trkpt lat="45.759479743648576" lon="8.666073274568417"><ele>372.0</ele><time>2026-05-03T11:41:48.948Z</time></trkpt><trkpt lat="45.75938139065293" lon="8.66608973326944"><ele>372.0</ele><time>2026-05-03T11:41:50.948Z</time></trkpt><trkpt lat="45.75932046926671" lon="8.666003930292844"><ele>372.0</ele><time>2026-05-03T11:41:52.948Z</time></trkpt><trkpt lat="45.75926062614244" lon="8.665932447105492"><ele>372.0</ele><time>2026-05-03T11:41:53.948Z</time></trkpt><trkpt lat="45.75918826531127" lon="8.665869450157109"><ele>372.0</ele><time>2026-05-03T11:41:54.948Z</time></trkpt><trkpt lat="45.75912585209601" lon="8.665811833840271"><ele>372.0</ele><time>2026-05-03T11:41:55.948Z</time></trkpt><trkpt lat="45.759067179951785" lon="8.665765447051147"><ele>371.0</ele><time>2026-05-03T11:41:56.948Z</time></trkpt><trkpt lat="45.75896430096126" lon="8.665743473525888"><ele>370.0</ele><time>2026-05-03T11:41:58.948Z</time></trkpt><trkpt lat="45.75885296141697" lon="8.665739678032882"><ele>369.0</ele><time>2026-05-03T11:42:00.948Z</time></trkpt><trkpt lat="45.75878826496891" lon="8.665716840269122"><ele>368.0</ele><time>2026-05-03T11:42:01.948Z</time></trkpt><trkpt lat="45.75871657258819" lon="8.665690212018948"><ele>367.0</ele><time>2026-05-03T11:42:03.948Z</time></trkpt><trkpt lat="45.75864490034593" lon="8.665709716529124"><ele>366.0</ele><time>2026-05-03T11:59:27.931Z</time></trkpt><trkpt lat="45.75857467297492" lon="8.665774297502999"><ele>366.0</ele><time>2026-05-03T12:00:01.931Z</time></trkpt><trkpt lat="45.75859946417256" lon="8.66568864998605"><ele>366.0</ele><time>2026-05-03T12:00:08.93Z</time></trkpt><trkpt lat="45.75869335820756" lon="8.665716886361464"><ele>366.0</ele><time>2026-05-03T12:00:11.93Z</time></trkpt><trkpt lat="45.7587870076124" lon="8.665698671641065"><ele>366.0</ele><time>2026-05-03T12:00:13.93Z</time></trkpt><trkpt lat="45.75887006861343" lon="8.66568953768011"><ele>366.0</ele><time>2026-05-03T12:00:15.93Z</time></trkpt><trkpt lat="45.75894134097596" lon="8.665733458348754"><ele>366.0</ele><time>2026-05-03T12:00:17.93Z</time></trkpt><trkpt lat="45.75900327144401" lon="8.665790978712515"><ele>366.0</ele><time>2026-05-03T12:00:22.93Z</time></trkpt><trkpt lat="45.759045971247104" lon="8.665871451056084"><ele>366.0</ele><time>2026-05-03T12:00:24.93Z</time></trkpt><trkpt lat="45.759121486697516" lon="8.665942312747386"><ele>366.0</ele><time>2026-05-03T12:00:26.93Z</time></trkpt><trkpt lat="45.75918982383756" lon="8.66597860607213"><ele>366.0</ele><time>2026-05-03T12:00:29.93Z</time></trkpt><trkpt lat="45.75928480669951" lon="8.666002105439874"><ele>366.0</ele><time>2026-05-03T12:00:31.931Z</time></trkpt><trkpt lat="45.75936480618889" lon="8.665967664699565"><ele>366.0</ele><time>2026-05-03T12:00:34.93Z</time></trkpt><trkpt lat="45.759491054754626" lon="8.665958570804397"><ele>367.0</ele><time>2026-05-03T12:00:37.93Z</time></trkpt><trkpt lat="45.759554123075226" lon="8.665959472906085"><ele>368.0</ele><time>2026-05-03T12:00:38.93Z</time></trkpt><trkpt lat="45.75965445683781" lon="8.665943306690014"><ele>369.0</ele><time>2026-05-03T12:00:40.93Z</time></trkpt><trkpt lat="45.75971569078464" lon="8.665974673350846"><ele>370.0</ele><time>2026-05-03T12:00:41.93Z</time></trkpt><trkpt lat="45.75979801182887" lon="8.665999076755421"><ele>371.0</ele><time>2026-05-03T12:00:43.93Z</time></trkpt><trkpt lat="45.75991024112335" lon="8.665994046925643"><ele>372.0</ele><time>2026-05-03T12:00:45.93Z</time></trkpt><trkpt lat="45.75999316724749" lon="8.666076154983445"><ele>372.0</ele><time>2026-05-03T12:00:47.93Z</time></trkpt><trkpt lat="45.7600901279821" lon="8.666101861200628"><ele>372.0</ele><time>2026-05-03T12:00:49.93Z</time></trkpt><trkpt lat="45.76015999580969" lon="8.666095451800084"><ele>372.0</ele><time>2026-05-03T12:00:51.93Z</time></trkpt><trkpt lat="45.760233583275784" lon="8.66607438721909"><ele>372.0</ele><time>2026-05-03T12:00:52.93Z</time></trkpt><trkpt lat="45.76030591503309" lon="8.666032146487247"><ele>372.0</ele><time>2026-05-03T12:00:53.93Z</time></trkpt><trkpt lat="45.76036407525739" lon="8.66598167582389"><ele>372.0</ele><time>2026-05-03T12:00:54.93Z</time></trkpt><trkpt lat="45.7604336285271" lon="8.66593860075859"><ele>374.20000000000005</ele><time>2026-05-03T12:00:55.93Z</time></trkpt><trkpt lat="45.76051578172711" lon="8.66587899416976"><ele>376.4</ele><time>2026-05-03T12:00:56.93Z</time></trkpt><trkpt lat="45.76058455918583" lon="8.665801697824294"><ele>378.6</ele><time>2026-05-03T12:00:57.93Z</time></trkpt><trkpt lat="45.76064858243419" lon="8.665751510881917"><ele>380.79999999999995</ele><time>2026-05-03T12:00:58.93Z</time></trkpt><trkpt lat="45.76071070214339" lon="8.665702113325056"><ele>383.0</ele><time>2026-05-03T12:00:59.93Z</time></trkpt><trkpt lat="45.76082832922982" lon="8.665614267876665"><ele>383.0</ele><time>2026-05-03T12:01:01.93Z</time></trkpt><trkpt lat="45.7608954705147" lon="8.665551927127837"><ele>383.0</ele><time>2026-05-03T12:01:02.93Z</time></trkpt><trkpt lat="45.76094611973463" lon="8.665479800646054"><ele>383.0</ele><time>2026-05-03T12:01:03.93Z</time></trkpt><trkpt lat="45.761018122423685" lon="8.66542946729362"><ele>383.0</ele><time>2026-05-03T12:01:04.93Z</time></trkpt><trkpt lat="45.76108985741256" lon="8.665361452986502"><ele>383.0</ele><time>2026-05-03T12:01:05.93Z</time></trkpt><trkpt lat="45.761204760352555" lon="8.66524880739823"><ele>383.1666666666667</ele><time>2026-05-03T12:01:07.93Z</time></trkpt><trkpt lat="45.76126530854237" lon="8.6652023469909"><ele>383.33333333333337</ele><time>2026-05-03T12:01:08.93Z</time></trkpt><trkpt lat="45.76137177732213" lon="8.665134311737363"><ele>383.5</ele><time>2026-05-03T12:01:10.93Z</time></trkpt><trkpt lat="45.76143638870591" lon="8.66508799341688"><ele>383.6666666666667</ele><time>2026-05-03T12:01:11.93Z</time></trkpt><trkpt lat="45.76151340861701" lon="8.665058785230212"><ele>383.8333333333333</ele><time>2026-05-03T12:01:12.93Z</time></trkpt><trkpt lat="45.7615807036019" lon="8.665032535387965"><ele>384.0</ele><time>2026-05-03T12:01:13.93Z</time></trkpt><trkpt lat="45.76164863317362" lon="8.664999874350437"><ele>384.0</ele><time>2026-05-03T12:01:14.93Z</time></trkpt><trkpt lat="45.76177244182419" lon="8.664913076823584"><ele>384.0</ele><time>2026-05-03T12:01:16.93Z</time></trkpt><trkpt lat="45.76183381927337" lon="8.66488200208916"><ele>384.0</ele><time>2026-05-03T12:01:17.93Z</time></trkpt><trkpt lat="45.76190179897107" lon="8.66484283748129"><ele>384.0</ele><time>2026-05-03T12:01:18.93Z</time></trkpt><trkpt lat="45.76201901448984" lon="8.66475590390936"><ele>384.0</ele><time>2026-05-03T12:01:20.93Z</time></trkpt><trkpt lat="45.76208659832875" lon="8.664710100118755"><ele>385.2857142857143</ele><time>2026-05-03T12:01:21.93Z</time></trkpt><trkpt lat="45.762146872136924" lon="8.664683484040415"><ele>386.57142857142856</ele><time>2026-05-03T12:01:22.93Z</time></trkpt><trkpt lat="45.76221760819637" lon="8.664666871701254"><ele>387.8571428571429</ele><time>2026-05-03T12:01:23.93Z</time></trkpt><trkpt lat="45.76229432775007" lon="8.664649617333886"><ele>389.1428571428571</ele><time>2026-05-03T12:01:24.93Z</time></trkpt><trkpt lat="45.76236838073741" lon="8.664614634272889"><ele>390.42857142857144</ele><time>2026-05-03T12:01:25.93Z</time></trkpt><trkpt lat="45.762436406096754" lon="8.664602084380721"><ele>391.7142857142857</ele><time>2026-05-03T12:01:26.93Z</time></trkpt><trkpt lat="45.76250536579389" lon="8.664585742006873"><ele>393.0</ele><time>2026-05-03T12:01:27.93Z</time></trkpt><trkpt lat="45.76257329293254" lon="8.664562727185402"><ele>393.0</ele><time>2026-05-03T12:01:28.93Z</time></trkpt><trkpt lat="45.7626415194757" lon="8.664546906989298"><ele>393.0</ele><time>2026-05-03T12:01:29.93Z</time></trkpt><trkpt lat="45.76274999240872" lon="8.664522643109942"><ele>393.0</ele><time>2026-05-03T12:01:31.93Z</time></trkpt><trkpt lat="45.762850051236825" lon="8.664510499362908"><ele>393.0</ele><time>2026-05-03T12:01:34.93Z</time></trkpt><trkpt lat="45.762940094693015" lon="8.664483170452858"><ele>393.0</ele><time>2026-05-03T12:01:36.93Z</time></trkpt><trkpt lat="45.763058005375264" lon="8.664516579494347"><ele>394.6666666666667</ele><time>2026-05-03T12:01:38.93Z</time></trkpt><trkpt lat="45.76312780103209" lon="8.664522828811812"><ele>396.33333333333337</ele><time>2026-05-03T12:01:40.93Z</time></trkpt><trkpt lat="45.76320493202577" lon="8.664527330553655"><ele>398.0</ele><time>2026-05-03T12:01:42.93Z</time></trkpt><trkpt lat="45.76329991349596" lon="8.664510426397587"><ele>399.6666666666667</ele><time>2026-05-03T12:01:45.93Z</time></trkpt><trkpt lat="45.76341025670617" lon="8.664493923798018"><ele>401.33333333333337</ele><time>2026-05-03T12:01:47.93Z</time></trkpt><trkpt lat="45.76347291423091" lon="8.664510518501945"><ele>403.0</ele><time>2026-05-03T12:01:48.93Z</time></trkpt><trkpt lat="45.763564281676715" lon="8.664491131205446"><ele>403.4</ele><time>2026-05-03T12:01:50.93Z</time></trkpt><trkpt lat="45.763632452807116" lon="8.664459468623116"><ele>403.79999999999995</ele><time>2026-05-03T12:01:52.93Z</time></trkpt><trkpt lat="45.76372537503042" lon="8.664383985525836"><ele>404.2</ele><time>2026-05-03T12:01:54.93Z</time></trkpt><trkpt lat="45.76379254405559" lon="8.664328198372877"><ele>404.6</ele><time>2026-05-03T12:01:55.93Z</time></trkpt><trkpt lat="45.76386182106025" lon="8.66420467608718"><ele>405.0</ele><time>2026-05-03T12:01:57.93Z</time></trkpt><trkpt lat="45.76394111171443" lon="8.664100467327293"><ele>405.0</ele><time>2026-05-03T12:01:59.93Z</time></trkpt><trkpt lat="45.76396368775134" lon="8.664005038690366"><ele>405.0</ele><time>2026-05-03T12:02:01.93Z</time></trkpt><trkpt lat="45.76404505714898" lon="8.663945644874374"><ele>405.0</ele><time>2026-05-03T12:02:02.93Z</time></trkpt><trkpt lat="45.764067290433275" lon="8.663829326442325"><ele>405.0</ele><time>2026-05-03T12:02:04.93Z</time></trkpt><trkpt lat="45.76413619772728" lon="8.663866647810329"><ele>405.0</ele><time>2026-05-03T12:02:08.93Z</time></trkpt><trkpt lat="45.764168063418445" lon="8.663957874393036"><ele>405.0</ele><time>2026-05-03T12:02:10.93Z</time></trkpt><trkpt lat="45.76417167582345" lon="8.664065587426022"><ele>405.0</ele><time>2026-05-03T12:02:13.93Z</time></trkpt><trkpt lat="45.76419159214341" lon="8.664178171068862"><ele>405.0</ele><time>2026-05-03T12:02:16.93Z</time></trkpt><trkpt lat="45.76418978568825" lon="8.664275435600265"><ele>405.0</ele><time>2026-05-03T12:02:19.93Z</time></trkpt><trkpt lat="45.76420015735151" lon="8.664175422324105"><ele>405.0</ele><time>2026-05-03T12:02:27.929Z</time></trkpt><trkpt lat="45.76419662690138" lon="8.664067516128188"><ele>405.0</ele><time>2026-05-03T12:02:29.929Z</time></trkpt><trkpt lat="45.764205644423875" lon="8.663897996041099"><ele>405.0</ele><time>2026-05-03T12:02:31.929Z</time></trkpt><trkpt lat="45.764160789591614" lon="8.663812201802733"><ele>405.0</ele><time>2026-05-03T12:02:33.929Z</time></trkpt><trkpt lat="45.76409553800666" lon="8.663660057382621"><ele>405.0</ele><time>2026-05-03T12:02:35.929Z</time></trkpt><trkpt lat="45.76406079455586" lon="8.66358434173462"><ele>405.0</ele><time>2026-05-03T12:02:36.929Z</time></trkpt><trkpt lat="45.764028198109806" lon="8.663421052498238"><ele>405.0</ele><time>2026-05-03T12:02:38.929Z</time></trkpt><trkpt lat="45.764060327169304" lon="8.66328084754004"><ele>405.0</ele><time>2026-05-03T12:02:40.929Z</time></trkpt><trkpt lat="45.764118075700765" lon="8.66316515860989"><ele>405.1666666666667</ele><time>2026-05-03T12:02:42.929Z</time></trkpt><trkpt lat="45.764178148851265" lon="8.663069953137772"><ele>405.33333333333337</ele><time>2026-05-03T12:02:44.928Z</time></trkpt><trkpt lat="45.764160962754225" lon="8.662951130986391"><ele>405.5</ele><time>2026-05-03T12:02:47.928Z</time></trkpt><trkpt lat="45.76406749403429" lon="8.662914590703451"><ele>405.6666666666667</ele><time>2026-05-03T12:02:49.928Z</time></trkpt><trkpt lat="45.76400046224515" lon="8.662881456368872"><ele>405.83333333333337</ele><time>2026-05-03T12:02:50.928Z</time></trkpt><trkpt lat="45.763907321461424" lon="8.66283596269091"><ele>406.0</ele><time>2026-05-03T12:02:52.928Z</time></trkpt><trkpt lat="45.76385153074702" lon="8.662755317163988"><ele>406.6666666666667</ele><time>2026-05-03T12:02:56.928Z</time></trkpt><trkpt lat="45.763933151523645" lon="8.662745331829871"><ele>407.33333333333337</ele><time>2026-05-03T12:03:04.928Z</time></trkpt><trkpt lat="45.76399473936364" lon="8.662777119323833"><ele>408.0</ele><time>2026-05-03T12:03:06.928Z</time></trkpt><trkpt lat="45.76406400551948" lon="8.662775535501105"><ele>408.66666666666663</ele><time>2026-05-03T12:03:08.928Z</time></trkpt><trkpt lat="45.7641268954208" lon="8.662749296419602"><ele>409.3333333333333</ele><time>2026-05-03T12:03:11.928Z</time></trkpt><trkpt lat="45.764217816837075" lon="8.662727781166327"><ele>410.0</ele><time>2026-05-03T12:03:13.928Z</time></trkpt><trkpt lat="45.76431764778847" lon="8.662731936818766"><ele>410.6</ele><time>2026-05-03T12:03:15.928Z</time></trkpt><trkpt lat="45.76439447356485" lon="8.662656152360464"><ele>411.2</ele><time>2026-05-03T12:03:18.928Z</time></trkpt><trkpt lat="45.76449337141373" lon="8.662569211202799"><ele>411.79999999999995</ele><time>2026-05-03T12:03:20.927Z</time></trkpt><trkpt lat="45.764553775407194" lon="8.662534098304628"><ele>412.4</ele><time>2026-05-03T12:03:21.927Z</time></trkpt><trkpt lat="45.76462369124799" lon="8.662437614238165"><ele>413.0</ele><time>2026-05-03T12:03:23.927Z</time></trkpt><trkpt lat="45.764669698588946" lon="8.662333173143013"><ele>412.99999999999994</ele><time>2026-05-03T12:03:25.927Z</time></trkpt><trkpt lat="45.76471301807116" lon="8.662252475949257"><ele>413.0</ele><time>2026-05-03T12:03:26.927Z</time></trkpt><trkpt lat="45.76475699748742" lon="8.662184008144953"><ele>413.0</ele><time>2026-05-03T12:03:27.927Z</time></trkpt><trkpt lat="45.76483150969559" lon="8.662098817513575"><ele>413.0</ele><time>2026-05-03T12:03:29.927Z</time></trkpt><trkpt lat="45.76490536582982" lon="8.662024265412612"><ele>412.99999999999994</ele><time>2026-05-03T12:03:31.927Z</time></trkpt><trkpt lat="45.76494461284876" lon="8.6619463177852"><ele>413.0</ele><time>2026-05-03T12:03:34.927Z</time></trkpt><trkpt lat="45.76493178610041" lon="8.661795484605436"><ele>414.0</ele><time>2026-05-03T12:03:36.927Z</time></trkpt><trkpt lat="45.76495782067336" lon="8.661685563654176"><ele>415.0</ele><time>2026-05-03T12:03:38.927Z</time></trkpt><trkpt lat="45.76494899285717" lon="8.661581877730134"><ele>416.0</ele><time>2026-05-03T12:03:41.927Z</time></trkpt><trkpt lat="45.76493496873764" lon="8.66147601195847"><ele>417.0</ele><time>2026-05-03T12:03:43.927Z</time></trkpt><trkpt lat="45.76494933226024" lon="8.661373099128078"><ele>418.0</ele><time>2026-05-03T12:03:49.927Z</time></trkpt><trkpt lat="45.76499547018942" lon="8.66128305918832"><ele>419.0</ele><time>2026-05-03T12:04:02.927Z</time></trkpt><trkpt lat="45.76506009597133" lon="8.661252923248192"><ele>420.0</ele><time>2026-05-03T12:04:06.927Z</time></trkpt><trkpt lat="45.76512258092419" lon="8.661232097902534"><ele>420.0</ele><time>2026-05-03T12:04:08.927Z</time></trkpt><trkpt lat="45.765187247847" lon="8.661290006416886"><ele>420.0</ele><time>2026-05-03T12:04:12.927Z</time></trkpt><trkpt lat="45.765250680901126" lon="8.66134822438342"><ele>420.0</ele><time>2026-05-03T12:04:14.927Z</time></trkpt><trkpt lat="45.765312153819906" lon="8.661372382433969"><ele>420.0</ele><time>2026-05-03T12:04:16.927Z</time></trkpt><trkpt lat="45.76539604095217" lon="8.66140571783245"><ele>420.0</ele><time>2026-05-03T12:04:20.927Z</time></trkpt><trkpt lat="45.76547687843223" lon="8.661392348803437"><ele>420.0</ele><time>2026-05-03T12:04:22.927Z</time></trkpt><trkpt lat="45.76555548304854" lon="8.66143075062335"><ele>422.8</ele><time>2026-05-03T12:04:25.927Z</time></trkpt><trkpt lat="45.76564164639392" lon="8.661407121921698"><ele>425.6</ele><time>2026-05-03T12:04:27.927Z</time></trkpt><trkpt lat="45.76573534937048" lon="8.661425164527865"><ele>428.4</ele><time>2026-05-03T12:04:29.927Z</time></trkpt><trkpt lat="45.76581661124536" lon="8.661426970394364"><ele>431.2</ele><time>2026-05-03T12:04:31.926Z</time></trkpt><trkpt lat="45.765939164449215" lon="8.661389363507569"><ele>434.0</ele><time>2026-05-03T12:04:35.926Z</time></trkpt><trkpt lat="45.76601892339314" lon="8.66139366019614"><ele>435.16666666666663</ele><time>2026-05-03T12:04:37.927Z</time></trkpt><trkpt lat="45.766086183803296" lon="8.661392110967986"><ele>436.3333333333333</ele><time>2026-05-03T12:04:40.926Z</time></trkpt><trkpt lat="45.76614274432417" lon="8.66127175412603"><ele>437.5</ele><time>2026-05-03T12:04:43.926Z</time></trkpt><trkpt lat="45.76616878988984" lon="8.661175382779525"><ele>438.66666666666663</ele><time>2026-05-03T12:04:45.927Z</time></trkpt><trkpt lat="45.76612349123331" lon="8.661073686612633"><ele>439.8333333333333</ele><time>2026-05-03T12:04:47.927Z</time></trkpt><trkpt lat="45.76605838333625" lon="8.661004645289486"><ele>441.0</ele><time>2026-05-03T12:04:50.927Z</time></trkpt><trkpt lat="45.76603968192723" lon="8.660897234264226"><ele>440.0</ele><time>2026-05-03T12:04:52.927Z</time></trkpt><trkpt lat="45.7659760336984" lon="8.660827712989203"><ele>439.0</ele><time>2026-05-03T12:04:55.926Z</time></trkpt><trkpt lat="45.76587791855432" lon="8.660763956934488"><ele>438.0</ele><time>2026-05-03T12:04:57.926Z</time></trkpt><trkpt lat="45.765795597374414" lon="8.660736906051397"><ele>437.0</ele><time>2026-05-03T12:04:59.926Z</time></trkpt><trkpt lat="45.76570165626877" lon="8.660699963750162"><ele>436.0</ele><time>2026-05-03T12:05:02.926Z</time></trkpt><trkpt lat="45.765618012201735" lon="8.660628978474845"><ele>436.00000000000006</ele><time>2026-05-03T12:05:04.926Z</time></trkpt><trkpt lat="45.76552974417753" lon="8.660566134751535"><ele>436.0</ele><time>2026-05-03T12:05:06.926Z</time></trkpt><trkpt lat="45.765471313885996" lon="8.660648135956524"><ele>436.0</ele><time>2026-05-03T12:05:09.926Z</time></trkpt><trkpt lat="45.765433897209334" lon="8.660724909874313"><ele>436.0</ele><time>2026-05-03T12:05:10.926Z</time></trkpt><trkpt lat="45.765392724593355" lon="8.660812471206901"><ele>436.00000000000006</ele><time>2026-05-03T12:05:12.926Z</time></trkpt><trkpt lat="45.765363045602605" lon="8.660970463344459"><ele>436.0</ele><time>2026-05-03T12:05:16.926Z</time></trkpt><trkpt lat="45.7653307190292" lon="8.661082736726552"><ele>435.6666666666667</ele><time>2026-05-03T12:05:18.926Z</time></trkpt><trkpt lat="45.76523432246734" lon="8.661122221391727"><ele>435.33333333333337</ele><time>2026-05-03T12:05:21.926Z</time></trkpt><trkpt lat="45.76516937021335" lon="8.661145484649024"><ele>435.0</ele><time>2026-05-03T12:05:23.926Z</time></trkpt><trkpt lat="45.765056083034196" lon="8.661149362115301"><ele>434.66666666666663</ele><time>2026-05-03T12:05:25.926Z</time></trkpt><trkpt lat="45.76498313763666" lon="8.661134556909804"><ele>434.3333333333333</ele><time>2026-05-03T12:05:26.926Z</time></trkpt><trkpt lat="45.764912138856026" lon="8.661117013032042"><ele>434.0</ele><time>2026-05-03T12:05:27.926Z</time></trkpt><trkpt lat="45.76484931341873" lon="8.661088593705509"><ele>431.66666666666663</ele><time>2026-05-03T12:05:28.926Z</time></trkpt><trkpt lat="45.764743887684396" lon="8.66106803469953"><ele>429.3333333333333</ele><time>2026-05-03T12:05:30.926Z</time></trkpt><trkpt lat="45.764681807822946" lon="8.661011651810952"><ele>427.0</ele><time>2026-05-03T12:05:33.926Z</time></trkpt><trkpt lat="45.764659254468924" lon="8.660874292385676"><ele>424.66666666666663</ele><time>2026-05-03T12:05:41.926Z</time></trkpt><trkpt lat="45.76470206343538" lon="8.660770455696817"><ele>422.3333333333333</ele><time>2026-05-03T12:05:44.926Z</time></trkpt><trkpt lat="45.7647423962649" lon="8.660700138019457"><ele>420.0</ele><time>2026-05-03T12:05:46.926Z</time></trkpt><trkpt lat="45.76475926941188" lon="8.660601598923819"><ele>420.0</ele><time>2026-05-03T12:05:49.926Z</time></trkpt><trkpt lat="45.76478141732459" lon="8.660511189234827"><ele>420.0</ele><time>2026-05-03T12:05:50.926Z</time></trkpt><trkpt lat="45.76479908017977" lon="8.6603769806966"><ele>420.0</ele><time>2026-05-03T12:05:52.926Z</time></trkpt><trkpt lat="45.764845908389766" lon="8.660290046819028"><ele>420.0</ele><time>2026-05-03T12:05:54.926Z</time></trkpt><trkpt lat="45.76487656097538" lon="8.660197596929763"><ele>420.0</ele><time>2026-05-03T12:05:56.926Z</time></trkpt><trkpt lat="45.764918893935636" lon="8.660086144633441"><ele>420.0</ele><time>2026-05-03T12:06:00.926Z</time></trkpt><trkpt lat="45.76494722452668" lon="8.659989883394877"><ele>420.0</ele><time>2026-05-03T12:06:02.926Z</time></trkpt><trkpt lat="45.76500310864402" lon="8.659923103743875"><ele>420.0</ele><time>2026-05-03T12:06:05.926Z</time></trkpt><trkpt lat="45.76504470686502" lon="8.66002435659579"><ele>420.0</ele><time>2026-05-03T12:06:12.926Z</time></trkpt><trkpt lat="45.76502341633783" lon="8.660150823303121"><ele>420.0</ele><time>2026-05-03T12:06:14.926Z</time></trkpt><trkpt lat="45.76496039910977" lon="8.660195226728005"><ele>420.0</ele><time>2026-05-03T12:06:15.926Z</time></trkpt><trkpt lat="45.76491760794432" lon="8.660262344338815"><ele>420.0</ele><time>2026-05-03T12:06:16.926Z</time></trkpt><trkpt lat="45.76487648349927" lon="8.66037583206103"><ele>420.0</ele><time>2026-05-03T12:06:18.926Z</time></trkpt><trkpt lat="45.76485830932199" lon="8.660484369839839"><ele>420.0</ele><time>2026-05-03T12:06:20.926Z</time></trkpt><trkpt lat="45.76481081401519" lon="8.660610446932996"><ele>420.0</ele><time>2026-05-03T12:06:23.926Z</time></trkpt><trkpt lat="45.76477710483877" lon="8.660690698817852"><ele>420.0</ele><time>2026-05-03T12:06:25.926Z</time></trkpt><trkpt lat="45.76473674278651" lon="8.66087469342928"><ele>420.0</ele><time>2026-05-03T12:06:27.926Z</time></trkpt><trkpt lat="45.76470920541392" lon="8.660958360284127"><ele>420.0</ele><time>2026-05-03T12:06:28.926Z</time></trkpt><trkpt lat="45.76463857421168" lon="8.660983374373183"><ele>420.0</ele><time>2026-05-03T12:06:32.926Z</time></trkpt><trkpt lat="45.7645780476876" lon="8.66091291158844"><ele>420.0</ele><time>2026-05-03T12:06:34.926Z</time></trkpt><trkpt lat="45.76451903730762" lon="8.660858564612559"><ele>420.0</ele><time>2026-05-03T12:06:36.926Z</time></trkpt><trkpt lat="45.7644559957562" lon="8.660809281527625"><ele>420.0</ele><time>2026-05-03T12:06:38.926Z</time></trkpt><trkpt lat="45.76440314861822" lon="8.660722554052155"><ele>420.0</ele><time>2026-05-03T12:06:40.926Z</time></trkpt><trkpt lat="45.76434868869955" lon="8.660621331574132"><ele>420.0</ele><time>2026-05-03T12:06:43.925Z</time></trkpt><trkpt lat="45.76430009449428" lon="8.660537851705495"><ele>419.8333333333333</ele><time>2026-05-03T12:06:46.925Z</time></trkpt><trkpt lat="45.76425222034936" lon="8.66045244457384"><ele>419.66666666666663</ele><time>2026-05-03T12:06:49.925Z</time></trkpt><trkpt lat="45.76421877121056" lon="8.660370360723892"><ele>419.5</ele><time>2026-05-03T12:06:51.925Z</time></trkpt><trkpt lat="45.76418470704257" lon="8.660288517175648"><ele>419.3333333333333</ele><time>2026-05-03T12:06:54.926Z</time></trkpt><trkpt lat="45.76413899428847" lon="8.660220691081733"><ele>419.16666666666663</ele><time>2026-05-03T12:06:56.925Z</time></trkpt><trkpt lat="45.764099202975366" lon="8.6600704814576"><ele>419.0</ele><time>2026-05-03T12:06:59.925Z</time></trkpt><trkpt lat="45.76404053795097" lon="8.660002750728003"><ele>418.99999999999994</ele><time>2026-05-03T12:07:01.925Z</time></trkpt><trkpt lat="45.763961772825304" lon="8.659935456652487"><ele>419.0</ele><time>2026-05-03T12:07:04.925Z</time></trkpt><trkpt lat="45.76389104073099" lon="8.659841513268688"><ele>419.0</ele><time>2026-05-03T12:07:06.925Z</time></trkpt><trkpt lat="45.763836453192674" lon="8.659795648160452"><ele>419.0</ele><time>2026-05-03T12:07:08.925Z</time></trkpt><trkpt lat="45.76377134403623" lon="8.659773794828618"><ele>418.99999999999994</ele><time>2026-05-03T12:07:10.925Z</time></trkpt><trkpt lat="45.76369317308695" lon="8.659774291442217"><ele>419.0</ele><time>2026-05-03T12:07:12.925Z</time></trkpt><trkpt lat="45.76362940237717" lon="8.659750512541269"><ele>418.99999999999994</ele><time>2026-05-03T12:07:14.924Z</time></trkpt><trkpt lat="45.76356270887555" lon="8.659770729593346"><ele>419.0</ele><time>2026-05-03T12:07:17.924Z</time></trkpt><trkpt lat="45.76348461218147" lon="8.65972423554333"><ele>419.0</ele><time>2026-05-03T12:07:19.924Z</time></trkpt><trkpt lat="45.763401635151446" lon="8.659703092329591"><ele>419.0</ele><time>2026-05-03T12:07:21.924Z</time></trkpt><trkpt lat="45.7633321134855" lon="8.659668459275736"><ele>418.99999999999994</ele><time>2026-05-03T12:07:23.924Z</time></trkpt><trkpt lat="45.76323892129478" lon="8.659622916450363"><ele>419.0</ele><time>2026-05-03T12:07:25.924Z</time></trkpt><trkpt lat="45.76316234202875" lon="8.65957470277239"><ele>421.16666666666663</ele><time>2026-05-03T12:07:27.924Z</time></trkpt><trkpt lat="45.76308737997312" lon="8.65951829316318"><ele>423.3333333333333</ele><time>2026-05-03T12:07:29.924Z</time></trkpt><trkpt lat="45.763042646238276" lon="8.659446331183574"><ele>425.5</ele><time>2026-05-03T12:07:30.924Z</time></trkpt><trkpt lat="45.76299348244151" lon="8.659334174332598"><ele>427.66666666666663</ele><time>2026-05-03T12:07:32.924Z</time></trkpt><trkpt lat="45.76292040967728" lon="8.659239087339351"><ele>429.8333333333333</ele><time>2026-05-03T12:07:34.924Z</time></trkpt><trkpt lat="45.762851926530864" lon="8.659168739524757"><ele>432.0</ele><time>2026-05-03T12:07:35.924Z</time></trkpt><trkpt lat="45.762791184935814" lon="8.659124775969921"><ele>432.1666666666667</ele><time>2026-05-03T12:07:36.924Z</time></trkpt><trkpt lat="45.76271127994214" lon="8.65910142522033"><ele>432.33333333333337</ele><time>2026-05-03T12:07:38.924Z</time></trkpt><trkpt lat="45.762652104256084" lon="8.65902335413993"><ele>432.5</ele><time>2026-05-03T12:07:39.924Z</time></trkpt><trkpt lat="45.76257558872935" lon="8.65905959100084"><ele>432.6666666666667</ele><time>2026-05-03T12:07:41.924Z</time></trkpt><trkpt lat="45.76251856506365" lon="8.658997804238995"><ele>432.83333333333337</ele><time>2026-05-03T12:07:42.924Z</time></trkpt><trkpt lat="45.762451822756915" lon="8.658949396012128"><ele>433.0</ele><time>2026-05-03T12:07:43.924Z</time></trkpt><trkpt lat="45.762386368894354" lon="8.658911292531867"><ele>432.6666666666667</ele><time>2026-05-03T12:07:44.924Z</time></trkpt><trkpt lat="45.76230912214404" lon="8.658858514356547"><ele>432.33333333333337</ele><time>2026-05-03T12:07:45.924Z</time></trkpt><trkpt lat="45.762262320483956" lon="8.65878029013931"><ele>432.0</ele><time>2026-05-03T12:07:46.924Z</time></trkpt><trkpt lat="45.762205417610865" lon="8.65872062555907"><ele>431.66666666666663</ele><time>2026-05-03T12:07:47.924Z</time></trkpt><trkpt lat="45.76214416565818" lon="8.658694782408878"><ele>431.3333333333333</ele><time>2026-05-03T12:07:48.924Z</time></trkpt><trkpt lat="45.76201988054299" lon="8.65864043057888"><ele>431.0</ele><time>2026-05-03T12:07:50.924Z</time></trkpt><trkpt lat="45.76199130554427" lon="8.658490599447756"><ele>431.16666666666663</ele><time>2026-05-03T12:07:51.924Z</time></trkpt><trkpt lat="45.761922673029204" lon="8.65841292947488"><ele>431.3333333333333</ele><time>2026-05-03T12:07:53.924Z</time></trkpt><trkpt lat="45.76185750539619" lon="8.658371543144044"><ele>431.5</ele><time>2026-05-03T12:07:54.924Z</time></trkpt><trkpt lat="45.761781722352886" lon="8.65829893826512"><ele>431.66666666666663</ele><time>2026-05-03T12:07:55.924Z</time></trkpt><trkpt lat="45.7617204901657" lon="8.658251064631592"><ele>431.8333333333333</ele><time>2026-05-03T12:07:57.924Z</time></trkpt><trkpt lat="45.761650406913965" lon="8.658285078928568"><ele>432.0</ele><time>2026-05-03T12:07:59.924Z</time></trkpt><trkpt lat="45.761603665400884" lon="8.658384184626874"><ele>432.0</ele><time>2026-05-03T12:08:02.924Z</time></trkpt><trkpt lat="45.76154125305462" lon="8.658486178553108"><ele>432.00000000000006</ele><time>2026-05-03T12:08:04.924Z</time></trkpt><trkpt lat="45.76144598091851" lon="8.658482493122081"><ele>432.00000000000006</ele><time>2026-05-03T12:08:06.924Z</time></trkpt><trkpt lat="45.76137392867653" lon="8.658526980733445"><ele>432.0</ele><time>2026-05-03T12:08:09.924Z</time></trkpt><trkpt lat="45.76128001217664" lon="8.658577370583751"><ele>432.0</ele><time>2026-05-03T12:08:12.924Z</time></trkpt><trkpt lat="45.76119347338944" lon="8.658594559432585"><ele>432.0</ele><time>2026-05-03T12:08:15.924Z</time></trkpt><trkpt lat="45.761093844254056" lon="8.658591651070632"><ele>432.0</ele><time>2026-05-03T12:08:17.924Z</time></trkpt><trkpt lat="45.7610363282032" lon="8.65854460852536"><ele>432.0</ele><time>2026-05-03T12:08:20.924Z</time></trkpt><trkpt lat="45.76098649971889" lon="8.65847259607409"><ele>432.0</ele><time>2026-05-03T12:08:23.924Z</time></trkpt><trkpt lat="45.760941592403" lon="8.658402224910034"><ele>432.0</ele><time>2026-05-03T12:08:25.924Z</time></trkpt><trkpt lat="45.76090150884522" lon="8.658326694807643"><ele>432.0</ele><time>2026-05-03T12:08:26.924Z</time></trkpt><trkpt lat="45.76081635519846" lon="8.65827928075338"><ele>431.8333333333333</ele><time>2026-05-03T12:08:29.924Z</time></trkpt><trkpt lat="45.76077540051182" lon="8.658181704235801"><ele>431.66666666666663</ele><time>2026-05-03T12:08:31.924Z</time></trkpt><trkpt lat="45.760804227963895" lon="8.65806282362651"><ele>431.5</ele><time>2026-05-03T12:08:33.924Z</time></trkpt><trkpt lat="45.760788912061514" lon="8.657946684776604"><ele>431.3333333333333</ele><time>2026-05-03T12:08:35.924Z</time></trkpt><trkpt lat="45.76078114483677" lon="8.65784371716946"><ele>431.16666666666663</ele><time>2026-05-03T12:08:36.924Z</time></trkpt><trkpt lat="45.76074763886819" lon="8.65770081992636"><ele>431.0</ele><time>2026-05-03T12:08:38.924Z</time></trkpt><trkpt lat="45.76072152354573" lon="8.657596439243115"><ele>431.0</ele><time>2026-05-03T12:08:41.924Z</time></trkpt><trkpt lat="45.76067598607631" lon="8.657446700792184"><ele>431.0</ele><time>2026-05-03T12:08:43.924Z</time></trkpt><trkpt lat="45.7606708236742" lon="8.657330548926252"><ele>431.0</ele><time>2026-05-03T12:08:45.924Z</time></trkpt><trkpt lat="45.76063040164092" lon="8.657227409631405"><ele>431.0</ele><time>2026-05-03T12:08:47.924Z</time></trkpt><trkpt lat="45.76053043045661" lon="8.657164792737898"><ele>431.0</ele><time>2026-05-03T12:08:49.924Z</time></trkpt><trkpt lat="45.760450713515425" lon="8.6571936687532"><ele>431.0</ele><time>2026-05-03T12:08:51.924Z</time></trkpt><trkpt lat="45.760385699707655" lon="8.657239091678962"><ele>431.0</ele><time>2026-05-03T12:08:53.924Z</time></trkpt><trkpt lat="45.760326718155426" lon="8.657182131769172"><ele>431.0</ele><time>2026-05-03T12:08:55.924Z</time></trkpt><trkpt lat="45.760236332140174" lon="8.657123543713821"><ele>431.0</ele><time>2026-05-03T12:08:57.924Z</time></trkpt><trkpt lat="45.760136759241895" lon="8.657109119287254"><ele>431.0</ele><time>2026-05-03T12:08:59.924Z</time></trkpt><trkpt lat="45.76002302220211" lon="8.657058573553643"><ele>431.8</ele><time>2026-05-03T12:09:01.924Z</time></trkpt><trkpt lat="45.75993523841568" lon="8.657000521497892"><ele>432.6</ele><time>2026-05-03T12:09:03.924Z</time></trkpt><trkpt lat="45.75983462020422" lon="8.656973179137497"><ele>433.4</ele><time>2026-05-03T12:09:05.924Z</time></trkpt><trkpt lat="45.75978079272818" lon="8.65689953209078"><ele>434.2</ele><time>2026-05-03T12:09:06.924Z</time></trkpt><trkpt lat="45.75970375508809" lon="8.656843593441078"><ele>435.0</ele><time>2026-05-03T12:09:07.924Z</time></trkpt><trkpt lat="45.75961781332719" lon="8.656798753426987"><ele>433.8</ele><time>2026-05-03T12:09:08.924Z</time></trkpt><trkpt lat="45.75952902362343" lon="8.656785362455347"><ele>432.6</ele><time>2026-05-03T12:09:09.924Z</time></trkpt><trkpt lat="45.75940042278158" lon="8.656744959175013"><ele>431.4</ele><time>2026-05-03T12:09:11.924Z</time></trkpt><trkpt lat="45.759336299584355" lon="8.656716750145174"><ele>430.2</ele><time>2026-05-03T12:09:12.924Z</time></trkpt><trkpt lat="45.75926585715526" lon="8.656626280963355"><ele>429.0</ele><time>2026-05-03T12:09:13.924Z</time></trkpt><trkpt lat="45.75921750130035" lon="8.656544293174793"><ele>429.0</ele><time>2026-05-03T12:09:14.924Z</time></trkpt><trkpt lat="45.759164177183905" lon="8.656482619509514"><ele>429.0</ele><time>2026-05-03T12:09:15.924Z</time></trkpt><trkpt lat="45.75903418947142" lon="8.656376468761076"><ele>429.0</ele><time>2026-05-03T12:09:17.924Z</time></trkpt><trkpt lat="45.75897263948268" lon="8.656278120113027"><ele>429.0</ele><time>2026-05-03T12:09:18.924Z</time></trkpt><trkpt lat="45.75886171806963" lon="8.656192613279012"><ele>429.0</ele><time>2026-05-03T12:09:20.924Z</time></trkpt><trkpt lat="45.758790135531996" lon="8.656129452084931"><ele>428.5</ele><time>2026-05-03T12:09:21.924Z</time></trkpt><trkpt lat="45.75872571876508" lon="8.656104163237385"><ele>428.0</ele><time>2026-05-03T12:09:22.924Z</time></trkpt><trkpt lat="45.75864787621339" lon="8.65605917124215"><ele>427.5</ele><time>2026-05-03T12:09:24.924Z</time></trkpt><trkpt lat="45.75854934633183" lon="8.656001893687039"><ele>427.0</ele><time>2026-05-03T12:09:26.924Z</time></trkpt><trkpt lat="45.75849510693425" lon="8.655953797596222"><ele>426.5</ele><time>2026-05-03T12:09:27.924Z</time></trkpt><trkpt lat="45.75842029695164" lon="8.655855101589042"><ele>426.0</ele><time>2026-05-03T12:09:29.924Z</time></trkpt><trkpt lat="45.75830670620612" lon="8.655745843134017"><ele>426.0</ele><time>2026-05-03T12:09:31.924Z</time></trkpt><trkpt lat="45.758240899837915" lon="8.655684840875072"><ele>426.0</ele><time>2026-05-03T12:09:33.924Z</time></trkpt><trkpt lat="45.758307973159134" lon="8.655754472637982"><ele>426.0</ele><time>2026-05-03T12:09:41.924Z</time></trkpt><trkpt lat="45.75832107315198" lon="8.655850081898569"><ele>426.0</ele><time>2026-05-03T12:09:44.924Z</time></trkpt><trkpt lat="45.75835978295893" lon="8.655947030674614"><ele>426.0</ele><time>2026-05-03T12:09:47.924Z</time></trkpt><trkpt lat="45.75840375340987" lon="8.656074777047754"><ele>426.0</ele><time>2026-05-03T12:09:49.924Z</time></trkpt><trkpt lat="45.7584353290471" lon="8.656163227724056"><ele>426.6</ele><time>2026-05-03T12:09:51.924Z</time></trkpt><trkpt lat="45.75849710973251" lon="8.65624427950496"><ele>427.20000000000005</ele><time>2026-05-03T12:09:53.924Z</time></trkpt><trkpt lat="45.758542290910604" lon="8.656352160525081"><ele>427.79999999999995</ele><time>2026-05-03T12:09:55.924Z</time></trkpt><trkpt lat="45.758610339925674" lon="8.656441564068555"><ele>428.4</ele><time>2026-05-03T12:09:57.924Z</time></trkpt><trkpt lat="45.75864298995822" lon="8.656570775689547"><ele>429.0</ele><time>2026-05-03T12:10:00.924Z</time></trkpt><trkpt lat="45.75862359998217" lon="8.656750686278956"><ele>429.0</ele><time>2026-05-03T12:10:02.924Z</time></trkpt><trkpt lat="45.75860384809352" lon="8.656869862545337"><ele>429.0</ele><time>2026-05-03T12:10:03.924Z</time></trkpt><trkpt lat="45.7585888200249" lon="8.656962228240152"><ele>429.0</ele><time>2026-05-03T12:10:04.924Z</time></trkpt><trkpt lat="45.75861226107541" lon="8.657069689876527"><ele>429.0</ele><time>2026-05-03T12:10:07.924Z</time></trkpt><trkpt lat="45.75865502279561" lon="8.657183760292432"><ele>429.0</ele><time>2026-05-03T12:10:11.924Z</time></trkpt><trkpt lat="45.758690459303985" lon="8.657297225433119"><ele>429.0</ele><time>2026-05-03T12:10:13.924Z</time></trkpt><trkpt lat="45.75873868180823" lon="8.657411367862048"><ele>430.2</ele><time>2026-05-03T12:10:15.924Z</time></trkpt><trkpt lat="45.75881802480827" lon="8.65746507473433"><ele>431.4</ele><time>2026-05-03T12:10:17.924Z</time></trkpt><trkpt lat="45.758886339499256" lon="8.657554700603304"><ele>432.6</ele><time>2026-05-03T12:10:20.924Z</time></trkpt><trkpt lat="45.758997590282114" lon="8.657603930108719"><ele>433.8</ele><time>2026-05-03T12:10:22.924Z</time></trkpt><trkpt lat="45.7591222092067" lon="8.6575375620977"><ele>435.0</ele><time>2026-05-03T12:10:24.924Z</time></trkpt><trkpt lat="45.7592083365383" lon="8.657620575511062"><ele>435.0</ele><time>2026-05-03T12:10:26.924Z</time></trkpt><trkpt lat="45.759269681895866" lon="8.657693986038787"><ele>435.0</ele><time>2026-05-03T12:10:28.924Z</time></trkpt><trkpt lat="45.75935682532454" lon="8.657736632955386"><ele>435.0</ele><time>2026-05-03T12:10:30.924Z</time></trkpt><trkpt lat="45.759423704589935" lon="8.657751348993122"><ele>435.0</ele><time>2026-05-03T12:10:31.924Z</time></trkpt><trkpt lat="45.75953897140266" lon="8.657777046299465"><ele>435.0</ele><time>2026-05-03T12:10:33.924Z</time></trkpt><trkpt lat="45.75963175565956" lon="8.657807710669022"><ele>435.3333333333333</ele><time>2026-05-03T12:10:35.923Z</time></trkpt><trkpt lat="45.75969918733138" lon="8.657810011386756"><ele>435.66666666666663</ele><time>2026-05-03T12:10:37.923Z</time></trkpt><trkpt lat="45.759770638374576" lon="8.657796047160309"><ele>436.0</ele><time>2026-05-03T12:10:39.923Z</time></trkpt><trkpt lat="45.759841422702756" lon="8.657805093078569"><ele>436.3333333333333</ele><time>2026-05-03T12:10:40.923Z</time></trkpt><trkpt lat="45.75993607913341" lon="8.657849682750106"><ele>436.66666666666663</ele><time>2026-05-03T12:10:42.923Z</time></trkpt><trkpt lat="45.75999784933992" lon="8.657958643795022"><ele>437.0</ele><time>2026-05-03T12:10:44.923Z</time></trkpt><trkpt lat="45.760019819252065" lon="8.658059276503309"><ele>436.99999999999994</ele><time>2026-05-03T12:10:46.923Z</time></trkpt><trkpt lat="45.75995850221752" lon="8.658102311765191"><ele>437.0</ele><time>2026-05-03T12:10:49.923Z</time></trkpt><trkpt lat="45.75990008955623" lon="8.658169830368792"><ele>437.0</ele><time>2026-05-03T12:10:52.923Z</time></trkpt><trkpt lat="45.75981851952832" lon="8.658246928814565"><ele>437.0</ele><time>2026-05-03T12:10:54.923Z</time></trkpt><trkpt lat="45.75975397994474" lon="8.658345117732184"><ele>436.99999999999994</ele><time>2026-05-03T12:10:56.923Z</time></trkpt><trkpt lat="45.75969183423317" lon="8.658395409006776"><ele>437.0</ele><time>2026-05-03T12:10:57.923Z</time></trkpt><trkpt lat="45.75960888680055" lon="8.658524347059313"><ele>437.0</ele><time>2026-05-03T12:10:59.923Z</time></trkpt><trkpt lat="45.75953159336633" lon="8.658587988898383"><ele>437.00000000000006</ele><time>2026-05-03T12:11:01.923Z</time></trkpt><trkpt lat="45.759426052963555" lon="8.658547763351306"><ele>437.00000000000006</ele><time>2026-05-03T12:11:03.922Z</time></trkpt><trkpt lat="45.75935235854363" lon="8.65859665740198"><ele>437.0</ele><time>2026-05-03T12:11:05.923Z</time></trkpt><trkpt lat="45.75931632039241" lon="8.658690602574907"><ele>437.0</ele><time>2026-05-03T12:11:06.923Z</time></trkpt><trkpt lat="45.759252921504256" lon="8.658814407783133"><ele>435.8333333333333</ele><time>2026-05-03T12:11:08.923Z</time></trkpt><trkpt lat="45.75925089618235" lon="8.658905446054998"><ele>434.66666666666663</ele><time>2026-05-03T12:11:10.923Z</time></trkpt><trkpt lat="45.75920188764481" lon="8.659047994885794"><ele>433.5</ele><time>2026-05-03T12:11:13.923Z</time></trkpt><trkpt lat="45.7591471899578" lon="8.65915415139623"><ele>432.33333333333337</ele><time>2026-05-03T12:11:15.923Z</time></trkpt><trkpt lat="45.759128303116036" lon="8.65925930074115"><ele>431.1666666666667</ele><time>2026-05-03T12:11:18.923Z</time></trkpt><trkpt lat="45.75916223808902" lon="8.659354736699461"><ele>430.0</ele><time>2026-05-03T12:11:20.923Z</time></trkpt><trkpt lat="45.75919974463042" lon="8.659437256877277"><ele>428.33333333333337</ele><time>2026-05-03T12:11:22.923Z</time></trkpt><trkpt lat="45.75920655645526" lon="8.659573637944957"><ele>426.6666666666667</ele><time>2026-05-03T12:11:24.923Z</time></trkpt><trkpt lat="45.75925939678745" lon="8.659690938238896"><ele>425.0</ele><time>2026-05-03T12:11:27.923Z</time></trkpt><trkpt lat="45.75931028585826" lon="8.659744062097133"><ele>423.33333333333337</ele><time>2026-05-03T12:11:29.923Z</time></trkpt><trkpt lat="45.75935719346446" lon="8.659809340919077"><ele>421.6666666666667</ele><time>2026-05-03T12:11:31.923Z</time></trkpt><trkpt lat="45.75941975703005" lon="8.659865380978065"><ele>420.0</ele><time>2026-05-03T12:11:33.923Z</time></trkpt><trkpt lat="45.75947645770684" lon="8.65993549912717"><ele>419.5</ele><time>2026-05-03T12:11:35.923Z</time></trkpt><trkpt lat="45.75957357961255" lon="8.659945557173621"><ele>419.0</ele><time>2026-05-03T12:11:39.922Z</time></trkpt><trkpt lat="45.75963762057946" lon="8.659912282697968"><ele>418.5</ele><time>2026-05-03T12:11:41.922Z</time></trkpt><trkpt lat="45.75968916812947" lon="8.659794132885025"><ele>418.0</ele><time>2026-05-03T12:11:44.922Z</time></trkpt><trkpt lat="45.75975936150807" lon="8.659711373596767"><ele>417.5</ele><time>2026-05-03T12:11:46.922Z</time></trkpt><trkpt lat="45.75981991828046" lon="8.659676561646888"><ele>417.0</ele><time>2026-05-03T12:11:48.922Z</time></trkpt><trkpt lat="45.75988645227017" lon="8.659666759939407"><ele>417.0</ele><time>2026-05-03T12:11:50.922Z</time></trkpt><trkpt lat="45.759948638091394" lon="8.659705211923711"><ele>417.0</ele><time>2026-05-03T12:11:52.922Z</time></trkpt><trkpt lat="45.760051552384944" lon="8.659736486785084"><ele>417.0</ele><time>2026-05-03T12:11:54.921Z</time></trkpt><trkpt lat="45.76015980335111" lon="8.659771705972194"><ele>417.0</ele><time>2026-05-03T12:11:56.921Z</time></trkpt><trkpt lat="45.760225962695245" lon="8.65981112831348"><ele>417.0</ele><time>2026-05-03T12:11:57.921Z</time></trkpt><trkpt lat="45.76028066946022" lon="8.659935616431984"><ele>415.6</ele><time>2026-05-03T12:11:59.921Z</time></trkpt><trkpt lat="45.760336384281814" lon="8.660036379623635"><ele>414.20000000000005</ele><time>2026-05-03T12:12:02.921Z</time></trkpt><trkpt lat="45.7603235899623" lon="8.660126981445652"><ele>412.8</ele><time>2026-05-03T12:12:04.921Z</time></trkpt><trkpt lat="45.76023419286386" lon="8.660274530741388"><ele>411.4</ele><time>2026-05-03T12:12:07.921Z</time></trkpt><trkpt lat="45.76012709164704" lon="8.660326726827856"><ele>410.0</ele><time>2026-05-03T12:12:09.921Z</time></trkpt><trkpt lat="45.76005086057655" lon="8.660396514708664"><ele>409.99999999999994</ele><time>2026-05-03T12:12:11.921Z</time></trkpt><trkpt lat="45.76001313483402" lon="8.660525615249451"><ele>410.0</ele><time>2026-05-03T12:12:13.921Z</time></trkpt><trkpt lat="45.759973084815286" lon="8.660610933696534"><ele>410.0</ele><time>2026-05-03T12:12:15.921Z</time></trkpt><trkpt lat="45.759904393960085" lon="8.660653413881997"><ele>410.0</ele><time>2026-05-03T12:12:17.921Z</time></trkpt><trkpt lat="45.759846037624555" lon="8.660733493074861"><ele>409.99999999999994</ele><time>2026-05-03T12:12:21.921Z</time></trkpt><trkpt lat="45.759814714872384" lon="8.66083491167507"><ele>410.0</ele><time>2026-05-03T12:12:24.921Z</time></trkpt><trkpt lat="45.7597368174506" lon="8.660912224633242"><ele>410.0</ele><time>2026-05-03T12:12:27.921Z</time></trkpt><trkpt lat="45.75966430037355" lon="8.660953097752802"><ele>410.0</ele><time>2026-05-03T12:12:32.921Z</time></trkpt><trkpt lat="45.75968738792939" lon="8.660862462734078"><ele>410.0</ele><time>2026-05-03T12:12:42.921Z</time></trkpt><trkpt lat="45.75973583863926" lon="8.660774374791526"><ele>410.0</ele><time>2026-05-03T12:12:44.921Z</time></trkpt><trkpt lat="45.759801282248404" lon="8.660724340567768"><ele>410.0</ele><time>2026-05-03T12:12:47.921Z</time></trkpt><trkpt lat="45.759820483453254" lon="8.66063822436897"><ele>410.0</ele><time>2026-05-03T12:12:59.921Z</time></trkpt><trkpt lat="45.759880532517165" lon="8.660579969050282"><ele>410.0</ele><time>2026-05-03T12:13:17.92Z</time></trkpt><trkpt lat="45.7599689177256" lon="8.660665242701638"><ele>410.0</ele><time>2026-05-03T12:18:12.906Z</time></trkpt><trkpt lat="45.75991221377491" lon="8.660553574937596"><ele>410.0</ele><time>2026-05-03T12:18:26.905Z</time></trkpt><trkpt lat="45.75994899153544" lon="8.660479208889162"><ele>410.0</ele><time>2026-05-03T12:19:39.904Z</time></trkpt><trkpt lat="45.75998976511211" lon="8.660401495643503"><ele>410.0</ele><time>2026-05-03T12:19:43.904Z</time></trkpt><trkpt lat="45.76005900308314" lon="8.660366051325342"><ele>410.0</ele><time>2026-05-03T12:19:49.904Z</time></trkpt><trkpt lat="45.76011899619328" lon="8.660320572837538"><ele>410.0</ele><time>2026-05-03T12:19:52.903Z</time></trkpt><trkpt lat="45.76014554040561" lon="8.660228285638109"><ele>410.0</ele><time>2026-05-03T12:19:55.903Z</time></trkpt><trkpt lat="45.76019773968961" lon="8.660167356943345"><ele>409.14285714285717</ele><time>2026-05-03T12:19:57.903Z</time></trkpt><trkpt lat="45.760252362886156" lon="8.660106525106162"><ele>408.2857142857143</ele><time>2026-05-03T12:20:01.903Z</time></trkpt><trkpt lat="45.76032961281172" lon="8.660086426769366"><ele>407.42857142857144</ele><time>2026-05-03T12:20:06.903Z</time></trkpt><trkpt lat="45.76042220707697" lon="8.660090870067592"><ele>406.57142857142856</ele><time>2026-05-03T12:20:10.903Z</time></trkpt><trkpt lat="45.76049224125933" lon="8.66010259633528"><ele>405.71428571428567</ele><time>2026-05-03T12:20:13.903Z</time></trkpt><trkpt lat="45.760562575186135" lon="8.660087251567829"><ele>404.85714285714283</ele><time>2026-05-03T12:20:17.903Z</time></trkpt><trkpt lat="45.7605036420133" lon="8.660054890192391"><ele>404.0</ele><time>2026-05-03T12:20:32.902Z</time></trkpt><trkpt lat="45.76043382738583" lon="8.660049699931587"><ele>404.0</ele><time>2026-05-03T12:20:36.902Z</time></trkpt><trkpt lat="45.76043302392519" lon="8.660150525218205"><ele>404.0</ele><time>2026-05-03T12:20:59.902Z</time></trkpt><trkpt lat="45.76038716235179" lon="8.66023369452489"><ele>404.0</ele><time>2026-05-03T12:21:03.902Z</time></trkpt><trkpt lat="45.760332089829" lon="8.660290788045128"><ele>404.0</ele><time>2026-05-03T12:21:06.902Z</time></trkpt><trkpt lat="45.76026852208885" lon="8.660347750745919"><ele>404.0</ele><time>2026-05-03T12:21:09.902Z</time></trkpt><trkpt lat="45.76020353551523" lon="8.660377730446433"><ele>404.0</ele><time>2026-05-03T12:21:11.902Z</time></trkpt><trkpt lat="45.76012518692053" lon="8.66045044359095"><ele>404.0</ele><time>2026-05-03T12:21:14.902Z</time></trkpt><trkpt lat="45.76006695493601" lon="8.660529013049132"><ele>404.99999999999994</ele><time>2026-05-03T12:21:16.902Z</time></trkpt><trkpt lat="45.76000575229777" lon="8.66058483845019"><ele>406.0</ele><time>2026-05-03T12:21:19.902Z</time></trkpt><trkpt lat="45.76008452350047" lon="8.660671335130925"><ele>407.0</ele><time>2026-05-03T12:21:31.902Z</time></trkpt><trkpt lat="45.7601490646673" lon="8.660670644702822"><ele>408.0</ele><time>2026-05-03T12:21:35.903Z</time></trkpt><trkpt lat="45.76023829708046" lon="8.660623909526338"><ele>408.99999999999994</ele><time>2026-05-03T12:21:38.902Z</time></trkpt><trkpt lat="45.76031902254331" lon="8.660640380933902"><ele>410.0</ele><time>2026-05-03T12:21:42.902Z</time></trkpt><trkpt lat="45.76039652046089" lon="8.660725023788885"><ele>406.99999999999994</ele><time>2026-05-03T12:21:44.902Z</time></trkpt><trkpt lat="45.76044999051804" lon="8.660819880973163"><ele>404.0</ele><time>2026-05-03T12:21:46.902Z</time></trkpt><trkpt lat="45.76049968712088" lon="8.660899363435355"><ele>401.0</ele><time>2026-05-03T12:21:48.902Z</time></trkpt><trkpt lat="45.76054668410175" lon="8.660972737045967"><ele>398.0</ele><time>2026-05-03T12:21:51.902Z</time></trkpt><trkpt lat="45.760586676955405" lon="8.661049323992115"><ele>394.99999999999994</ele><time>2026-05-03T12:21:53.901Z</time></trkpt><trkpt lat="45.76064291950113" lon="8.661132426931212"><ele>392.0</ele><time>2026-05-03T12:21:56.901Z</time></trkpt><trkpt lat="45.76068884705417" lon="8.661237245739912"><ele>389.66666666666663</ele><time>2026-05-03T12:21:58.901Z</time></trkpt><trkpt lat="45.76069736714501" lon="8.66135137933406"><ele>387.3333333333333</ele><time>2026-05-03T12:22:00.901Z</time></trkpt><trkpt lat="45.76068845597831" lon="8.661455015315013"><ele>385.0</ele><time>2026-05-03T12:22:02.901Z</time></trkpt><trkpt lat="45.7606416174409" lon="8.661525159386116"><ele>382.66666666666663</ele><time>2026-05-03T12:22:05.901Z</time></trkpt><trkpt lat="45.760637508418014" lon="8.661615308097565"><ele>380.3333333333333</ele><time>2026-05-03T12:22:10.901Z</time></trkpt><trkpt lat="45.76058692315221" lon="8.661762072918796"><ele>378.0</ele><time>2026-05-03T12:22:38.901Z</time></trkpt><trkpt lat="45.7605254374743" lon="8.661839582170048"><ele>378.0</ele><time>2026-05-03T12:22:41.901Z</time></trkpt><trkpt lat="45.76049027628614" lon="8.661937978283976"><ele>378.0</ele><time>2026-05-03T12:22:43.901Z</time></trkpt><trkpt lat="45.76042542657127" lon="8.661990674621075"><ele>378.0</ele><time>2026-05-03T12:22:45.901Z</time></trkpt><trkpt lat="45.760381073816106" lon="8.662070638500786"><ele>378.0</ele><time>2026-05-03T12:22:46.901Z</time></trkpt><trkpt lat="45.76031951227788" lon="8.662154360390042"><ele>378.0</ele><time>2026-05-03T12:22:48.901Z</time></trkpt><trkpt lat="45.76027500013918" lon="8.662234961867094"><ele>378.0</ele><time>2026-05-03T12:22:50.901Z</time></trkpt><trkpt lat="45.76021477647481" lon="8.662368818727128"><ele>379.0</ele><time>2026-05-03T12:22:52.901Z</time></trkpt><trkpt lat="45.76016789981599" lon="8.662438536754756"><ele>380.0</ele><time>2026-05-03T12:22:56.901Z</time></trkpt><trkpt lat="45.760142983511074" lon="8.662552027274195"><ele>381.0</ele><time>2026-05-03T12:23:01.901Z</time></trkpt><trkpt lat="45.76008605438303" lon="8.662617123592026"><ele>382.0</ele><time>2026-05-03T12:23:08.901Z</time></trkpt><trkpt lat="45.760019680138164" lon="8.662690147270514"><ele>383.0</ele><time>2026-05-03T12:23:13.901Z</time></trkpt><trkpt lat="45.75996292393466" lon="8.662808041325492"><ele>384.0</ele><time>2026-05-03T12:23:16.901Z</time></trkpt><trkpt lat="45.7599495100118" lon="8.662898166906038"><ele>381.5</ele><time>2026-05-03T12:23:18.901Z</time></trkpt><trkpt lat="45.75991513196366" lon="8.663009079614893"><ele>379.0</ele><time>2026-05-03T12:23:21.901Z</time></trkpt><trkpt lat="45.75992398984038" lon="8.66311721707303"><ele>376.5</ele><time>2026-05-03T12:23:25.901Z</time></trkpt><trkpt lat="45.759908693473456" lon="8.6632250069825"><ele>374.0</ele><time>2026-05-03T12:23:27.9Z</time></trkpt><trkpt lat="45.75992064473796" lon="8.66335736509696"><ele>371.5</ele><time>2026-05-03T12:23:30.9Z</time></trkpt><trkpt lat="45.759866764792115" lon="8.663505488683487"><ele>369.0</ele><time>2026-05-03T12:23:32.901Z</time></trkpt><trkpt lat="45.75985110630268" lon="8.663612181363213"><ele>367.6</ele><time>2026-05-03T12:23:34.901Z</time></trkpt><trkpt lat="45.75976937241204" lon="8.663696586359189"><ele>366.2</ele><time>2026-05-03T12:23:36.901Z</time></trkpt><trkpt lat="45.75965884187629" lon="8.66378925864322"><ele>364.8</ele><time>2026-05-03T12:23:38.901Z</time></trkpt><trkpt lat="45.759616458761535" lon="8.663865545751886"><ele>363.40000000000003</ele><time>2026-05-03T12:23:39.901Z</time></trkpt><trkpt lat="45.75949599164227" lon="8.663945206202264"><ele>362.0</ele><time>2026-05-03T12:23:41.901Z</time></trkpt><trkpt lat="45.759437296385094" lon="8.663988919212217"><ele>363.0</ele><time>2026-05-03T12:23:42.901Z</time></trkpt><trkpt lat="45.75935952846243" lon="8.664020023929064"><ele>364.0</ele><time>2026-05-03T12:23:43.9Z</time></trkpt><trkpt lat="45.75927442050872" lon="8.664090383593763"><ele>365.0</ele><time>2026-05-03T12:23:44.9Z</time></trkpt><trkpt lat="45.75919479016885" lon="8.664151746941197"><ele>366.0</ele><time>2026-05-03T12:23:45.9Z</time></trkpt><trkpt lat="45.75913078044804" lon="8.664253929012087"><ele>367.0</ele><time>2026-05-03T12:23:46.9Z</time></trkpt><trkpt lat="45.75903527030573" lon="8.66433890970376"><ele>367.0</ele><time>2026-05-03T12:23:47.9Z</time></trkpt><trkpt lat="45.75896310943691" lon="8.664407495616416"><ele>367.0</ele><time>2026-05-03T12:23:48.9Z</time></trkpt><trkpt lat="45.7588951661848" lon="8.664496124096152"><ele>367.0</ele><time>2026-05-03T12:23:49.9Z</time></trkpt><trkpt lat="45.758809618362946" lon="8.664578778767115"><ele>367.0</ele><time>2026-05-03T12:23:50.9Z</time></trkpt><trkpt lat="45.758733450597056" lon="8.664659821306282"><ele>367.0</ele><time>2026-05-03T12:23:51.9Z</time></trkpt><trkpt lat="45.75867430285728" lon="8.66475951672099"><ele>366.20000000000005</ele><time>2026-05-03T12:23:52.9Z</time></trkpt><trkpt lat="45.75861433558667" lon="8.664836166162313"><ele>365.4</ele><time>2026-05-03T12:23:53.9Z</time></trkpt><trkpt lat="45.75852756772083" lon="8.66493551027418"><ele>364.6</ele><time>2026-05-03T12:23:55.9Z</time></trkpt><trkpt lat="45.75842433257542" lon="8.665043086176757"><ele>363.79999999999995</ele><time>2026-05-03T12:23:57.9Z</time></trkpt><trkpt lat="45.75836474590758" lon="8.665129911817337"><ele>363.0</ele><time>2026-05-03T12:23:58.9Z</time></trkpt><trkpt lat="45.75828074464524" lon="8.665290163533552"><ele>362.0</ele><time>2026-05-03T12:24:00.9Z</time></trkpt><trkpt lat="45.75820501266002" lon="8.66537534825663"><ele>361.0</ele><time>2026-05-03T12:24:01.9Z</time></trkpt><trkpt lat="45.75811830151959" lon="8.665496385903692"><ele>360.0</ele><time>2026-05-03T12:24:03.9Z</time></trkpt><trkpt lat="45.75810006661307" lon="8.665589203213361"><ele>359.0</ele><time>2026-05-03T12:24:04.9Z</time></trkpt><trkpt lat="45.75805263513366" lon="8.66570766972814"><ele>358.0</ele><time>2026-05-03T12:24:06.9Z</time></trkpt><trkpt lat="45.75803591203801" lon="8.665835261469706"><ele>358.0</ele><time>2026-05-03T12:24:09.9Z</time></trkpt><trkpt lat="45.7579483420871" lon="8.665908557158"><ele>358.0</ele><time>2026-05-03T12:24:11.9Z</time></trkpt><trkpt lat="45.75801790681916" lon="8.665815489317191"><ele>358.0</ele><time>2026-05-03T12:24:17.9Z</time></trkpt><trkpt lat="45.75808843167411" lon="8.66572803993384"><ele>358.0</ele><time>2026-05-03T12:24:18.9Z</time></trkpt><trkpt lat="45.758130240301746" lon="8.665626561677332"><ele>358.0</ele><time>2026-05-03T12:24:19.9Z</time></trkpt><trkpt lat="45.75801580518857" lon="8.665576732123704"><ele>358.0</ele><time>2026-05-03T12:24:22.9Z</time></trkpt><trkpt lat="45.75793755887457" lon="8.665544668243168"><ele>358.0</ele><time>2026-05-03T12:24:23.9Z</time></trkpt><trkpt lat="45.757829738397184" lon="8.665503841325181"><ele>358.0</ele><time>2026-05-03T12:24:25.9Z</time></trkpt><trkpt lat="45.757713364756846" lon="8.665561366413433"><ele>358.0</ele><time>2026-05-03T12:24:27.9Z</time></trkpt><trkpt lat="45.75761604933302" lon="8.665560482306008"><ele>358.0</ele><time>2026-05-03T12:24:28.9Z</time></trkpt><trkpt lat="45.75748712450836" lon="8.665592487598497"><ele>357.79999999999995</ele><time>2026-05-03T12:24:30.9Z</time></trkpt><trkpt lat="45.75742604435004" lon="8.665641229531573"><ele>357.6</ele><time>2026-05-03T12:24:31.9Z</time></trkpt><trkpt lat="45.7573627165934" lon="8.66569057670929"><ele>357.4</ele><time>2026-05-03T12:24:32.9Z</time></trkpt><trkpt lat="45.757230791927654" lon="8.665745448027002"><ele>357.20000000000005</ele><time>2026-05-03T12:24:34.9Z</time></trkpt><trkpt lat="45.757136693127066" lon="8.665731714210137"><ele>357.0</ele><time>2026-05-03T12:24:35.9Z</time></trkpt><trkpt lat="45.75705803592862" lon="8.665772727548978"><ele>357.0</ele><time>2026-05-03T12:24:36.9Z</time></trkpt><trkpt lat="45.75696639660861" lon="8.665785217368503"><ele>357.0</ele><time>2026-05-03T12:24:37.9Z</time></trkpt><trkpt lat="45.75688198630386" lon="8.665804817505554"><ele>357.0</ele><time>2026-05-03T12:24:38.9Z</time></trkpt><trkpt lat="45.75679555978893" lon="8.665798407867173"><ele>357.0</ele><time>2026-05-03T12:24:39.9Z</time></trkpt><trkpt lat="45.75671326215236" lon="8.665785313288582"><ele>357.0</ele><time>2026-05-03T12:24:40.9Z</time></trkpt><trkpt lat="45.75663728280469" lon="8.665774420851434"><ele>357.0</ele><time>2026-05-03T12:24:41.9Z</time></trkpt><trkpt lat="45.75654233804093" lon="8.665757481842647"><ele>357.1666666666667</ele><time>2026-05-03T12:24:42.9Z</time></trkpt><trkpt lat="45.75645632647159" lon="8.665758306858201"><ele>357.3333333333333</ele><time>2026-05-03T12:24:43.9Z</time></trkpt><trkpt lat="45.75636146745517" lon="8.66573876069146"><ele>357.5</ele><time>2026-05-03T12:24:44.9Z</time></trkpt><trkpt lat="45.756295852939566" lon="8.66572166442104"><ele>357.66666666666663</ele><time>2026-05-03T12:24:45.9Z</time></trkpt><trkpt lat="45.75621622776041" lon="8.665676555199518"><ele>357.8333333333333</ele><time>2026-05-03T12:24:46.9Z</time></trkpt><trkpt lat="45.75615314231511" lon="8.665607613003408"><ele>358.0</ele><time>2026-05-03T12:24:47.9Z</time></trkpt><trkpt lat="45.75613042415444" lon="8.665508952320877"><ele>358.0</ele><time>2026-05-03T12:24:48.9Z</time></trkpt><trkpt lat="45.75606514848303" lon="8.665427635814488"><ele>358.0</ele><time>2026-05-03T12:24:50.9Z</time></trkpt><trkpt lat="45.75594248126929" lon="8.665350246044783"><ele>358.0</ele><time>2026-05-03T12:24:51.9Z</time></trkpt><trkpt lat="45.755861197321195" lon="8.665270297925488"><ele>358.0</ele><time>2026-05-03T12:24:52.9Z</time></trkpt><trkpt lat="45.755834168446114" lon="8.66518744138559"><ele>358.0</ele><time>2026-05-03T12:24:53.9Z</time></trkpt><trkpt lat="45.755787128101325" lon="8.665108333034675"><ele>358.16666666666663</ele><time>2026-05-03T12:24:54.9Z</time></trkpt><trkpt lat="45.75575545622669" lon="8.665020903462965"><ele>358.3333333333333</ele><time>2026-05-03T12:24:55.9Z</time></trkpt><trkpt lat="45.75571793587263" lon="8.664866831347473"><ele>358.5</ele><time>2026-05-03T12:24:57.9Z</time></trkpt><trkpt lat="45.75568995773969" lon="8.664737929340228"><ele>358.6666666666667</ele><time>2026-05-03T12:24:59.9Z</time></trkpt><trkpt lat="45.75564541182629" lon="8.664670850890985"><ele>358.83333333333337</ele><time>2026-05-03T12:25:00.9Z</time></trkpt><trkpt lat="45.75570568169622" lon="8.664578814399668"><ele>359.0</ele><time>2026-05-03T12:25:01.9Z</time></trkpt><trkpt lat="45.75573703323266" lon="8.664419433372162"><ele>358.4</ele><time>2026-05-03T12:25:03.899Z</time></trkpt><trkpt lat="45.75571558015036" lon="8.664290169281454"><ele>357.79999999999995</ele><time>2026-05-03T12:25:05.899Z</time></trkpt><trkpt lat="45.75571841213462" lon="8.66413135614319"><ele>357.20000000000005</ele><time>2026-05-03T12:25:07.899Z</time></trkpt><trkpt lat="45.75574990587972" lon="8.664027410901207"><ele>356.6</ele><time>2026-05-03T12:25:08.899Z</time></trkpt><trkpt lat="45.75578228568698" lon="8.663895975768192"><ele>356.0</ele><time>2026-05-03T12:25:10.899Z</time></trkpt><trkpt lat="45.755760759074086" lon="8.663746703974496"><ele>355.99999999999994</ele><time>2026-05-03T12:25:12.899Z</time></trkpt><trkpt lat="45.75570234613125" lon="8.663708792672384"><ele>356.0</ele><time>2026-05-03T12:25:14.899Z</time></trkpt><trkpt lat="45.75564849813816" lon="8.663607612662023"><ele>356.0</ele><time>2026-05-03T12:25:16.899Z</time></trkpt><trkpt lat="45.75563678714839" lon="8.663508923389163"><ele>356.0</ele><time>2026-05-03T12:25:19.899Z</time></trkpt><trkpt lat="45.755636271272486" lon="8.663405242814918"><ele>356.0</ele><time>2026-05-03T12:25:22.899Z</time></trkpt><trkpt lat="45.755640118231554" lon="8.663310533502122"><ele>355.99999999999994</ele><time>2026-05-03T12:25:25.899Z</time></trkpt><trkpt lat="45.755607646080236" lon="8.6632087250068"><ele>356.0</ele><time>2026-05-03T12:25:28.899Z</time></trkpt><trkpt lat="45.75561561561932" lon="8.66311456325477"><ele>351.0</ele><time>2026-05-03T12:25:30.899Z</time></trkpt><trkpt lat="45.755622188901974" lon="8.663016155761783"><ele>351.0</ele><time>2026-05-03T12:25:32.899Z</time></trkpt><trkpt lat="45.755637184263186" lon="8.662890567843627"><ele>351.0</ele><time>2026-05-03T12:25:34.899Z</time></trkpt><trkpt lat="45.75565772438985" lon="8.662782885777023"><ele>351.0</ele><time>2026-05-03T12:25:36.9Z</time></trkpt><trkpt lat="45.755613659445984" lon="8.662663229302375"><ele>354.0</ele><time>2026-05-03T12:25:46.899Z</time></trkpt><trkpt lat="45.755576779168514" lon="8.662529177516653"><ele>354.0</ele><time>2026-05-03T12:26:42.898Z</time></trkpt></trkseg><trkseg><trkpt lat="45.755621523501425" lon="8.662441873955608"><ele>354.0</ele><time>2026-05-03T12:41:50.913Z</time></trkpt><trkpt lat="45.755661720586595" lon="8.662318061235972"><ele>354.0</ele><time>2026-05-03T12:41:53.913Z</time></trkpt><trkpt lat="45.755684806436484" lon="8.662186449521856"><ele>354.0</ele><time>2026-05-03T12:41:55.913Z</time></trkpt><trkpt lat="45.755734863176585" lon="8.662064137095387"><ele>354.0</ele><time>2026-05-03T12:41:57.913Z</time></trkpt><trkpt lat="45.75573857532594" lon="8.661928552587407"><ele>354.0</ele><time>2026-05-03T12:41:59.913Z</time></trkpt><trkpt lat="45.7557794487316" lon="8.661821927825992"><ele>356.4</ele><time>2026-05-03T12:42:02.913Z</time></trkpt><trkpt lat="45.75584281352892" lon="8.661730357866414"><ele>358.79999999999995</ele><time>2026-05-03T12:42:05.913Z</time></trkpt><trkpt lat="45.75588904154848" lon="8.661625012987056"><ele>361.20000000000005</ele><time>2026-05-03T12:42:07.913Z</time></trkpt><trkpt lat="45.75597381422386" lon="8.661516210555645"><ele>363.6</ele><time>2026-05-03T12:42:09.912Z</time></trkpt><trkpt lat="45.756086615461605" lon="8.66137387760515"><ele>366.0</ele><time>2026-05-03T12:42:11.912Z</time></trkpt><trkpt lat="45.756148682049655" lon="8.661260147649775"><ele>368.5</ele><time>2026-05-03T12:42:12.912Z</time></trkpt><trkpt lat="45.756196770390744" lon="8.661130702966776"><ele>371.0</ele><time>2026-05-03T12:42:13.912Z</time></trkpt><trkpt lat="45.756230727047146" lon="8.661051043110374"><ele>373.5</ele><time>2026-05-03T12:42:14.912Z</time></trkpt><trkpt lat="45.75625954427656" lon="8.660934135693811"><ele>376.0</ele><time>2026-05-03T12:42:16.912Z</time></trkpt><trkpt lat="45.756268059336016" lon="8.66082158370578"><ele>378.5</ele><time>2026-05-03T12:42:18.912Z</time></trkpt><trkpt lat="45.75631111537658" lon="8.660751812941886"><ele>381.0</ele><time>2026-05-03T12:42:20.912Z</time></trkpt><trkpt lat="45.7563860825364" lon="8.660686085046473"><ele>381.0</ele><time>2026-05-03T12:42:21.912Z</time></trkpt><trkpt lat="45.75646329561057" lon="8.660567494311973"><ele>381.0</ele><time>2026-05-03T12:42:22.912Z</time></trkpt><trkpt lat="45.75653170202468" lon="8.660436317169637"><ele>381.0</ele><time>2026-05-03T12:42:23.911Z</time></trkpt><trkpt lat="45.75657382188574" lon="8.660337480507778"><ele>381.0</ele><time>2026-05-03T12:42:24.911Z</time></trkpt><trkpt lat="45.75662537916736" lon="8.660173700553692"><ele>381.0</ele><time>2026-05-03T12:42:26.911Z</time></trkpt><trkpt lat="45.75665414831143" lon="8.660077853891963"><ele>381.3333333333333</ele><time>2026-05-03T12:42:27.911Z</time></trkpt><trkpt lat="45.75667552602828" lon="8.659972876967819"><ele>381.6666666666667</ele><time>2026-05-03T12:42:28.912Z</time></trkpt><trkpt lat="45.756698807091986" lon="8.659878991978015"><ele>382.0</ele><time>2026-05-03T12:42:29.912Z</time></trkpt><trkpt lat="45.75670457112056" lon="8.659737133961876"><ele>382.33333333333337</ele><time>2026-05-03T12:42:31.911Z</time></trkpt><trkpt lat="45.756710227961925" lon="8.659625370433734"><ele>382.6666666666667</ele><time>2026-05-03T12:42:33.912Z</time></trkpt><trkpt lat="45.75673908943635" lon="8.659449511980936"><ele>383.0</ele><time>2026-05-03T12:42:35.911Z</time></trkpt><trkpt lat="45.7567659669082" lon="8.65934800995022"><ele>384.5</ele><time>2026-05-03T12:43:00.911Z</time></trkpt><trkpt lat="45.75676387370616" lon="8.659245889284515"><ele>386.0</ele><time>2026-05-03T12:57:02.857Z</time></trkpt><trkpt lat="45.75677625233302" lon="8.6591219415005"><ele>387.5</ele><time>2026-05-03T12:57:04.857Z</time></trkpt><trkpt lat="45.75678868695666" lon="8.659021118222984"><ele>389.0</ele><time>2026-05-03T12:57:06.857Z</time></trkpt><trkpt lat="45.7568215628742" lon="8.658915286798281"><ele>390.49999999999994</ele><time>2026-05-03T12:57:08.856Z</time></trkpt><trkpt lat="45.75684140587266" lon="8.658791624861557"><ele>392.0</ele><time>2026-05-03T12:57:11.857Z</time></trkpt><trkpt lat="45.756863837934596" lon="8.658689232896544"><ele>391.99999999999994</ele><time>2026-05-03T12:57:13.856Z</time></trkpt><trkpt lat="45.756899653929196" lon="8.65856967434238"><ele>392.0</ele><time>2026-05-03T12:57:16.857Z</time></trkpt><trkpt lat="45.756865968542286" lon="8.658480436583389"><ele>392.0</ele><time>2026-05-03T12:57:22.856Z</time></trkpt><trkpt lat="45.75678602328341" lon="8.658494209704147"><ele>392.0</ele><time>2026-05-03T12:57:24.856Z</time></trkpt><trkpt lat="45.75668797406625" lon="8.658519880060476"><ele>391.99999999999994</ele><time>2026-05-03T12:57:26.856Z</time></trkpt><trkpt lat="45.75659370654368" lon="8.658536669826178"><ele>392.0</ele><time>2026-05-03T12:57:28.856Z</time></trkpt><trkpt lat="45.756474050063694" lon="8.658643768436791"><ele>392.0</ele><time>2026-05-03T12:57:30.856Z</time></trkpt><trkpt lat="45.75641365672835" lon="8.65871013137014"><ele>392.0</ele><time>2026-05-03T12:57:31.856Z</time></trkpt><trkpt lat="45.75635036154856" lon="8.658693591647383"><ele>392.0</ele><time>2026-05-03T12:57:35.856Z</time></trkpt><trkpt lat="45.75625792296339" lon="8.658677052456454"><ele>392.0</ele><time>2026-05-03T12:57:38.856Z</time></trkpt><trkpt lat="45.75615381731222" lon="8.6586850588551"><ele>392.0</ele><time>2026-05-03T12:57:40.856Z</time></trkpt><trkpt lat="45.75602239934552" lon="8.658654635115257"><ele>395.16666666666663</ele><time>2026-05-03T12:57:42.856Z</time></trkpt><trkpt lat="45.75596368854008" lon="8.658607372069447"><ele>398.3333333333333</ele><time>2026-05-03T12:57:43.856Z</time></trkpt><trkpt lat="45.75590063067571" lon="8.658543589852611"><ele>401.5</ele><time>2026-05-03T12:57:44.856Z</time></trkpt><trkpt lat="45.755822915662655" lon="8.65848711906108"><ele>404.66666666666663</ele><time>2026-05-03T12:57:46.856Z</time></trkpt><trkpt lat="45.75575699989007" lon="8.65835489164422"><ele>407.8333333333333</ele><time>2026-05-03T12:57:48.856Z</time></trkpt><trkpt lat="45.755711072695426" lon="8.658263127253782"><ele>411.0</ele><time>2026-05-03T12:57:49.856Z</time></trkpt><trkpt lat="45.75562068688804" lon="8.658180365860884"><ele>411.0</ele><time>2026-05-03T12:57:51.856Z</time></trkpt><trkpt lat="45.75547597635314" lon="8.658145786988793"><ele>411.0</ele><time>2026-05-03T12:57:53.856Z</time></trkpt><trkpt lat="45.755367134981476" lon="8.658095720360066"><ele>411.0</ele><time>2026-05-03T12:57:55.856Z</time></trkpt><trkpt lat="45.755296777381325" lon="8.657974166559677"><ele>411.0</ele><time>2026-05-03T12:57:57.856Z</time></trkpt><trkpt lat="45.75524100018242" lon="8.657877039666635"><ele>413.1666666666667</ele><time>2026-05-03T12:57:58.856Z</time></trkpt><trkpt lat="45.755186380227364" lon="8.657771916144197"><ele>415.33333333333337</ele><time>2026-05-03T12:57:59.856Z</time></trkpt><trkpt lat="45.755128032081394" lon="8.657705559982064"><ele>417.5</ele><time>2026-05-03T12:58:00.856Z</time></trkpt><trkpt lat="45.755042218474046" lon="8.657623336983812"><ele>419.6666666666667</ele><time>2026-05-03T12:58:02.856Z</time></trkpt><trkpt lat="45.75498018610262" lon="8.65757925284461"><ele>421.83333333333337</ele><time>2026-05-03T12:58:03.856Z</time></trkpt><trkpt lat="45.75491063922072" lon="8.657529993404038"><ele>424.0</ele><time>2026-05-03T12:58:04.856Z</time></trkpt><trkpt lat="45.754857853253824" lon="8.657463852805884"><ele>424.0</ele><time>2026-05-03T12:58:05.856Z</time></trkpt><trkpt lat="45.75476052126459" lon="8.657371303115953"><ele>424.0</ele><time>2026-05-03T12:58:07.856Z</time></trkpt><trkpt lat="45.75467031669674" lon="8.657264699197578"><ele>424.0</ele><time>2026-05-03T12:58:09.856Z</time></trkpt><trkpt lat="45.75459952167017" lon="8.657198280686671"><ele>424.0</ele><time>2026-05-03T12:58:10.856Z</time></trkpt><trkpt lat="45.75452400738977" lon="8.657141758138605"><ele>424.0</ele><time>2026-05-03T12:58:11.855Z</time></trkpt><trkpt lat="45.75445760493995" lon="8.65707426733132"><ele>423.33333333333337</ele><time>2026-05-03T12:58:12.855Z</time></trkpt><trkpt lat="45.75436387486843" lon="8.657014281728678"><ele>422.6666666666667</ele><time>2026-05-03T12:58:14.855Z</time></trkpt><trkpt lat="45.75429416954699" lon="8.656989828448891"><ele>422.0</ele><time>2026-05-03T12:58:16.855Z</time></trkpt><trkpt lat="45.75422281645122" lon="8.656949046107895"><ele>421.33333333333337</ele><time>2026-05-03T12:58:18.855Z</time></trkpt><trkpt lat="45.754166495835214" lon="8.656850086928893"><ele>420.6666666666667</ele><time>2026-05-03T12:58:21.855Z</time></trkpt><trkpt lat="45.75409834821435" lon="8.656777292072269"><ele>420.0</ele><time>2026-05-03T12:58:23.855Z</time></trkpt><trkpt lat="45.75404963535154" lon="8.656716288106157"><ele>419.8333333333333</ele><time>2026-05-03T12:58:24.855Z</time></trkpt><trkpt lat="45.753976876390105" lon="8.656616122836242"><ele>419.66666666666663</ele><time>2026-05-03T12:58:26.855Z</time></trkpt><trkpt lat="45.75386865897667" lon="8.656556035250262"><ele>419.5</ele><time>2026-05-03T12:58:30.855Z</time></trkpt><trkpt lat="45.75380217489044" lon="8.656495988785663"><ele>419.3333333333333</ele><time>2026-05-03T12:58:32.855Z</time></trkpt><trkpt lat="45.75373800044061" lon="8.656485299934396"><ele>419.16666666666663</ele><time>2026-05-03T12:58:34.855Z</time></trkpt><trkpt lat="45.75365060558159" lon="8.656462320303286"><ele>419.0</ele><time>2026-05-03T12:58:36.855Z</time></trkpt><trkpt lat="45.75357267341633" lon="8.656492272305668"><ele>417.6</ele><time>2026-05-03T12:58:38.855Z</time></trkpt><trkpt lat="45.753470188163554" lon="8.656530961117513"><ele>416.2</ele><time>2026-05-03T12:58:40.855Z</time></trkpt><trkpt lat="45.75336060808082" lon="8.656585058950586"><ele>414.8</ele><time>2026-05-03T12:58:42.855Z</time></trkpt><trkpt lat="45.75328357660868" lon="8.656657539745261"><ele>413.40000000000003</ele><time>2026-05-03T12:58:44.855Z</time></trkpt><trkpt lat="45.753211070073284" lon="8.65662163977662"><ele>412.0</ele><time>2026-05-03T12:58:49.855Z</time></trkpt><trkpt lat="45.75311302796583" lon="8.656609036819242"><ele>412.0</ele><time>2026-05-03T12:58:51.855Z</time></trkpt><trkpt lat="45.75299222804906" lon="8.65653117953615"><ele>412.0</ele><time>2026-05-03T12:58:53.855Z</time></trkpt><trkpt lat="45.75292705655286" lon="8.656482069223605"><ele>412.0</ele><time>2026-05-03T12:58:54.855Z</time></trkpt><trkpt lat="45.752845966169794" lon="8.656455666790913"><ele>412.0</ele><time>2026-05-03T12:58:56.855Z</time></trkpt><trkpt lat="45.75274582227706" lon="8.656398265047036"><ele>412.0</ele><time>2026-05-03T12:58:58.855Z</time></trkpt><trkpt lat="45.752649617800934" lon="8.656317277204822"><ele>412.0</ele><time>2026-05-03T12:59:00.855Z</time></trkpt><trkpt lat="45.752572703292145" lon="8.656257487969775"><ele>412.0</ele><time>2026-05-03T12:59:02.855Z</time></trkpt><trkpt lat="45.752475200578516" lon="8.656289852686507"><ele>412.0</ele><time>2026-05-03T12:59:04.855Z</time></trkpt><trkpt lat="45.75236886173032" lon="8.656341475732418"><ele>412.0</ele><time>2026-05-03T12:59:06.855Z</time></trkpt><trkpt lat="45.75228124384246" lon="8.656388557349286"><ele>412.0</ele><time>2026-05-03T12:59:08.855Z</time></trkpt><trkpt lat="45.75220965042921" lon="8.656418820889456"><ele>412.0</ele><time>2026-05-03T12:59:09.855Z</time></trkpt><trkpt lat="45.75213087059039" lon="8.656470666448142"><ele>412.0</ele><time>2026-05-03T12:59:11.853Z</time></trkpt><trkpt lat="45.75201990665811" lon="8.65652820470376"><ele>412.0</ele><time>2026-05-03T12:59:14.854Z</time></trkpt><trkpt lat="45.75191071321707" lon="8.656533437272978"><ele>412.0</ele><time>2026-05-03T12:59:16.854Z</time></trkpt><trkpt lat="45.751812279695194" lon="8.656508658927098"><ele>412.0</ele><time>2026-05-03T12:59:18.853Z</time></trkpt><trkpt lat="45.75171258908089" lon="8.656508374316186"><ele>412.0</ele><time>2026-05-03T12:59:20.854Z</time></trkpt><trkpt lat="45.75161766400199" lon="8.6565704539302"><ele>412.0</ele><time>2026-05-03T12:59:23.853Z</time></trkpt><trkpt lat="45.75151458721302" lon="8.656593333893642"><ele>412.0</ele><time>2026-05-03T12:59:26.853Z</time></trkpt><trkpt lat="45.75148005367739" lon="8.656752326748816"><ele>412.0</ele><time>2026-05-03T12:59:29.853Z</time></trkpt><trkpt lat="45.751435317978434" lon="8.656825264732044"><ele>412.0</ele><time>2026-05-03T12:59:31.853Z</time></trkpt><trkpt lat="45.751358756805494" lon="8.656791714823646"><ele>412.0</ele><time>2026-05-03T12:59:33.853Z</time></trkpt><trkpt lat="45.751258628152954" lon="8.656701470582933"><ele>412.0</ele><time>2026-05-03T12:59:35.853Z</time></trkpt><trkpt lat="45.75118744133877" lon="8.656646643567608"><ele>412.0</ele><time>2026-05-03T12:59:36.853Z</time></trkpt><trkpt lat="45.7511269854879" lon="8.656597095099952"><ele>412.0</ele><time>2026-05-03T12:59:37.853Z</time></trkpt><trkpt lat="45.751041955052465" lon="8.656480331929016"><ele>412.0</ele><time>2026-05-03T12:59:39.853Z</time></trkpt><trkpt lat="45.750981468974835" lon="8.656391356839439"><ele>409.6</ele><time>2026-05-03T12:59:40.853Z</time></trkpt><trkpt lat="45.750908965374364" lon="8.656293856267148"><ele>407.20000000000005</ele><time>2026-05-03T12:59:41.853Z</time></trkpt><trkpt lat="45.75084335932995" lon="8.656190553884477"><ele>404.8</ele><time>2026-05-03T12:59:42.853Z</time></trkpt><trkpt lat="45.75078956503312" lon="8.656112670755384"><ele>402.4</ele><time>2026-05-03T12:59:43.853Z</time></trkpt><trkpt lat="45.750744492908886" lon="8.655975086024577"><ele>400.0</ele><time>2026-05-03T12:59:45.853Z</time></trkpt><trkpt lat="45.75070059377518" lon="8.655863406670612"><ele>400.00000000000006</ele><time>2026-05-03T12:59:46.853Z</time></trkpt><trkpt lat="45.75065312155294" lon="8.655759958885607"><ele>400.0</ele><time>2026-05-03T12:59:47.853Z</time></trkpt><trkpt lat="45.75061922730071" lon="8.655675607248662"><ele>400.0</ele><time>2026-05-03T12:59:48.853Z</time></trkpt><trkpt lat="45.75058115362676" lon="8.655584180188264"><ele>400.0</ele><time>2026-05-03T12:59:49.853Z</time></trkpt><trkpt lat="45.75046848672977" lon="8.655501474224122"><ele>400.00000000000006</ele><time>2026-05-03T12:59:51.853Z</time></trkpt><trkpt lat="45.75040762420868" lon="8.655465280517468"><ele>400.0</ele><time>2026-05-03T12:59:52.853Z</time></trkpt><trkpt lat="45.75029672225131" lon="8.655366418334971"><ele>400.00000000000006</ele><time>2026-05-03T12:59:54.853Z</time></trkpt><trkpt lat="45.75023076298722" lon="8.655347604596031"><ele>400.0</ele><time>2026-05-03T12:59:55.853Z</time></trkpt><trkpt lat="45.75016456453905" lon="8.655327735218776"><ele>400.0</ele><time>2026-05-03T12:59:56.853Z</time></trkpt><trkpt lat="45.75008309114737" lon="8.6552987189713"><ele>400.0</ele><time>2026-05-03T12:59:57.853Z</time></trkpt><trkpt lat="45.750011127361134" lon="8.655229384062652"><ele>400.00000000000006</ele><time>2026-05-03T12:59:59.853Z</time></trkpt><trkpt lat="45.749959766143405" lon="8.655150932248011"><ele>400.0</ele><time>2026-05-03T13:00:01.853Z</time></trkpt><trkpt lat="45.74989532238448" lon="8.655057680887705"><ele>397.8571428571429</ele><time>2026-05-03T13:00:03.853Z</time></trkpt><trkpt lat="45.74984676282116" lon="8.65498740540966"><ele>395.7142857142857</ele><time>2026-05-03T13:00:06.853Z</time></trkpt><trkpt lat="45.74978455334959" lon="8.654948381861887"><ele>393.57142857142856</ele><time>2026-05-03T13:00:07.853Z</time></trkpt><trkpt lat="45.74972187580483" lon="8.654876143716232"><ele>391.42857142857144</ele><time>2026-05-03T13:00:08.853Z</time></trkpt><trkpt lat="45.749672146022995" lon="8.654806578153853"><ele>389.2857142857143</ele><time>2026-05-03T13:00:09.853Z</time></trkpt><trkpt lat="45.7496230646479" lon="8.654738293951025"><ele>387.14285714285717</ele><time>2026-05-03T13:00:11.853Z</time></trkpt><trkpt lat="45.749703108403054" lon="8.65467587522282"><ele>385.0</ele><time>2026-05-03T13:00:13.852Z</time></trkpt><trkpt lat="45.749786401694976" lon="8.654578880544575"><ele>385.0</ele><time>2026-05-03T13:00:15.852Z</time></trkpt><trkpt lat="45.74981489013632" lon="8.654490391777772"><ele>385.0</ele><time>2026-05-03T13:00:17.852Z</time></trkpt><trkpt lat="45.7498619042089" lon="8.65433260446348"><ele>385.0</ele><time>2026-05-03T13:00:19.852Z</time></trkpt><trkpt lat="45.74988144185205" lon="8.654160105801592"><ele>385.0</ele><time>2026-05-03T13:00:21.852Z</time></trkpt><trkpt lat="45.74989434264133" lon="8.654046674136511"><ele>385.0</ele><time>2026-05-03T13:00:22.852Z</time></trkpt><trkpt lat="45.74993310396892" lon="8.653951048870473"><ele>383.50000000000006</ele><time>2026-05-03T13:00:23.852Z</time></trkpt><trkpt lat="45.749964520714485" lon="8.6538520485853"><ele>382.0</ele><time>2026-05-03T13:00:24.853Z</time></trkpt><trkpt lat="45.750000071041576" lon="8.65374756218635"><ele>380.5</ele><time>2026-05-03T13:00:25.855Z</time></trkpt><trkpt lat="45.75004141251165" lon="8.653605839135555"><ele>379.0</ele><time>2026-05-03T13:00:27.859Z</time></trkpt><trkpt lat="45.75004361920416" lon="8.653468953550009"><ele>377.5</ele><time>2026-05-03T13:00:29.863Z</time></trkpt><trkpt lat="45.75006283160744" lon="8.653366427941965"><ele>376.0</ele><time>2026-05-03T13:00:30.865Z</time></trkpt><trkpt lat="45.750067140194446" lon="8.653160258216847"><ele>375.0</ele><time>2026-05-03T13:00:32.868Z</time></trkpt><trkpt lat="45.75006363727905" lon="8.653054846243212"><ele>374.0</ele><time>2026-05-03T13:00:33.869Z</time></trkpt><trkpt lat="45.749992475239004" lon="8.652961145720775"><ele>373.0</ele><time>2026-05-03T13:00:35.871Z</time></trkpt><trkpt lat="45.7499341948562" lon="8.653003654261354"><ele>372.0</ele><time>2026-05-03T13:00:37.873Z</time></trkpt><trkpt lat="45.74985593870365" lon="8.65309835115829"><ele>371.0</ele><time>2026-05-03T13:00:39.875Z</time></trkpt><trkpt lat="45.749746045050905" lon="8.65318618010181"><ele>371.0</ele><time>2026-05-03T13:00:41.877Z</time></trkpt><trkpt lat="45.749682652109996" lon="8.65324677066497"><ele>371.0</ele><time>2026-05-03T13:00:42.878Z</time></trkpt><trkpt lat="45.749563900843455" lon="8.653325739474196"><ele>371.0</ele><time>2026-05-03T13:00:44.879Z</time></trkpt><trkpt lat="45.7494193244349" lon="8.65342546022678"><ele>371.0</ele><time>2026-05-03T13:00:46.88Z</time></trkpt><trkpt lat="45.74933448070106" lon="8.65348249436771"><ele>370.20000000000005</ele><time>2026-05-03T13:00:47.881Z</time></trkpt><trkpt lat="45.74924977409807" lon="8.65354052669969"><ele>369.40000000000003</ele><time>2026-05-03T13:00:48.881Z</time></trkpt><trkpt lat="45.74918169499975" lon="8.653565487348047"><ele>368.6</ele><time>2026-05-03T13:00:49.882Z</time></trkpt><trkpt lat="45.74910450039197" lon="8.653581496162108"><ele>367.8</ele><time>2026-05-03T13:00:50.882Z</time></trkpt><trkpt lat="45.74899577222229" lon="8.653644934496262"><ele>367.0</ele><time>2026-05-03T13:00:52.883Z</time></trkpt><trkpt lat="45.74889095691395" lon="8.65362128592125"><ele>365.5</ele><time>2026-05-03T13:00:54.884Z</time></trkpt><trkpt lat="45.748782795263416" lon="8.653576746121646"><ele>364.0</ele><time>2026-05-03T13:00:56.884Z</time></trkpt><trkpt lat="45.7486653679678" lon="8.653563761383403"><ele>362.5</ele><time>2026-05-03T13:00:58.885Z</time></trkpt><trkpt lat="45.748596471735624" lon="8.653547920161628"><ele>361.0</ele><time>2026-05-03T13:00:59.885Z</time></trkpt><trkpt lat="45.748533951832854" lon="8.653537080483808"><ele>359.5</ele><time>2026-05-03T13:01:00.885Z</time></trkpt><trkpt lat="45.748457087773396" lon="8.653504550214196"><ele>358.0</ele><time>2026-05-03T13:01:01.886Z</time></trkpt><trkpt lat="45.7483955382039" lon="8.653476312801173"><ele>353.0</ele><time>2026-05-03T13:01:02.886Z</time></trkpt><trkpt lat="45.74828558125805" lon="8.653471103936244"><ele>348.0</ele><time>2026-05-03T13:01:04.886Z</time></trkpt><trkpt lat="45.74815173635249" lon="8.65345727011428"><ele>343.0</ele><time>2026-05-03T13:01:06.886Z</time></trkpt><trkpt lat="45.74804287466387" lon="8.653528171702236"><ele>338.0</ele><time>2026-05-03T13:01:08.887Z</time></trkpt><trkpt lat="45.74798385299059" lon="8.653561708553795"><ele>333.0</ele><time>2026-05-03T13:01:09.887Z</time></trkpt><trkpt lat="45.74790182525145" lon="8.653613462436148"><ele>333.0</ele><time>2026-05-03T13:01:10.887Z</time></trkpt><trkpt lat="45.747824019295194" lon="8.653619085800923"><ele>333.0</ele><time>2026-05-03T13:01:11.887Z</time></trkpt><trkpt lat="45.74771912380618" lon="8.653653199562607"><ele>333.0</ele><time>2026-05-03T13:01:13.886Z</time></trkpt><trkpt lat="45.74765057320448" lon="8.653752899217114"><ele>333.0</ele><time>2026-05-03T13:01:15.886Z</time></trkpt><trkpt lat="45.747576653680376" lon="8.65384276803648"><ele>333.0</ele><time>2026-05-03T13:01:18.885Z</time></trkpt><trkpt lat="45.74751291162317" lon="8.653901665842344"><ele>333.0</ele><time>2026-05-03T13:01:21.886Z</time></trkpt><trkpt lat="45.74755230016993" lon="8.653829860577426"><ele>333.0</ele><time>2026-05-03T13:01:25.887Z</time></trkpt><trkpt lat="45.747602368626175" lon="8.653761162503365"><ele>333.0</ele><time>2026-05-03T13:01:26.886Z</time></trkpt><trkpt lat="45.747672510526314" lon="8.65364816590573"><ele>333.0</ele><time>2026-05-03T13:01:28.886Z</time></trkpt><trkpt lat="45.74769038186497" lon="8.653531909317977"><ele>333.0</ele><time>2026-05-03T13:01:30.886Z</time></trkpt><trkpt lat="45.74770832039678" lon="8.65338417069802"><ele>333.0</ele><time>2026-05-03T13:01:32.886Z</time></trkpt><trkpt lat="45.747757319128006" lon="8.65322672030867"><ele>333.0</ele><time>2026-05-03T13:01:34.886Z</time></trkpt><trkpt lat="45.7477714384894" lon="8.653131545309897"><ele>333.0</ele><time>2026-05-03T13:01:35.886Z</time></trkpt><trkpt lat="45.74776367621298" lon="8.652975860340925"><ele>333.0</ele><time>2026-05-03T13:01:37.886Z</time></trkpt><trkpt lat="45.7477174267195" lon="8.652824286871303"><ele>333.0</ele><time>2026-05-03T13:01:39.886Z</time></trkpt><trkpt lat="45.74767635045563" lon="8.652751636596701"><ele>333.0</ele><time>2026-05-03T13:01:40.886Z</time></trkpt><trkpt lat="45.74759561651976" lon="8.652638831857654"><ele>331.59999999999997</ele><time>2026-05-03T13:01:42.886Z</time></trkpt><trkpt lat="45.74746738745372" lon="8.652619636504161"><ele>330.2</ele><time>2026-05-03T13:01:44.886Z</time></trkpt><trkpt lat="45.74736148912833" lon="8.652625391482287"><ele>328.8</ele><time>2026-05-03T13:01:45.886Z</time></trkpt><trkpt lat="45.74726950871438" lon="8.652620836077901"><ele>327.4</ele><time>2026-05-03T13:01:46.886Z</time></trkpt><trkpt lat="45.74719957722564" lon="8.652599375892773"><ele>326.0</ele><time>2026-05-03T13:01:47.886Z</time></trkpt><trkpt lat="45.74713076413642" lon="8.652543705069005"><ele>326.0</ele><time>2026-05-03T13:01:48.886Z</time></trkpt><trkpt lat="45.74704374550365" lon="8.652454637612818"><ele>326.0</ele><time>2026-05-03T13:01:49.886Z</time></trkpt><trkpt lat="45.746937825057714" lon="8.652347771965186"><ele>326.0</ele><time>2026-05-03T13:01:50.886Z</time></trkpt><trkpt lat="45.74686018230049" lon="8.652302507058769"><ele>326.0</ele><time>2026-05-03T13:01:51.886Z</time></trkpt><trkpt lat="45.74678446967755" lon="8.652279817334218"><ele>326.0</ele><time>2026-05-03T13:01:52.886Z</time></trkpt><trkpt lat="45.74670060934821" lon="8.652270836722089"><ele>327.20000000000005</ele><time>2026-05-03T13:01:53.886Z</time></trkpt><trkpt lat="45.746611711211024" lon="8.65216291494972"><ele>328.40000000000003</ele><time>2026-05-03T13:01:55.886Z</time></trkpt><trkpt lat="45.746561993946756" lon="8.652095200110724"><ele>329.6</ele><time>2026-05-03T13:01:56.886Z</time></trkpt><trkpt lat="45.74651072047283" lon="8.652010487122736"><ele>330.8</ele><time>2026-05-03T13:01:57.886Z</time></trkpt><trkpt lat="45.746445646441956" lon="8.651943124246948"><ele>332.0</ele><time>2026-05-03T13:01:58.886Z</time></trkpt><trkpt lat="45.74638348524923" lon="8.65181824256374"><ele>332.0</ele><time>2026-05-03T13:01:59.886Z</time></trkpt><trkpt lat="45.74632790648237" lon="8.651700666460728"><ele>332.0</ele><time>2026-05-03T13:02:00.886Z</time></trkpt><trkpt lat="45.74627645183719" lon="8.651613440019704"><ele>332.0</ele><time>2026-05-03T13:02:01.886Z</time></trkpt><trkpt lat="45.74621650463585" lon="8.65151396297853"><ele>332.0</ele><time>2026-05-03T13:02:02.886Z</time></trkpt><trkpt lat="45.74616937723451" lon="8.651424823567083"><ele>332.0</ele><time>2026-05-03T13:02:03.886Z</time></trkpt><trkpt lat="45.74614010629574" lon="8.651344235154985"><ele>332.0</ele><time>2026-05-03T13:02:04.886Z</time></trkpt><trkpt lat="45.746045961591484" lon="8.65123842346906"><ele>330.8</ele><time>2026-05-03T13:02:06.886Z</time></trkpt><trkpt lat="45.745990764637014" lon="8.651173372664765"><ele>329.6</ele><time>2026-05-03T13:02:07.886Z</time></trkpt><trkpt lat="45.74598594425852" lon="8.651081444985234"><ele>328.40000000000003</ele><time>2026-05-03T13:02:15.886Z</time></trkpt><trkpt lat="45.745973323649196" lon="8.650914467045869"><ele>327.20000000000005</ele><time>2026-05-03T13:02:17.886Z</time></trkpt><trkpt lat="45.745964134859236" lon="8.650782941910856"><ele>326.0</ele><time>2026-05-03T13:02:18.886Z</time></trkpt><trkpt lat="45.74597609577937" lon="8.650620045178965"><ele>325.5</ele><time>2026-05-03T13:02:19.886Z</time></trkpt><trkpt lat="45.74602260236447" lon="8.65043576203249"><ele>325.0</ele><time>2026-05-03T13:02:20.886Z</time></trkpt><trkpt lat="45.74600835284908" lon="8.650254708378505"><ele>324.5</ele><time>2026-05-03T13:02:21.886Z</time></trkpt><trkpt lat="45.745993165157664" lon="8.650092063981699"><ele>324.0</ele><time>2026-05-03T13:02:22.886Z</time></trkpt><trkpt lat="45.74598436090535" lon="8.649979780386806"><ele>323.5</ele><time>2026-05-03T13:02:23.886Z</time></trkpt><trkpt lat="45.74598042469849" lon="8.64988816378784"><ele>323.0</ele><time>2026-05-03T13:02:24.886Z</time></trkpt><trkpt lat="45.74598916794457" lon="8.649732969853158"><ele>322.5</ele><time>2026-05-03T13:02:26.886Z</time></trkpt><trkpt lat="45.74605026528052" lon="8.649583260600208"><ele>322.0</ele><time>2026-05-03T13:02:28.886Z</time></trkpt><trkpt lat="45.746094520079104" lon="8.64950090508929"><ele>321.5</ele><time>2026-05-03T13:02:29.886Z</time></trkpt><trkpt lat="45.74614341074355" lon="8.64941168880871"><ele>321.0</ele><time>2026-05-03T13:02:30.886Z</time></trkpt><trkpt lat="45.74618741606018" lon="8.649309955904773"><ele>322.0</ele><time>2026-05-03T13:02:31.886Z</time></trkpt><trkpt lat="45.746254454672794" lon="8.649230652363004"><ele>323.0</ele><time>2026-05-03T13:02:32.886Z</time></trkpt><trkpt lat="45.74630103934601" lon="8.649128343359425"><ele>324.0</ele><time>2026-05-03T13:02:34.886Z</time></trkpt><trkpt lat="45.74636245513714" lon="8.648978910881452"><ele>325.0</ele><time>2026-05-03T13:02:36.886Z</time></trkpt><trkpt lat="45.74641936286052" lon="8.648911314239983"><ele>326.0</ele><time>2026-05-03T13:02:37.886Z</time></trkpt><trkpt lat="45.746481504556975" lon="8.64884142306224"><ele>327.0</ele><time>2026-05-03T13:02:38.886Z</time></trkpt><trkpt lat="45.746570300659535" lon="8.648739005242147"><ele>325.1666666666667</ele><time>2026-05-03T13:02:39.886Z</time></trkpt><trkpt lat="45.74664845358905" lon="8.648625608257953"><ele>323.3333333333333</ele><time>2026-05-03T13:02:40.886Z</time></trkpt><trkpt lat="45.74670360030864" lon="8.648516773389455"><ele>321.5</ele><time>2026-05-03T13:02:41.886Z</time></trkpt><trkpt lat="45.746744705290936" lon="8.648431447374143"><ele>319.66666666666663</ele><time>2026-05-03T13:02:42.886Z</time></trkpt><trkpt lat="45.74679220425537" lon="8.648364538503488"><ele>317.8333333333333</ele><time>2026-05-03T13:02:43.886Z</time></trkpt><trkpt lat="45.746889786075926" lon="8.64831676087609"><ele>316.0</ele><time>2026-05-03T13:02:45.886Z</time></trkpt><trkpt lat="45.746962475742386" lon="8.648291967900489"><ele>316.0</ele><time>2026-05-03T13:02:46.886Z</time></trkpt><trkpt lat="45.74704584849152" lon="8.648261002246224"><ele>316.0</ele><time>2026-05-03T13:02:47.886Z</time></trkpt><trkpt lat="45.747120873251546" lon="8.648219786452836"><ele>316.0</ele><time>2026-05-03T13:02:48.886Z</time></trkpt><trkpt lat="45.74723219441115" lon="8.648163936267695"><ele>316.0</ele><time>2026-05-03T13:02:50.886Z</time></trkpt><trkpt lat="45.7473002942851" lon="8.648112156013392"><ele>316.0</ele><time>2026-05-03T13:02:51.886Z</time></trkpt><trkpt lat="45.74738490115513" lon="8.648079078566193"><ele>316.0</ele><time>2026-05-03T13:02:52.886Z</time></trkpt><trkpt lat="45.747462767401245" lon="8.648053865220172"><ele>316.0</ele><time>2026-05-03T13:02:53.886Z</time></trkpt><trkpt lat="45.74756679952527" lon="8.648076872077867"><ele>316.0</ele><time>2026-05-03T13:02:54.886Z</time></trkpt><trkpt lat="45.74767910373102" lon="8.6480872067353"><ele>316.0</ele><time>2026-05-03T13:02:55.886Z</time></trkpt><trkpt lat="45.74780690145064" lon="8.648078499911408"><ele>316.0</ele><time>2026-05-03T13:02:56.886Z</time></trkpt><trkpt lat="45.74791427178304" lon="8.648057267075192"><ele>316.75</ele><time>2026-05-03T13:02:57.886Z</time></trkpt><trkpt lat="45.74802234601754" lon="8.64801418140383"><ele>317.5</ele><time>2026-05-03T13:02:58.886Z</time></trkpt><trkpt lat="45.74815209743424" lon="8.647945852439229"><ele>318.25</ele><time>2026-05-03T13:02:59.886Z</time></trkpt><trkpt lat="45.74826018252948" lon="8.647853804276144"><ele>319.0</ele><time>2026-05-03T13:03:00.886Z</time></trkpt><trkpt lat="45.74833392455528" lon="8.647794347037744"><ele>318.8</ele><time>2026-05-03T13:03:01.886Z</time></trkpt><trkpt lat="45.74841676629574" lon="8.647740452003811"><ele>318.59999999999997</ele><time>2026-05-03T13:03:02.886Z</time></trkpt><trkpt lat="45.748496527728186" lon="8.647722766325131"><ele>318.4</ele><time>2026-05-03T13:03:03.886Z</time></trkpt><trkpt lat="45.74859268150869" lon="8.64774565140732"><ele>318.2</ele><time>2026-05-03T13:03:04.886Z</time></trkpt><trkpt lat="45.74871761762847" lon="8.647794008077915"><ele>318.0</ele><time>2026-05-03T13:03:05.886Z</time></trkpt><trkpt lat="45.748818180342504" lon="8.647820310297506"><ele>318.0</ele><time>2026-05-03T13:03:06.886Z</time></trkpt><trkpt lat="45.74890650971423" lon="8.647826909614729"><ele>318.0</ele><time>2026-05-03T13:03:07.886Z</time></trkpt><trkpt lat="45.74897952637197" lon="8.647824314241609"><ele>318.0</ele><time>2026-05-03T13:03:08.886Z</time></trkpt><trkpt lat="45.74905332696013" lon="8.6478566080303"><ele>318.0</ele><time>2026-05-03T13:03:09.886Z</time></trkpt><trkpt lat="45.749130637964655" lon="8.647867359121483"><ele>318.0</ele><time>2026-05-03T13:03:10.886Z</time></trkpt><trkpt lat="45.74920022585065" lon="8.647863893343787"><ele>318.0</ele><time>2026-05-03T13:03:11.886Z</time></trkpt><trkpt lat="45.74927309588023" lon="8.647851058141011"><ele>318.0</ele><time>2026-05-03T13:03:12.886Z</time></trkpt><trkpt lat="45.74936078896196" lon="8.647841495161204"><ele>318.0</ele><time>2026-05-03T13:03:13.886Z</time></trkpt><trkpt lat="45.74947315784588" lon="8.64783700922438"><ele>318.0</ele><time>2026-05-03T13:03:15.886Z</time></trkpt><trkpt lat="45.74957714139139" lon="8.647827627740956"><ele>318.0</ele><time>2026-05-03T13:03:17.886Z</time></trkpt><trkpt lat="45.749644021025055" lon="8.64781026138501"><ele>318.0</ele><time>2026-05-03T13:03:18.886Z</time></trkpt><trkpt lat="45.74970792492638" lon="8.647798768960254"><ele>318.0</ele><time>2026-05-03T13:03:19.886Z</time></trkpt><trkpt lat="45.74979855580411" lon="8.64777129924716"><ele>317.6</ele><time>2026-05-03T13:03:39.885Z</time></trkpt><trkpt lat="45.74986879281796" lon="8.6477552407355"><ele>317.20000000000005</ele><time>2026-05-03T13:03:41.885Z</time></trkpt><trkpt lat="45.749956517869954" lon="8.647737091272676"><ele>316.8</ele><time>2026-05-03T13:03:43.885Z</time></trkpt><trkpt lat="45.74989161636412" lon="8.647750520658393"><ele>316.40000000000003</ele><time>2026-05-03T13:03:53.885Z</time></trkpt><trkpt lat="45.749802522445336" lon="8.647770321071675"><ele>316.0</ele><time>2026-05-03T13:03:56.885Z</time></trkpt><trkpt lat="45.749650924820784" lon="8.647807778293306"><ele>316.0</ele><time>2026-05-03T13:03:58.885Z</time></trkpt><trkpt lat="45.74955950129868" lon="8.647827326749036"><ele>316.0</ele><time>2026-05-03T13:03:59.885Z</time></trkpt><trkpt lat="45.74947115801352" lon="8.6478454578838"><ele>316.0</ele><time>2026-05-03T13:04:00.885Z</time></trkpt><trkpt lat="45.749353566725404" lon="8.647850798516652"><ele>316.0</ele><time>2026-05-03T13:04:02.885Z</time></trkpt><trkpt lat="45.749283441472855" lon="8.647856433734626"><ele>316.0</ele><time>2026-05-03T13:04:03.885Z</time></trkpt><trkpt lat="45.749173329702785" lon="8.647854104216615"><ele>316.40000000000003</ele><time>2026-05-03T13:04:04.885Z</time></trkpt><trkpt lat="45.749060935352674" lon="8.647862190348315"><ele>316.8</ele><time>2026-05-03T13:04:06.885Z</time></trkpt><trkpt lat="45.748967822075045" lon="8.647870857339683"><ele>317.20000000000005</ele><time>2026-05-03T13:04:07.885Z</time></trkpt><trkpt lat="45.74887658134436" lon="8.647871632653926"><ele>317.6</ele><time>2026-05-03T13:04:08.885Z</time></trkpt><trkpt lat="45.7487913088372" lon="8.64786308984503"><ele>318.0</ele><time>2026-05-03T13:04:09.885Z</time></trkpt><trkpt lat="45.748713254075355" lon="8.647850480850343"><ele>318.0</ele><time>2026-05-03T13:04:10.885Z</time></trkpt><trkpt lat="45.74865021345462" lon="8.647836202453664"><ele>318.0</ele><time>2026-05-03T13:04:11.885Z</time></trkpt><trkpt lat="45.74858774857522" lon="8.647766368716255"><ele>318.0</ele><time>2026-05-03T13:04:13.885Z</time></trkpt><trkpt lat="45.74850067176519" lon="8.647759805808288"><ele>318.0</ele><time>2026-05-03T13:04:19.885Z</time></trkpt><trkpt lat="45.748433801566186" lon="8.647784240979032"><ele>318.0</ele><time>2026-05-03T13:04:21.885Z</time></trkpt><trkpt lat="45.74832953381662" lon="8.647719292598426"><ele>318.0</ele><time>2026-05-03T13:04:33.885Z</time></trkpt><trkpt lat="45.748210126541046" lon="8.64768368323847"><ele>316.1666666666667</ele><time>2026-05-03T13:04:35.885Z</time></trkpt><trkpt lat="45.74812678359755" lon="8.647667101922236"><ele>314.3333333333333</ele><time>2026-05-03T13:04:42.885Z</time></trkpt><trkpt lat="45.74805213847395" lon="8.647648527177738"><ele>312.5</ele><time>2026-05-03T13:04:49.885Z</time></trkpt><trkpt lat="45.74798010937454" lon="8.647662381800547"><ele>310.66666666666663</ele><time>2026-05-03T13:04:52.885Z</time></trkpt><trkpt lat="45.7478968561831" lon="8.647648638723412"><ele>308.8333333333333</ele><time>2026-05-03T13:04:56.885Z</time></trkpt><trkpt lat="45.74781821136299" lon="8.647620875465929"><ele>307.0</ele><time>2026-05-03T13:04:58.885Z</time></trkpt><trkpt lat="45.7477416533969" lon="8.647608368729326"><ele>306.99999999999994</ele><time>2026-05-03T13:05:03.885Z</time></trkpt><trkpt lat="45.74782168156867" lon="8.647610195925614"><ele>307.0</ele><time>2026-05-03T13:05:30.884Z</time></trkpt><trkpt lat="45.747895951631094" lon="8.647587999351577"><ele>307.0</ele><time>2026-05-03T13:05:34.884Z</time></trkpt><trkpt lat="45.747960402446594" lon="8.647596333975104"><ele>307.0</ele><time>2026-05-03T13:05:37.884Z</time></trkpt><trkpt lat="45.74803079642795" lon="8.647594791749146"><ele>307.0</ele><time>2026-05-03T13:05:46.883Z</time></trkpt><trkpt lat="45.7481047293858" lon="8.647568740543292"><ele>306.99999999999994</ele><time>2026-05-03T13:05:50.883Z</time></trkpt><trkpt lat="45.74817459219729" lon="8.647572096505526"><ele>307.0</ele><time>2026-05-03T13:05:53.883Z</time></trkpt><trkpt lat="45.74827910690817" lon="8.647606555943781"><ele>307.0</ele><time>2026-05-03T13:05:55.883Z</time></trkpt><trkpt lat="45.74835618548681" lon="8.647641005521486"><ele>307.0</ele><time>2026-05-03T13:06:18.883Z</time></trkpt><trkpt lat="45.748426008058146" lon="8.647630584849189"><ele>307.0</ele><time>2026-05-03T13:06:43.883Z</time></trkpt><trkpt lat="45.74849003966337" lon="8.647633155350192"><ele>307.0</ele><time>2026-05-03T13:06:45.883Z</time></trkpt><trkpt lat="45.74854575760882" lon="8.647743337786357"><ele>307.0</ele><time>2026-05-03T13:06:46.883Z</time></trkpt><trkpt lat="45.74862799147413" lon="8.647762302088248"><ele>307.0</ele><time>2026-05-03T13:06:47.883Z</time></trkpt><trkpt lat="45.74871140716648" lon="8.647795301100365"><ele>308.8333333333333</ele><time>2026-05-03T13:06:48.883Z</time></trkpt><trkpt lat="45.74878267653121" lon="8.647818511531169"><ele>310.66666666666663</ele><time>2026-05-03T13:06:49.883Z</time></trkpt><trkpt lat="45.74885625621659" lon="8.64783354119478"><ele>312.5</ele><time>2026-05-03T13:06:50.883Z</time></trkpt><trkpt lat="45.74893928476075" lon="8.647841049866994"><ele>314.3333333333333</ele><time>2026-05-03T13:06:51.883Z</time></trkpt><trkpt lat="45.74901410903346" lon="8.647846009624681"><ele>316.1666666666667</ele><time>2026-05-03T13:06:52.883Z</time></trkpt><trkpt lat="45.74909692521675" lon="8.647846934428399"><ele>318.0</ele><time>2026-05-03T13:06:53.883Z</time></trkpt><trkpt lat="45.74916011492091" lon="8.64784099947344"><ele>318.0</ele><time>2026-05-03T13:06:54.883Z</time></trkpt><trkpt lat="45.749291697434934" lon="8.64782795017726"><ele>318.0</ele><time>2026-05-03T13:06:56.883Z</time></trkpt><trkpt lat="45.74936919591786" lon="8.647849542620653"><ele>318.0</ele><time>2026-05-03T13:06:57.883Z</time></trkpt><trkpt lat="45.749479077534865" lon="8.64782342707242"><ele>318.0</ele><time>2026-05-03T13:07:00.883Z</time></trkpt><trkpt lat="45.74954377008687" lon="8.647812407993767"><ele>318.0</ele><time>2026-05-03T13:07:01.883Z</time></trkpt><trkpt lat="45.74961406044224" lon="8.647811053065166"><ele>317.6</ele><time>2026-05-03T13:07:02.883Z</time></trkpt><trkpt lat="45.749688813605815" lon="8.647804645796452"><ele>317.20000000000005</ele><time>2026-05-03T13:07:03.883Z</time></trkpt><trkpt lat="45.74978268955017" lon="8.647787122439423"><ele>316.8</ele><time>2026-05-03T13:07:04.883Z</time></trkpt><trkpt lat="45.74989109448684" lon="8.64775952822945"><ele>316.40000000000003</ele><time>2026-05-03T13:07:05.883Z</time></trkpt><trkpt lat="45.75000616781523" lon="8.647737717022565"><ele>316.0</ele><time>2026-05-03T13:07:06.883Z</time></trkpt><trkpt lat="45.750123193054435" lon="8.647714621033296"><ele>312.6</ele><time>2026-05-03T13:07:07.883Z</time></trkpt><trkpt lat="45.75023265055919" lon="8.647689727279255"><ele>309.20000000000005</ele><time>2026-05-03T13:07:08.883Z</time></trkpt><trkpt lat="45.750339537564024" lon="8.647680863783782"><ele>305.79999999999995</ele><time>2026-05-03T13:07:09.883Z</time></trkpt><trkpt lat="45.750431873412964" lon="8.64766608619081"><ele>302.4</ele><time>2026-05-03T13:07:10.883Z</time></trkpt><trkpt lat="45.75051949397405" lon="8.647639460847365"><ele>299.0</ele><time>2026-05-03T13:07:11.883Z</time></trkpt><trkpt lat="45.75059875830481" lon="8.647530524484287"><ele>299.0</ele><time>2026-05-03T13:07:13.883Z</time></trkpt><trkpt lat="45.75070424733837" lon="8.647384405873053"><ele>299.0</ele><time>2026-05-03T13:07:15.883Z</time></trkpt><trkpt lat="45.750780555473604" lon="8.647292839971003"><ele>299.0</ele><time>2026-05-03T13:07:16.882Z</time></trkpt><trkpt lat="45.75086590809204" lon="8.647222265398414"><ele>299.0</ele><time>2026-05-03T13:07:17.882Z</time></trkpt><trkpt lat="45.75095483590894" lon="8.647172689405219"><ele>299.0</ele><time>2026-05-03T13:07:18.882Z</time></trkpt><trkpt lat="45.75106628538376" lon="8.647135450732932"><ele>299.75</ele><time>2026-05-03T13:07:19.882Z</time></trkpt><trkpt lat="45.75117685340688" lon="8.647114858777677"><ele>300.5</ele><time>2026-05-03T13:07:20.882Z</time></trkpt><trkpt lat="45.7512859922888" lon="8.647101733164375"><ele>301.25</ele><time>2026-05-03T13:07:21.882Z</time></trkpt><trkpt lat="45.75142767372515" lon="8.647095632488762"><ele>302.0</ele><time>2026-05-03T13:07:22.882Z</time></trkpt><trkpt lat="45.75158571993677" lon="8.647103201765535"><ele>302.0</ele><time>2026-05-03T13:07:23.882Z</time></trkpt><trkpt lat="45.75171592274084" lon="8.647129151002702"><ele>302.0</ele><time>2026-05-03T13:07:24.882Z</time></trkpt><trkpt lat="45.75181570314805" lon="8.64716854125431"><ele>302.0</ele><time>2026-05-03T13:07:25.882Z</time></trkpt><trkpt lat="45.75188511181609" lon="8.64720162446954"><ele>302.0</ele><time>2026-05-03T13:07:26.882Z</time></trkpt><trkpt lat="45.7519638036989" lon="8.647239015687319"><ele>302.0</ele><time>2026-05-03T13:07:27.882Z</time></trkpt><trkpt lat="45.752030819029905" lon="8.647271081871109"><ele>301.5</ele><time>2026-05-03T13:07:28.882Z</time></trkpt><trkpt lat="45.75212690910529" lon="8.64726502002643"><ele>301.0</ele><time>2026-05-03T13:07:30.882Z</time></trkpt><trkpt lat="45.75220741881423" lon="8.6472930854484"><ele>300.5</ele><time>2026-05-03T13:07:31.882Z</time></trkpt><trkpt lat="45.752339748069396" lon="8.647308057402116"><ele>300.0</ele><time>2026-05-03T13:07:32.882Z</time></trkpt><trkpt lat="45.75247820842964" lon="8.647323723041643"><ele>300.0</ele><time>2026-05-03T13:07:33.882Z</time></trkpt><trkpt lat="45.75260515986729" lon="8.647338086544016"><ele>300.0</ele><time>2026-05-03T13:07:34.883Z</time></trkpt><trkpt lat="45.752721958629756" lon="8.647251307658033"><ele>300.0</ele><time>2026-05-03T13:07:35.883Z</time></trkpt><trkpt lat="45.75282051138841" lon="8.647170725397308"><ele>300.0</ele><time>2026-05-03T13:07:36.883Z</time></trkpt><trkpt lat="45.752913612038704" lon="8.647062225878306"><ele>296.0</ele><time>2026-05-03T13:07:37.883Z</time></trkpt><trkpt lat="45.75299949817141" lon="8.646944458068985"><ele>292.0</ele><time>2026-05-03T13:07:38.882Z</time></trkpt><trkpt lat="45.753094520526595" lon="8.646825724859875"><ele>288.0</ele><time>2026-05-03T13:07:39.882Z</time></trkpt><trkpt lat="45.753181541718135" lon="8.646722891151514"><ele>284.0</ele><time>2026-05-03T13:07:40.883Z</time></trkpt><trkpt lat="45.75326274679725" lon="8.646681790488204"><ele>280.0</ele><time>2026-05-03T13:07:41.882Z</time></trkpt><trkpt lat="45.75334393997558" lon="8.646646292140968"><ele>280.0</ele><time>2026-05-03T13:07:42.882Z</time></trkpt><trkpt lat="45.75346735454544" lon="8.646744494430774"><ele>280.0</ele><time>2026-05-03T13:07:44.882Z</time></trkpt><trkpt lat="45.75360032036044" lon="8.64682164352241"><ele>280.0</ele><time>2026-05-03T13:07:45.882Z</time></trkpt><trkpt lat="45.75370461183896" lon="8.646868788113936"><ele>280.0</ele><time>2026-05-03T13:07:46.882Z</time></trkpt><trkpt lat="45.75378875845936" lon="8.646906819018307"><ele>279.16666666666663</ele><time>2026-05-03T13:07:47.882Z</time></trkpt><trkpt lat="45.75387555355259" lon="8.646953432223295"><ele>278.3333333333333</ele><time>2026-05-03T13:07:48.882Z</time></trkpt><trkpt lat="45.753968861297814" lon="8.64698516153773"><ele>277.5</ele><time>2026-05-03T13:07:49.882Z</time></trkpt><trkpt lat="45.754050297784595" lon="8.646989055411709"><ele>276.6666666666667</ele><time>2026-05-03T13:07:50.882Z</time></trkpt><trkpt lat="45.75412495582026" lon="8.647015965432937"><ele>275.83333333333337</ele><time>2026-05-03T13:07:51.882Z</time></trkpt><trkpt lat="45.75420011836497" lon="8.64705147528466"><ele>275.0</ele><time>2026-05-03T13:07:52.882Z</time></trkpt><trkpt lat="45.754295567824215" lon="8.647087918787227"><ele>277.6</ele><time>2026-05-03T13:07:53.882Z</time></trkpt><trkpt lat="45.75440577620735" lon="8.647161840151101"><ele>280.2</ele><time>2026-05-03T13:07:54.882Z</time></trkpt><trkpt lat="45.75449053517666" lon="8.647194184837584"><ele>282.8</ele><time>2026-05-03T13:07:55.882Z</time></trkpt><trkpt lat="45.754585897933886" lon="8.647230102089454"><ele>285.4</ele><time>2026-05-03T13:07:56.882Z</time></trkpt><trkpt lat="45.754688609074776" lon="8.647247624916275"><ele>288.0</ele><time>2026-05-03T13:07:57.882Z</time></trkpt><trkpt lat="45.75477609042487" lon="8.647248028997279"><ele>288.0</ele><time>2026-05-03T13:07:58.882Z</time></trkpt><trkpt lat="45.75484993136354" lon="8.647207485026692"><ele>288.0</ele><time>2026-05-03T13:07:59.882Z</time></trkpt><trkpt lat="45.75492918410672" lon="8.647136160071092"><ele>288.0</ele><time>2026-05-03T13:08:00.882Z</time></trkpt><trkpt lat="45.755024780919136" lon="8.647040442976161"><ele>288.0</ele><time>2026-05-03T13:08:01.882Z</time></trkpt><trkpt lat="45.75509809086702" lon="8.64700231315365"><ele>288.0</ele><time>2026-05-03T13:08:02.882Z</time></trkpt><trkpt lat="45.75518085229295" lon="8.646969436930165"><ele>287.4</ele><time>2026-05-03T13:08:03.882Z</time></trkpt><trkpt lat="45.755281012665975" lon="8.646958985645359"><ele>286.8</ele><time>2026-05-03T13:08:04.882Z</time></trkpt><trkpt lat="45.755374320872605" lon="8.64697023186141"><ele>286.2</ele><time>2026-05-03T13:08:05.882Z</time></trkpt><trkpt lat="45.75544768780602" lon="8.646985581658676"><ele>285.6</ele><time>2026-05-03T13:08:06.882Z</time></trkpt><trkpt lat="45.75553183656018" lon="8.646964898102423"><ele>285.0</ele><time>2026-05-03T13:08:08.882Z</time></trkpt><trkpt lat="45.7556304999763" lon="8.646858465235665"><ele>282.8333333333333</ele><time>2026-05-03T13:08:10.882Z</time></trkpt><trkpt lat="45.755700397237554" lon="8.64679129566838"><ele>280.6666666666667</ele><time>2026-05-03T13:08:11.882Z</time></trkpt><trkpt lat="45.75576485875425" lon="8.64671141037343"><ele>278.5</ele><time>2026-05-03T13:08:12.882Z</time></trkpt><trkpt lat="45.75581386562873" lon="8.64661904434368"><ele>276.33333333333337</ele><time>2026-05-03T13:08:13.882Z</time></trkpt><trkpt lat="45.75585704554355" lon="8.646534363984744"><ele>274.1666666666667</ele><time>2026-05-03T13:08:14.882Z</time></trkpt><trkpt lat="45.75588646621945" lon="8.646436834239708"><ele>272.0</ele><time>2026-05-03T13:08:15.882Z</time></trkpt><trkpt lat="45.75593065958271" lon="8.646338955766181"><ele>272.0</ele><time>2026-05-03T13:08:16.882Z</time></trkpt><trkpt lat="45.75595596440857" lon="8.64620786787731"><ele>272.0</ele><time>2026-05-03T13:08:17.882Z</time></trkpt><trkpt lat="45.75600076336007" lon="8.64607574381032"><ele>272.0</ele><time>2026-05-03T13:08:18.882Z</time></trkpt><trkpt lat="45.75604297919746" lon="8.645923722493665"><ele>272.0</ele><time>2026-05-03T13:08:19.882Z</time></trkpt><trkpt lat="45.75607390280008" lon="8.645751377046654"><ele>272.0</ele><time>2026-05-03T13:08:20.882Z</time></trkpt><trkpt lat="45.75609650128613" lon="8.64560072844569"><ele>270.6666666666667</ele><time>2026-05-03T13:08:21.882Z</time></trkpt><trkpt lat="45.75610775349091" lon="8.645488650624221"><ele>269.33333333333337</ele><time>2026-05-03T13:08:22.882Z</time></trkpt><trkpt lat="45.756121046022855" lon="8.645367435893549"><ele>268.0</ele><time>2026-05-03T13:08:23.882Z</time></trkpt><trkpt lat="45.7561283936815" lon="8.645253333859106"><ele>266.6666666666667</ele><time>2026-05-03T13:08:24.882Z</time></trkpt><trkpt lat="45.75614091304995" lon="8.645156221726632"><ele>265.3333333333333</ele><time>2026-05-03T13:08:25.882Z</time></trkpt><trkpt lat="45.7561086518254" lon="8.644999056797339"><ele>264.0</ele><time>2026-05-03T13:08:27.882Z</time></trkpt><trkpt lat="45.7560935526132" lon="8.644879097499706"><ele>263.0</ele><time>2026-05-03T13:08:29.882Z</time></trkpt><trkpt lat="45.75611301181239" lon="8.644745186666679"><ele>262.0</ele><time>2026-05-03T13:08:31.882Z</time></trkpt><trkpt lat="45.75617191824679" lon="8.64460053672373"><ele>261.0</ele><time>2026-05-03T13:08:33.882Z</time></trkpt><trkpt lat="45.7562230886327" lon="8.644529037623968"><ele>260.0</ele><time>2026-05-03T13:08:35.882Z</time></trkpt><trkpt lat="45.7562246192404" lon="8.64442178860792"><ele>259.0</ele><time>2026-05-03T13:08:39.882Z</time></trkpt><trkpt lat="45.75611059585276" lon="8.64428358311233"><ele>258.75</ele><time>2026-05-03T13:08:41.882Z</time></trkpt><trkpt lat="45.75599257247654" lon="8.644188342775672"><ele>258.5</ele><time>2026-05-03T13:08:42.882Z</time></trkpt><trkpt lat="45.755865614126314" lon="8.644146060939347"><ele>258.25</ele><time>2026-05-03T13:08:43.882Z</time></trkpt><trkpt lat="45.75573988518273" lon="8.644100103628292"><ele>258.0</ele><time>2026-05-03T13:08:44.882Z</time></trkpt><trkpt lat="45.75561750833439" lon="8.644050619932624"><ele>258.0</ele><time>2026-05-03T13:08:45.882Z</time></trkpt><trkpt lat="45.75547769704858" lon="8.643984392958068"><ele>258.0</ele><time>2026-05-03T13:08:46.882Z</time></trkpt><trkpt lat="45.75533963546104" lon="8.643908118547332"><ele>258.0</ele><time>2026-05-03T13:08:47.882Z</time></trkpt><trkpt lat="45.75518898695318" lon="8.64383509675506"><ele>257.6666666666667</ele><time>2026-05-03T13:08:48.882Z</time></trkpt><trkpt lat="45.75504205712374" lon="8.643773074941079"><ele>257.33333333333337</ele><time>2026-05-03T13:08:49.882Z</time></trkpt><trkpt lat="45.75488634377624" lon="8.643707373014829"><ele>257.0</ele><time>2026-05-03T13:08:50.882Z</time></trkpt><trkpt lat="45.75473708729202" lon="8.64363818888648"><ele>256.5</ele><time>2026-05-03T13:08:51.882Z</time></trkpt><trkpt lat="45.754602124433504" lon="8.64357665621727"><ele>256.0</ele><time>2026-05-03T13:08:52.882Z</time></trkpt><trkpt lat="45.754459282737926" lon="8.643507401227936"><ele>255.5</ele><time>2026-05-03T13:08:53.882Z</time></trkpt><trkpt lat="45.754325307140974" lon="8.643443915011243"><ele>255.0</ele><time>2026-05-03T13:08:54.882Z</time></trkpt><trkpt lat="45.7541974805815" lon="8.643389297032995"><ele>254.4</ele><time>2026-05-03T13:08:55.882Z</time></trkpt><trkpt lat="45.75408847710013" lon="8.64334364413581"><ele>253.8</ele><time>2026-05-03T13:08:56.882Z</time></trkpt><trkpt lat="45.753998117524915" lon="8.64328998689324"><ele>253.2</ele><time>2026-05-03T13:08:57.882Z</time></trkpt><trkpt lat="45.75390125301957" lon="8.643222907076604"><ele>252.6</ele><time>2026-05-03T13:08:58.882Z</time></trkpt><trkpt lat="45.75380302454981" lon="8.643124699158285"><ele>252.0</ele><time>2026-05-03T13:08:59.882Z</time></trkpt><trkpt lat="45.75373325882412" lon="8.642965926676462"><ele>251.33333333333331</ele><time>2026-05-03T13:09:00.882Z</time></trkpt><trkpt lat="45.75365776185464" lon="8.642789637531479"><ele>250.66666666666666</ele><time>2026-05-03T13:09:01.882Z</time></trkpt><trkpt lat="45.753578750063774" lon="8.642598568516595"><ele>250.0</ele><time>2026-05-03T13:09:02.882Z</time></trkpt><trkpt lat="45.75348854424363" lon="8.642409930031297"><ele>249.66666666666666</ele><time>2026-05-03T13:09:03.882Z</time></trkpt><trkpt lat="45.75340800722218" lon="8.642201382262547"><ele>249.33333333333331</ele><time>2026-05-03T13:09:04.882Z</time></trkpt><trkpt lat="45.75332220190738" lon="8.642000051936725"><ele>249.0</ele><time>2026-05-03T13:09:05.882Z</time></trkpt><trkpt lat="45.753236600331675" lon="8.641804713959953"><ele>249.0</ele><time>2026-05-03T13:09:06.882Z</time></trkpt><trkpt lat="45.75316265793213" lon="8.641618433642556"><ele>249.0</ele><time>2026-05-03T13:09:07.882Z</time></trkpt><trkpt lat="45.75308787537432" lon="8.64144483133399"><ele>249.0</ele><time>2026-05-03T13:09:08.882Z</time></trkpt><trkpt lat="45.753031917566105" lon="8.641275707080098"><ele>249.0</ele><time>2026-05-03T13:09:09.881Z</time></trkpt><trkpt lat="45.752940638486166" lon="8.641135026439716"><ele>249.0</ele><time>2026-05-03T13:09:10.881Z</time></trkpt><trkpt lat="45.75285001256422" lon="8.641010995346589"><ele>248.99999999999997</ele><time>2026-05-03T13:09:11.881Z</time></trkpt><trkpt lat="45.75275859343268" lon="8.640924650693664"><ele>248.99999999999997</ele><time>2026-05-03T13:09:12.881Z</time></trkpt><trkpt lat="45.752684067422614" lon="8.640881257483308"><ele>249.0</ele><time>2026-05-03T13:09:13.881Z</time></trkpt><trkpt lat="45.75263506521984" lon="8.640804673326612"><ele>249.0</ele><time>2026-05-03T13:09:14.881Z</time></trkpt><trkpt lat="45.75255029150744" lon="8.64075612450071"><ele>249.0</ele><time>2026-05-03T13:09:15.881Z</time></trkpt><trkpt lat="45.75244460097258" lon="8.64069475921106"><ele>249.0</ele><time>2026-05-03T13:09:16.881Z</time></trkpt><trkpt lat="45.752328311994994" lon="8.640604658884579"><ele>249.0</ele><time>2026-05-03T13:09:17.881Z</time></trkpt><trkpt lat="45.75220259107065" lon="8.640509020270912"><ele>249.0</ele><time>2026-05-03T13:09:18.881Z</time></trkpt><trkpt lat="45.75206634723869" lon="8.640424671704428"><ele>249.0</ele><time>2026-05-03T13:09:19.881Z</time></trkpt><trkpt lat="45.751909366214726" lon="8.640352228381442"><ele>249.0</ele><time>2026-05-03T13:09:20.881Z</time></trkpt><trkpt lat="45.75174557130544" lon="8.64029043156077"><ele>249.0</ele><time>2026-05-03T13:09:21.881Z</time></trkpt><trkpt lat="45.75157282638386" lon="8.640217824056288"><ele>249.0</ele><time>2026-05-03T13:09:22.881Z</time></trkpt><trkpt lat="45.75139794728407" lon="8.640144549030042"><ele>249.0</ele><time>2026-05-03T13:09:23.881Z</time></trkpt><trkpt lat="45.751221928983085" lon="8.640075127320344"><ele>249.0</ele><time>2026-05-03T13:09:24.881Z</time></trkpt><trkpt lat="45.75103062165939" lon="8.64000329169831"><ele>248.66666666666669</ele><time>2026-05-03T13:09:25.881Z</time></trkpt><trkpt lat="45.7508124930174" lon="8.639939718655151"><ele>248.33333333333334</ele><time>2026-05-03T13:09:26.881Z</time></trkpt><trkpt lat="45.750594918199575" lon="8.639911974043551"><ele>248.0</ele><time>2026-05-03T13:09:27.881Z</time></trkpt><trkpt lat="45.750379002519914" lon="8.639903651518836"><ele>249.0</ele><time>2026-05-03T13:09:28.881Z</time></trkpt><trkpt lat="45.750168641477856" lon="8.639889981268723"><ele>250.0</ele><time>2026-05-03T13:09:29.88Z</time></trkpt><trkpt lat="45.749951339922966" lon="8.63986498781652"><ele>251.0</ele><time>2026-05-03T13:09:30.88Z</time></trkpt><trkpt lat="45.74975783014522" lon="8.639854264015634"><ele>251.0</ele><time>2026-05-03T13:09:31.88Z</time></trkpt><trkpt lat="45.74954862176912" lon="8.639850158603116"><ele>251.0</ele><time>2026-05-03T13:09:32.88Z</time></trkpt><trkpt lat="45.74935374232905" lon="8.639825963515626"><ele>251.0</ele><time>2026-05-03T13:09:33.88Z</time></trkpt><trkpt lat="45.74913732506789" lon="8.63979772173889"><ele>250.66666666666669</ele><time>2026-05-03T13:09:34.88Z</time></trkpt><trkpt lat="45.748919117830056" lon="8.639794767916285"><ele>250.33333333333331</ele><time>2026-05-03T13:09:35.88Z</time></trkpt><trkpt lat="45.74871853725353" lon="8.63980879753353"><ele>250.0</ele><time>2026-05-03T13:09:36.88Z</time></trkpt><trkpt lat="45.74850757446432" lon="8.639842630144292"><ele>250.0</ele><time>2026-05-03T13:09:37.88Z</time></trkpt><trkpt lat="45.748296262174684" lon="8.639881612098618"><ele>250.0</ele><time>2026-05-03T13:09:38.88Z</time></trkpt><trkpt lat="45.74809253518827" lon="8.639928031672392"><ele>250.0</ele><time>2026-05-03T13:09:39.88Z</time></trkpt><trkpt lat="45.74788467270394" lon="8.639961004528098"><ele>250.33333333333331</ele><time>2026-05-03T13:09:40.88Z</time></trkpt><trkpt lat="45.74767512262442" lon="8.639990658941391"><ele>250.66666666666669</ele><time>2026-05-03T13:09:41.88Z</time></trkpt><trkpt lat="45.74746820970659" lon="8.640025118868095"><ele>251.0</ele><time>2026-05-03T13:09:42.88Z</time></trkpt><trkpt lat="45.74726595471405" lon="8.64006864661084"><ele>251.0</ele><time>2026-05-03T13:09:43.88Z</time></trkpt><trkpt lat="45.747067789989956" lon="8.640106489638901"><ele>251.0</ele><time>2026-05-03T13:09:44.88Z</time></trkpt><trkpt lat="45.74685950017987" lon="8.640144366160097"><ele>251.0</ele><time>2026-05-03T13:09:45.88Z</time></trkpt><trkpt lat="45.74665837583141" lon="8.640169798982676"><ele>250.0</ele><time>2026-05-03T13:09:46.88Z</time></trkpt><trkpt lat="45.74645681550854" lon="8.640201325234324"><ele>249.0</ele><time>2026-05-03T13:09:47.88Z</time></trkpt><trkpt lat="45.74625126901522" lon="8.640238000265244"><ele>248.0</ele><time>2026-05-03T13:09:48.88Z</time></trkpt><trkpt lat="45.74605263272781" lon="8.640272692316115"><ele>249.33333333333334</ele><time>2026-05-03T13:09:49.88Z</time></trkpt><trkpt lat="45.74584810020251" lon="8.640304951522442"><ele>250.66666666666669</ele><time>2026-05-03T13:09:50.879Z</time></trkpt><trkpt lat="45.74564696001744" lon="8.640330579843718"><ele>252.0</ele><time>2026-05-03T13:09:51.879Z</time></trkpt><trkpt lat="45.7454494216301" lon="8.640368006076502"><ele>252.0</ele><time>2026-05-03T13:09:52.88Z</time></trkpt><trkpt lat="45.74525220452065" lon="8.640405733915625"><ele>252.0</ele><time>2026-05-03T13:09:53.879Z</time></trkpt><trkpt lat="45.74504259551807" lon="8.64043192900771"><ele>252.0</ele><time>2026-05-03T13:09:54.879Z</time></trkpt><trkpt lat="45.74484196262649" lon="8.640467154792306"><ele>250.0</ele><time>2026-05-03T13:09:55.879Z</time></trkpt><trkpt lat="45.74463806340387" lon="8.640502842398266"><ele>248.0</ele><time>2026-05-03T13:09:56.879Z</time></trkpt><trkpt lat="45.74443561999423" lon="8.640537851912091"><ele>246.0</ele><time>2026-05-03T13:09:57.879Z</time></trkpt><trkpt lat="45.74423241691007" lon="8.640576811101466"><ele>246.0</ele><time>2026-05-03T13:09:58.879Z</time></trkpt><trkpt lat="45.74404063403694" lon="8.640637210873393"><ele>246.0</ele><time>2026-05-03T13:09:59.879Z</time></trkpt><trkpt lat="45.74384935772718" lon="8.640732199934924"><ele>246.0</ele><time>2026-05-03T13:10:00.879Z</time></trkpt><trkpt lat="45.74367707788138" lon="8.64084510356696"><ele>245.66666666666669</ele><time>2026-05-03T13:10:01.879Z</time></trkpt><trkpt lat="45.74342195082011" lon="8.641094981578608"><ele>245.33333333333334</ele><time>2026-05-03T13:10:03.879Z</time></trkpt><trkpt lat="45.74331842601656" lon="8.641187035958433"><ele>245.0</ele><time>2026-05-03T13:10:04.879Z</time></trkpt><trkpt lat="45.743218380435515" lon="8.64124708056812"><ele>245.0</ele><time>2026-05-03T13:10:05.879Z</time></trkpt><trkpt lat="45.74311479843482" lon="8.641300032343716"><ele>245.0</ele><time>2026-05-03T13:10:06.879Z</time></trkpt><trkpt lat="45.74302646569841" lon="8.641397154704226"><ele>245.0</ele><time>2026-05-03T13:10:07.879Z</time></trkpt><trkpt lat="45.74292648633255" lon="8.641528811688604"><ele>245.0</ele><time>2026-05-03T13:10:08.879Z</time></trkpt><trkpt lat="45.74281532561593" lon="8.641664135882337"><ele>245.66666666666669</ele><time>2026-05-03T13:10:09.879Z</time></trkpt><trkpt lat="45.74267218149845" lon="8.641786360789117"><ele>246.33333333333331</ele><time>2026-05-03T13:10:10.879Z</time></trkpt><trkpt lat="45.74251989262537" lon="8.641897365242087"><ele>247.0</ele><time>2026-05-03T13:10:11.879Z</time></trkpt><trkpt lat="45.74236300255252" lon="8.642035383585513"><ele>247.66666666666666</ele><time>2026-05-03T13:10:12.879Z</time></trkpt><trkpt lat="45.74221292082408" lon="8.64217423605513"><ele>248.33333333333331</ele><time>2026-05-03T13:10:13.879Z</time></trkpt><trkpt lat="45.742068353006914" lon="8.642307078287132"><ele>249.0</ele><time>2026-05-03T13:10:14.879Z</time></trkpt><trkpt lat="45.74191372904749" lon="8.642428124740356"><ele>248.66666666666669</ele><time>2026-05-03T13:10:15.879Z</time></trkpt><trkpt lat="45.7417528381546" lon="8.642540446663403"><ele>248.33333333333334</ele><time>2026-05-03T13:10:16.879Z</time></trkpt><trkpt lat="45.7415949536312" lon="8.642630690402855"><ele>248.0</ele><time>2026-05-03T13:10:17.879Z</time></trkpt><trkpt lat="45.74142989846151" lon="8.642723661121808"><ele>247.66666666666669</ele><time>2026-05-03T13:10:18.879Z</time></trkpt><trkpt lat="45.741262882023904" lon="8.642821439380784"><ele>247.33333333333331</ele><time>2026-05-03T13:10:19.879Z</time></trkpt><trkpt lat="45.74110226109787" lon="8.64290870713533"><ele>247.0</ele><time>2026-05-03T13:10:20.879Z</time></trkpt><trkpt lat="45.74095298984569" lon="8.64298155504216"><ele>247.0</ele><time>2026-05-03T13:10:21.879Z</time></trkpt><trkpt lat="45.740799924113375" lon="8.64301745497066"><ele>247.0</ele><time>2026-05-03T13:10:22.879Z</time></trkpt><trkpt lat="45.74063975577433" lon="8.643020173721279"><ele>247.0</ele><time>2026-05-03T13:10:23.879Z</time></trkpt><trkpt lat="45.74046081093993" lon="8.642987566582814"><ele>247.0</ele><time>2026-05-03T13:10:24.879Z</time></trkpt><trkpt lat="45.740279784115856" lon="8.642906974204918"><ele>247.0</ele><time>2026-05-03T13:10:25.879Z</time></trkpt><trkpt lat="45.74011583884573" lon="8.642783461268868"><ele>247.0</ele><time>2026-05-03T13:10:26.879Z</time></trkpt><trkpt lat="45.73996465989419" lon="8.642611214106557"><ele>247.25</ele><time>2026-05-03T13:10:27.879Z</time></trkpt><trkpt lat="45.73986083799663" lon="8.64244265436731"><ele>247.5</ele><time>2026-05-03T13:10:28.879Z</time></trkpt><trkpt lat="45.739760790776494" lon="8.642297858452235"><ele>247.75</ele><time>2026-05-03T13:10:29.879Z</time></trkpt><trkpt lat="45.739691752703536" lon="8.642162622426042"><ele>248.0</ele><time>2026-05-03T13:10:30.879Z</time></trkpt><trkpt lat="45.73962375177045" lon="8.64202779547873"><ele>247.75</ele><time>2026-05-03T13:10:31.879Z</time></trkpt><trkpt lat="45.739547709877336" lon="8.641890881538044"><ele>247.5</ele><time>2026-05-03T13:10:32.879Z</time></trkpt><trkpt lat="45.739462217141124" lon="8.641744737780849"><ele>247.25</ele><time>2026-05-03T13:10:33.879Z</time></trkpt><trkpt lat="45.73937138219159" lon="8.641605889368092"><ele>247.0</ele><time>2026-05-03T13:10:34.879Z</time></trkpt><trkpt lat="45.73926483941957" lon="8.641460391633476"><ele>247.66666666666666</ele><time>2026-05-03T13:10:35.879Z</time></trkpt><trkpt lat="45.73915486140198" lon="8.64132623995352"><ele>248.33333333333331</ele><time>2026-05-03T13:10:36.879Z</time></trkpt><trkpt lat="45.73903643234016" lon="8.641190942635523"><ele>249.0</ele><time>2026-05-03T13:10:37.879Z</time></trkpt><trkpt lat="45.738909210589895" lon="8.641056855380338"><ele>249.0</ele><time>2026-05-03T13:10:38.879Z</time></trkpt><trkpt lat="45.73878027615962" lon="8.640923762633294"><ele>249.0</ele><time>2026-05-03T13:10:39.879Z</time></trkpt><trkpt lat="45.73865175425655" lon="8.640802519844915"><ele>249.0</ele><time>2026-05-03T13:10:40.879Z</time></trkpt><trkpt lat="45.73851802588254" lon="8.640668810568098"><ele>249.0</ele><time>2026-05-03T13:10:41.879Z</time></trkpt><trkpt lat="45.738380444583036" lon="8.64053754921049"><ele>249.0</ele><time>2026-05-03T13:10:42.879Z</time></trkpt><trkpt lat="45.738256555237115" lon="8.640377524316072"><ele>249.0</ele><time>2026-05-03T13:10:43.879Z</time></trkpt><trkpt lat="45.738121012857015" lon="8.640233000695146"><ele>249.33333333333331</ele><time>2026-05-03T13:10:44.879Z</time></trkpt><trkpt lat="45.73798872366684" lon="8.640091945826311"><ele>249.66666666666666</ele><time>2026-05-03T13:10:45.879Z</time></trkpt><trkpt lat="45.73785992762301" lon="8.639955343277014"><ele>250.0</ele><time>2026-05-03T13:10:46.879Z</time></trkpt><trkpt lat="45.73773476739646" lon="8.639823364619788"><ele>250.0</ele><time>2026-05-03T13:10:47.879Z</time></trkpt><trkpt lat="45.737604901162" lon="8.639687530339708"><ele>250.0</ele><time>2026-05-03T13:10:48.879Z</time></trkpt><trkpt lat="45.737470984325874" lon="8.639550635917344"><ele>250.0</ele><time>2026-05-03T13:10:49.879Z</time></trkpt><trkpt lat="45.73734948487618" lon="8.639404470835087"><ele>250.0</ele><time>2026-05-03T13:10:50.879Z</time></trkpt><trkpt lat="45.73722919053368" lon="8.639242355436973"><ele>250.0</ele><time>2026-05-03T13:10:51.879Z</time></trkpt><trkpt lat="45.737150128275765" lon="8.639053699258273"><ele>250.0</ele><time>2026-05-03T13:10:52.879Z</time></trkpt><trkpt lat="45.737102296575486" lon="8.63883694657146"><ele>250.66666666666666</ele><time>2026-05-03T13:10:53.879Z</time></trkpt><trkpt lat="45.73703826475231" lon="8.638618153872194"><ele>251.33333333333331</ele><time>2026-05-03T13:10:54.879Z</time></trkpt><trkpt lat="45.736963448990785" lon="8.638401139548296"><ele>252.0</ele><time>2026-05-03T13:10:55.879Z</time></trkpt><trkpt lat="45.73689940318093" lon="8.638177108441125"><ele>251.66666666666669</ele><time>2026-05-03T13:10:56.879Z</time></trkpt><trkpt lat="45.736836217601805" lon="8.63794848265401"><ele>251.33333333333334</ele><time>2026-05-03T13:10:57.879Z</time></trkpt><trkpt lat="45.73677699223623" lon="8.637727264113058"><ele>251.0</ele><time>2026-05-03T13:10:58.879Z</time></trkpt><trkpt lat="45.736711335942736" lon="8.637509976738125"><ele>251.0</ele><time>2026-05-03T13:10:59.879Z</time></trkpt><trkpt lat="45.73663608803787" lon="8.637288602013411"><ele>251.0</ele><time>2026-05-03T13:11:00.879Z</time></trkpt><trkpt lat="45.7365445052362" lon="8.637089531040177"><ele>251.0</ele><time>2026-05-03T13:11:01.879Z</time></trkpt><trkpt lat="45.73642318808192" lon="8.636929577415158"><ele>252.33333333333334</ele><time>2026-05-03T13:11:02.879Z</time></trkpt><trkpt lat="45.736287619628" lon="8.636790971157968"><ele>253.66666666666669</ele><time>2026-05-03T13:11:03.879Z</time></trkpt><trkpt lat="45.736154649855884" lon="8.63668659639889"><ele>255.0</ele><time>2026-05-03T13:11:04.879Z</time></trkpt><trkpt lat="45.736020395547115" lon="8.636603418440991"><ele>254.5</ele><time>2026-05-03T13:11:05.879Z</time></trkpt><trkpt lat="45.73589796759102" lon="8.63651424520319"><ele>254.0</ele><time>2026-05-03T13:11:06.879Z</time></trkpt><trkpt lat="45.73578740032549" lon="8.636390949557518"><ele>253.5</ele><time>2026-05-03T13:11:07.879Z</time></trkpt><trkpt lat="45.73569088774389" lon="8.636248341623775"><ele>253.0</ele><time>2026-05-03T13:11:08.879Z</time></trkpt><trkpt lat="45.73561776980496" lon="8.636092350447116"><ele>253.0</ele><time>2026-05-03T13:11:09.879Z</time></trkpt><trkpt lat="45.73557472465462" lon="8.635905723822491"><ele>253.0</ele><time>2026-05-03T13:11:10.879Z</time></trkpt><trkpt lat="45.735527538870805" lon="8.63571368695522"><ele>253.0</ele><time>2026-05-03T13:11:11.879Z</time></trkpt><trkpt lat="45.73546277091918" lon="8.635525547949413"><ele>253.0</ele><time>2026-05-03T13:11:12.879Z</time></trkpt><trkpt lat="45.735392101479064" lon="8.635331721184365"><ele>257.0</ele><time>2026-05-03T13:11:13.879Z</time></trkpt><trkpt lat="45.73530870271702" lon="8.635141813611677"><ele>261.0</ele><time>2026-05-03T13:11:14.879Z</time></trkpt><trkpt lat="45.735231683560485" lon="8.634952684274706"><ele>265.0</ele><time>2026-05-03T13:11:15.879Z</time></trkpt><trkpt lat="45.7351611241536" lon="8.634750765791896"><ele>257.3333333333333</ele><time>2026-05-03T13:11:16.879Z</time></trkpt><trkpt lat="45.73510572823891" lon="8.634534851366817"><ele>249.66666666666669</ele><time>2026-05-03T13:11:17.879Z</time></trkpt><trkpt lat="45.73506158392203" lon="8.634313557773385"><ele>242.0</ele><time>2026-05-03T13:11:18.879Z</time></trkpt><trkpt lat="45.735025831209015" lon="8.634096387111576"><ele>242.0</ele><time>2026-05-03T13:11:19.879Z</time></trkpt><trkpt lat="45.73498915279826" lon="8.633875880559517"><ele>242.0</ele><time>2026-05-03T13:11:20.879Z</time></trkpt><trkpt lat="45.73496894049768" lon="8.633649911566692"><ele>242.0</ele><time>2026-05-03T13:11:21.879Z</time></trkpt><trkpt lat="45.73496330626135" lon="8.633420012206575"><ele>242.0</ele><time>2026-05-03T13:11:22.879Z</time></trkpt><trkpt lat="45.73496281747263" lon="8.633184148980776"><ele>242.0</ele><time>2026-05-03T13:11:23.879Z</time></trkpt><trkpt lat="45.73495494227221" lon="8.632960735843895"><ele>242.0</ele><time>2026-05-03T13:11:24.879Z</time></trkpt><trkpt lat="45.73495129230519" lon="8.632742312820298"><ele>240.5</ele><time>2026-05-03T13:11:25.879Z</time></trkpt><trkpt lat="45.73494271592329" lon="8.632538199810746"><ele>239.0</ele><time>2026-05-03T13:11:26.879Z</time></trkpt><trkpt lat="45.73492040795505" lon="8.632336434780408"><ele>237.5</ele><time>2026-05-03T13:11:27.879Z</time></trkpt><trkpt lat="45.734864174664175" lon="8.632141347979182"><ele>236.0</ele><time>2026-05-03T13:11:28.879Z</time></trkpt><trkpt lat="45.73479163719848" lon="8.631945771861842"><ele>234.0</ele><time>2026-05-03T13:11:29.879Z</time></trkpt><trkpt lat="45.73467658221858" lon="8.631794618077965"><ele>232.0</ele><time>2026-05-03T13:11:30.879Z</time></trkpt><trkpt lat="45.73455026910826" lon="8.63167863638448"><ele>230.0</ele><time>2026-05-03T13:11:31.879Z</time></trkpt><trkpt lat="45.734423338212785" lon="8.631553276722807"><ele>228.75</ele><time>2026-05-03T13:11:32.879Z</time></trkpt><trkpt lat="45.73430391231446" lon="8.631434109307692"><ele>227.5</ele><time>2026-05-03T13:11:33.879Z</time></trkpt><trkpt lat="45.734198350567546" lon="8.631301557639807"><ele>226.25</ele><time>2026-05-03T13:11:34.879Z</time></trkpt><trkpt lat="45.73407303438419" lon="8.63120359751578"><ele>225.0</ele><time>2026-05-03T13:11:35.879Z</time></trkpt><trkpt lat="45.733943654839464" lon="8.631144748046133"><ele>225.0</ele><time>2026-05-03T13:11:36.879Z</time></trkpt><trkpt lat="45.73380295308439" lon="8.631163755874416"><ele>225.0</ele><time>2026-05-03T13:11:37.879Z</time></trkpt><trkpt lat="45.73367763187835" lon="8.63120263614071"><ele>225.0</ele><time>2026-05-03T13:11:38.879Z</time></trkpt><trkpt lat="45.73354586961385" lon="8.63125209615882"><ele>225.0</ele><time>2026-05-03T13:11:39.879Z</time></trkpt><trkpt lat="45.73341108201011" lon="8.631302691706098"><ele>223.25</ele><time>2026-05-03T13:11:40.879Z</time></trkpt><trkpt lat="45.733282521356706" lon="8.631350401558098"><ele>221.5</ele><time>2026-05-03T13:11:41.879Z</time></trkpt><trkpt lat="45.73314493898907" lon="8.63140120901309"><ele>219.75</ele><time>2026-05-03T13:11:42.879Z</time></trkpt><trkpt lat="45.73301013879656" lon="8.631450984666436"><ele>218.0</ele><time>2026-05-03T13:11:43.879Z</time></trkpt><trkpt lat="45.73287885834712" lon="8.631506522299269"><ele>218.0</ele><time>2026-05-03T13:11:44.879Z</time></trkpt><trkpt lat="45.732742017714685" lon="8.631566975906368"><ele>218.0</ele><time>2026-05-03T13:11:45.879Z</time></trkpt><trkpt lat="45.73260461918919" lon="8.631616297430005"><ele>218.0</ele><time>2026-05-03T13:11:46.878Z</time></trkpt><trkpt lat="45.732470122885054" lon="8.631657858539747"><ele>218.0</ele><time>2026-05-03T13:11:47.878Z</time></trkpt><trkpt lat="45.73234542318449" lon="8.631700752034817"><ele>217.25</ele><time>2026-05-03T13:11:48.878Z</time></trkpt><trkpt lat="45.73222695685549" lon="8.631736633922284"><ele>216.5</ele><time>2026-05-03T13:11:49.879Z</time></trkpt><trkpt lat="45.732113520939144" lon="8.631778843619545"><ele>215.75</ele><time>2026-05-03T13:11:50.879Z</time></trkpt><trkpt lat="45.73200701989429" lon="8.631819150659847"><ele>215.0</ele><time>2026-05-03T13:11:51.879Z</time></trkpt><trkpt lat="45.731908380001286" lon="8.63185658370338"><ele>214.33333333333334</ele><time>2026-05-03T13:11:52.878Z</time></trkpt><trkpt lat="45.73182764926832" lon="8.63189156519861"><ele>213.66666666666669</ele><time>2026-05-03T13:11:53.878Z</time></trkpt><trkpt lat="45.731758767187586" lon="8.63191941142635"><ele>213.0</ele><time>2026-05-03T13:11:54.878Z</time></trkpt><trkpt lat="45.73169545099984" lon="8.631950910518173"><ele>212.33333333333331</ele><time>2026-05-03T13:11:55.878Z</time></trkpt><trkpt lat="45.73162671821721" lon="8.631955384922417"><ele>211.66666666666666</ele><time>2026-05-03T13:11:56.878Z</time></trkpt><trkpt lat="45.731506344329944" lon="8.631945461595715"><ele>211.0</ele><time>2026-05-03T13:11:58.878Z</time></trkpt><trkpt lat="45.73139821462662" lon="8.631950608736075"><ele>210.99999999999997</ele><time>2026-05-03T13:12:00.878Z</time></trkpt><trkpt lat="45.73133398805935" lon="8.6319883471405"><ele>211.0</ele><time>2026-05-03T13:12:01.878Z</time></trkpt><trkpt lat="45.73126055018437" lon="8.632035995531034"><ele>211.0</ele><time>2026-05-03T13:12:02.878Z</time></trkpt><trkpt lat="45.73116522410874" lon="8.632089277172062"><ele>211.0</ele><time>2026-05-03T13:12:03.878Z</time></trkpt><trkpt lat="45.73107431343567" lon="8.632135013619122"><ele>210.99999999999997</ele><time>2026-05-03T13:12:04.878Z</time></trkpt><trkpt lat="45.73098509696167" lon="8.632171060236361"><ele>211.0</ele><time>2026-05-03T13:12:05.878Z</time></trkpt><trkpt lat="45.730893187278056" lon="8.632192813675953"><ele>210.8</ele><time>2026-05-03T13:12:06.878Z</time></trkpt><trkpt lat="45.730793596321384" lon="8.632245197110272"><ele>210.60000000000002</ele><time>2026-05-03T13:12:07.878Z</time></trkpt><trkpt lat="45.73068722687159" lon="8.63227473611901"><ele>210.4</ele><time>2026-05-03T13:12:08.878Z</time></trkpt><trkpt lat="45.73057266842098" lon="8.632301943138092"><ele>210.2</ele><time>2026-05-03T13:12:09.878Z</time></trkpt><trkpt lat="45.730461828408686" lon="8.632323065751054"><ele>210.0</ele><time>2026-05-03T13:12:10.878Z</time></trkpt><trkpt lat="45.7303527881978" lon="8.632307928324726"><ele>210.0</ele><time>2026-05-03T13:12:11.878Z</time></trkpt><trkpt lat="45.730252507794354" lon="8.632308284920043"><ele>210.0</ele><time>2026-05-03T13:12:12.878Z</time></trkpt><trkpt lat="45.730157175591074" lon="8.632314531993538"><ele>210.0</ele><time>2026-05-03T13:12:13.878Z</time></trkpt><trkpt lat="45.730074898718094" lon="8.632317117036479"><ele>210.0</ele><time>2026-05-03T13:12:14.878Z</time></trkpt><trkpt lat="45.72999749606361" lon="8.632330904917932"><ele>210.0</ele><time>2026-05-03T13:12:15.878Z</time></trkpt><trkpt lat="45.72991762214733" lon="8.632345805617954"><ele>210.0</ele><time>2026-05-03T13:12:16.878Z</time></trkpt><trkpt lat="45.7298379848931" lon="8.63235568101184"><ele>210.16666666666666</ele><time>2026-05-03T13:12:17.878Z</time></trkpt><trkpt lat="45.72975666128157" lon="8.632352395022718"><ele>210.33333333333331</ele><time>2026-05-03T13:12:18.878Z</time></trkpt><trkpt lat="45.729679945846" lon="8.632347205421825"><ele>210.5</ele><time>2026-05-03T13:12:19.878Z</time></trkpt><trkpt lat="45.72960671282064" lon="8.632343841120344"><ele>210.66666666666666</ele><time>2026-05-03T13:12:20.878Z</time></trkpt><trkpt lat="45.729538224649374" lon="8.632332426893525"><ele>210.83333333333331</ele><time>2026-05-03T13:12:21.878Z</time></trkpt><trkpt lat="45.72945566244151" lon="8.632320061864382"><ele>211.0</ele><time>2026-05-03T13:12:22.878Z</time></trkpt><trkpt lat="45.72934967780316" lon="8.632313131559219"><ele>211.0</ele><time>2026-05-03T13:12:23.878Z</time></trkpt><trkpt lat="45.729232233046545" lon="8.632280754515586"><ele>211.0</ele><time>2026-05-03T13:12:24.878Z</time></trkpt><trkpt lat="45.72909683166794" lon="8.632261364862783"><ele>211.0</ele><time>2026-05-03T13:12:25.878Z</time></trkpt><trkpt lat="45.72895234040521" lon="8.632265993636114"><ele>211.0</ele><time>2026-05-03T13:12:26.878Z</time></trkpt><trkpt lat="45.728801971490945" lon="8.632281040282903"><ele>211.0</ele><time>2026-05-03T13:12:27.878Z</time></trkpt><trkpt lat="45.72864720503607" lon="8.632308038029933"><ele>211.0</ele><time>2026-05-03T13:12:28.878Z</time></trkpt><trkpt lat="45.728498216024626" lon="8.632340074848477"><ele>211.0</ele><time>2026-05-03T13:12:29.878Z</time></trkpt><trkpt lat="45.728354397320786" lon="8.63236705380509"><ele>209.66666666666666</ele><time>2026-05-03T13:12:30.878Z</time></trkpt><trkpt lat="45.72820559048323" lon="8.632398069776203"><ele>208.33333333333331</ele><time>2026-05-03T13:12:31.878Z</time></trkpt><trkpt lat="45.728032015392515" lon="8.632400542137129"><ele>207.0</ele><time>2026-05-03T13:12:32.878Z</time></trkpt><trkpt lat="45.72785071613427" lon="8.632425166429934"><ele>206.0</ele><time>2026-05-03T13:12:33.878Z</time></trkpt><trkpt lat="45.72764907296116" lon="8.632452783759575"><ele>205.0</ele><time>2026-05-03T13:12:34.878Z</time></trkpt><trkpt lat="45.72742728794783" lon="8.632481718011713"><ele>204.0</ele><time>2026-05-03T13:12:35.878Z</time></trkpt><trkpt lat="45.72718067023763" lon="8.632508050924335"><ele>204.0</ele><time>2026-05-03T13:12:36.878Z</time></trkpt><trkpt lat="45.72694305793663" lon="8.632523030582373"><ele>204.0</ele><time>2026-05-03T13:12:37.878Z</time></trkpt><trkpt lat="45.72674889113732" lon="8.632524636777267"><ele>204.0</ele><time>2026-05-03T13:12:38.878Z</time></trkpt><trkpt lat="45.72656024122494" lon="8.632516184523698"><ele>203.5</ele><time>2026-05-03T13:12:39.878Z</time></trkpt><trkpt lat="45.72640556341917" lon="8.632505777887133"><ele>203.0</ele><time>2026-05-03T13:12:40.878Z</time></trkpt><trkpt lat="45.72627871761953" lon="8.6324895217805"><ele>202.5</ele><time>2026-05-03T13:12:41.878Z</time></trkpt><trkpt lat="45.72618023573555" lon="8.632466566707198"><ele>202.0</ele><time>2026-05-03T13:12:42.878Z</time></trkpt><trkpt lat="45.72611201192836" lon="8.632340228959448"><ele>202.5</ele><time>2026-05-03T13:12:43.878Z</time></trkpt><trkpt lat="45.725997726069245" lon="8.632369712034416"><ele>203.0</ele><time>2026-05-03T13:12:44.878Z</time></trkpt><trkpt lat="45.7258627805616" lon="8.63235435091014"><ele>203.5</ele><time>2026-05-03T13:12:45.878Z</time></trkpt><trkpt lat="45.725728303858794" lon="8.632317581273341"><ele>204.0</ele><time>2026-05-03T13:12:46.878Z</time></trkpt><trkpt lat="45.725629275236216" lon="8.632282402813999"><ele>204.0</ele><time>2026-05-03T13:12:47.878Z</time></trkpt><trkpt lat="45.72555409024062" lon="8.632247546712795"><ele>204.0</ele><time>2026-05-03T13:12:48.878Z</time></trkpt><trkpt lat="45.72549234340385" lon="8.632201891786325"><ele>204.0</ele><time>2026-05-03T13:12:49.878Z</time></trkpt><trkpt lat="45.7254358470418" lon="8.632137763467167"><ele>204.0</ele><time>2026-05-03T13:12:50.878Z</time></trkpt><trkpt lat="45.72538481486419" lon="8.632074593634542"><ele>204.0</ele><time>2026-05-03T13:12:51.878Z</time></trkpt><trkpt lat="45.72530133986325" lon="8.631952702363867"><ele>204.0</ele><time>2026-05-03T13:12:53.878Z</time></trkpt><trkpt lat="45.72526518298499" lon="8.63187075633281"><ele>203.83333333333334</ele><time>2026-05-03T13:12:54.878Z</time></trkpt><trkpt lat="45.725218619910365" lon="8.63178208405058"><ele>203.66666666666669</ele><time>2026-05-03T13:12:55.878Z</time></trkpt><trkpt lat="45.7251764603681" lon="8.631672575884352"><ele>203.5</ele><time>2026-05-03T13:12:56.878Z</time></trkpt><trkpt lat="45.725145479718535" lon="8.631550095873736"><ele>203.33333333333334</ele><time>2026-05-03T13:12:57.878Z</time></trkpt><trkpt lat="45.72511479652091" lon="8.63144052206469"><ele>203.16666666666669</ele><time>2026-05-03T13:12:58.878Z</time></trkpt><trkpt lat="45.725084289268594" lon="8.631330686644109"><ele>203.0</ele><time>2026-05-03T13:12:59.878Z</time></trkpt><trkpt lat="45.72505420048549" lon="8.631209309015361"><ele>203.0</ele><time>2026-05-03T13:13:00.878Z</time></trkpt><trkpt lat="45.725024807776364" lon="8.6310878728507"><ele>203.0</ele><time>2026-05-03T13:13:01.878Z</time></trkpt><trkpt lat="45.72499158503046" lon="8.630968208273782"><ele>203.0</ele><time>2026-05-03T13:13:02.878Z</time></trkpt><trkpt lat="45.72495758301695" lon="8.630843669267211"><ele>203.0</ele><time>2026-05-03T13:13:03.878Z</time></trkpt><trkpt lat="45.724921002617855" lon="8.63071227599837"><ele>203.0</ele><time>2026-05-03T13:13:04.878Z</time></trkpt><trkpt lat="45.72488015133098" lon="8.630589980916834"><ele>203.00000000000003</ele><time>2026-05-03T13:13:05.878Z</time></trkpt><trkpt lat="45.72484123043712" lon="8.630482811753716"><ele>203.0</ele><time>2026-05-03T13:13:06.878Z</time></trkpt><trkpt lat="45.72480914982678" lon="8.63037666548075"><ele>203.0</ele><time>2026-05-03T13:13:07.878Z</time></trkpt><trkpt lat="45.724787493336464" lon="8.630272844539931"><ele>203.0</ele><time>2026-05-03T13:13:08.877Z</time></trkpt><trkpt lat="45.72476852729115" lon="8.630169470484864"><ele>203.00000000000003</ele><time>2026-05-03T13:13:09.877Z</time></trkpt><trkpt lat="45.72474181659182" lon="8.630076888254896"><ele>203.0</ele><time>2026-05-03T13:13:10.877Z</time></trkpt><trkpt lat="45.72470934149539" lon="8.629976947658243"><ele>203.8</ele><time>2026-05-03T13:13:11.877Z</time></trkpt><trkpt lat="45.72468457280558" lon="8.629870775462042"><ele>204.60000000000002</ele><time>2026-05-03T13:13:12.877Z</time></trkpt><trkpt lat="45.724664533653716" lon="8.629758175828501"><ele>205.39999999999998</ele><time>2026-05-03T13:13:13.877Z</time></trkpt><trkpt lat="45.72464926745993" lon="8.629629842717774"><ele>206.2</ele><time>2026-05-03T13:13:14.877Z</time></trkpt><trkpt lat="45.72460869755505" lon="8.629502079387457"><ele>207.0</ele><time>2026-05-03T13:13:15.877Z</time></trkpt><trkpt lat="45.72453943234169" lon="8.629388574510822"><ele>207.25</ele><time>2026-05-03T13:13:16.877Z</time></trkpt><trkpt lat="45.72450407580418" lon="8.629239605432073"><ele>207.5</ele><time>2026-05-03T13:13:17.877Z</time></trkpt><trkpt lat="45.72445369414286" lon="8.629065274493826"><ele>207.75</ele><time>2026-05-03T13:13:18.877Z</time></trkpt><trkpt lat="45.72439849991366" lon="8.628871132298645"><ele>208.0</ele><time>2026-05-03T13:13:19.877Z</time></trkpt><trkpt lat="45.724343134316605" lon="8.628675405581111"><ele>207.0</ele><time>2026-05-03T13:13:20.877Z</time></trkpt><trkpt lat="45.7242852163429" lon="8.628470995273858"><ele>206.0</ele><time>2026-05-03T13:13:21.877Z</time></trkpt><trkpt lat="45.724228649953105" lon="8.628272254966971"><ele>205.0</ele><time>2026-05-03T13:13:22.877Z</time></trkpt><trkpt lat="45.72417595733186" lon="8.628082498176855"><ele>204.0</ele><time>2026-05-03T13:13:23.877Z</time></trkpt><trkpt lat="45.72411822611718" lon="8.62790895085172"><ele>203.5</ele><time>2026-05-03T13:13:24.877Z</time></trkpt><trkpt lat="45.72404348265558" lon="8.627763826215944"><ele>203.0</ele><time>2026-05-03T13:13:25.877Z</time></trkpt><trkpt lat="45.723954244381176" lon="8.627655197005165"><ele>202.5</ele><time>2026-05-03T13:13:26.877Z</time></trkpt><trkpt lat="45.72385500404128" lon="8.6275818868488"><ele>202.0</ele><time>2026-05-03T13:13:27.877Z</time></trkpt><trkpt lat="45.72373767644365" lon="8.627545174646245"><ele>202.0</ele><time>2026-05-03T13:13:28.877Z</time></trkpt><trkpt lat="45.72360752921157" lon="8.627509153811989"><ele>202.0</ele><time>2026-05-03T13:13:29.877Z</time></trkpt><trkpt lat="45.72346613174722" lon="8.62747200672643"><ele>202.0</ele><time>2026-05-03T13:13:30.877Z</time></trkpt><trkpt lat="45.723318342509764" lon="8.62743245449961"><ele>202.0</ele><time>2026-05-03T13:13:31.877Z</time></trkpt><trkpt lat="45.723164260561504" lon="8.627390902442972"><ele>200.33333333333331</ele><time>2026-05-03T13:13:32.877Z</time></trkpt><trkpt lat="45.723000707416574" lon="8.627346796240381"><ele>198.66666666666669</ele><time>2026-05-03T13:13:33.877Z</time></trkpt><trkpt lat="45.722828231602975" lon="8.627300283819766"><ele>197.0</ele><time>2026-05-03T13:13:34.877Z</time></trkpt><trkpt lat="45.72265448394415" lon="8.62725402149011"><ele>195.0</ele><time>2026-05-03T13:13:35.877Z</time></trkpt><trkpt lat="45.72248689257687" lon="8.627210041702327"><ele>193.0</ele><time>2026-05-03T13:13:36.877Z</time></trkpt><trkpt lat="45.722329751782546" lon="8.627168002705252"><ele>191.0</ele><time>2026-05-03T13:13:37.877Z</time></trkpt><trkpt lat="45.72219320047508" lon="8.627131842564918"><ele>191.0</ele><time>2026-05-03T13:13:38.877Z</time></trkpt><trkpt lat="45.722077693021355" lon="8.627101255049652"><ele>191.0</ele><time>2026-05-03T13:13:39.877Z</time></trkpt><trkpt lat="45.72197011228041" lon="8.62709314160061"><ele>191.0</ele><time>2026-05-03T13:13:40.877Z</time></trkpt><trkpt lat="45.721874716283104" lon="8.627053907400546"><ele>191.0</ele><time>2026-05-03T13:13:41.877Z</time></trkpt><trkpt lat="45.72178181215411" lon="8.627027908258295"><ele>191.0</ele><time>2026-05-03T13:13:42.877Z</time></trkpt><trkpt lat="45.721689832345376" lon="8.626995956662334"><ele>192.16666666666666</ele><time>2026-05-03T13:13:43.877Z</time></trkpt><trkpt lat="45.721603891817594" lon="8.626971931193612"><ele>193.33333333333331</ele><time>2026-05-03T13:13:44.877Z</time></trkpt><trkpt lat="45.72152353380308" lon="8.62695735009472"><ele>194.5</ele><time>2026-05-03T13:13:45.877Z</time></trkpt><trkpt lat="45.72144769080591" lon="8.626941232837083"><ele>195.66666666666666</ele><time>2026-05-03T13:13:46.877Z</time></trkpt><trkpt lat="45.72136664732188" lon="8.626917926641394"><ele>196.83333333333334</ele><time>2026-05-03T13:13:47.877Z</time></trkpt><trkpt lat="45.721296335007835" lon="8.626852426817845"><ele>198.0</ele><time>2026-05-03T13:13:48.877Z</time></trkpt><trkpt lat="45.72122645243608" lon="8.626764095030476"><ele>198.0</ele><time>2026-05-03T13:13:49.877Z</time></trkpt><trkpt lat="45.72115138667637" lon="8.626655702980887"><ele>198.0</ele><time>2026-05-03T13:13:50.877Z</time></trkpt><trkpt lat="45.7210658658481" lon="8.626549346186833"><ele>198.0</ele><time>2026-05-03T13:13:51.877Z</time></trkpt><trkpt lat="45.720968059582795" lon="8.626466333841917"><ele>198.0</ele><time>2026-05-03T13:13:52.877Z</time></trkpt><trkpt lat="45.72085891123396" lon="8.626411481217694"><ele>198.0</ele><time>2026-05-03T13:13:53.876Z</time></trkpt><trkpt lat="45.72075207850227" lon="8.626353065060409"><ele>199.4</ele><time>2026-05-03T13:13:54.876Z</time></trkpt><trkpt lat="45.72064340448796" lon="8.626291907460269"><ele>200.8</ele><time>2026-05-03T13:13:55.877Z</time></trkpt><trkpt lat="45.720539244839394" lon="8.626228138705702"><ele>202.2</ele><time>2026-05-03T13:13:56.877Z</time></trkpt><trkpt lat="45.72043840168034" lon="8.626169325726064"><ele>203.6</ele><time>2026-05-03T13:13:57.877Z</time></trkpt><trkpt lat="45.72034859020507" lon="8.626097022651988"><ele>205.0</ele><time>2026-05-03T13:13:58.876Z</time></trkpt><trkpt lat="45.72026687431319" lon="8.626021740062876"><ele>205.16666666666666</ele><time>2026-05-03T13:13:59.876Z</time></trkpt><trkpt lat="45.72019136075863" lon="8.62594362045036"><ele>205.33333333333331</ele><time>2026-05-03T13:14:00.876Z</time></trkpt><trkpt lat="45.720125931585294" lon="8.62588453718184"><ele>205.5</ele><time>2026-05-03T13:14:01.877Z</time></trkpt><trkpt lat="45.720072576594916" lon="8.625824989255294"><ele>205.66666666666669</ele><time>2026-05-03T13:14:02.877Z</time></trkpt><trkpt lat="45.72000888338924" lon="8.625688831709285"><ele>205.83333333333334</ele><time>2026-05-03T13:14:04.877Z</time></trkpt><trkpt lat="45.71998909400098" lon="8.625585956511948"><ele>206.0</ele><time>2026-05-03T13:14:05.876Z</time></trkpt><trkpt lat="45.71996453269348" lon="8.625486153095485"><ele>206.0</ele><time>2026-05-03T13:14:06.876Z</time></trkpt><trkpt lat="45.71992178823229" lon="8.625381217077699"><ele>206.0</ele><time>2026-05-03T13:14:07.876Z</time></trkpt><trkpt lat="45.7198950984681" lon="8.625262668272937"><ele>206.0</ele><time>2026-05-03T13:14:08.876Z</time></trkpt><trkpt lat="45.71988224357986" lon="8.625126252799731"><ele>206.0</ele><time>2026-05-03T13:14:09.876Z</time></trkpt><trkpt lat="45.71987655833619" lon="8.624970121036164"><ele>206.0</ele><time>2026-05-03T13:14:10.876Z</time></trkpt><trkpt lat="45.7198770497447" lon="8.624803004906765"><ele>206.75</ele><time>2026-05-03T13:14:11.876Z</time></trkpt><trkpt lat="45.719874215874846" lon="8.624632727400515"><ele>207.5</ele><time>2026-05-03T13:14:12.876Z</time></trkpt><trkpt lat="45.719873857585945" lon="8.624452589768113"><ele>208.25</ele><time>2026-05-03T13:14:13.876Z</time></trkpt><trkpt lat="45.719867206485034" lon="8.62426443083925"><ele>209.0</ele><time>2026-05-03T13:14:14.876Z</time></trkpt><trkpt lat="45.71986044212736" lon="8.624066977439533"><ele>209.25</ele><time>2026-05-03T13:14:15.876Z</time></trkpt><trkpt lat="45.71985649073999" lon="8.623863185257692"><ele>209.5</ele><time>2026-05-03T13:14:16.876Z</time></trkpt><trkpt lat="45.71985580438244" lon="8.623655751399099"><ele>209.75</ele><time>2026-05-03T13:14:17.876Z</time></trkpt><trkpt lat="45.71985686362797" lon="8.623447093390118"><ele>210.0</ele><time>2026-05-03T13:14:18.876Z</time></trkpt><trkpt lat="45.719857493666815" lon="8.623234324461736"><ele>210.0</ele><time>2026-05-03T13:14:19.876Z</time></trkpt><trkpt lat="45.719854757391" lon="8.623020989352675"><ele>210.0</ele><time>2026-05-03T13:14:20.876Z</time></trkpt><trkpt lat="45.7198568212924" lon="8.622801832339485"><ele>210.0</ele><time>2026-05-03T13:14:21.876Z</time></trkpt><trkpt lat="45.719863831217516" lon="8.622585211033691"><ele>210.0</ele><time>2026-05-03T13:14:22.876Z</time></trkpt><trkpt lat="45.7198536900353" lon="8.622377202716528"><ele>210.0</ele><time>2026-05-03T13:14:23.876Z</time></trkpt><trkpt lat="45.71984178949972" lon="8.622161535877368"><ele>210.0</ele><time>2026-05-03T13:14:24.876Z</time></trkpt><trkpt lat="45.71982192140351" lon="8.621934785742397"><ele>209.66666666666669</ele><time>2026-05-03T13:14:25.876Z</time></trkpt><trkpt lat="45.719806720624014" lon="8.621714203459062"><ele>209.33333333333334</ele><time>2026-05-03T13:14:26.876Z</time></trkpt><trkpt lat="45.71980320911946" lon="8.621504089670548"><ele>209.0</ele><time>2026-05-03T13:14:27.876Z</time></trkpt><trkpt lat="45.71980070813119" lon="8.621289772149956"><ele>208.33333333333334</ele><time>2026-05-03T13:14:28.876Z</time></trkpt><trkpt lat="45.71979660343816" lon="8.621069106005715"><ele>207.66666666666669</ele><time>2026-05-03T13:14:29.876Z</time></trkpt><trkpt lat="45.71979227688988" lon="8.620843016080318"><ele>207.0</ele><time>2026-05-03T13:14:30.876Z</time></trkpt><trkpt lat="45.7197877186969" lon="8.620619988566562"><ele>207.0</ele><time>2026-05-03T13:14:31.876Z</time></trkpt><trkpt lat="45.71977273099427" lon="8.62039581779407"><ele>207.0</ele><time>2026-05-03T13:14:32.876Z</time></trkpt><trkpt lat="45.71977807507517" lon="8.620157409083774"><ele>207.0</ele><time>2026-05-03T13:14:33.876Z</time></trkpt><trkpt lat="45.71976376533401" lon="8.619925256859565"><ele>207.66666666666669</ele><time>2026-05-03T13:14:34.876Z</time></trkpt><trkpt lat="45.71975401210396" lon="8.619693054780562"><ele>208.33333333333334</ele><time>2026-05-03T13:14:35.876Z</time></trkpt><trkpt lat="45.71974681207303" lon="8.619457394927842"><ele>209.0</ele><time>2026-05-03T13:14:36.876Z</time></trkpt><trkpt lat="45.719739532291506" lon="8.619225169707963"><ele>209.0</ele><time>2026-05-03T13:14:37.876Z</time></trkpt><trkpt lat="45.71975094379403" lon="8.61900219704962"><ele>209.0</ele><time>2026-05-03T13:14:38.876Z</time></trkpt><trkpt lat="45.719746627471146" lon="8.618794061670958"><ele>209.0</ele><time>2026-05-03T13:14:39.876Z</time></trkpt><trkpt lat="45.71971743300546" lon="8.618593217032108"><ele>209.0</ele><time>2026-05-03T13:14:40.876Z</time></trkpt><trkpt lat="45.71970265381787" lon="8.618408523341005"><ele>209.25</ele><time>2026-05-03T13:14:41.876Z</time></trkpt><trkpt lat="45.71969385254235" lon="8.61823640988714"><ele>209.5</ele><time>2026-05-03T13:14:42.876Z</time></trkpt><trkpt lat="45.719689127405445" lon="8.618078655088775"><ele>209.75</ele><time>2026-05-03T13:14:43.876Z</time></trkpt><trkpt lat="45.719673634144044" lon="8.61791613070547"><ele>210.0</ele><time>2026-05-03T13:14:44.876Z</time></trkpt><trkpt lat="45.7196570437207" lon="8.617754139711943"><ele>210.0</ele><time>2026-05-03T13:14:45.876Z</time></trkpt><trkpt lat="45.71964007816203" lon="8.617600152360403"><ele>210.0</ele><time>2026-05-03T13:14:46.876Z</time></trkpt><trkpt lat="45.719638416542196" lon="8.617447299537847"><ele>210.0</ele><time>2026-05-03T13:14:47.876Z</time></trkpt><trkpt lat="45.719631700147474" lon="8.617304079928754"><ele>210.0</ele><time>2026-05-03T13:14:48.876Z</time></trkpt><trkpt lat="45.71970570852616" lon="8.617143556980912"><ele>210.0</ele><time>2026-05-03T13:14:49.876Z</time></trkpt><trkpt lat="45.71968566754714" lon="8.617005775960576"><ele>210.0</ele><time>2026-05-03T13:14:50.876Z</time></trkpt><trkpt lat="45.719658435302144" lon="8.616885628239132"><ele>210.0</ele><time>2026-05-03T13:14:51.876Z</time></trkpt><trkpt lat="45.7196318529042" lon="8.616789672695294"><ele>210.0</ele><time>2026-05-03T13:14:52.876Z</time></trkpt><trkpt lat="45.719606557976974" lon="8.61670293761061"><ele>210.0</ele><time>2026-05-03T13:14:53.876Z</time></trkpt><trkpt lat="45.71959606652782" lon="8.616602369616485"><ele>210.0</ele><time>2026-05-03T13:14:54.876Z</time></trkpt><trkpt lat="45.71959393840549" lon="8.616481425446553"><ele>209.75</ele><time>2026-05-03T13:14:55.876Z</time></trkpt><trkpt lat="45.71959374775014" lon="8.616348337294106"><ele>209.5</ele><time>2026-05-03T13:14:56.876Z</time></trkpt><trkpt lat="45.71960937125796" lon="8.616189463461145"><ele>209.25</ele><time>2026-05-03T13:14:57.876Z</time></trkpt><trkpt lat="45.719720576218165" lon="8.616005827269175"><ele>209.0</ele><time>2026-05-03T13:14:58.876Z</time></trkpt><trkpt lat="45.719678579341576" lon="8.615808257674157"><ele>209.25</ele><time>2026-05-03T13:14:59.876Z</time></trkpt><trkpt lat="45.71965804611365" lon="8.615613639358628"><ele>209.5</ele><time>2026-05-03T13:15:00.876Z</time></trkpt><trkpt lat="45.71966119338472" lon="8.615424955131433"><ele>209.75</ele><time>2026-05-03T13:15:01.876Z</time></trkpt><trkpt lat="45.71966200256587" lon="8.615240568334842"><ele>210.0</ele><time>2026-05-03T13:15:02.876Z</time></trkpt><trkpt lat="45.71966651361506" lon="8.615071274407688"><ele>210.0</ele><time>2026-05-03T13:15:03.876Z</time></trkpt><trkpt lat="45.71967412995596" lon="8.614913732841945"><ele>210.0</ele><time>2026-05-03T13:15:04.876Z</time></trkpt><trkpt lat="45.71966779072561" lon="8.61474918010002"><ele>210.0</ele><time>2026-05-03T13:15:05.876Z</time></trkpt><trkpt lat="45.7196608282783" lon="8.614597176127708"><ele>210.0</ele><time>2026-05-03T13:15:06.876Z</time></trkpt><trkpt lat="45.71965056621015" lon="8.614450565373238"><ele>210.0</ele><time>2026-05-03T13:15:07.876Z</time></trkpt><trkpt lat="45.71964408656021" lon="8.6143144182639"><ele>209.83333333333334</ele><time>2026-05-03T13:15:08.876Z</time></trkpt><trkpt lat="45.71964136491878" lon="8.614189123984392"><ele>209.66666666666669</ele><time>2026-05-03T13:15:09.876Z</time></trkpt><trkpt lat="45.719641316524466" lon="8.61406903501321"><ele>209.5</ele><time>2026-05-03T13:15:10.876Z</time></trkpt><trkpt lat="45.71964761320806" lon="8.613935324668983"><ele>209.33333333333334</ele><time>2026-05-03T13:15:11.876Z</time></trkpt><trkpt lat="45.719653891263285" lon="8.613805137867187"><ele>209.16666666666669</ele><time>2026-05-03T13:15:12.876Z</time></trkpt><trkpt lat="45.71966190536609" lon="8.613672863183398"><ele>209.0</ele><time>2026-05-03T13:15:13.876Z</time></trkpt><trkpt lat="45.71967271709913" lon="8.613532621652965"><ele>209.0</ele><time>2026-05-03T13:15:14.876Z</time></trkpt><trkpt lat="45.719688169305705" lon="8.613390813065042"><ele>209.0</ele><time>2026-05-03T13:15:15.876Z</time></trkpt><trkpt lat="45.71968241941937" lon="8.613245131432654"><ele>209.0</ele><time>2026-05-03T13:15:16.876Z</time></trkpt><trkpt lat="45.71967849388986" lon="8.613106498974242"><ele>209.0</ele><time>2026-05-03T13:15:17.876Z</time></trkpt><trkpt lat="45.7196799922236" lon="8.612974896900658"><ele>209.0</ele><time>2026-05-03T13:15:18.876Z</time></trkpt><trkpt lat="45.7196914598901" lon="8.612853222343299"><ele>209.00000000000003</ele><time>2026-05-03T13:15:19.876Z</time></trkpt><trkpt lat="45.71970387558289" lon="8.612738969371225"><ele>209.0</ele><time>2026-05-03T13:15:20.876Z</time></trkpt><trkpt lat="45.71965603980469" lon="8.612587462097244"><ele>209.0</ele><time>2026-05-03T13:15:21.876Z</time></trkpt><trkpt lat="45.71968724841356" lon="8.612497000940419"><ele>209.0</ele><time>2026-05-03T13:15:22.876Z</time></trkpt><trkpt lat="45.71969136054405" lon="8.612388659383981"><ele>209.00000000000003</ele><time>2026-05-03T13:15:23.876Z</time></trkpt><trkpt lat="45.71972009068663" lon="8.612254239319565"><ele>209.0</ele><time>2026-05-03T13:15:25.876Z</time></trkpt><trkpt lat="45.719805297381065" lon="8.61213294377743"><ele>209.0</ele><time>2026-05-03T13:15:27.876Z</time></trkpt><trkpt lat="45.719843789571534" lon="8.612043516557678"><ele>209.0</ele><time>2026-05-03T13:15:28.876Z</time></trkpt><trkpt lat="45.71985444468719" lon="8.611913004068398"><ele>209.0</ele><time>2026-05-03T13:15:29.876Z</time></trkpt><trkpt lat="45.71985186050705" lon="8.611759886584805"><ele>209.0</ele><time>2026-05-03T13:15:30.876Z</time></trkpt><trkpt lat="45.719872487590095" lon="8.611604039582636"><ele>209.0</ele><time>2026-05-03T13:15:31.876Z</time></trkpt><trkpt lat="45.71990309814553" lon="8.611456970204854"><ele>209.0</ele><time>2026-05-03T13:15:32.876Z</time></trkpt><trkpt lat="45.719959132444735" lon="8.611320828031067"><ele>209.0</ele><time>2026-05-03T13:15:33.876Z</time></trkpt><trkpt lat="45.7200377167554" lon="8.611205032806456"><ele>209.0</ele><time>2026-05-03T13:15:34.876Z</time></trkpt><trkpt lat="45.720155439559726" lon="8.611136551862437"><ele>209.0</ele><time>2026-05-03T13:15:35.876Z</time></trkpt><trkpt lat="45.72026193284909" lon="8.611035678042219"><ele>208.5</ele><time>2026-05-03T13:15:36.876Z</time></trkpt><trkpt lat="45.720372182292614" lon="8.610918892671343"><ele>208.0</ele><time>2026-05-03T13:15:37.877Z</time></trkpt><trkpt lat="45.72047801607768" lon="8.610807949048176"><ele>207.5</ele><time>2026-05-03T13:15:38.878Z</time></trkpt><trkpt lat="45.72059276898124" lon="8.61069825942104"><ele>207.0</ele><time>2026-05-03T13:15:39.878Z</time></trkpt><trkpt lat="45.72070974297716" lon="8.610580706671685"><ele>207.0</ele><time>2026-05-03T13:15:40.879Z</time></trkpt><trkpt lat="45.72082842957124" lon="8.61046597905043"><ele>207.0</ele><time>2026-05-03T13:15:41.88Z</time></trkpt><trkpt lat="45.72094292321707" lon="8.61037270185153"><ele>207.0</ele><time>2026-05-03T13:15:42.881Z</time></trkpt><trkpt lat="45.72104814172496" lon="8.61028681855998"><ele>207.0</ele><time>2026-05-03T13:15:43.882Z</time></trkpt><trkpt lat="45.72114941058058" lon="8.610198297583063"><ele>206.25</ele><time>2026-05-03T13:15:44.882Z</time></trkpt><trkpt lat="45.72125357106387" lon="8.61013185365542"><ele>205.5</ele><time>2026-05-03T13:15:45.883Z</time></trkpt><trkpt lat="45.721344282738244" lon="8.610018444256356"><ele>204.75</ele><time>2026-05-03T13:15:46.884Z</time></trkpt><trkpt lat="45.72142749457214" lon="8.609895701466082"><ele>204.0</ele><time>2026-05-03T13:15:47.884Z</time></trkpt><trkpt lat="45.72154115964255" lon="8.609799679232985"><ele>204.0</ele><time>2026-05-03T13:15:48.885Z</time></trkpt><trkpt lat="45.72166431660619" lon="8.609703778086377"><ele>204.0</ele><time>2026-05-03T13:15:49.885Z</time></trkpt><trkpt lat="45.72179171387593" lon="8.609582295458585"><ele>204.0</ele><time>2026-05-03T13:15:50.886Z</time></trkpt><trkpt lat="45.72192990981044" lon="8.609476795868725"><ele>203.33333333333331</ele><time>2026-05-03T13:15:51.886Z</time></trkpt><trkpt lat="45.72207469366784" lon="8.609377591501556"><ele>202.66666666666666</ele><time>2026-05-03T13:15:52.886Z</time></trkpt><trkpt lat="45.72220603859198" lon="8.609230528704456"><ele>202.0</ele><time>2026-05-03T13:15:53.887Z</time></trkpt><trkpt lat="45.722347971679476" lon="8.609111731519484"><ele>202.0</ele><time>2026-05-03T13:15:54.887Z</time></trkpt><trkpt lat="45.72248287041279" lon="8.608992724244443"><ele>202.0</ele><time>2026-05-03T13:15:55.887Z</time></trkpt><trkpt lat="45.722599516600745" lon="8.608872282406228"><ele>202.0</ele><time>2026-05-03T13:15:56.888Z</time></trkpt><trkpt lat="45.722712637241656" lon="8.608757421852646"><ele>202.0</ele><time>2026-05-03T13:15:57.888Z</time></trkpt><trkpt lat="45.72281530623362" lon="8.60868099856227"><ele>201.6</ele><time>2026-05-03T13:15:58.887Z</time></trkpt><trkpt lat="45.7229010096038" lon="8.608611831475335"><ele>201.2</ele><time>2026-05-03T13:15:59.888Z</time></trkpt><trkpt lat="45.722962740719716" lon="8.608545526937018"><ele>200.8</ele><time>2026-05-03T13:16:00.888Z</time></trkpt><trkpt lat="45.72301678090357" lon="8.608493201424137"><ele>200.4</ele><time>2026-05-03T13:16:01.888Z</time></trkpt><trkpt lat="45.72309823232655" lon="8.608464845338393"><ele>200.0</ele><time>2026-05-03T13:16:03.888Z</time></trkpt><trkpt lat="45.722990066589546" lon="8.608170383265117"><ele>200.0</ele><time>2026-05-03T13:16:05.889Z</time></trkpt><trkpt lat="45.722937782569424" lon="8.6080590878742"><ele>200.0</ele><time>2026-05-03T13:16:06.889Z</time></trkpt><trkpt lat="45.722874197356106" lon="8.607943240869396"><ele>200.0</ele><time>2026-05-03T13:16:07.889Z</time></trkpt><trkpt lat="45.722824171273835" lon="8.607827060772427"><ele>200.0</ele><time>2026-05-03T13:16:08.889Z</time></trkpt><trkpt lat="45.722780680045204" lon="8.607730437249199"><ele>200.0</ele><time>2026-05-03T13:16:09.889Z</time></trkpt><trkpt lat="45.72274450308326" lon="8.607627593181675"><ele>200.50000000000003</ele><time>2026-05-03T13:16:10.889Z</time></trkpt><trkpt lat="45.722716586169575" lon="8.607529331559336"><ele>201.0</ele><time>2026-05-03T13:16:11.889Z</time></trkpt><trkpt lat="45.72269412890124" lon="8.607432258568696"><ele>201.5</ele><time>2026-05-03T13:16:12.889Z</time></trkpt><trkpt lat="45.72267456263489" lon="8.607341743895246"><ele>202.0</ele><time>2026-05-03T13:16:13.89Z</time></trkpt><trkpt lat="45.72265387337989" lon="8.607255649720232"><ele>202.50000000000003</ele><time>2026-05-03T13:16:14.89Z</time></trkpt><trkpt lat="45.72261976623307" lon="8.607092287132089"><ele>203.0</ele><time>2026-05-03T13:16:16.89Z</time></trkpt><trkpt lat="45.72259339600331" lon="8.606957460611115"><ele>203.0</ele><time>2026-05-03T13:16:18.89Z</time></trkpt><trkpt lat="45.722548532573185" lon="8.606859552285991"><ele>203.0</ele><time>2026-05-03T13:16:20.89Z</time></trkpt><trkpt lat="45.72251606927962" lon="8.606769894326668"><ele>203.0</ele><time>2026-05-03T13:16:22.89Z</time></trkpt><trkpt lat="45.7225485522282" lon="8.60668094883588"><ele>203.0</ele><time>2026-05-03T13:16:53.891Z</time></trkpt><trkpt lat="45.72261382729275" lon="8.606679206956382"><ele>203.0</ele><time>2026-05-03T13:17:13.891Z</time></trkpt></trkseg></trk></gpx>